<?xml version="1.0" encoding="UTF-8" standalone="no" ?>
<gpx xmlns="http://www.topografix.com/GPX/1/1" xmlns:xsi="http://www.w3.org/2001/XMLSchema-instance" xsi:schemaLocation="http://www.topografix.com/GPX/1/1 http://www.topografix.com/GPX/1/1/gpx.xsd" version="1.1" creator="VisuGPX - https://www.visugpx.com">
  <metadata>
    <name>Edirne-Mostar</name>
  </metadata>
  <trk>
    <name><![CDATA[Tour d'Europe: étape 702]]></name>
    <extensions>
      <line xmlns="http://www.topografix.com/GPX/gpx_style/0/2">
        <color>FFFF00</color>
        <width>4</width>
      </line>
    </extensions>
    <trkseg>
      <trkpt lat="42.4279" lon="18.77223">
        <ele>55.233286</ele>
        <time>2022-05-31T08:07:23.561Z</time>
      </trkpt>
      <trkpt lat="42.42779" lon="18.77208">
        <ele>55.233286</ele>
        <time>2022-05-31T08:07:26.561Z</time>
      </trkpt>
      <trkpt lat="42.42773" lon="18.77241">
        <ele>55.233286</ele>
        <time>2022-05-31T08:11:16.541Z</time>
      </trkpt>
      <trkpt lat="42.42764" lon="18.77243">
        <ele>55.233286</ele>
        <time>2022-05-31T08:11:20.540Z</time>
      </trkpt>
      <trkpt lat="42.42755" lon="18.77248">
        <ele>55.233286</ele>
        <time>2022-05-31T08:11:25.530Z</time>
      </trkpt>
      <trkpt lat="42.42747" lon="18.77258">
        <ele>55.233286</ele>
        <time>2022-05-31T08:11:29.544Z</time>
      </trkpt>
      <trkpt lat="42.42739" lon="18.77266">
        <ele>55.233286</ele>
        <time>2022-05-31T08:11:36.542Z</time>
      </trkpt>
      <trkpt lat="42.42728" lon="18.77268">
        <ele>55.166346</ele>
        <time>2022-05-31T08:11:41.585Z</time>
      </trkpt>
      <trkpt lat="42.42721" lon="18.77259">
        <ele>54.891818</ele>
        <time>2022-05-31T08:12:00.540Z</time>
      </trkpt>
      <trkpt lat="42.42722" lon="18.77247">
        <ele>54.621784</ele>
        <time>2022-05-31T08:12:03.589Z</time>
      </trkpt>
      <trkpt lat="42.42723" lon="18.77231">
        <ele>54.279297</ele>
        <time>2022-05-31T08:12:07.543Z</time>
      </trkpt>
      <trkpt lat="42.42726" lon="18.77219">
        <ele>54.010296</ele>
        <time>2022-05-31T08:12:10.542Z</time>
      </trkpt>
      <trkpt lat="42.4273" lon="18.77205">
        <ele>53.683499</ele>
        <time>2022-05-31T08:12:13.555Z</time>
      </trkpt>
      <trkpt lat="42.42734" lon="18.77192">
        <ele>53.387306</ele>
        <time>2022-05-31T08:12:16.557Z</time>
      </trkpt>
      <trkpt lat="42.42738" lon="18.7718">
        <ele>53.099134</ele>
        <time>2022-05-31T08:12:20.534Z</time>
      </trkpt>
      <trkpt lat="42.42742" lon="18.77167">
        <ele>52.80491</ele>
        <time>2022-05-31T08:12:25.548Z</time>
      </trkpt>
      <trkpt lat="42.42744" lon="18.77154">
        <ele>52.515505</ele>
        <time>2022-05-31T08:12:29.547Z</time>
      </trkpt>
      <trkpt lat="42.42746" lon="18.77141">
        <ele>52.229061</ele>
        <time>2022-05-31T08:12:32.545Z</time>
      </trkpt>
      <trkpt lat="42.42749" lon="18.77128">
        <ele>51.936535</ele>
        <time>2022-05-31T08:12:35.538Z</time>
      </trkpt>
      <trkpt lat="42.42752" lon="18.77117">
        <ele>51.673502</ele>
        <time>2022-05-31T08:12:38.567Z</time>
      </trkpt>
      <trkpt lat="42.42754" lon="18.77103">
        <ele>51.381492</ele>
        <time>2022-05-31T08:12:41.542Z</time>
      </trkpt>
      <trkpt lat="42.42757" lon="18.77087">
        <ele>51.036549</ele>
        <time>2022-05-31T08:12:44.541Z</time>
      </trkpt>
      <trkpt lat="42.4276" lon="18.77074">
        <ele>50.741301</ele>
        <time>2022-05-31T08:12:47.554Z</time>
      </trkpt>
      <trkpt lat="42.42763" lon="18.77061">
        <ele>50.434735</ele>
        <time>2022-05-31T08:12:50.559Z</time>
      </trkpt>
      <trkpt lat="42.4277" lon="18.77011">
        <ele>50.573806</ele>
        <time>2022-05-31T08:15:34.519Z</time>
      </trkpt>
      <trkpt lat="42.42771" lon="18.76998">
        <ele>50.826505</ele>
        <time>2022-05-31T08:15:37.513Z</time>
      </trkpt>
      <trkpt lat="42.4277" lon="18.76984">
        <ele>51.090615</ele>
        <time>2022-05-31T08:15:40.523Z</time>
      </trkpt>
      <trkpt lat="42.42769" lon="18.7697">
        <ele>51.367861</ele>
        <time>2022-05-31T08:15:43.532Z</time>
      </trkpt>
      <trkpt lat="42.42769" lon="18.76954">
        <ele>51.677049</ele>
        <time>2022-05-31T08:15:46.573Z</time>
      </trkpt>
      <trkpt lat="42.42772" lon="18.76941">
        <ele>51.927378</ele>
        <time>2022-05-31T08:15:49.548Z</time>
      </trkpt>
      <trkpt lat="42.42776" lon="18.7693">
        <ele>52.159756</ele>
        <time>2022-05-31T08:15:52.547Z</time>
      </trkpt>
      <trkpt lat="42.42779" lon="18.76918">
        <ele>52.40499</ele>
        <time>2022-05-31T08:15:55.581Z</time>
      </trkpt>
      <trkpt lat="42.42789" lon="18.76912">
        <ele>52.680854</ele>
        <time>2022-05-31T08:15:59.526Z</time>
      </trkpt>
      <trkpt lat="42.42797" lon="18.76919">
        <ele>52.93222</ele>
        <time>2022-05-31T08:16:02.543Z</time>
      </trkpt>
      <trkpt lat="42.42807" lon="18.76923">
        <ele>53.203689</ele>
        <time>2022-05-31T08:16:05.550Z</time>
      </trkpt>
      <trkpt lat="42.42819" lon="18.76925">
        <ele>53.514964</ele>
        <time>2022-05-31T08:16:08.551Z</time>
      </trkpt>
      <trkpt lat="42.42828" lon="18.76928">
        <ele>53.756607</ele>
        <time>2022-05-31T08:16:10.565Z</time>
      </trkpt>
      <trkpt lat="42.42841" lon="18.7693">
        <ele>54.090122</ele>
        <time>2022-05-31T08:16:13.551Z</time>
      </trkpt>
      <trkpt lat="42.42852" lon="18.76931">
        <ele>54.369815</ele>
        <time>2022-05-31T08:16:16.578Z</time>
      </trkpt>
      <trkpt lat="42.42863" lon="18.76934">
        <ele>54.695804</ele>
        <time>2022-05-31T08:16:20.531Z</time>
      </trkpt>
      <trkpt lat="42.42874" lon="18.76937">
        <ele>55.705761</ele>
        <time>2022-05-31T08:16:24.552Z</time>
      </trkpt>
      <trkpt lat="42.42884" lon="18.76938">
        <ele>56.622071</ele>
        <time>2022-05-31T08:16:28.549Z</time>
      </trkpt>
      <trkpt lat="42.42894" lon="18.76939">
        <ele>57.516209</ele>
        <time>2022-05-31T08:16:33.575Z</time>
      </trkpt>
      <trkpt lat="42.42903" lon="18.7694">
        <ele>58.385249</ele>
        <time>2022-05-31T08:16:38.537Z</time>
      </trkpt>
      <trkpt lat="42.42914" lon="18.7694">
        <ele>59.324049</ele>
        <time>2022-05-31T08:16:45.556Z</time>
      </trkpt>
      <trkpt lat="42.42923" lon="18.76942">
        <ele>60.187553</ele>
        <time>2022-05-31T08:16:52.556Z</time>
      </trkpt>
      <trkpt lat="42.42933" lon="18.7694">
        <ele>61.126925</ele>
        <time>2022-05-31T08:16:57.544Z</time>
      </trkpt>
      <trkpt lat="42.42942" lon="18.76938">
        <ele>61.972345</ele>
        <time>2022-05-31T08:17:01.547Z</time>
      </trkpt>
      <trkpt lat="42.42952" lon="18.76936">
        <ele>62.881084</ele>
        <time>2022-05-31T08:17:07.583Z</time>
      </trkpt>
      <trkpt lat="42.42962" lon="18.76932">
        <ele>63.789839</ele>
        <time>2022-05-31T08:17:13.569Z</time>
      </trkpt>
      <trkpt lat="42.42971" lon="18.76928">
        <ele>64.685497</ele>
        <time>2022-05-31T08:17:20.538Z</time>
      </trkpt>
      <trkpt lat="42.42981" lon="18.76924">
        <ele>65.59196</ele>
        <time>2022-05-31T08:17:26.550Z</time>
      </trkpt>
      <trkpt lat="42.42989" lon="18.76919">
        <ele>66.436045</ele>
        <time>2022-05-31T08:17:31.546Z</time>
      </trkpt>
      <trkpt lat="42.42998" lon="18.76914">
        <ele>67.344429</ele>
        <time>2022-05-31T08:17:37.532Z</time>
      </trkpt>
      <trkpt lat="42.43008" lon="18.76909">
        <ele>68.261709</ele>
        <time>2022-05-31T08:17:44.538Z</time>
      </trkpt>
      <trkpt lat="42.43017" lon="18.76905">
        <ele>69.179152</ele>
        <time>2022-05-31T08:17:50.537Z</time>
      </trkpt>
      <trkpt lat="42.43027" lon="18.76899">
        <ele>70.118007</ele>
        <time>2022-05-31T08:17:56.544Z</time>
      </trkpt>
      <trkpt lat="42.43035" lon="18.76893">
        <ele>70.979488</ele>
        <time>2022-05-31T08:18:01.540Z</time>
      </trkpt>
      <trkpt lat="42.43045" lon="18.76888">
        <ele>71.141796</ele>
        <time>2022-05-31T08:18:07.528Z</time>
      </trkpt>
      <trkpt lat="42.43055" lon="18.76889">
        <ele>71.242637</ele>
        <time>2022-05-31T08:18:11.562Z</time>
      </trkpt>
      <trkpt lat="42.43065" lon="18.76889">
        <ele>71.340056</ele>
        <time>2022-05-31T08:18:15.568Z</time>
      </trkpt>
      <trkpt lat="42.43075" lon="18.76889">
        <ele>71.442435</ele>
        <time>2022-05-31T08:18:20.532Z</time>
      </trkpt>
      <trkpt lat="42.43085" lon="18.76893">
        <ele>71.543404</ele>
        <time>2022-05-31T08:18:25.642Z</time>
      </trkpt>
      <trkpt lat="42.43093" lon="18.76898">
        <ele>71.636714</ele>
        <time>2022-05-31T08:18:30.526Z</time>
      </trkpt>
      <trkpt lat="42.43102" lon="18.76903">
        <ele>71.732066</ele>
        <time>2022-05-31T08:18:35.545Z</time>
      </trkpt>
      <trkpt lat="42.43111" lon="18.76907">
        <ele>71.822923</ele>
        <time>2022-05-31T08:18:40.632Z</time>
      </trkpt>
      <trkpt lat="42.43121" lon="18.76909">
        <ele>71.919557</ele>
        <time>2022-05-31T08:18:45.561Z</time>
      </trkpt>
      <trkpt lat="42.4313" lon="18.76913">
        <ele>72.012624</ele>
        <time>2022-05-31T08:18:50.527Z</time>
      </trkpt>
      <trkpt lat="42.43139" lon="18.76918">
        <ele>72.111283</ele>
        <time>2022-05-31T08:18:55.535Z</time>
      </trkpt>
      <trkpt lat="42.43148" lon="18.76921">
        <ele>72.209909</ele>
        <time>2022-05-31T08:19:00.535Z</time>
      </trkpt>
      <trkpt lat="42.43158" lon="18.76924">
        <ele>72.304763</ele>
        <time>2022-05-31T08:19:05.538Z</time>
      </trkpt>
      <trkpt lat="42.43168" lon="18.76928">
        <ele>72.407379</ele>
        <time>2022-05-31T08:19:10.577Z</time>
      </trkpt>
      <trkpt lat="42.43178" lon="18.76932">
        <ele>72.511567</ele>
        <time>2022-05-31T08:19:15.570Z</time>
      </trkpt>
      <trkpt lat="42.43188" lon="18.76934">
        <ele>72.615688</ele>
        <time>2022-05-31T08:19:20.540Z</time>
      </trkpt>
      <trkpt lat="42.43198" lon="18.76935">
        <ele>72.719498</ele>
        <time>2022-05-31T08:19:25.563Z</time>
      </trkpt>
      <trkpt lat="42.43209" lon="18.76936">
        <ele>72.82291</ele>
        <time>2022-05-31T08:19:30.533Z</time>
      </trkpt>
      <trkpt lat="42.4322" lon="18.76935">
        <ele>72.578439</ele>
        <time>2022-05-31T08:19:34.548Z</time>
      </trkpt>
      <trkpt lat="42.43229" lon="18.76933">
        <ele>72.355482</ele>
        <time>2022-05-31T08:19:37.547Z</time>
      </trkpt>
      <trkpt lat="42.43241" lon="18.7693">
        <ele>72.060226</ele>
        <time>2022-05-31T08:19:41.553Z</time>
      </trkpt>
      <trkpt lat="42.43252" lon="18.76929">
        <ele>71.792852</ele>
        <time>2022-05-31T08:19:44.575Z</time>
      </trkpt>
      <trkpt lat="42.43265" lon="18.76926">
        <ele>71.491504</ele>
        <time>2022-05-31T08:19:47.535Z</time>
      </trkpt>
      <trkpt lat="42.43277" lon="18.76921">
        <ele>71.1731</ele>
        <time>2022-05-31T08:19:50.572Z</time>
      </trkpt>
      <trkpt lat="42.43287" lon="18.76916">
        <ele>70.918197</ele>
        <time>2022-05-31T08:19:52.569Z</time>
      </trkpt>
      <trkpt lat="42.43298" lon="18.7691">
        <ele>70.629475</ele>
        <time>2022-05-31T08:19:54.551Z</time>
      </trkpt>
      <trkpt lat="42.43311" lon="18.76904">
        <ele>70.307643</ele>
        <time>2022-05-31T08:19:56.567Z</time>
      </trkpt>
      <trkpt lat="42.43325" lon="18.76898">
        <ele>69.949679</ele>
        <time>2022-05-31T08:19:58.547Z</time>
      </trkpt>
      <trkpt lat="42.43339" lon="18.76891">
        <ele>69.586031</ele>
        <time>2022-05-31T08:20:00.544Z</time>
      </trkpt>
      <trkpt lat="42.43353" lon="18.76885">
        <ele>69.228624</ele>
        <time>2022-05-31T08:20:02.585Z</time>
      </trkpt>
      <trkpt lat="42.43367" lon="18.76877">
        <ele>68.856475</ele>
        <time>2022-05-31T08:20:04.527Z</time>
      </trkpt>
      <trkpt lat="42.43382" lon="18.76868">
        <ele>68.439516</ele>
        <time>2022-05-31T08:20:06.545Z</time>
      </trkpt>
      <trkpt lat="42.43397" lon="18.7686">
        <ele>67.689881</ele>
        <time>2022-05-31T08:20:08.577Z</time>
      </trkpt>
      <trkpt lat="42.43412" lon="18.76852">
        <ele>66.917415</ele>
        <time>2022-05-31T08:20:10.527Z</time>
      </trkpt>
      <trkpt lat="42.43428" lon="18.76845">
        <ele>66.111279</ele>
        <time>2022-05-31T08:20:12.549Z</time>
      </trkpt>
      <trkpt lat="42.43445" lon="18.76837">
        <ele>65.293713</ele>
        <time>2022-05-31T08:20:14.544Z</time>
      </trkpt>
      <trkpt lat="42.4346" lon="18.7683">
        <ele>64.520087</ele>
        <time>2022-05-31T08:20:16.532Z</time>
      </trkpt>
      <trkpt lat="42.43475" lon="18.76822">
        <ele>63.761015</ele>
        <time>2022-05-31T08:20:18.537Z</time>
      </trkpt>
      <trkpt lat="42.43489" lon="18.76815">
        <ele>63.047598</ele>
        <time>2022-05-31T08:20:20.554Z</time>
      </trkpt>
      <trkpt lat="42.43502" lon="18.76808">
        <ele>62.372575</ele>
        <time>2022-05-31T08:20:22.543Z</time>
      </trkpt>
      <trkpt lat="42.43516" lon="18.76802">
        <ele>61.709967</ele>
        <time>2022-05-31T08:20:24.532Z</time>
      </trkpt>
      <trkpt lat="42.43529" lon="18.76795">
        <ele>61.023616</ele>
        <time>2022-05-31T08:20:26.555Z</time>
      </trkpt>
      <trkpt lat="42.43543" lon="18.76789">
        <ele>60.343116</ele>
        <time>2022-05-31T08:20:28.571Z</time>
      </trkpt>
      <trkpt lat="42.43556" lon="18.76782">
        <ele>59.677446</ele>
        <time>2022-05-31T08:20:30.549Z</time>
      </trkpt>
      <trkpt lat="42.43569" lon="18.76774">
        <ele>59.037226</ele>
        <time>2022-05-31T08:20:32.557Z</time>
      </trkpt>
      <trkpt lat="42.43581" lon="18.76767">
        <ele>58.427761</ele>
        <time>2022-05-31T08:20:34.583Z</time>
      </trkpt>
      <trkpt lat="42.43592" lon="18.76759">
        <ele>57.832853</ele>
        <time>2022-05-31T08:20:36.600Z</time>
      </trkpt>
      <trkpt lat="42.43603" lon="18.7675">
        <ele>57.242033</ele>
        <time>2022-05-31T08:20:38.533Z</time>
      </trkpt>
      <trkpt lat="42.43614" lon="18.76742">
        <ele>56.670516</ele>
        <time>2022-05-31T08:20:40.538Z</time>
      </trkpt>
      <trkpt lat="42.43625" lon="18.76734">
        <ele>56.10809</ele>
        <time>2022-05-31T08:20:42.552Z</time>
      </trkpt>
      <trkpt lat="42.43634" lon="18.76727">
        <ele>55.623314</ele>
        <time>2022-05-31T08:20:44.552Z</time>
      </trkpt>
      <trkpt lat="42.43643" lon="18.76716">
        <ele>55.055927</ele>
        <time>2022-05-31T08:20:47.546Z</time>
      </trkpt>
      <trkpt lat="42.43639" lon="18.76703">
        <ele>54.573724</ele>
        <time>2022-05-31T08:20:50.532Z</time>
      </trkpt>
      <trkpt lat="42.43629" lon="18.76698">
        <ele>54.092124</ele>
        <time>2022-05-31T08:20:52.532Z</time>
      </trkpt>
      <trkpt lat="42.43618" lon="18.76694">
        <ele>53.564501</ele>
        <time>2022-05-31T08:20:54.581Z</time>
      </trkpt>
      <trkpt lat="42.43607" lon="18.76688">
        <ele>52.987539</ele>
        <time>2022-05-31T08:20:56.585Z</time>
      </trkpt>
      <trkpt lat="42.43593" lon="18.76681">
        <ele>52.308893</ele>
        <time>2022-05-31T08:20:58.543Z</time>
      </trkpt>
      <trkpt lat="42.4358" lon="18.76675">
        <ele>51.686198</ele>
        <time>2022-05-31T08:21:00.550Z</time>
      </trkpt>
      <trkpt lat="42.43569" lon="18.7667">
        <ele>51.696919</ele>
        <time>2022-05-31T08:21:02.545Z</time>
      </trkpt>
      <trkpt lat="42.43559" lon="18.76663">
        <ele>51.748373</ele>
        <time>2022-05-31T08:21:05.625Z</time>
      </trkpt>
      <trkpt lat="42.43549" lon="18.76655">
        <ele>51.797427</ele>
        <time>2022-05-31T08:21:09.620Z</time>
      </trkpt>
      <trkpt lat="42.43538" lon="18.76646">
        <ele>51.851729</ele>
        <time>2022-05-31T08:21:12.552Z</time>
      </trkpt>
      <trkpt lat="42.43531" lon="18.76638">
        <ele>51.89106</ele>
        <time>2022-05-31T08:21:14.549Z</time>
      </trkpt>
      <trkpt lat="42.43525" lon="18.76625">
        <ele>51.939949</ele>
        <time>2022-05-31T08:21:17.551Z</time>
      </trkpt>
      <trkpt lat="42.43532" lon="18.76616">
        <ele>51.981885</ele>
        <time>2022-05-31T08:21:22.634Z</time>
      </trkpt>
      <trkpt lat="42.43542" lon="18.76606">
        <ele>52.032495</ele>
        <time>2022-05-31T08:21:25.558Z</time>
      </trkpt>
      <trkpt lat="42.43549" lon="18.766">
        <ele>52.070584</ele>
        <time>2022-05-31T08:21:27.549Z</time>
      </trkpt>
      <trkpt lat="42.43558" lon="18.76588">
        <ele>52.122414</ele>
        <time>2022-05-31T08:21:30.527Z</time>
      </trkpt>
      <trkpt lat="42.43565" lon="18.76575">
        <ele>52.17326</ele>
        <time>2022-05-31T08:21:33.549Z</time>
      </trkpt>
      <trkpt lat="42.4357" lon="18.7656">
        <ele>52.224122</ele>
        <time>2022-05-31T08:21:36.626Z</time>
      </trkpt>
      <trkpt lat="42.43574" lon="18.76545">
        <ele>52.274256</ele>
        <time>2022-05-31T08:21:39.544Z</time>
      </trkpt>
      <trkpt lat="42.43579" lon="18.76532">
        <ele>52.320614</ele>
        <time>2022-05-31T08:21:42.520Z</time>
      </trkpt>
      <trkpt lat="42.43583" lon="18.76521">
        <ele>52.361418</ele>
        <time>2022-05-31T08:21:45.561Z</time>
      </trkpt>
      <trkpt lat="42.43588" lon="18.76508">
        <ele>52.407071</ele>
        <time>2022-05-31T08:21:49.554Z</time>
      </trkpt>
      <trkpt lat="42.43594" lon="18.76493">
        <ele>52.380195</ele>
        <time>2022-05-31T08:21:53.536Z</time>
      </trkpt>
      <trkpt lat="42.436" lon="18.76482">
        <ele>52.340725</ele>
        <time>2022-05-31T08:21:56.557Z</time>
      </trkpt>
      <trkpt lat="42.43609" lon="18.76476">
        <ele>52.303738</ele>
        <time>2022-05-31T08:21:59.552Z</time>
      </trkpt>
      <trkpt lat="42.4362" lon="18.76471">
        <ele>52.256159</ele>
        <time>2022-05-31T08:22:02.552Z</time>
      </trkpt>
      <trkpt lat="42.43629" lon="18.76468">
        <ele>52.220129</ele>
        <time>2022-05-31T08:22:04.554Z</time>
      </trkpt>
      <trkpt lat="42.43641" lon="18.76465">
        <ele>52.173035</ele>
        <time>2022-05-31T08:22:07.542Z</time>
      </trkpt>
      <trkpt lat="42.43652" lon="18.76462">
        <ele>52.130588</ele>
        <time>2022-05-31T08:22:10.555Z</time>
      </trkpt>
      <trkpt lat="42.43662" lon="18.76461">
        <ele>52.091485</ele>
        <time>2022-05-31T08:22:13.551Z</time>
      </trkpt>
      <trkpt lat="42.43673" lon="18.76463">
        <ele>52.047884</ele>
        <time>2022-05-31T08:22:16.554Z</time>
      </trkpt>
      <trkpt lat="42.43685" lon="18.76464">
        <ele>51.999197</ele>
        <time>2022-05-31T08:22:19.841Z</time>
      </trkpt>
      <trkpt lat="42.43698" lon="18.76464">
        <ele>51.949555</ele>
        <time>2022-05-31T08:22:22.550Z</time>
      </trkpt>
      <trkpt lat="42.43707" lon="18.76462">
        <ele>51.913262</ele>
        <time>2022-05-31T08:22:24.556Z</time>
      </trkpt>
      <trkpt lat="42.43717" lon="18.76458">
        <ele>51.871066</ele>
        <time>2022-05-31T08:22:26.564Z</time>
      </trkpt>
      <trkpt lat="42.43727" lon="18.76455">
        <ele>51.832622</ele>
        <time>2022-05-31T08:22:28.551Z</time>
      </trkpt>
      <trkpt lat="42.43737" lon="18.76452">
        <ele>51.79424</ele>
        <time>2022-05-31T08:22:30.535Z</time>
      </trkpt>
      <trkpt lat="42.43746" lon="18.7645">
        <ele>51.755917</ele>
        <time>2022-05-31T08:22:32.578Z</time>
      </trkpt>
      <trkpt lat="42.43758" lon="18.76445">
        <ele>51.713887</ele>
        <time>2022-05-31T08:22:35.577Z</time>
      </trkpt>
      <trkpt lat="42.43768" lon="18.76439">
        <ele>51.705943</ele>
        <time>2022-05-31T08:22:38.539Z</time>
      </trkpt>
      <trkpt lat="42.43777" lon="18.76436">
        <ele>51.699295</ele>
        <time>2022-05-31T08:22:41.555Z</time>
      </trkpt>
      <trkpt lat="42.43787" lon="18.76433">
        <ele>51.692178</ele>
        <time>2022-05-31T08:22:44.544Z</time>
      </trkpt>
      <trkpt lat="42.43796" lon="18.76427">
        <ele>51.684801</ele>
        <time>2022-05-31T08:22:47.526Z</time>
      </trkpt>
      <trkpt lat="42.43805" lon="18.7642">
        <ele>51.677558</ele>
        <time>2022-05-31T08:22:50.536Z</time>
      </trkpt>
      <trkpt lat="42.43812" lon="18.76412">
        <ele>51.670668</ele>
        <time>2022-05-31T08:22:53.554Z</time>
      </trkpt>
      <trkpt lat="42.4382" lon="18.76405">
        <ele>51.663662</ele>
        <time>2022-05-31T08:22:57.548Z</time>
      </trkpt>
      <trkpt lat="42.43828" lon="18.76397">
        <ele>51.656836</ele>
        <time>2022-05-31T08:23:00.538Z</time>
      </trkpt>
      <trkpt lat="42.43838" lon="18.76389">
        <ele>51.648309</ele>
        <time>2022-05-31T08:23:03.578Z</time>
      </trkpt>
      <trkpt lat="42.43849" lon="18.7638">
        <ele>51.639485</ele>
        <time>2022-05-31T08:23:06.557Z</time>
      </trkpt>
      <trkpt lat="42.43858" lon="18.76371">
        <ele>51.630989</ele>
        <time>2022-05-31T08:23:09.544Z</time>
      </trkpt>
      <trkpt lat="42.43868" lon="18.76362">
        <ele>51.622524</ele>
        <time>2022-05-31T08:23:12.585Z</time>
      </trkpt>
      <trkpt lat="42.43878" lon="18.76354">
        <ele>51.614259</ele>
        <time>2022-05-31T08:23:15.557Z</time>
      </trkpt>
      <trkpt lat="42.43888" lon="18.76346">
        <ele>51.605693</ele>
        <time>2022-05-31T08:23:19.548Z</time>
      </trkpt>
      <trkpt lat="42.43896" lon="18.76337">
        <ele>51.598564</ele>
        <time>2022-05-31T08:23:23.551Z</time>
      </trkpt>
      <trkpt lat="42.43905" lon="18.76329">
        <ele>51.590661</ele>
        <time>2022-05-31T08:23:27.551Z</time>
      </trkpt>
      <trkpt lat="42.43915" lon="18.76324">
        <ele>51.541384</ele>
        <time>2022-05-31T08:23:30.549Z</time>
      </trkpt>
      <trkpt lat="42.43926" lon="18.76318">
        <ele>51.418441</ele>
        <time>2022-05-31T08:23:33.597Z</time>
      </trkpt>
      <trkpt lat="42.43937" lon="18.76314">
        <ele>51.30314</ele>
        <time>2022-05-31T08:23:36.541Z</time>
      </trkpt>
      <trkpt lat="42.43948" lon="18.76309">
        <ele>51.184323</ele>
        <time>2022-05-31T08:23:39.548Z</time>
      </trkpt>
      <trkpt lat="42.43959" lon="18.76303">
        <ele>51.065569</ele>
        <time>2022-05-31T08:23:42.528Z</time>
      </trkpt>
      <trkpt lat="42.43969" lon="18.76297">
        <ele>50.947311</ele>
        <time>2022-05-31T08:23:45.563Z</time>
      </trkpt>
      <trkpt lat="42.43978" lon="18.76287">
        <ele>50.830645</ele>
        <time>2022-05-31T08:23:48.543Z</time>
      </trkpt>
      <trkpt lat="42.43986" lon="18.76274">
        <ele>50.705072</ele>
        <time>2022-05-31T08:23:51.539Z</time>
      </trkpt>
      <trkpt lat="42.43993" lon="18.76261">
        <ele>50.579028</ele>
        <time>2022-05-31T08:23:54.552Z</time>
      </trkpt>
      <trkpt lat="42.44002" lon="18.76252">
        <ele>50.466308</ele>
        <time>2022-05-31T08:23:57.550Z</time>
      </trkpt>
      <trkpt lat="42.44012" lon="18.76245">
        <ele>50.353312</ele>
        <time>2022-05-31T08:24:00.538Z</time>
      </trkpt>
      <trkpt lat="42.44023" lon="18.7624">
        <ele>50.227954</ele>
        <time>2022-05-31T08:24:03.525Z</time>
      </trkpt>
      <trkpt lat="42.44034" lon="18.76235">
        <ele>50.109402</ele>
        <time>2022-05-31T08:24:06.545Z</time>
      </trkpt>
      <trkpt lat="42.44044" lon="18.7623">
        <ele>49.997953</ele>
        <time>2022-05-31T08:24:09.530Z</time>
      </trkpt>
      <trkpt lat="42.44056" lon="18.76225">
        <ele>49.870515</ele>
        <time>2022-05-31T08:24:12.563Z</time>
      </trkpt>
      <trkpt lat="42.44068" lon="18.76221">
        <ele>49.744251</ele>
        <time>2022-05-31T08:24:15.527Z</time>
      </trkpt>
      <trkpt lat="42.4408" lon="18.76218">
        <ele>49.752592</ele>
        <time>2022-05-31T08:24:18.579Z</time>
      </trkpt>
      <trkpt lat="42.44092" lon="18.76216">
        <ele>49.772956</ele>
        <time>2022-05-31T08:24:21.541Z</time>
      </trkpt>
      <trkpt lat="42.44103" lon="18.76213">
        <ele>49.791808</ele>
        <time>2022-05-31T08:24:24.546Z</time>
      </trkpt>
      <trkpt lat="42.44115" lon="18.76212">
        <ele>49.812456</ele>
        <time>2022-05-31T08:24:27.541Z</time>
      </trkpt>
      <trkpt lat="42.44128" lon="18.7621">
        <ele>49.833811</ele>
        <time>2022-05-31T08:24:30.548Z</time>
      </trkpt>
      <trkpt lat="42.44138" lon="18.76208">
        <ele>49.851802</ele>
        <time>2022-05-31T08:24:33.534Z</time>
      </trkpt>
      <trkpt lat="42.44149" lon="18.76207">
        <ele>49.870385</ele>
        <time>2022-05-31T08:24:36.577Z</time>
      </trkpt>
      <trkpt lat="42.44162" lon="18.76203">
        <ele>49.892361</ele>
        <time>2022-05-31T08:24:39.533Z</time>
      </trkpt>
      <trkpt lat="42.44175" lon="18.76201">
        <ele>49.91422</ele>
        <time>2022-05-31T08:24:42.572Z</time>
      </trkpt>
      <trkpt lat="42.44188" lon="18.76204">
        <ele>49.935595</ele>
        <time>2022-05-31T08:24:45.545Z</time>
      </trkpt>
      <trkpt lat="42.44199" lon="18.7621">
        <ele>49.955895</ele>
        <time>2022-05-31T08:24:48.538Z</time>
      </trkpt>
      <trkpt lat="42.4421" lon="18.76215">
        <ele>49.976368</ele>
        <time>2022-05-31T08:24:51.540Z</time>
      </trkpt>
      <trkpt lat="42.44221" lon="18.76223">
        <ele>49.996375</ele>
        <time>2022-05-31T08:24:54.541Z</time>
      </trkpt>
      <trkpt lat="42.44228" lon="18.76234">
        <ele>50.014427</ele>
        <time>2022-05-31T08:24:57.546Z</time>
      </trkpt>
      <trkpt lat="42.44233" lon="18.76248">
        <ele>50.034289</ele>
        <time>2022-05-31T08:25:00.543Z</time>
      </trkpt>
      <trkpt lat="42.44239" lon="18.76262">
        <ele>49.935943</ele>
        <time>2022-05-31T08:25:03.538Z</time>
      </trkpt>
      <trkpt lat="42.44246" lon="18.76274">
        <ele>49.822965</ele>
        <time>2022-05-31T08:25:06.536Z</time>
      </trkpt>
      <trkpt lat="42.44253" lon="18.76286">
        <ele>49.71529</ele>
        <time>2022-05-31T08:25:09.586Z</time>
      </trkpt>
      <trkpt lat="42.4426" lon="18.76297">
        <ele>49.604704</ele>
        <time>2022-05-31T08:25:12.552Z</time>
      </trkpt>
      <trkpt lat="42.44269" lon="18.76309">
        <ele>49.485694</ele>
        <time>2022-05-31T08:25:16.547Z</time>
      </trkpt>
      <trkpt lat="42.44276" lon="18.76317">
        <ele>49.395505</ele>
        <time>2022-05-31T08:25:20.544Z</time>
      </trkpt>
      <trkpt lat="42.44283" lon="18.76325">
        <ele>49.303625</ele>
        <time>2022-05-31T08:25:23.544Z</time>
      </trkpt>
      <trkpt lat="42.4429" lon="18.76337">
        <ele>49.194714</ele>
        <time>2022-05-31T08:25:26.556Z</time>
      </trkpt>
      <trkpt lat="42.44298" lon="18.76348">
        <ele>49.080901</ele>
        <time>2022-05-31T08:25:29.548Z</time>
      </trkpt>
      <trkpt lat="42.44306" lon="18.76358">
        <ele>48.968815</ele>
        <time>2022-05-31T08:25:32.548Z</time>
      </trkpt>
      <trkpt lat="42.44316" lon="18.76366">
        <ele>48.855535</ele>
        <time>2022-05-31T08:25:35.539Z</time>
      </trkpt>
      <trkpt lat="42.44328" lon="18.76372">
        <ele>48.729807</ele>
        <time>2022-05-31T08:25:38.566Z</time>
      </trkpt>
      <trkpt lat="42.44338" lon="18.76372">
        <ele>48.636196</ele>
        <time>2022-05-31T08:25:40.554Z</time>
      </trkpt>
      <trkpt lat="42.44347" lon="18.76372">
        <ele>48.546522</ele>
        <time>2022-05-31T08:25:42.531Z</time>
      </trkpt>
      <trkpt lat="42.44359" lon="18.76372">
        <ele>48.4234</ele>
        <time>2022-05-31T08:25:45.556Z</time>
      </trkpt>
      <trkpt lat="42.4437" lon="18.76371">
        <ele>48.316545</ele>
        <time>2022-05-31T08:25:48.537Z</time>
      </trkpt>
      <trkpt lat="42.44379" lon="18.76377">
        <ele>48.155115</ele>
        <time>2022-05-31T08:25:51.548Z</time>
      </trkpt>
      <trkpt lat="42.44388" lon="18.76387">
        <ele>47.916877</ele>
        <time>2022-05-31T08:25:54.573Z</time>
      </trkpt>
      <trkpt lat="42.44397" lon="18.76396">
        <ele>47.663069</ele>
        <time>2022-05-31T08:25:57.543Z</time>
      </trkpt>
      <trkpt lat="42.44407" lon="18.76404">
        <ele>47.410651</ele>
        <time>2022-05-31T08:26:00.586Z</time>
      </trkpt>
      <trkpt lat="42.44416" lon="18.76412">
        <ele>47.172068</ele>
        <time>2022-05-31T08:26:03.548Z</time>
      </trkpt>
      <trkpt lat="42.44427" lon="18.76419">
        <ele>46.917709</ele>
        <time>2022-05-31T08:26:06.572Z</time>
      </trkpt>
      <trkpt lat="42.44438" lon="18.76427">
        <ele>46.644817</ele>
        <time>2022-05-31T08:26:09.536Z</time>
      </trkpt>
      <trkpt lat="42.44448" lon="18.76433">
        <ele>46.405781</ele>
        <time>2022-05-31T08:26:12.544Z</time>
      </trkpt>
      <trkpt lat="42.44457" lon="18.76438">
        <ele>46.2016</ele>
        <time>2022-05-31T08:26:15.529Z</time>
      </trkpt>
      <trkpt lat="42.44468" lon="18.76441">
        <ele>45.942154</ele>
        <time>2022-05-31T08:26:19.557Z</time>
      </trkpt>
      <trkpt lat="42.44477" lon="18.76447">
        <ele>45.721474</ele>
        <time>2022-05-31T08:26:22.547Z</time>
      </trkpt>
      <trkpt lat="42.44488" lon="18.76455">
        <ele>45.45354</ele>
        <time>2022-05-31T08:26:25.541Z</time>
      </trkpt>
      <trkpt lat="42.445" lon="18.76461">
        <ele>45.18105</ele>
        <time>2022-05-31T08:26:28.544Z</time>
      </trkpt>
      <trkpt lat="42.44511" lon="18.76467">
        <ele>44.929456</ele>
        <time>2022-05-31T08:26:31.556Z</time>
      </trkpt>
      <trkpt lat="42.4452" lon="18.76474">
        <ele>44.699335</ele>
        <time>2022-05-31T08:26:34.557Z</time>
      </trkpt>
      <trkpt lat="42.4453" lon="18.7648">
        <ele>44.454265</ele>
        <time>2022-05-31T08:26:39.545Z</time>
      </trkpt>
      <trkpt lat="42.4454" lon="18.76484">
        <ele>44.473341</ele>
        <time>2022-05-31T08:26:42.572Z</time>
      </trkpt>
      <trkpt lat="42.4455" lon="18.7649">
        <ele>44.726058</ele>
        <time>2022-05-31T08:26:45.574Z</time>
      </trkpt>
      <trkpt lat="42.44561" lon="18.76496">
        <ele>44.991312</ele>
        <time>2022-05-31T08:26:48.567Z</time>
      </trkpt>
      <trkpt lat="42.44573" lon="18.76503">
        <ele>45.282828</ele>
        <time>2022-05-31T08:26:51.567Z</time>
      </trkpt>
      <trkpt lat="42.44582" lon="18.76508">
        <ele>45.487499</ele>
        <time>2022-05-31T08:26:53.560Z</time>
      </trkpt>
      <trkpt lat="42.44593" lon="18.76513">
        <ele>45.753299</ele>
        <time>2022-05-31T08:26:56.551Z</time>
      </trkpt>
      <trkpt lat="42.44604" lon="18.7652">
        <ele>46.010318</ele>
        <time>2022-05-31T08:26:59.590Z</time>
      </trkpt>
      <trkpt lat="42.44613" lon="18.76525">
        <ele>46.236241</ele>
        <time>2022-05-31T08:27:03.547Z</time>
      </trkpt>
      <trkpt lat="42.44623" lon="18.76531">
        <ele>46.474332</ele>
        <time>2022-05-31T08:27:08.548Z</time>
      </trkpt>
      <trkpt lat="42.44631" lon="18.76537">
        <ele>46.686062</ele>
        <time>2022-05-31T08:27:11.577Z</time>
      </trkpt>
      <trkpt lat="42.4464" lon="18.76541">
        <ele>46.893397</ele>
        <time>2022-05-31T08:27:14.575Z</time>
      </trkpt>
      <trkpt lat="42.44649" lon="18.76546">
        <ele>47.109644</ele>
        <time>2022-05-31T08:27:17.551Z</time>
      </trkpt>
      <trkpt lat="42.44661" lon="18.76549">
        <ele>47.383232</ele>
        <time>2022-05-31T08:27:20.564Z</time>
      </trkpt>
      <trkpt lat="42.44673" lon="18.7655">
        <ele>47.648597</ele>
        <time>2022-05-31T08:27:23.547Z</time>
      </trkpt>
      <trkpt lat="42.44685" lon="18.76548">
        <ele>47.915196</ele>
        <time>2022-05-31T08:27:26.540Z</time>
      </trkpt>
      <trkpt lat="42.44695" lon="18.76544">
        <ele>48.153756</ele>
        <time>2022-05-31T08:27:30.525Z</time>
      </trkpt>
      <trkpt lat="42.44705" lon="18.76542">
        <ele>48.374564</ele>
        <time>2022-05-31T08:27:33.564Z</time>
      </trkpt>
      <trkpt lat="42.44715" lon="18.7654">
        <ele>48.584607</ele>
        <time>2022-05-31T08:27:36.546Z</time>
      </trkpt>
      <trkpt lat="42.44726" lon="18.76538">
        <ele>48.806952</ele>
        <time>2022-05-31T08:27:39.546Z</time>
      </trkpt>
      <trkpt lat="42.44738" lon="18.76537">
        <ele>49.041035</ele>
        <time>2022-05-31T08:27:42.538Z</time>
      </trkpt>
      <trkpt lat="42.44749" lon="18.76538">
        <ele>49.254706</ele>
        <time>2022-05-31T08:27:45.541Z</time>
      </trkpt>
      <trkpt lat="42.44759" lon="18.76543">
        <ele>49.476705</ele>
        <time>2022-05-31T08:27:48.546Z</time>
      </trkpt>
      <trkpt lat="42.4477" lon="18.76547">
        <ele>49.704981</ele>
        <time>2022-05-31T08:27:51.546Z</time>
      </trkpt>
      <trkpt lat="42.44779" lon="18.76553">
        <ele>49.904596</ele>
        <time>2022-05-31T08:27:54.545Z</time>
      </trkpt>
      <trkpt lat="42.4479" lon="18.76557">
        <ele>50.12971</ele>
        <time>2022-05-31T08:27:58.547Z</time>
      </trkpt>
      <trkpt lat="42.448" lon="18.76561">
        <ele>50.337098</ele>
        <time>2022-05-31T08:28:01.549Z</time>
      </trkpt>
      <trkpt lat="42.44811" lon="18.76565">
        <ele>50.559194</ele>
        <time>2022-05-31T08:28:04.544Z</time>
      </trkpt>
      <trkpt lat="42.44822" lon="18.7657">
        <ele>50.788963</ele>
        <time>2022-05-31T08:28:07.585Z</time>
      </trkpt>
      <trkpt lat="42.44833" lon="18.76573">
        <ele>51.019911</ele>
        <time>2022-05-31T08:28:10.549Z</time>
      </trkpt>
      <trkpt lat="42.44845" lon="18.76574">
        <ele>51.274769</ele>
        <time>2022-05-31T08:28:13.556Z</time>
      </trkpt>
      <trkpt lat="42.44858" lon="18.76571">
        <ele>51.520938</ele>
        <time>2022-05-31T08:28:16.553Z</time>
      </trkpt>
      <trkpt lat="42.44869" lon="18.76569">
        <ele>51.757579</ele>
        <time>2022-05-31T08:28:19.544Z</time>
      </trkpt>
      <trkpt lat="42.4488" lon="18.76567">
        <ele>51.96791</ele>
        <time>2022-05-31T08:28:23.564Z</time>
      </trkpt>
      <trkpt lat="42.4489" lon="18.76559">
        <ele>52.171602</ele>
        <time>2022-05-31T08:28:27.548Z</time>
      </trkpt>
      <trkpt lat="42.449" lon="18.76552">
        <ele>52.358536</ele>
        <time>2022-05-31T08:28:30.537Z</time>
      </trkpt>
      <trkpt lat="42.44909" lon="18.76543">
        <ele>52.554658</ele>
        <time>2022-05-31T08:28:33.569Z</time>
      </trkpt>
      <trkpt lat="42.44919" lon="18.76532">
        <ele>52.764627</ele>
        <time>2022-05-31T08:28:36.547Z</time>
      </trkpt>
      <trkpt lat="42.44928" lon="18.76521">
        <ele>52.97523</ele>
        <time>2022-05-31T08:28:39.545Z</time>
      </trkpt>
      <trkpt lat="42.44937" lon="18.7651">
        <ele>53.175781</ele>
        <time>2022-05-31T08:28:42.555Z</time>
      </trkpt>
      <trkpt lat="42.44947" lon="18.76503">
        <ele>53.369578</ele>
        <time>2022-05-31T08:28:45.549Z</time>
      </trkpt>
      <trkpt lat="42.44957" lon="18.76499">
        <ele>53.546042</ele>
        <time>2022-05-31T08:28:48.548Z</time>
      </trkpt>
      <trkpt lat="42.44967" lon="18.765">
        <ele>53.7089</ele>
        <time>2022-05-31T08:28:53.555Z</time>
      </trkpt>
      <trkpt lat="42.44976" lon="18.76499">
        <ele>53.873496</ele>
        <time>2022-05-31T08:28:58.532Z</time>
      </trkpt>
      <trkpt lat="42.44986" lon="18.76502">
        <ele>54.033795</ele>
        <time>2022-05-31T08:29:02.595Z</time>
      </trkpt>
      <trkpt lat="42.44996" lon="18.765">
        <ele>54.213103</ele>
        <time>2022-05-31T08:29:07.541Z</time>
      </trkpt>
      <trkpt lat="42.45005" lon="18.76495">
        <ele>54.382753</ele>
        <time>2022-05-31T08:29:11.549Z</time>
      </trkpt>
      <trkpt lat="42.45016" lon="18.76489">
        <ele>54.574367</ele>
        <time>2022-05-31T08:29:15.534Z</time>
      </trkpt>
      <trkpt lat="42.45027" lon="18.76485">
        <ele>54.765524</ele>
        <time>2022-05-31T08:29:19.548Z</time>
      </trkpt>
      <trkpt lat="42.45037" lon="18.76487">
        <ele>54.946827</ele>
        <time>2022-05-31T08:29:23.556Z</time>
      </trkpt>
      <trkpt lat="42.45047" lon="18.76494">
        <ele>55.005218</ele>
        <time>2022-05-31T08:29:27.541Z</time>
      </trkpt>
      <trkpt lat="42.45054" lon="18.76504">
        <ele>54.992574</ele>
        <time>2022-05-31T08:29:30.579Z</time>
      </trkpt>
      <trkpt lat="42.45062" lon="18.76516">
        <ele>54.978666</ele>
        <time>2022-05-31T08:29:33.561Z</time>
      </trkpt>
      <trkpt lat="42.45073" lon="18.76525">
        <ele>54.96359</ele>
        <time>2022-05-31T08:29:36.582Z</time>
      </trkpt>
      <trkpt lat="42.45084" lon="18.76528">
        <ele>54.950295</ele>
        <time>2022-05-31T08:29:40.540Z</time>
      </trkpt>
      <trkpt lat="42.45095" lon="18.76529">
        <ele>54.937905</ele>
        <time>2022-05-31T08:29:43.551Z</time>
      </trkpt>
      <trkpt lat="42.45108" lon="18.76528">
        <ele>54.922949</ele>
        <time>2022-05-31T08:29:46.537Z</time>
      </trkpt>
      <trkpt lat="42.4512" lon="18.76529">
        <ele>54.908347</ele>
        <time>2022-05-31T08:29:49.555Z</time>
      </trkpt>
      <trkpt lat="42.45132" lon="18.76528">
        <ele>54.893623</ele>
        <time>2022-05-31T08:29:52.578Z</time>
      </trkpt>
      <trkpt lat="42.45145" lon="18.76527">
        <ele>54.878637</ele>
        <time>2022-05-31T08:29:55.571Z</time>
      </trkpt>
      <trkpt lat="42.45158" lon="18.76525">
        <ele>54.863698</ele>
        <time>2022-05-31T08:29:58.549Z</time>
      </trkpt>
      <trkpt lat="42.4517" lon="18.76523">
        <ele>54.848679</ele>
        <time>2022-05-31T08:30:01.548Z</time>
      </trkpt>
      <trkpt lat="42.45182" lon="18.76521">
        <ele>54.834788</ele>
        <time>2022-05-31T08:30:04.588Z</time>
      </trkpt>
      <trkpt lat="42.45193" lon="18.76516">
        <ele>54.821431</ele>
        <time>2022-05-31T08:30:07.542Z</time>
      </trkpt>
      <trkpt lat="42.45202" lon="18.76513">
        <ele>54.809903</ele>
        <time>2022-05-31T08:30:10.530Z</time>
      </trkpt>
      <trkpt lat="42.45212" lon="18.76511">
        <ele>54.819939</ele>
        <time>2022-05-31T08:30:13.557Z</time>
      </trkpt>
      <trkpt lat="42.45225" lon="18.76506">
        <ele>54.902753</ele>
        <time>2022-05-31T08:30:16.524Z</time>
      </trkpt>
      <trkpt lat="42.45234" lon="18.76502">
        <ele>54.962138</ele>
        <time>2022-05-31T08:30:18.553Z</time>
      </trkpt>
      <trkpt lat="42.45246" lon="18.76501">
        <ele>55.033718</ele>
        <time>2022-05-31T08:30:21.540Z</time>
      </trkpt>
      <trkpt lat="42.45256" lon="18.76501">
        <ele>55.092124</ele>
        <time>2022-05-31T08:30:24.548Z</time>
      </trkpt>
      <trkpt lat="42.45264" lon="18.76498">
        <ele>55.148385</ele>
        <time>2022-05-31T08:30:27.549Z</time>
      </trkpt>
      <trkpt lat="42.45274" lon="18.76496">
        <ele>55.210281</ele>
        <time>2022-05-31T08:30:30.549Z</time>
      </trkpt>
      <trkpt lat="42.45286" lon="18.76494">
        <ele>55.280113</ele>
        <time>2022-05-31T08:30:33.553Z</time>
      </trkpt>
      <trkpt lat="42.45299" lon="18.76494">
        <ele>55.360635</ele>
        <time>2022-05-31T08:30:36.543Z</time>
      </trkpt>
      <trkpt lat="42.45311" lon="18.76497">
        <ele>55.438305</ele>
        <time>2022-05-31T08:30:39.552Z</time>
      </trkpt>
      <trkpt lat="42.45323" lon="18.76501">
        <ele>55.512453</ele>
        <time>2022-05-31T08:30:42.537Z</time>
      </trkpt>
      <trkpt lat="42.45335" lon="18.76503">
        <ele>55.584794</ele>
        <time>2022-05-31T08:30:45.542Z</time>
      </trkpt>
      <trkpt lat="42.45346" lon="18.76505">
        <ele>55.65511</ele>
        <time>2022-05-31T08:30:48.590Z</time>
      </trkpt>
      <trkpt lat="42.45358" lon="18.76507">
        <ele>55.729345</ele>
        <time>2022-05-31T08:30:51.550Z</time>
      </trkpt>
      <trkpt lat="42.45369" lon="18.76512">
        <ele>55.801276</ele>
        <time>2022-05-31T08:30:54.536Z</time>
      </trkpt>
      <trkpt lat="42.45378" lon="18.76518">
        <ele>55.864289</ele>
        <time>2022-05-31T08:30:57.553Z</time>
      </trkpt>
      <trkpt lat="42.45388" lon="18.76526">
        <ele>55.807425</ele>
        <time>2022-05-31T08:31:00.533Z</time>
      </trkpt>
      <trkpt lat="42.45397" lon="18.76534">
        <ele>55.552859</ele>
        <time>2022-05-31T08:31:03.554Z</time>
      </trkpt>
      <trkpt lat="42.45407" lon="18.76542">
        <ele>55.286952</ele>
        <time>2022-05-31T08:31:06.549Z</time>
      </trkpt>
      <trkpt lat="42.45418" lon="18.76548">
        <ele>55.00513</ele>
        <time>2022-05-31T08:31:09.548Z</time>
      </trkpt>
      <trkpt lat="42.45429" lon="18.76553">
        <ele>54.739123</ele>
        <time>2022-05-31T08:31:12.542Z</time>
      </trkpt>
      <trkpt lat="42.45439" lon="18.76557">
        <ele>54.489866</ele>
        <time>2022-05-31T08:31:15.561Z</time>
      </trkpt>
      <trkpt lat="42.45448" lon="18.76561">
        <ele>54.25698</ele>
        <time>2022-05-31T08:31:18.580Z</time>
      </trkpt>
      <trkpt lat="42.45459" lon="18.76567">
        <ele>53.978639</ele>
        <time>2022-05-31T08:31:22.553Z</time>
      </trkpt>
      <trkpt lat="42.45468" lon="18.7657">
        <ele>53.756111</ele>
        <time>2022-05-31T08:31:25.531Z</time>
      </trkpt>
      <trkpt lat="42.4548" lon="18.76576">
        <ele>53.47542</ele>
        <time>2022-05-31T08:31:29.535Z</time>
      </trkpt>
      <trkpt lat="42.45489" lon="18.76581">
        <ele>53.240819</ele>
        <time>2022-05-31T08:31:32.557Z</time>
      </trkpt>
      <trkpt lat="42.45498" lon="18.76587">
        <ele>53.008248</ele>
        <time>2022-05-31T08:31:36.537Z</time>
      </trkpt>
      <trkpt lat="42.45509" lon="18.76592">
        <ele>52.728671</ele>
        <time>2022-05-31T08:31:40.533Z</time>
      </trkpt>
      <trkpt lat="42.4552" lon="18.76594">
        <ele>52.455294</ele>
        <time>2022-05-31T08:31:43.579Z</time>
      </trkpt>
      <trkpt lat="42.45533" lon="18.76592">
        <ele>52.168026</ele>
        <time>2022-05-31T08:31:46.558Z</time>
      </trkpt>
      <trkpt lat="42.45545" lon="18.76591">
        <ele>51.865761</ele>
        <time>2022-05-31T08:31:49.546Z</time>
      </trkpt>
      <trkpt lat="42.45558" lon="18.76589">
        <ele>51.715321</ele>
        <time>2022-05-31T08:31:52.553Z</time>
      </trkpt>
      <trkpt lat="42.45571" lon="18.76587">
        <ele>51.791177</ele>
        <time>2022-05-31T08:31:55.526Z</time>
      </trkpt>
      <trkpt lat="42.45583" lon="18.76583">
        <ele>51.865494</ele>
        <time>2022-05-31T08:31:58.551Z</time>
      </trkpt>
      <trkpt lat="42.45595" lon="18.76583">
        <ele>51.93761</ele>
        <time>2022-05-31T08:32:01.578Z</time>
      </trkpt>
      <trkpt lat="42.45607" lon="18.76586">
        <ele>52.008768</ele>
        <time>2022-05-31T08:32:04.553Z</time>
      </trkpt>
      <trkpt lat="42.45619" lon="18.76591">
        <ele>52.08079</ele>
        <time>2022-05-31T08:32:07.556Z</time>
      </trkpt>
      <trkpt lat="42.45631" lon="18.76591">
        <ele>52.154615</ele>
        <time>2022-05-31T08:32:10.546Z</time>
      </trkpt>
      <trkpt lat="42.45641" lon="18.76581">
        <ele>52.226736</ele>
        <time>2022-05-31T08:32:13.549Z</time>
      </trkpt>
      <trkpt lat="42.45649" lon="18.7657">
        <ele>52.293685</ele>
        <time>2022-05-31T08:32:16.593Z</time>
      </trkpt>
      <trkpt lat="42.45657" lon="18.7656">
        <ele>52.359426</ele>
        <time>2022-05-31T08:32:19.545Z</time>
      </trkpt>
      <trkpt lat="42.45668" lon="18.76552">
        <ele>52.430248</ele>
        <time>2022-05-31T08:32:22.550Z</time>
      </trkpt>
      <trkpt lat="42.45679" lon="18.76547">
        <ele>52.49847</ele>
        <time>2022-05-31T08:32:25.546Z</time>
      </trkpt>
      <trkpt lat="42.45688" lon="18.76541">
        <ele>52.558052</ele>
        <time>2022-05-31T08:32:28.554Z</time>
      </trkpt>
      <trkpt lat="42.45698" lon="18.76535">
        <ele>52.622681</ele>
        <time>2022-05-31T08:32:32.545Z</time>
      </trkpt>
      <trkpt lat="42.45707" lon="18.76527">
        <ele>52.686663</ele>
        <time>2022-05-31T08:32:36.553Z</time>
      </trkpt>
      <trkpt lat="42.45715" lon="18.7652">
        <ele>52.741911</ele>
        <time>2022-05-31T08:32:39.543Z</time>
      </trkpt>
      <trkpt lat="42.45724" lon="18.76513">
        <ele>53.050202</ele>
        <time>2022-05-31T08:32:42.550Z</time>
      </trkpt>
      <trkpt lat="42.45734" lon="18.76507">
        <ele>53.393789</ele>
        <time>2022-05-31T08:32:45.585Z</time>
      </trkpt>
      <trkpt lat="42.45745" lon="18.765">
        <ele>53.7726</ele>
        <time>2022-05-31T08:32:48.560Z</time>
      </trkpt>
      <trkpt lat="42.45756" lon="18.76495">
        <ele>54.122108</ele>
        <time>2022-05-31T08:32:51.555Z</time>
      </trkpt>
      <trkpt lat="42.45766" lon="18.76492">
        <ele>54.456049</ele>
        <time>2022-05-31T08:32:54.551Z</time>
      </trkpt>
      <trkpt lat="42.45776" lon="18.76492">
        <ele>54.741961</ele>
        <time>2022-05-31T08:32:57.548Z</time>
      </trkpt>
      <trkpt lat="42.45786" lon="18.76493">
        <ele>55.069389</ele>
        <time>2022-05-31T08:33:01.554Z</time>
      </trkpt>
      <trkpt lat="42.45796" lon="18.76496">
        <ele>55.371979</ele>
        <time>2022-05-31T08:33:04.542Z</time>
      </trkpt>
      <trkpt lat="42.45805" lon="18.76499">
        <ele>55.67226</ele>
        <time>2022-05-31T08:33:08.539Z</time>
      </trkpt>
      <trkpt lat="42.45816" lon="18.76503">
        <ele>56.015861</ele>
        <time>2022-05-31T08:33:12.559Z</time>
      </trkpt>
      <trkpt lat="42.45827" lon="18.76509">
        <ele>56.387418</ele>
        <time>2022-05-31T08:33:16.529Z</time>
      </trkpt>
      <trkpt lat="42.45837" lon="18.76513">
        <ele>56.703835</ele>
        <time>2022-05-31T08:33:20.543Z</time>
      </trkpt>
      <trkpt lat="42.45846" lon="18.76516">
        <ele>57.00241</ele>
        <time>2022-05-31T08:33:25.551Z</time>
      </trkpt>
      <trkpt lat="42.45857" lon="18.76516">
        <ele>57.338034</ele>
        <time>2022-05-31T08:33:29.549Z</time>
      </trkpt>
      <trkpt lat="42.45866" lon="18.76514">
        <ele>57.633024</ele>
        <time>2022-05-31T08:33:32.543Z</time>
      </trkpt>
      <trkpt lat="42.45876" lon="18.7651">
        <ele>57.93718</ele>
        <time>2022-05-31T08:33:35.554Z</time>
      </trkpt>
      <trkpt lat="42.45884" lon="18.76505">
        <ele>58.235662</ele>
        <time>2022-05-31T08:33:38.549Z</time>
      </trkpt>
      <trkpt lat="42.45893" lon="18.76498">
        <ele>58.461952</ele>
        <time>2022-05-31T08:33:41.550Z</time>
      </trkpt>
      <trkpt lat="42.45902" lon="18.7649">
        <ele>58.652939</ele>
        <time>2022-05-31T08:33:44.557Z</time>
      </trkpt>
      <trkpt lat="42.4591" lon="18.76482">
        <ele>58.84239</ele>
        <time>2022-05-31T08:33:47.580Z</time>
      </trkpt>
      <trkpt lat="42.45919" lon="18.76475">
        <ele>59.031908</ele>
        <time>2022-05-31T08:33:50.533Z</time>
      </trkpt>
      <trkpt lat="42.45929" lon="18.76471">
        <ele>59.220672</ele>
        <time>2022-05-31T08:33:53.567Z</time>
      </trkpt>
      <trkpt lat="42.4594" lon="18.76475">
        <ele>59.439716</ele>
        <time>2022-05-31T08:33:56.553Z</time>
      </trkpt>
      <trkpt lat="42.45952" lon="18.76477">
        <ele>59.655615</ele>
        <time>2022-05-31T08:33:59.582Z</time>
      </trkpt>
      <trkpt lat="42.45963" lon="18.76479">
        <ele>59.853974</ele>
        <time>2022-05-31T08:34:02.545Z</time>
      </trkpt>
      <trkpt lat="42.45974" lon="18.76479">
        <ele>60.059842</ele>
        <time>2022-05-31T08:34:05.547Z</time>
      </trkpt>
      <trkpt lat="42.45983" lon="18.76475">
        <ele>60.237893</ele>
        <time>2022-05-31T08:34:08.547Z</time>
      </trkpt>
      <trkpt lat="42.45992" lon="18.76468">
        <ele>60.417282</ele>
        <time>2022-05-31T08:34:11.533Z</time>
      </trkpt>
      <trkpt lat="42.45999" lon="18.76456">
        <ele>60.632132</ele>
        <time>2022-05-31T08:34:15.546Z</time>
      </trkpt>
      <trkpt lat="42.46008" lon="18.76447">
        <ele>60.832183</ele>
        <time>2022-05-31T08:34:18.559Z</time>
      </trkpt>
      <trkpt lat="42.46015" lon="18.76435">
        <ele>61.038941</ele>
        <time>2022-05-31T08:34:21.575Z</time>
      </trkpt>
      <trkpt lat="42.46024" lon="18.76424">
        <ele>61.263256</ele>
        <time>2022-05-31T08:34:24.546Z</time>
      </trkpt>
      <trkpt lat="42.46032" lon="18.76413">
        <ele>61.476612</ele>
        <time>2022-05-31T08:34:27.548Z</time>
      </trkpt>
      <trkpt lat="42.46043" lon="18.76408">
        <ele>61.510472</ele>
        <time>2022-05-31T08:34:30.539Z</time>
      </trkpt>
      <trkpt lat="42.46054" lon="18.76407">
        <ele>60.820081</ele>
        <time>2022-05-31T08:34:33.538Z</time>
      </trkpt>
      <trkpt lat="42.46066" lon="18.76408">
        <ele>60.091931</ele>
        <time>2022-05-31T08:34:36.561Z</time>
      </trkpt>
      <trkpt lat="42.46077" lon="18.7641">
        <ele>59.469994</ele>
        <time>2022-05-31T08:34:39.538Z</time>
      </trkpt>
      <trkpt lat="42.46088" lon="18.76411">
        <ele>58.778073</ele>
        <time>2022-05-31T08:34:44.556Z</time>
      </trkpt>
      <trkpt lat="42.461" lon="18.76413">
        <ele>58.047841</ele>
        <time>2022-05-31T08:34:48.549Z</time>
      </trkpt>
      <trkpt lat="42.46111" lon="18.76415">
        <ele>57.390132</ele>
        <time>2022-05-31T08:34:51.546Z</time>
      </trkpt>
      <trkpt lat="42.46122" lon="18.76416">
        <ele>56.769566</ele>
        <time>2022-05-31T08:34:54.551Z</time>
      </trkpt>
      <trkpt lat="42.46132" lon="18.76417">
        <ele>56.142606</ele>
        <time>2022-05-31T08:34:57.577Z</time>
      </trkpt>
      <trkpt lat="42.46142" lon="18.76418">
        <ele>55.523131</ele>
        <time>2022-05-31T08:35:00.538Z</time>
      </trkpt>
      <trkpt lat="42.46154" lon="18.7642">
        <ele>54.836035</ele>
        <time>2022-05-31T08:35:03.582Z</time>
      </trkpt>
      <trkpt lat="42.46165" lon="18.76422">
        <ele>54.176764</ele>
        <time>2022-05-31T08:35:06.544Z</time>
      </trkpt>
      <trkpt lat="42.46175" lon="18.76423">
        <ele>53.526704</ele>
        <time>2022-05-31T08:35:09.593Z</time>
      </trkpt>
      <trkpt lat="42.46186" lon="18.76422">
        <ele>52.866092</ele>
        <time>2022-05-31T08:35:12.545Z</time>
      </trkpt>
      <trkpt lat="42.46197" lon="18.76421">
        <ele>52.21981</ele>
        <time>2022-05-31T08:35:15.559Z</time>
      </trkpt>
      <trkpt lat="42.46208" lon="18.76418">
        <ele>51.581748</ele>
        <time>2022-05-31T08:35:18.547Z</time>
      </trkpt>
      <trkpt lat="42.46218" lon="18.76414">
        <ele>50.933898</ele>
        <time>2022-05-31T08:35:21.537Z</time>
      </trkpt>
      <trkpt lat="42.46228" lon="18.76412">
        <ele>50.894532</ele>
        <time>2022-05-31T08:35:24.518Z</time>
      </trkpt>
      <trkpt lat="42.4624" lon="18.76411">
        <ele>50.953662</ele>
        <time>2022-05-31T08:35:27.537Z</time>
      </trkpt>
      <trkpt lat="42.4625" lon="18.76408">
        <ele>51.005146</ele>
        <time>2022-05-31T08:35:30.524Z</time>
      </trkpt>
      <trkpt lat="42.46261" lon="18.76405">
        <ele>51.060834</ele>
        <time>2022-05-31T08:35:33.551Z</time>
      </trkpt>
      <trkpt lat="42.46272" lon="18.76402">
        <ele>51.113181</ele>
        <time>2022-05-31T08:35:36.573Z</time>
      </trkpt>
      <trkpt lat="42.46282" lon="18.76398">
        <ele>51.166574</ele>
        <time>2022-05-31T08:35:39.556Z</time>
      </trkpt>
      <trkpt lat="42.46294" lon="18.76394">
        <ele>51.227223</ele>
        <time>2022-05-31T08:35:42.580Z</time>
      </trkpt>
      <trkpt lat="42.46306" lon="18.76391">
        <ele>51.286898</ele>
        <time>2022-05-31T08:35:45.529Z</time>
      </trkpt>
      <trkpt lat="42.46317" lon="18.7639">
        <ele>51.342353</ele>
        <time>2022-05-31T08:35:48.570Z</time>
      </trkpt>
      <trkpt lat="42.46328" lon="18.76391">
        <ele>51.39634</ele>
        <time>2022-05-31T08:35:51.539Z</time>
      </trkpt>
      <trkpt lat="42.4634" lon="18.76392">
        <ele>51.4514</ele>
        <time>2022-05-31T08:35:54.554Z</time>
      </trkpt>
      <trkpt lat="42.4635" lon="18.76393">
        <ele>51.502962</ele>
        <time>2022-05-31T08:35:57.545Z</time>
      </trkpt>
      <trkpt lat="42.46361" lon="18.76394">
        <ele>51.556068</ele>
        <time>2022-05-31T08:36:00.539Z</time>
      </trkpt>
      <trkpt lat="42.46371" lon="18.76396">
        <ele>51.605903</ele>
        <time>2022-05-31T08:36:03.545Z</time>
      </trkpt>
      <trkpt lat="42.46381" lon="18.76397">
        <ele>51.657056</ele>
        <time>2022-05-31T08:36:06.543Z</time>
      </trkpt>
      <trkpt lat="42.46392" lon="18.76397">
        <ele>51.708037</ele>
        <time>2022-05-31T08:36:09.548Z</time>
      </trkpt>
      <trkpt lat="42.46402" lon="18.76398">
        <ele>51.715718</ele>
        <time>2022-05-31T08:36:12.530Z</time>
      </trkpt>
      <trkpt lat="42.46412" lon="18.76398">
        <ele>51.67756</ele>
        <time>2022-05-31T08:36:15.548Z</time>
      </trkpt>
      <trkpt lat="42.46422" lon="18.76396">
        <ele>51.636801</ele>
        <time>2022-05-31T08:36:18.558Z</time>
      </trkpt>
      <trkpt lat="42.46433" lon="18.76394">
        <ele>51.594246</ele>
        <time>2022-05-31T08:36:21.578Z</time>
      </trkpt>
      <trkpt lat="42.46444" lon="18.7639">
        <ele>51.551897</ele>
        <time>2022-05-31T08:36:24.565Z</time>
      </trkpt>
      <trkpt lat="42.46454" lon="18.76386">
        <ele>51.510873</ele>
        <time>2022-05-31T08:36:27.545Z</time>
      </trkpt>
      <trkpt lat="42.46465" lon="18.76383">
        <ele>51.471167</ele>
        <time>2022-05-31T08:36:30.528Z</time>
      </trkpt>
      <trkpt lat="42.46474" lon="18.7638">
        <ele>51.433009</ele>
        <time>2022-05-31T08:36:33.561Z</time>
      </trkpt>
      <trkpt lat="42.46484" lon="18.76376">
        <ele>51.393973</ele>
        <time>2022-05-31T08:36:36.602Z</time>
      </trkpt>
      <trkpt lat="42.46494" lon="18.76373">
        <ele>51.355513</ele>
        <time>2022-05-31T08:36:39.579Z</time>
      </trkpt>
      <trkpt lat="42.46505" lon="18.7637">
        <ele>51.312215</ele>
        <time>2022-05-31T08:36:43.539Z</time>
      </trkpt>
      <trkpt lat="42.46514" lon="18.76367">
        <ele>51.27624</ele>
        <time>2022-05-31T08:36:47.555Z</time>
      </trkpt>
      <trkpt lat="42.46525" lon="18.76362">
        <ele>51.231884</ele>
        <time>2022-05-31T08:36:51.594Z</time>
      </trkpt>
      <trkpt lat="42.46534" lon="18.76358">
        <ele>51.196197</ele>
        <time>2022-05-31T08:36:54.549Z</time>
      </trkpt>
      <trkpt lat="42.46543" lon="18.76355">
        <ele>51.16136</ele>
        <time>2022-05-31T08:36:57.589Z</time>
      </trkpt>
      <trkpt lat="42.46552" lon="18.76352">
        <ele>51.125504</ele>
        <time>2022-05-31T08:37:00.541Z</time>
      </trkpt>
      <trkpt lat="42.46562" lon="18.76348">
        <ele>51.085803</ele>
        <time>2022-05-31T08:37:03.548Z</time>
      </trkpt>
      <trkpt lat="42.46572" lon="18.76345">
        <ele>51.047665</ele>
        <time>2022-05-31T08:37:06.557Z</time>
      </trkpt>
      <trkpt lat="42.46582" lon="18.76343">
        <ele>51.066544</ele>
        <time>2022-05-31T08:37:09.540Z</time>
      </trkpt>
      <trkpt lat="42.46592" lon="18.76341">
        <ele>51.086987</ele>
        <time>2022-05-31T08:37:12.540Z</time>
      </trkpt>
      <trkpt lat="42.46603" lon="18.76339">
        <ele>51.107661</ele>
        <time>2022-05-31T08:37:15.549Z</time>
      </trkpt>
      <trkpt lat="42.46614" lon="18.76337">
        <ele>51.128932</ele>
        <time>2022-05-31T08:37:18.547Z</time>
      </trkpt>
      <trkpt lat="42.46624" lon="18.76332">
        <ele>51.149467</ele>
        <time>2022-05-31T08:37:21.543Z</time>
      </trkpt>
      <trkpt lat="42.46635" lon="18.76328">
        <ele>51.171403</ele>
        <time>2022-05-31T08:37:24.534Z</time>
      </trkpt>
      <trkpt lat="42.46646" lon="18.76325">
        <ele>51.193214</ele>
        <time>2022-05-31T08:37:27.537Z</time>
      </trkpt>
      <trkpt lat="42.46657" lon="18.76321">
        <ele>51.214287</ele>
        <time>2022-05-31T08:37:30.540Z</time>
      </trkpt>
      <trkpt lat="42.46666" lon="18.76317">
        <ele>51.233815</ele>
        <time>2022-05-31T08:37:33.553Z</time>
      </trkpt>
      <trkpt lat="42.46676" lon="18.76315">
        <ele>51.253309</ele>
        <time>2022-05-31T08:37:36.548Z</time>
      </trkpt>
      <trkpt lat="42.46686" lon="18.76311">
        <ele>51.273417</ele>
        <time>2022-05-31T08:37:39.545Z</time>
      </trkpt>
      <trkpt lat="42.46696" lon="18.76308">
        <ele>51.293042</ele>
        <time>2022-05-31T08:37:42.540Z</time>
      </trkpt>
      <trkpt lat="42.46706" lon="18.76306">
        <ele>51.312031</ele>
        <time>2022-05-31T08:37:45.546Z</time>
      </trkpt>
      <trkpt lat="42.46718" lon="18.76303">
        <ele>51.334378</ele>
        <time>2022-05-31T08:37:48.583Z</time>
      </trkpt>
      <trkpt lat="42.46727" lon="18.76303">
        <ele>51.352444</ele>
        <time>2022-05-31T08:37:51.556Z</time>
      </trkpt>
      <trkpt lat="42.46737" lon="18.76301">
        <ele>51.371181</ele>
        <time>2022-05-31T08:37:54.536Z</time>
      </trkpt>
      <trkpt lat="42.46748" lon="18.76303">
        <ele>51.39262</ele>
        <time>2022-05-31T08:37:58.537Z</time>
      </trkpt>
      <trkpt lat="42.46757" lon="18.76307">
        <ele>51.708723</ele>
        <time>2022-05-31T08:38:01.558Z</time>
      </trkpt>
      <trkpt lat="42.46768" lon="18.76313">
        <ele>52.093406</ele>
        <time>2022-05-31T08:38:04.551Z</time>
      </trkpt>
      <trkpt lat="42.4678" lon="18.76319">
        <ele>52.519652</ele>
        <time>2022-05-31T08:38:07.538Z</time>
      </trkpt>
      <trkpt lat="42.46791" lon="18.76323">
        <ele>52.920281</ele>
        <time>2022-05-31T08:38:10.573Z</time>
      </trkpt>
      <trkpt lat="42.46802" lon="18.76327">
        <ele>53.298439</ele>
        <time>2022-05-31T08:38:13.575Z</time>
      </trkpt>
      <trkpt lat="42.46814" lon="18.76331">
        <ele>53.691988</ele>
        <time>2022-05-31T08:38:16.547Z</time>
      </trkpt>
      <trkpt lat="42.46824" lon="18.76336">
        <ele>54.051521</ele>
        <time>2022-05-31T08:38:19.548Z</time>
      </trkpt>
      <trkpt lat="42.46834" lon="18.7634">
        <ele>54.400901</ele>
        <time>2022-05-31T08:38:22.543Z</time>
      </trkpt>
      <trkpt lat="42.46845" lon="18.76343">
        <ele>54.750115</ele>
        <time>2022-05-31T08:38:25.562Z</time>
      </trkpt>
      <trkpt lat="42.46855" lon="18.76346">
        <ele>55.11009</ele>
        <time>2022-05-31T08:38:28.550Z</time>
      </trkpt>
      <trkpt lat="42.46866" lon="18.76351">
        <ele>55.468063</ele>
        <time>2022-05-31T08:38:31.538Z</time>
      </trkpt>
      <trkpt lat="42.46874" lon="18.76356">
        <ele>55.778245</ele>
        <time>2022-05-31T08:38:34.556Z</time>
      </trkpt>
      <trkpt lat="42.46883" lon="18.76361">
        <ele>56.087471</ele>
        <time>2022-05-31T08:38:37.554Z</time>
      </trkpt>
      <trkpt lat="42.46892" lon="18.76365">
        <ele>56.419465</ele>
        <time>2022-05-31T08:38:40.553Z</time>
      </trkpt>
      <trkpt lat="42.46902" lon="18.76369">
        <ele>56.749912</ele>
        <time>2022-05-31T08:38:43.548Z</time>
      </trkpt>
      <trkpt lat="42.46911" lon="18.76374">
        <ele>57.085827</ele>
        <time>2022-05-31T08:38:46.562Z</time>
      </trkpt>
      <trkpt lat="42.4692" lon="18.76379">
        <ele>57.366138</ele>
        <time>2022-05-31T08:38:49.549Z</time>
      </trkpt>
      <trkpt lat="42.4693" lon="18.76384">
        <ele>57.433114</ele>
        <time>2022-05-31T08:38:52.572Z</time>
      </trkpt>
      <trkpt lat="42.4694" lon="18.76391">
        <ele>57.504558</ele>
        <time>2022-05-31T08:38:55.545Z</time>
      </trkpt>
      <trkpt lat="42.4695" lon="18.76398">
        <ele>57.577679</ele>
        <time>2022-05-31T08:38:58.528Z</time>
      </trkpt>
      <trkpt lat="42.46959" lon="18.76408">
        <ele>57.649925</ele>
        <time>2022-05-31T08:39:01.541Z</time>
      </trkpt>
      <trkpt lat="42.46967" lon="18.76418">
        <ele>57.715168</ele>
        <time>2022-05-31T08:39:04.536Z</time>
      </trkpt>
      <trkpt lat="42.46974" lon="18.76428">
        <ele>57.781005</ele>
        <time>2022-05-31T08:39:07.556Z</time>
      </trkpt>
      <trkpt lat="42.46982" lon="18.7644">
        <ele>57.8558</ele>
        <time>2022-05-31T08:39:11.581Z</time>
      </trkpt>
      <trkpt lat="42.4699" lon="18.76449">
        <ele>57.924966</ele>
        <time>2022-05-31T08:39:15.551Z</time>
      </trkpt>
      <trkpt lat="42.46999" lon="18.76455">
        <ele>57.985653</ele>
        <time>2022-05-31T08:39:19.592Z</time>
      </trkpt>
      <trkpt lat="42.47008" lon="18.76459">
        <ele>58.047047</ele>
        <time>2022-05-31T08:39:23.553Z</time>
      </trkpt>
      <trkpt lat="42.47017" lon="18.76463">
        <ele>58.110192</ele>
        <time>2022-05-31T08:39:27.539Z</time>
      </trkpt>
      <trkpt lat="42.47027" lon="18.76465">
        <ele>58.169962</ele>
        <time>2022-05-31T08:39:31.553Z</time>
      </trkpt>
      <trkpt lat="42.47037" lon="18.76465">
        <ele>58.232091</ele>
        <time>2022-05-31T08:39:36.551Z</time>
      </trkpt>
      <trkpt lat="42.47047" lon="18.76464">
        <ele>58.296923</ele>
        <time>2022-05-31T08:39:41.552Z</time>
      </trkpt>
      <trkpt lat="42.47056" lon="18.7646">
        <ele>58.361018</ele>
        <time>2022-05-31T08:39:47.546Z</time>
      </trkpt>
      <trkpt lat="42.47065" lon="18.76452">
        <ele>58.424777</ele>
        <time>2022-05-31T08:39:53.552Z</time>
      </trkpt>
      <trkpt lat="42.47074" lon="18.7645">
        <ele>58.485724</ele>
        <time>2022-05-31T08:39:59.565Z</time>
      </trkpt>
      <trkpt lat="42.47082" lon="18.76457">
        <ele>58.734961</ele>
        <time>2022-05-31T08:40:05.554Z</time>
      </trkpt>
      <trkpt lat="42.47093" lon="18.76454">
        <ele>59.090347</ele>
        <time>2022-05-31T08:40:10.554Z</time>
      </trkpt>
      <trkpt lat="42.47103" lon="18.76449">
        <ele>59.408396</ele>
        <time>2022-05-31T08:40:14.577Z</time>
      </trkpt>
      <trkpt lat="42.47112" lon="18.76443">
        <ele>59.731361</ele>
        <time>2022-05-31T08:40:18.547Z</time>
      </trkpt>
      <trkpt lat="42.47122" lon="18.76437">
        <ele>60.07205</ele>
        <time>2022-05-31T08:40:22.571Z</time>
      </trkpt>
      <trkpt lat="42.47133" lon="18.76432">
        <ele>60.425811</ele>
        <time>2022-05-31T08:40:26.534Z</time>
      </trkpt>
      <trkpt lat="42.47143" lon="18.76426">
        <ele>60.777884</ele>
        <time>2022-05-31T08:40:30.539Z</time>
      </trkpt>
      <trkpt lat="42.47153" lon="18.76419">
        <ele>61.136805</ele>
        <time>2022-05-31T08:40:34.556Z</time>
      </trkpt>
      <trkpt lat="42.47162" lon="18.76413">
        <ele>61.436191</ele>
        <time>2022-05-31T08:40:37.556Z</time>
      </trkpt>
      <trkpt lat="42.47171" lon="18.76408">
        <ele>61.745463</ele>
        <time>2022-05-31T08:40:40.531Z</time>
      </trkpt>
      <trkpt lat="42.47181" lon="18.76403">
        <ele>62.068055</ele>
        <time>2022-05-31T08:40:43.540Z</time>
      </trkpt>
      <trkpt lat="42.47191" lon="18.764">
        <ele>62.397178</ele>
        <time>2022-05-31T08:40:46.548Z</time>
      </trkpt>
      <trkpt lat="42.472" lon="18.76398">
        <ele>62.690999</ele>
        <time>2022-05-31T08:40:49.543Z</time>
      </trkpt>
      <trkpt lat="42.47212" lon="18.764">
        <ele>63.067698</ele>
        <time>2022-05-31T08:40:52.547Z</time>
      </trkpt>
      <trkpt lat="42.47225" lon="18.76404">
        <ele>63.486858</ele>
        <time>2022-05-31T08:40:55.538Z</time>
      </trkpt>
      <trkpt lat="42.47234" lon="18.76409">
        <ele>63.767365</ele>
        <time>2022-05-31T08:40:57.548Z</time>
      </trkpt>
      <trkpt lat="42.47242" lon="18.76415">
        <ele>64.058469</ele>
        <time>2022-05-31T08:40:59.553Z</time>
      </trkpt>
      <trkpt lat="42.47251" lon="18.76423">
        <ele>63.83111</ele>
        <time>2022-05-31T08:41:01.580Z</time>
      </trkpt>
      <trkpt lat="42.4726" lon="18.76432">
        <ele>63.449477</ele>
        <time>2022-05-31T08:41:03.534Z</time>
      </trkpt>
      <trkpt lat="42.47269" lon="18.76442">
        <ele>63.073587</ele>
        <time>2022-05-31T08:41:05.636Z</time>
      </trkpt>
      <trkpt lat="42.47279" lon="18.76453">
        <ele>62.685342</ele>
        <time>2022-05-31T08:41:07.544Z</time>
      </trkpt>
      <trkpt lat="42.47289" lon="18.76462">
        <ele>62.287729</ele>
        <time>2022-05-31T08:41:09.556Z</time>
      </trkpt>
      <trkpt lat="42.47301" lon="18.7647">
        <ele>61.875722</ele>
        <time>2022-05-31T08:41:11.555Z</time>
      </trkpt>
      <trkpt lat="42.47315" lon="18.76475">
        <ele>61.399328</ele>
        <time>2022-05-31T08:41:13.568Z</time>
      </trkpt>
      <trkpt lat="42.47331" lon="18.76477">
        <ele>60.867589</ele>
        <time>2022-05-31T08:41:15.525Z</time>
      </trkpt>
      <trkpt lat="42.47347" lon="18.76475">
        <ele>60.361462</ele>
        <time>2022-05-31T08:41:17.556Z</time>
      </trkpt>
      <trkpt lat="42.47362" lon="18.7647">
        <ele>59.859583</ele>
        <time>2022-05-31T08:41:19.575Z</time>
      </trkpt>
      <trkpt lat="42.47377" lon="18.76465">
        <ele>59.357873</ele>
        <time>2022-05-31T08:41:21.559Z</time>
      </trkpt>
      <trkpt lat="42.47392" lon="18.7646">
        <ele>58.861682</ele>
        <time>2022-05-31T08:41:23.544Z</time>
      </trkpt>
      <trkpt lat="42.47406" lon="18.76457">
        <ele>58.410274</ele>
        <time>2022-05-31T08:41:25.537Z</time>
      </trkpt>
      <trkpt lat="42.4742" lon="18.76458">
        <ele>58.209707</ele>
        <time>2022-05-31T08:41:27.557Z</time>
      </trkpt>
      <trkpt lat="42.47434" lon="18.76463">
        <ele>58.051827</ele>
        <time>2022-05-31T08:41:29.558Z</time>
      </trkpt>
      <trkpt lat="42.47447" lon="18.7647">
        <ele>57.901415</ele>
        <time>2022-05-31T08:41:31.545Z</time>
      </trkpt>
      <trkpt lat="42.47459" lon="18.76477">
        <ele>57.759063</ele>
        <time>2022-05-31T08:41:33.546Z</time>
      </trkpt>
      <trkpt lat="42.4747" lon="18.76482">
        <ele>57.6237</ele>
        <time>2022-05-31T08:41:35.565Z</time>
      </trkpt>
      <trkpt lat="42.47483" lon="18.76484">
        <ele>57.486774</ele>
        <time>2022-05-31T08:41:37.550Z</time>
      </trkpt>
      <trkpt lat="42.47495" lon="18.76483">
        <ele>57.348211</ele>
        <time>2022-05-31T08:41:39.554Z</time>
      </trkpt>
      <trkpt lat="42.47508" lon="18.7648">
        <ele>57.21191</ele>
        <time>2022-05-31T08:41:41.528Z</time>
      </trkpt>
      <trkpt lat="42.47519" lon="18.76477">
        <ele>57.086587</ele>
        <time>2022-05-31T08:41:43.557Z</time>
      </trkpt>
      <trkpt lat="42.4753" lon="18.76476">
        <ele>56.965876</ele>
        <time>2022-05-31T08:41:45.555Z</time>
      </trkpt>
      <trkpt lat="42.47541" lon="18.76475">
        <ele>56.844245</ele>
        <time>2022-05-31T08:41:47.528Z</time>
      </trkpt>
      <trkpt lat="42.47552" lon="18.76476">
        <ele>56.724507</ele>
        <time>2022-05-31T08:41:49.554Z</time>
      </trkpt>
      <trkpt lat="42.47562" lon="18.76478">
        <ele>56.611082</ele>
        <time>2022-05-31T08:41:51.550Z</time>
      </trkpt>
      <trkpt lat="42.47572" lon="18.7648">
        <ele>56.502974</ele>
        <time>2022-05-31T08:41:53.550Z</time>
      </trkpt>
      <trkpt lat="42.47585" lon="18.76484">
        <ele>56.367686</ele>
        <time>2022-05-31T08:41:56.550Z</time>
      </trkpt>
      <trkpt lat="42.47598" lon="18.76482">
        <ele>56.366987</ele>
        <time>2022-05-31T08:41:59.545Z</time>
      </trkpt>
      <trkpt lat="42.47607" lon="18.76477">
        <ele>56.366489</ele>
        <time>2022-05-31T08:42:01.542Z</time>
      </trkpt>
      <trkpt lat="42.47615" lon="18.76469">
        <ele>56.36597</ele>
        <time>2022-05-31T08:42:03.550Z</time>
      </trkpt>
      <trkpt lat="42.47623" lon="18.7646">
        <ele>56.365422</ele>
        <time>2022-05-31T08:42:05.550Z</time>
      </trkpt>
      <trkpt lat="42.4763" lon="18.7645">
        <ele>56.364894</ele>
        <time>2022-05-31T08:42:07.536Z</time>
      </trkpt>
      <trkpt lat="42.47637" lon="18.76441">
        <ele>56.364384</ele>
        <time>2022-05-31T08:42:09.537Z</time>
      </trkpt>
      <trkpt lat="42.47645" lon="18.76432">
        <ele>56.36385</ele>
        <time>2022-05-31T08:42:11.555Z</time>
      </trkpt>
      <trkpt lat="42.47652" lon="18.76423">
        <ele>56.3633</ele>
        <time>2022-05-31T08:42:13.541Z</time>
      </trkpt>
      <trkpt lat="42.4766" lon="18.76414">
        <ele>56.362751</ele>
        <time>2022-05-31T08:42:15.566Z</time>
      </trkpt>
      <trkpt lat="42.47668" lon="18.76405">
        <ele>56.362209</ele>
        <time>2022-05-31T08:42:17.550Z</time>
      </trkpt>
      <trkpt lat="42.47677" lon="18.76395">
        <ele>56.361637</ele>
        <time>2022-05-31T08:42:19.626Z</time>
      </trkpt>
      <trkpt lat="42.47685" lon="18.76388">
        <ele>56.361098</ele>
        <time>2022-05-31T08:42:21.577Z</time>
      </trkpt>
      <trkpt lat="42.47694" lon="18.76383">
        <ele>56.360615</ele>
        <time>2022-05-31T08:42:23.553Z</time>
      </trkpt>
      <trkpt lat="42.47706" lon="18.76376">
        <ele>56.359915</ele>
        <time>2022-05-31T08:42:26.555Z</time>
      </trkpt>
      <trkpt lat="42.47717" lon="18.76369">
        <ele>56.359283</ele>
        <time>2022-05-31T08:42:29.544Z</time>
      </trkpt>
      <trkpt lat="42.47728" lon="18.76361">
        <ele>56.35863</ele>
        <time>2022-05-31T08:42:32.586Z</time>
      </trkpt>
      <trkpt lat="42.47738" lon="18.76353">
        <ele>56.370739</ele>
        <time>2022-05-31T08:42:35.545Z</time>
      </trkpt>
      <trkpt lat="42.4775" lon="18.76347">
        <ele>56.401258</ele>
        <time>2022-05-31T08:42:38.563Z</time>
      </trkpt>
      <trkpt lat="42.4776" lon="18.76345">
        <ele>56.424666</ele>
        <time>2022-05-31T08:42:40.539Z</time>
      </trkpt>
      <trkpt lat="42.4777" lon="18.76342">
        <ele>56.447202</ele>
        <time>2022-05-31T08:42:42.616Z</time>
      </trkpt>
      <trkpt lat="42.47778" lon="18.7634">
        <ele>56.468546</ele>
        <time>2022-05-31T08:42:44.540Z</time>
      </trkpt>
      <trkpt lat="42.47791" lon="18.76337">
        <ele>56.498394</ele>
        <time>2022-05-31T08:42:47.539Z</time>
      </trkpt>
      <trkpt lat="42.47802" lon="18.76334">
        <ele>56.525353</ele>
        <time>2022-05-31T08:42:50.539Z</time>
      </trkpt>
      <trkpt lat="42.47812" lon="18.76331">
        <ele>56.550364</ele>
        <time>2022-05-31T08:42:53.549Z</time>
      </trkpt>
      <trkpt lat="42.47822" lon="18.76326">
        <ele>56.574251</ele>
        <time>2022-05-31T08:42:56.555Z</time>
      </trkpt>
      <trkpt lat="42.47831" lon="18.76321">
        <ele>56.598707</ele>
        <time>2022-05-31T08:42:59.552Z</time>
      </trkpt>
      <trkpt lat="42.4784" lon="18.76317">
        <ele>56.619975</ele>
        <time>2022-05-31T08:43:02.584Z</time>
      </trkpt>
      <trkpt lat="42.47851" lon="18.76312">
        <ele>56.646231</ele>
        <time>2022-05-31T08:43:06.580Z</time>
      </trkpt>
      <trkpt lat="42.4786" lon="18.76309">
        <ele>56.668729</ele>
        <time>2022-05-31T08:43:09.544Z</time>
      </trkpt>
      <trkpt lat="42.47871" lon="18.76306">
        <ele>56.694704</ele>
        <time>2022-05-31T08:43:12.546Z</time>
      </trkpt>
      <trkpt lat="42.47882" lon="18.76307">
        <ele>56.721401</ele>
        <time>2022-05-31T08:43:15.551Z</time>
      </trkpt>
      <trkpt lat="42.47892" lon="18.7631">
        <ele>56.746454</ele>
        <time>2022-05-31T08:43:18.546Z</time>
      </trkpt>
      <trkpt lat="42.47903" lon="18.76315">
        <ele>56.773917</ele>
        <time>2022-05-31T08:43:21.535Z</time>
      </trkpt>
      <trkpt lat="42.47913" lon="18.76317">
        <ele>56.67051</ele>
        <time>2022-05-31T08:43:24.550Z</time>
      </trkpt>
      <trkpt lat="42.47924" lon="18.76321">
        <ele>56.469714</ele>
        <time>2022-05-31T08:43:28.570Z</time>
      </trkpt>
      <trkpt lat="42.47933" lon="18.76326">
        <ele>56.282465</ele>
        <time>2022-05-31T08:43:31.553Z</time>
      </trkpt>
      <trkpt lat="42.47943" lon="18.76334">
        <ele>56.070288</ele>
        <time>2022-05-31T08:43:34.548Z</time>
      </trkpt>
      <trkpt lat="42.47953" lon="18.76342">
        <ele>55.854855</ele>
        <time>2022-05-31T08:43:37.556Z</time>
      </trkpt>
      <trkpt lat="42.47963" lon="18.76351">
        <ele>55.634945</ele>
        <time>2022-05-31T08:43:40.547Z</time>
      </trkpt>
      <trkpt lat="42.47973" lon="18.76359">
        <ele>55.419813</ele>
        <time>2022-05-31T08:43:43.556Z</time>
      </trkpt>
      <trkpt lat="42.47983" lon="18.76366">
        <ele>55.205354</ele>
        <time>2022-05-31T08:43:46.543Z</time>
      </trkpt>
      <trkpt lat="42.47993" lon="18.76373">
        <ele>54.999701</ele>
        <time>2022-05-31T08:43:49.548Z</time>
      </trkpt>
      <trkpt lat="42.48002" lon="18.7638">
        <ele>54.795679</ele>
        <time>2022-05-31T08:43:52.552Z</time>
      </trkpt>
      <trkpt lat="42.48013" lon="18.76384">
        <ele>54.584891</ele>
        <time>2022-05-31T08:43:55.527Z</time>
      </trkpt>
      <trkpt lat="42.48025" lon="18.7639">
        <ele>54.366217</ele>
        <time>2022-05-31T08:43:58.537Z</time>
      </trkpt>
      <trkpt lat="42.48035" lon="18.76392">
        <ele>54.169969</ele>
        <time>2022-05-31T08:44:01.545Z</time>
      </trkpt>
      <trkpt lat="42.48046" lon="18.7639">
        <ele>53.959823</ele>
        <time>2022-05-31T08:44:04.545Z</time>
      </trkpt>
      <trkpt lat="42.48059" lon="18.76386">
        <ele>53.722723</ele>
        <time>2022-05-31T08:44:07.548Z</time>
      </trkpt>
      <trkpt lat="42.48071" lon="18.76382">
        <ele>53.490728</ele>
        <time>2022-05-31T08:44:10.554Z</time>
      </trkpt>
      <trkpt lat="42.48084" lon="18.76379">
        <ele>53.405018</ele>
        <time>2022-05-31T08:44:13.572Z</time>
      </trkpt>
      <trkpt lat="42.48095" lon="18.76377">
        <ele>53.350793</ele>
        <time>2022-05-31T08:44:16.549Z</time>
      </trkpt>
      <trkpt lat="42.48106" lon="18.76378">
        <ele>53.303503</ele>
        <time>2022-05-31T08:44:19.585Z</time>
      </trkpt>
      <trkpt lat="42.48117" lon="18.76378">
        <ele>53.251235</ele>
        <time>2022-05-31T08:44:23.536Z</time>
      </trkpt>
      <trkpt lat="42.48127" lon="18.76377">
        <ele>53.205749</ele>
        <time>2022-05-31T08:44:26.555Z</time>
      </trkpt>
      <trkpt lat="42.48137" lon="18.76378">
        <ele>53.159822</ele>
        <time>2022-05-31T08:44:29.546Z</time>
      </trkpt>
      <trkpt lat="42.48148" lon="18.76381">
        <ele>53.108842</ele>
        <time>2022-05-31T08:44:32.547Z</time>
      </trkpt>
      <trkpt lat="42.48159" lon="18.76385">
        <ele>53.058459</ele>
        <time>2022-05-31T08:44:35.552Z</time>
      </trkpt>
      <trkpt lat="42.4817" lon="18.76388">
        <ele>53.00811</ele>
        <time>2022-05-31T08:44:38.550Z</time>
      </trkpt>
      <trkpt lat="42.4818" lon="18.76392">
        <ele>52.959515</ele>
        <time>2022-05-31T08:44:41.540Z</time>
      </trkpt>
      <trkpt lat="42.48188" lon="18.76398">
        <ele>52.91879</ele>
        <time>2022-05-31T08:44:44.531Z</time>
      </trkpt>
      <trkpt lat="42.48198" lon="18.76403">
        <ele>52.868528</ele>
        <time>2022-05-31T08:44:49.554Z</time>
      </trkpt>
      <trkpt lat="42.48207" lon="18.76408">
        <ele>52.827524</ele>
        <time>2022-05-31T08:44:52.554Z</time>
      </trkpt>
      <trkpt lat="42.48216" lon="18.76414">
        <ele>52.782098</ele>
        <time>2022-05-31T08:44:55.544Z</time>
      </trkpt>
      <trkpt lat="42.48225" lon="18.76421">
        <ele>52.734719</ele>
        <time>2022-05-31T08:44:58.548Z</time>
      </trkpt>
      <trkpt lat="42.48232" lon="18.76428">
        <ele>52.692766</ele>
        <time>2022-05-31T08:45:01.576Z</time>
      </trkpt>
      <trkpt lat="42.48241" lon="18.76433">
        <ele>52.648021</ele>
        <time>2022-05-31T08:45:05.550Z</time>
      </trkpt>
      <trkpt lat="42.4825" lon="18.76438">
        <ele>52.754741</ele>
        <time>2022-05-31T08:45:08.549Z</time>
      </trkpt>
      <trkpt lat="42.48259" lon="18.76444">
        <ele>52.929169</ele>
        <time>2022-05-31T08:45:11.577Z</time>
      </trkpt>
      <trkpt lat="42.48268" lon="18.7645">
        <ele>53.104221</ele>
        <time>2022-05-31T08:45:14.533Z</time>
      </trkpt>
      <trkpt lat="42.48277" lon="18.76456">
        <ele>53.284129</ele>
        <time>2022-05-31T08:45:17.544Z</time>
      </trkpt>
      <trkpt lat="42.48286" lon="18.7646">
        <ele>53.450245</ele>
        <time>2022-05-31T08:45:20.544Z</time>
      </trkpt>
      <trkpt lat="42.48296" lon="18.76464">
        <ele>53.63305</ele>
        <time>2022-05-31T08:45:23.552Z</time>
      </trkpt>
      <trkpt lat="42.48306" lon="18.76469">
        <ele>53.828133</ele>
        <time>2022-05-31T08:45:26.552Z</time>
      </trkpt>
      <trkpt lat="42.48317" lon="18.76475">
        <ele>54.035091</ele>
        <time>2022-05-31T08:45:29.555Z</time>
      </trkpt>
      <trkpt lat="42.48327" lon="18.76478">
        <ele>54.209639</ele>
        <time>2022-05-31T08:45:32.551Z</time>
      </trkpt>
      <trkpt lat="42.48337" lon="18.7648">
        <ele>54.383046</ele>
        <time>2022-05-31T08:45:36.537Z</time>
      </trkpt>
      <trkpt lat="42.48348" lon="18.76479">
        <ele>54.584013</ele>
        <time>2022-05-31T08:45:40.548Z</time>
      </trkpt>
      <trkpt lat="42.48357" lon="18.76479">
        <ele>54.74985</ele>
        <time>2022-05-31T08:45:43.555Z</time>
      </trkpt>
      <trkpt lat="42.48367" lon="18.76478">
        <ele>54.922793</ele>
        <time>2022-05-31T08:45:46.572Z</time>
      </trkpt>
      <trkpt lat="42.48378" lon="18.7648">
        <ele>55.109649</ele>
        <time>2022-05-31T08:45:49.547Z</time>
      </trkpt>
      <trkpt lat="42.48387" lon="18.76483">
        <ele>55.283135</ele>
        <time>2022-05-31T08:45:52.522Z</time>
      </trkpt>
      <trkpt lat="42.48397" lon="18.76488">
        <ele>55.461346</ele>
        <time>2022-05-31T08:45:55.531Z</time>
      </trkpt>
      <trkpt lat="42.48408" lon="18.76495">
        <ele>55.672288</ele>
        <time>2022-05-31T08:45:59.653Z</time>
      </trkpt>
      <trkpt lat="42.48416" lon="18.76501">
        <ele>55.912134</ele>
        <time>2022-05-31T08:46:02.545Z</time>
      </trkpt>
      <trkpt lat="42.48423" lon="18.76509">
        <ele>56.44963</ele>
        <time>2022-05-31T08:46:05.570Z</time>
      </trkpt>
      <trkpt lat="42.48431" lon="18.76521">
        <ele>57.132174</ele>
        <time>2022-05-31T08:46:09.589Z</time>
      </trkpt>
      <trkpt lat="42.48438" lon="18.76533">
        <ele>57.815011</ele>
        <time>2022-05-31T08:46:13.547Z</time>
      </trkpt>
      <trkpt lat="42.48444" lon="18.76545">
        <ele>58.451918</ele>
        <time>2022-05-31T08:46:17.548Z</time>
      </trkpt>
      <trkpt lat="42.4845" lon="18.76555">
        <ele>59.001603</ele>
        <time>2022-05-31T08:46:21.548Z</time>
      </trkpt>
      <trkpt lat="42.48456" lon="18.76567">
        <ele>59.614597</ele>
        <time>2022-05-31T08:46:26.594Z</time>
      </trkpt>
      <trkpt lat="42.48462" lon="18.76577">
        <ele>60.18538</ele>
        <time>2022-05-31T08:46:31.551Z</time>
      </trkpt>
      <trkpt lat="42.48467" lon="18.76588">
        <ele>60.740889</ele>
        <time>2022-05-31T08:46:38.590Z</time>
      </trkpt>
      <trkpt lat="42.48461" lon="18.76598">
        <ele>61.269813</ele>
        <time>2022-05-31T08:46:49.577Z</time>
      </trkpt>
      <trkpt lat="42.48455" lon="18.76608">
        <ele>61.853843</ele>
        <time>2022-05-31T08:46:58.551Z</time>
      </trkpt>
      <trkpt lat="42.48462" lon="18.76618">
        <ele>62.416896</ele>
        <time>2022-05-31T08:47:03.541Z</time>
      </trkpt>
      <trkpt lat="42.48471" lon="18.76625">
        <ele>63.046114</ele>
        <time>2022-05-31T08:47:08.551Z</time>
      </trkpt>
      <trkpt lat="42.4848" lon="18.76633">
        <ele>63.678164</ele>
        <time>2022-05-31T08:47:12.532Z</time>
      </trkpt>
      <trkpt lat="42.48488" lon="18.76639">
        <ele>64.213194</ele>
        <time>2022-05-31T08:47:15.532Z</time>
      </trkpt>
      <trkpt lat="42.48498" lon="18.76646">
        <ele>64.904841</ele>
        <time>2022-05-31T08:47:19.536Z</time>
      </trkpt>
      <trkpt lat="42.48507" lon="18.76651">
        <ele>65.433637</ele>
        <time>2022-05-31T08:47:22.521Z</time>
      </trkpt>
      <trkpt lat="42.48515" lon="18.76657">
        <ele>65.96797</ele>
        <time>2022-05-31T08:47:25.558Z</time>
      </trkpt>
      <trkpt lat="42.48525" lon="18.76662">
        <ele>66.528077</ele>
        <time>2022-05-31T08:47:29.545Z</time>
      </trkpt>
      <trkpt lat="42.48535" lon="18.76667">
        <ele>66.908073</ele>
        <time>2022-05-31T08:47:32.553Z</time>
      </trkpt>
      <trkpt lat="42.48544" lon="18.76671">
        <ele>67.266877</ele>
        <time>2022-05-31T08:47:35.541Z</time>
      </trkpt>
      <trkpt lat="42.48553" lon="18.76675">
        <ele>67.60729</ele>
        <time>2022-05-31T08:47:38.554Z</time>
      </trkpt>
      <trkpt lat="42.48562" lon="18.76679">
        <ele>67.945657</ele>
        <time>2022-05-31T08:47:41.535Z</time>
      </trkpt>
      <trkpt lat="42.48571" lon="18.76682">
        <ele>68.304102</ele>
        <time>2022-05-31T08:47:44.556Z</time>
      </trkpt>
      <trkpt lat="42.48581" lon="18.76685">
        <ele>68.673598</ele>
        <time>2022-05-31T08:47:47.544Z</time>
      </trkpt>
      <trkpt lat="42.4859" lon="18.76688">
        <ele>69.046122</ele>
        <time>2022-05-31T08:47:50.568Z</time>
      </trkpt>
      <trkpt lat="42.48599" lon="18.76689">
        <ele>69.384794</ele>
        <time>2022-05-31T08:47:53.555Z</time>
      </trkpt>
      <trkpt lat="42.4861" lon="18.76688">
        <ele>69.760534</ele>
        <time>2022-05-31T08:47:56.553Z</time>
      </trkpt>
      <trkpt lat="42.48619" lon="18.76685">
        <ele>70.107087</ele>
        <time>2022-05-31T08:47:59.541Z</time>
      </trkpt>
      <trkpt lat="42.48629" lon="18.76677">
        <ele>70.538752</ele>
        <time>2022-05-31T08:48:03.545Z</time>
      </trkpt>
      <trkpt lat="42.48634" lon="18.76667">
        <ele>70.904716</ele>
        <time>2022-05-31T08:48:06.538Z</time>
      </trkpt>
      <trkpt lat="42.48638" lon="18.76654">
        <ele>71.277324</ele>
        <time>2022-05-31T08:48:09.550Z</time>
      </trkpt>
      <trkpt lat="42.48639" lon="18.76639">
        <ele>71.675846</ele>
        <time>2022-05-31T08:48:12.557Z</time>
      </trkpt>
      <trkpt lat="42.48639" lon="18.76623">
        <ele>72.130478</ele>
        <time>2022-05-31T08:48:15.586Z</time>
      </trkpt>
      <trkpt lat="42.4864" lon="18.76611">
        <ele>72.463941</ele>
        <time>2022-05-31T08:48:17.537Z</time>
      </trkpt>
      <trkpt lat="42.48642" lon="18.76598">
        <ele>72.808118</ele>
        <time>2022-05-31T08:48:19.535Z</time>
      </trkpt>
      <trkpt lat="42.48646" lon="18.76586">
        <ele>72.858432</ele>
        <time>2022-05-31T08:48:21.576Z</time>
      </trkpt>
      <trkpt lat="42.48652" lon="18.76576">
        <ele>72.394923</ele>
        <time>2022-05-31T08:48:23.556Z</time>
      </trkpt>
      <trkpt lat="42.4866" lon="18.76567">
        <ele>71.920963</ele>
        <time>2022-05-31T08:48:25.579Z</time>
      </trkpt>
      <trkpt lat="42.48669" lon="18.76559">
        <ele>71.453769</ele>
        <time>2022-05-31T08:48:27.545Z</time>
      </trkpt>
      <trkpt lat="42.48678" lon="18.76552">
        <ele>70.976021</ele>
        <time>2022-05-31T08:48:29.533Z</time>
      </trkpt>
      <trkpt lat="42.48688" lon="18.76547">
        <ele>70.470945</ele>
        <time>2022-05-31T08:48:31.577Z</time>
      </trkpt>
      <trkpt lat="42.48699" lon="18.76541">
        <ele>69.959827</ele>
        <time>2022-05-31T08:48:33.562Z</time>
      </trkpt>
      <trkpt lat="42.48711" lon="18.76536">
        <ele>69.383299</ele>
        <time>2022-05-31T08:48:35.552Z</time>
      </trkpt>
      <trkpt lat="42.48723" lon="18.76531">
        <ele>68.800749</ele>
        <time>2022-05-31T08:48:37.568Z</time>
      </trkpt>
      <trkpt lat="42.48735" lon="18.76528">
        <ele>68.235178</ele>
        <time>2022-05-31T08:48:39.548Z</time>
      </trkpt>
      <trkpt lat="42.48748" lon="18.76527">
        <ele>67.670638</ele>
        <time>2022-05-31T08:48:41.553Z</time>
      </trkpt>
      <trkpt lat="42.48762" lon="18.7653">
        <ele>67.003039</ele>
        <time>2022-05-31T08:48:43.574Z</time>
      </trkpt>
      <trkpt lat="42.48777" lon="18.76534">
        <ele>66.310375</ele>
        <time>2022-05-31T08:48:45.555Z</time>
      </trkpt>
      <trkpt lat="42.48792" lon="18.76537">
        <ele>65.614259</ele>
        <time>2022-05-31T08:48:47.550Z</time>
      </trkpt>
      <trkpt lat="42.48809" lon="18.76537">
        <ele>64.876915</ele>
        <time>2022-05-31T08:48:49.551Z</time>
      </trkpt>
      <trkpt lat="42.48823" lon="18.76532">
        <ele>64.38785</ele>
        <time>2022-05-31T08:48:51.557Z</time>
      </trkpt>
      <trkpt lat="42.48836" lon="18.76524">
        <ele>63.909212</ele>
        <time>2022-05-31T08:48:53.554Z</time>
      </trkpt>
      <trkpt lat="42.48849" lon="18.76513">
        <ele>63.418104</ele>
        <time>2022-05-31T08:48:55.539Z</time>
      </trkpt>
      <trkpt lat="42.4886" lon="18.76501">
        <ele>62.950198</ele>
        <time>2022-05-31T08:48:57.538Z</time>
      </trkpt>
      <trkpt lat="42.48871" lon="18.76489">
        <ele>62.522604</ele>
        <time>2022-05-31T08:48:59.533Z</time>
      </trkpt>
      <trkpt lat="42.4888" lon="18.76477">
        <ele>62.101409</ele>
        <time>2022-05-31T08:49:01.531Z</time>
      </trkpt>
      <trkpt lat="42.48889" lon="18.76465">
        <ele>61.684514</ele>
        <time>2022-05-31T08:49:03.529Z</time>
      </trkpt>
      <trkpt lat="42.48898" lon="18.76456">
        <ele>61.319337</ele>
        <time>2022-05-31T08:49:05.532Z</time>
      </trkpt>
      <trkpt lat="42.48908" lon="18.76446">
        <ele>60.934906</ele>
        <time>2022-05-31T08:49:07.533Z</time>
      </trkpt>
      <trkpt lat="42.48919" lon="18.76437">
        <ele>60.517129</ele>
        <time>2022-05-31T08:49:09.549Z</time>
      </trkpt>
      <trkpt lat="42.4893" lon="18.76429">
        <ele>60.10558</ele>
        <time>2022-05-31T08:49:11.529Z</time>
      </trkpt>
      <trkpt lat="42.48941" lon="18.76421">
        <ele>59.711075</ele>
        <time>2022-05-31T08:49:13.528Z</time>
      </trkpt>
      <trkpt lat="42.48951" lon="18.76415">
        <ele>59.354568</ele>
        <time>2022-05-31T08:49:15.614Z</time>
      </trkpt>
      <trkpt lat="42.4896" lon="18.7641">
        <ele>59.014597</ele>
        <time>2022-05-31T08:49:17.531Z</time>
      </trkpt>
      <trkpt lat="42.4897" lon="18.76405">
        <ele>59.259409</ele>
        <time>2022-05-31T08:49:19.534Z</time>
      </trkpt>
      <trkpt lat="42.48982" lon="18.76399">
        <ele>59.596109</ele>
        <time>2022-05-31T08:49:22.530Z</time>
      </trkpt>
      <trkpt lat="42.48993" lon="18.76391">
        <ele>59.918957</ele>
        <time>2022-05-31T08:49:25.529Z</time>
      </trkpt>
      <trkpt lat="42.49002" lon="18.7638">
        <ele>60.220193</ele>
        <time>2022-05-31T08:49:28.534Z</time>
      </trkpt>
      <trkpt lat="42.49011" lon="18.76365">
        <ele>60.573497</ele>
        <time>2022-05-31T08:49:32.558Z</time>
      </trkpt>
      <trkpt lat="42.49017" lon="18.76355">
        <ele>60.815534</ele>
        <time>2022-05-31T08:49:35.533Z</time>
      </trkpt>
      <trkpt lat="42.49022" lon="18.76343">
        <ele>61.080382</ele>
        <time>2022-05-31T08:49:38.570Z</time>
      </trkpt>
      <trkpt lat="42.49028" lon="18.76331">
        <ele>61.350354</ele>
        <time>2022-05-31T08:49:41.636Z</time>
      </trkpt>
      <trkpt lat="42.49034" lon="18.76318">
        <ele>61.620085</ele>
        <time>2022-05-31T08:49:44.580Z</time>
      </trkpt>
      <trkpt lat="42.49038" lon="18.76305">
        <ele>61.889591</ele>
        <time>2022-05-31T08:49:47.552Z</time>
      </trkpt>
      <trkpt lat="42.49041" lon="18.76293">
        <ele>62.123903</ele>
        <time>2022-05-31T08:49:50.582Z</time>
      </trkpt>
      <trkpt lat="42.49045" lon="18.76279">
        <ele>62.398167</ele>
        <time>2022-05-31T08:49:54.558Z</time>
      </trkpt>
      <trkpt lat="42.49047" lon="18.76265">
        <ele>62.682358</ele>
        <time>2022-05-31T08:49:58.525Z</time>
      </trkpt>
      <trkpt lat="42.49049" lon="18.76252">
        <ele>62.917463</ele>
        <time>2022-05-31T08:50:01.547Z</time>
      </trkpt>
      <trkpt lat="42.49049" lon="18.76237">
        <ele>63.207216</ele>
        <time>2022-05-31T08:50:05.537Z</time>
      </trkpt>
      <trkpt lat="42.49047" lon="18.76223">
        <ele>63.470357</ele>
        <time>2022-05-31T08:50:09.553Z</time>
      </trkpt>
      <trkpt lat="42.49045" lon="18.7621">
        <ele>63.540794</ele>
        <time>2022-05-31T08:50:13.578Z</time>
      </trkpt>
      <trkpt lat="42.49042" lon="18.76198">
        <ele>63.498829</ele>
        <time>2022-05-31T08:50:17.551Z</time>
      </trkpt>
      <trkpt lat="42.49039" lon="18.76185">
        <ele>63.45322</ele>
        <time>2022-05-31T08:50:21.552Z</time>
      </trkpt>
      <trkpt lat="42.49034" lon="18.76172">
        <ele>63.404077</ele>
        <time>2022-05-31T08:50:25.561Z</time>
      </trkpt>
      <trkpt lat="42.4903" lon="18.76159">
        <ele>63.357161</ele>
        <time>2022-05-31T08:50:29.579Z</time>
      </trkpt>
      <trkpt lat="42.49026" lon="18.76146">
        <ele>63.313186</ele>
        <time>2022-05-31T08:50:33.532Z</time>
      </trkpt>
      <trkpt lat="42.49023" lon="18.76134">
        <ele>63.272191</ele>
        <time>2022-05-31T08:50:37.571Z</time>
      </trkpt>
      <trkpt lat="42.4902" lon="18.7612">
        <ele>63.223597</ele>
        <time>2022-05-31T08:50:42.549Z</time>
      </trkpt>
      <trkpt lat="42.49017" lon="18.76107">
        <ele>63.177053</ele>
        <time>2022-05-31T08:50:47.547Z</time>
      </trkpt>
      <trkpt lat="42.49015" lon="18.76093">
        <ele>63.130057</ele>
        <time>2022-05-31T08:50:52.551Z</time>
      </trkpt>
      <trkpt lat="42.49015" lon="18.7608">
        <ele>63.089985</ele>
        <time>2022-05-31T08:50:56.559Z</time>
      </trkpt>
      <trkpt lat="42.49017" lon="18.76068">
        <ele>63.048638</ele>
        <time>2022-05-31T08:51:00.545Z</time>
      </trkpt>
      <trkpt lat="42.49018" lon="18.76053">
        <ele>63.000062</ele>
        <time>2022-05-31T08:51:05.595Z</time>
      </trkpt>
      <trkpt lat="42.49018" lon="18.76038">
        <ele>62.951074</ele>
        <time>2022-05-31T08:51:10.545Z</time>
      </trkpt>
      <trkpt lat="42.49019" lon="18.76023">
        <ele>62.902219</ele>
        <time>2022-05-31T08:51:15.545Z</time>
      </trkpt>
      <trkpt lat="42.49022" lon="18.7601">
        <ele>62.85565</ele>
        <time>2022-05-31T08:51:20.535Z</time>
      </trkpt>
      <trkpt lat="42.49023" lon="18.75997">
        <ele>62.813982</ele>
        <time>2022-05-31T08:51:24.571Z</time>
      </trkpt>
      <trkpt lat="42.49025" lon="18.75984">
        <ele>62.770215</ele>
        <time>2022-05-31T08:51:28.544Z</time>
      </trkpt>
      <trkpt lat="42.49028" lon="18.75971">
        <ele>62.662079</ele>
        <time>2022-05-31T08:51:32.590Z</time>
      </trkpt>
      <trkpt lat="42.49031" lon="18.75958">
        <ele>62.555677</ele>
        <time>2022-05-31T08:51:36.566Z</time>
      </trkpt>
      <trkpt lat="42.49035" lon="18.75947">
        <ele>62.455428</ele>
        <time>2022-05-31T08:51:40.544Z</time>
      </trkpt>
      <trkpt lat="42.49039" lon="18.75935">
        <ele>62.34433</ele>
        <time>2022-05-31T08:51:44.587Z</time>
      </trkpt>
      <trkpt lat="42.49044" lon="18.75922">
        <ele>62.230868</ele>
        <time>2022-05-31T08:51:48.537Z</time>
      </trkpt>
      <trkpt lat="42.49049" lon="18.7591">
        <ele>62.119876</ele>
        <time>2022-05-31T08:51:52.600Z</time>
      </trkpt>
      <trkpt lat="42.49053" lon="18.75897">
        <ele>62.001913</ele>
        <time>2022-05-31T08:51:56.544Z</time>
      </trkpt>
      <trkpt lat="42.49056" lon="18.75884">
        <ele>61.893961</ele>
        <time>2022-05-31T08:51:59.531Z</time>
      </trkpt>
      <trkpt lat="42.49059" lon="18.7587">
        <ele>61.768996</ele>
        <time>2022-05-31T08:52:02.552Z</time>
      </trkpt>
      <trkpt lat="42.49062" lon="18.75853">
        <ele>61.632788</ele>
        <time>2022-05-31T08:52:05.545Z</time>
      </trkpt>
      <trkpt lat="42.49063" lon="18.75836">
        <ele>61.489147</ele>
        <time>2022-05-31T08:52:08.554Z</time>
      </trkpt>
      <trkpt lat="42.49064" lon="18.75822">
        <ele>61.379873</ele>
        <time>2022-05-31T08:52:10.528Z</time>
      </trkpt>
      <trkpt lat="42.49063" lon="18.75807">
        <ele>61.25831</ele>
        <time>2022-05-31T08:52:12.543Z</time>
      </trkpt>
      <trkpt lat="42.49062" lon="18.75792">
        <ele>61.130814</ele>
        <time>2022-05-31T08:52:14.527Z</time>
      </trkpt>
      <trkpt lat="42.49061" lon="18.75776">
        <ele>61.001421</ele>
        <time>2022-05-31T08:52:16.540Z</time>
      </trkpt>
      <trkpt lat="42.49059" lon="18.7576">
        <ele>60.866698</ele>
        <time>2022-05-31T08:52:18.587Z</time>
      </trkpt>
      <trkpt lat="42.49056" lon="18.75743">
        <ele>60.877831</ele>
        <time>2022-05-31T08:52:20.535Z</time>
      </trkpt>
      <trkpt lat="42.49052" lon="18.75727">
        <ele>61.151866</ele>
        <time>2022-05-31T08:52:22.575Z</time>
      </trkpt>
      <trkpt lat="42.49047" lon="18.75709">
        <ele>61.455105</ele>
        <time>2022-05-31T08:52:24.543Z</time>
      </trkpt>
      <trkpt lat="42.49041" lon="18.7569">
        <ele>61.787533</ele>
        <time>2022-05-31T08:52:26.543Z</time>
      </trkpt>
      <trkpt lat="42.49034" lon="18.7567">
        <ele>62.136004</ele>
        <time>2022-05-31T08:52:28.668Z</time>
      </trkpt>
      <trkpt lat="42.49026" lon="18.75651">
        <ele>62.488505</ele>
        <time>2022-05-31T08:52:30.537Z</time>
      </trkpt>
      <trkpt lat="42.49018" lon="18.75632">
        <ele>62.839646</ele>
        <time>2022-05-31T08:52:32.550Z</time>
      </trkpt>
      <trkpt lat="42.49011" lon="18.75613">
        <ele>63.176385</ele>
        <time>2022-05-31T08:52:34.583Z</time>
      </trkpt>
      <trkpt lat="42.49005" lon="18.75595">
        <ele>63.49339</ele>
        <time>2022-05-31T08:52:36.537Z</time>
      </trkpt>
      <trkpt lat="42.48999" lon="18.75578">
        <ele>63.80454</ele>
        <time>2022-05-31T08:52:38.551Z</time>
      </trkpt>
      <trkpt lat="42.48995" lon="18.75557">
        <ele>64.137039</ele>
        <time>2022-05-31T08:52:40.548Z</time>
      </trkpt>
      <trkpt lat="42.48994" lon="18.75536">
        <ele>64.482372</ele>
        <time>2022-05-31T08:52:42.560Z</time>
      </trkpt>
      <trkpt lat="42.48995" lon="18.75515">
        <ele>64.691982</ele>
        <time>2022-05-31T08:52:44.572Z</time>
      </trkpt>
      <trkpt lat="42.49" lon="18.75495">
        <ele>64.723865</ele>
        <time>2022-05-31T08:52:46.553Z</time>
      </trkpt>
      <trkpt lat="42.49006" lon="18.75477">
        <ele>64.753178</ele>
        <time>2022-05-31T08:52:48.558Z</time>
      </trkpt>
      <trkpt lat="42.49014" lon="18.75461">
        <ele>64.782428</ele>
        <time>2022-05-31T08:52:50.545Z</time>
      </trkpt>
      <trkpt lat="42.49021" lon="18.75443">
        <ele>64.813286</ele>
        <time>2022-05-31T08:52:52.544Z</time>
      </trkpt>
      <trkpt lat="42.49028" lon="18.75424">
        <ele>64.844862</ele>
        <time>2022-05-31T08:52:54.557Z</time>
      </trkpt>
      <trkpt lat="42.49031" lon="18.75405">
        <ele>64.875008</ele>
        <time>2022-05-31T08:52:56.568Z</time>
      </trkpt>
      <trkpt lat="42.49032" lon="18.75384">
        <ele>64.905827</ele>
        <time>2022-05-31T08:52:58.568Z</time>
      </trkpt>
      <trkpt lat="42.49029" lon="18.75365">
        <ele>64.935434</ele>
        <time>2022-05-31T08:53:00.545Z</time>
      </trkpt>
      <trkpt lat="42.49024" lon="18.75348">
        <ele>64.961912</ele>
        <time>2022-05-31T08:53:02.548Z</time>
      </trkpt>
      <trkpt lat="42.49017" lon="18.75335">
        <ele>64.98694</ele>
        <time>2022-05-31T08:53:04.543Z</time>
      </trkpt>
      <trkpt lat="42.49009" lon="18.75324">
        <ele>65.010004</ele>
        <time>2022-05-31T08:53:06.546Z</time>
      </trkpt>
      <trkpt lat="42.49001" lon="18.75315">
        <ele>65.032038</ele>
        <time>2022-05-31T08:53:08.580Z</time>
      </trkpt>
      <trkpt lat="42.48993" lon="18.75307">
        <ele>65.180336</ele>
        <time>2022-05-31T08:53:10.541Z</time>
      </trkpt>
      <trkpt lat="42.48985" lon="18.753">
        <ele>65.638862</ele>
        <time>2022-05-31T08:53:12.538Z</time>
      </trkpt>
      <trkpt lat="42.48978" lon="18.75293">
        <ele>66.091196</ele>
        <time>2022-05-31T08:53:14.558Z</time>
      </trkpt>
      <trkpt lat="42.48971" lon="18.75285">
        <ele>66.561149</ele>
        <time>2022-05-31T08:53:16.565Z</time>
      </trkpt>
      <trkpt lat="42.48963" lon="18.75277">
        <ele>67.04496</ele>
        <time>2022-05-31T08:53:18.553Z</time>
      </trkpt>
      <trkpt lat="42.48957" lon="18.75267">
        <ele>67.52136</ele>
        <time>2022-05-31T08:53:20.535Z</time>
      </trkpt>
      <trkpt lat="42.48949" lon="18.75253">
        <ele>68.187984</ele>
        <time>2022-05-31T08:53:23.570Z</time>
      </trkpt>
      <trkpt lat="42.48943" lon="18.75243">
        <ele>68.670352</ele>
        <time>2022-05-31T08:53:25.584Z</time>
      </trkpt>
      <trkpt lat="42.48936" lon="18.75233">
        <ele>69.148216</ele>
        <time>2022-05-31T08:53:27.557Z</time>
      </trkpt>
      <trkpt lat="42.4893" lon="18.75223">
        <ele>69.642628</ele>
        <time>2022-05-31T08:53:29.557Z</time>
      </trkpt>
      <trkpt lat="42.48924" lon="18.75212">
        <ele>70.118808</ele>
        <time>2022-05-31T08:53:31.572Z</time>
      </trkpt>
      <trkpt lat="42.48919" lon="18.75202">
        <ele>70.598411</ele>
        <time>2022-05-31T08:53:33.565Z</time>
      </trkpt>
      <trkpt lat="42.48913" lon="18.75192">
        <ele>71.062755</ele>
        <time>2022-05-31T08:53:35.551Z</time>
      </trkpt>
      <trkpt lat="42.48907" lon="18.75182">
        <ele>71.540122</ele>
        <time>2022-05-31T08:53:37.547Z</time>
      </trkpt>
      <trkpt lat="42.48901" lon="18.75172">
        <ele>71.999297</ele>
        <time>2022-05-31T08:53:39.554Z</time>
      </trkpt>
      <trkpt lat="42.48894" lon="18.75158">
        <ele>72.639245</ele>
        <time>2022-05-31T08:53:42.539Z</time>
      </trkpt>
      <trkpt lat="42.48887" lon="18.75144">
        <ele>73.276575</ele>
        <time>2022-05-31T08:53:45.556Z</time>
      </trkpt>
      <trkpt lat="42.48879" lon="18.7513">
        <ele>73.931181</ele>
        <time>2022-05-31T08:53:48.567Z</time>
      </trkpt>
      <trkpt lat="42.48872" lon="18.75115">
        <ele>73.750566</ele>
        <time>2022-05-31T08:53:51.543Z</time>
      </trkpt>
      <trkpt lat="42.48866" lon="18.75099">
        <ele>73.348858</ele>
        <time>2022-05-31T08:53:54.542Z</time>
      </trkpt>
      <trkpt lat="42.48859" lon="18.75085">
        <ele>72.953593</ele>
        <time>2022-05-31T08:53:57.554Z</time>
      </trkpt>
      <trkpt lat="42.48852" lon="18.75072">
        <ele>72.59329</ele>
        <time>2022-05-31T08:54:00.583Z</time>
      </trkpt>
      <trkpt lat="42.48846" lon="18.75059">
        <ele>72.242144</ele>
        <time>2022-05-31T08:54:03.571Z</time>
      </trkpt>
      <trkpt lat="42.48841" lon="18.75043">
        <ele>71.853769</ele>
        <time>2022-05-31T08:54:06.551Z</time>
      </trkpt>
      <trkpt lat="42.48833" lon="18.75032">
        <ele>71.502535</ele>
        <time>2022-05-31T08:54:09.563Z</time>
      </trkpt>
      <trkpt lat="42.48821" lon="18.75023">
        <ele>71.088454</ele>
        <time>2022-05-31T08:54:12.563Z</time>
      </trkpt>
      <trkpt lat="42.48814" lon="18.75014">
        <ele>70.79844</ele>
        <time>2022-05-31T08:54:14.553Z</time>
      </trkpt>
      <trkpt lat="42.48808" lon="18.75004">
        <ele>70.490088</ele>
        <time>2022-05-31T08:54:16.538Z</time>
      </trkpt>
      <trkpt lat="42.48802" lon="18.74993">
        <ele>70.195169</ele>
        <time>2022-05-31T08:54:18.561Z</time>
      </trkpt>
      <trkpt lat="42.48797" lon="18.74977">
        <ele>69.787893</ele>
        <time>2022-05-31T08:54:21.546Z</time>
      </trkpt>
      <trkpt lat="42.48795" lon="18.74964">
        <ele>69.496607</ele>
        <time>2022-05-31T08:54:23.581Z</time>
      </trkpt>
      <trkpt lat="42.48792" lon="18.74952">
        <ele>69.207018</ele>
        <time>2022-05-31T08:54:25.547Z</time>
      </trkpt>
      <trkpt lat="42.48789" lon="18.74935">
        <ele>68.811741</ele>
        <time>2022-05-31T08:54:28.556Z</time>
      </trkpt>
      <trkpt lat="42.48784" lon="18.74918">
        <ele>68.442575</ele>
        <time>2022-05-31T08:54:31.557Z</time>
      </trkpt>
      <trkpt lat="42.48782" lon="18.74907">
        <ele>68.248078</ele>
        <time>2022-05-31T08:54:33.553Z</time>
      </trkpt>
      <trkpt lat="42.48779" lon="18.74895">
        <ele>68.054142</ele>
        <time>2022-05-31T08:54:35.552Z</time>
      </trkpt>
      <trkpt lat="42.48776" lon="18.74883">
        <ele>67.848392</ele>
        <time>2022-05-31T08:54:37.562Z</time>
      </trkpt>
      <trkpt lat="42.48773" lon="18.74871">
        <ele>67.650559</ele>
        <time>2022-05-31T08:54:39.542Z</time>
      </trkpt>
      <trkpt lat="42.48771" lon="18.74855">
        <ele>67.388759</ele>
        <time>2022-05-31T08:54:42.552Z</time>
      </trkpt>
      <trkpt lat="42.48766" lon="18.7484">
        <ele>67.140253</ele>
        <time>2022-05-31T08:54:45.575Z</time>
      </trkpt>
      <trkpt lat="42.4876" lon="18.74828">
        <ele>66.900402</ele>
        <time>2022-05-31T08:54:48.552Z</time>
      </trkpt>
      <trkpt lat="42.48754" lon="18.74812">
        <ele>66.614202</ele>
        <time>2022-05-31T08:54:51.558Z</time>
      </trkpt>
      <trkpt lat="42.48747" lon="18.74797">
        <ele>66.333796</ele>
        <time>2022-05-31T08:54:54.544Z</time>
      </trkpt>
      <trkpt lat="42.48739" lon="18.74782">
        <ele>66.042218</ele>
        <time>2022-05-31T08:54:57.558Z</time>
      </trkpt>
      <trkpt lat="42.48731" lon="18.74767">
        <ele>65.754414</ele>
        <time>2022-05-31T08:55:00.531Z</time>
      </trkpt>
      <trkpt lat="42.48727" lon="18.74757">
        <ele>65.559747</ele>
        <time>2022-05-31T08:55:02.544Z</time>
      </trkpt>
      <trkpt lat="42.48721" lon="18.74741">
        <ele>65.289709</ele>
        <time>2022-05-31T08:55:05.549Z</time>
      </trkpt>
      <trkpt lat="42.48718" lon="18.74724">
        <ele>65.008968</ele>
        <time>2022-05-31T08:55:08.554Z</time>
      </trkpt>
      <trkpt lat="42.48715" lon="18.74707">
        <ele>64.727533</ele>
        <time>2022-05-31T08:55:11.532Z</time>
      </trkpt>
      <trkpt lat="42.48712" lon="18.7469">
        <ele>64.370389</ele>
        <time>2022-05-31T08:55:14.555Z</time>
      </trkpt>
      <trkpt lat="42.48708" lon="18.74673">
        <ele>63.969292</ele>
        <time>2022-05-31T08:55:17.544Z</time>
      </trkpt>
      <trkpt lat="42.48705" lon="18.74656">
        <ele>63.591616</ele>
        <time>2022-05-31T08:55:20.538Z</time>
      </trkpt>
      <trkpt lat="42.48701" lon="18.7464">
        <ele>63.222979</ele>
        <time>2022-05-31T08:55:23.556Z</time>
      </trkpt>
      <trkpt lat="42.48698" lon="18.74624">
        <ele>62.848823</ele>
        <time>2022-05-31T08:55:26.551Z</time>
      </trkpt>
      <trkpt lat="42.48694" lon="18.74607">
        <ele>62.456608</ele>
        <time>2022-05-31T08:55:29.575Z</time>
      </trkpt>
      <trkpt lat="42.48692" lon="18.74589">
        <ele>62.073863</ele>
        <time>2022-05-31T08:55:32.564Z</time>
      </trkpt>
      <trkpt lat="42.48689" lon="18.74573">
        <ele>61.690123</ele>
        <time>2022-05-31T08:55:35.584Z</time>
      </trkpt>
      <trkpt lat="42.48685" lon="18.74557">
        <ele>61.324874</ele>
        <time>2022-05-31T08:55:38.546Z</time>
      </trkpt>
      <trkpt lat="42.4868" lon="18.74541">
        <ele>60.950223</ele>
        <time>2022-05-31T08:55:41.554Z</time>
      </trkpt>
      <trkpt lat="42.48674" lon="18.74526">
        <ele>60.578051</ele>
        <time>2022-05-31T08:55:44.559Z</time>
      </trkpt>
      <trkpt lat="42.48669" lon="18.74512">
        <ele>60.219779</ele>
        <time>2022-05-31T08:55:47.550Z</time>
      </trkpt>
      <trkpt lat="42.48663" lon="18.74496">
        <ele>59.843682</ele>
        <time>2022-05-31T08:55:50.538Z</time>
      </trkpt>
      <trkpt lat="42.48659" lon="18.7448">
        <ele>59.453561</ele>
        <time>2022-05-31T08:55:53.546Z</time>
      </trkpt>
      <trkpt lat="42.48655" lon="18.74464">
        <ele>59.1684</ele>
        <time>2022-05-31T08:55:56.545Z</time>
      </trkpt>
      <trkpt lat="42.48651" lon="18.74448">
        <ele>58.968303</ele>
        <time>2022-05-31T08:55:59.551Z</time>
      </trkpt>
      <trkpt lat="42.48647" lon="18.74432">
        <ele>58.772827</ele>
        <time>2022-05-31T08:56:02.546Z</time>
      </trkpt>
      <trkpt lat="42.48643" lon="18.74416">
        <ele>58.575084</ele>
        <time>2022-05-31T08:56:05.543Z</time>
      </trkpt>
      <trkpt lat="42.48638" lon="18.744">
        <ele>58.372983</ele>
        <time>2022-05-31T08:56:08.551Z</time>
      </trkpt>
      <trkpt lat="42.48634" lon="18.74385">
        <ele>58.18465</ele>
        <time>2022-05-31T08:56:11.555Z</time>
      </trkpt>
      <trkpt lat="42.48629" lon="18.74371">
        <ele>58.004011</ele>
        <time>2022-05-31T08:56:14.560Z</time>
      </trkpt>
      <trkpt lat="42.48621" lon="18.7436">
        <ele>57.822424</ele>
        <time>2022-05-31T08:56:17.540Z</time>
      </trkpt>
      <trkpt lat="42.48611" lon="18.74349">
        <ele>57.619367</ele>
        <time>2022-05-31T08:56:20.541Z</time>
      </trkpt>
      <trkpt lat="42.48601" lon="18.74339">
        <ele>57.408619</ele>
        <time>2022-05-31T08:56:23.553Z</time>
      </trkpt>
      <trkpt lat="42.4859" lon="18.74328">
        <ele>57.196834</ele>
        <time>2022-05-31T08:56:26.549Z</time>
      </trkpt>
      <trkpt lat="42.48581" lon="18.74315">
        <ele>56.981114</ele>
        <time>2022-05-31T08:56:29.549Z</time>
      </trkpt>
      <trkpt lat="42.48575" lon="18.74304">
        <ele>56.83016</ele>
        <time>2022-05-31T08:56:31.552Z</time>
      </trkpt>
      <trkpt lat="42.48571" lon="18.74293">
        <ele>56.686852</ele>
        <time>2022-05-31T08:56:33.556Z</time>
      </trkpt>
      <trkpt lat="42.48568" lon="18.74276">
        <ele>56.476149</ele>
        <time>2022-05-31T08:56:36.548Z</time>
      </trkpt>
      <trkpt lat="42.48568" lon="18.74258">
        <ele>56.459732</ele>
        <time>2022-05-31T08:56:39.528Z</time>
      </trkpt>
      <trkpt lat="42.48568" lon="18.74241">
        <ele>56.546044</ele>
        <time>2022-05-31T08:56:42.546Z</time>
      </trkpt>
      <trkpt lat="42.4857" lon="18.74223">
        <ele>56.635422</ele>
        <time>2022-05-31T08:56:45.559Z</time>
      </trkpt>
      <trkpt lat="42.48571" lon="18.74206">
        <ele>56.724651</ele>
        <time>2022-05-31T08:56:48.555Z</time>
      </trkpt>
      <trkpt lat="42.48572" lon="18.74189">
        <ele>56.812237</ele>
        <time>2022-05-31T08:56:51.559Z</time>
      </trkpt>
      <trkpt lat="42.48573" lon="18.74171">
        <ele>56.90159</ele>
        <time>2022-05-31T08:56:54.548Z</time>
      </trkpt>
      <trkpt lat="42.48571" lon="18.74154">
        <ele>56.989036</ele>
        <time>2022-05-31T08:56:57.549Z</time>
      </trkpt>
      <trkpt lat="42.48567" lon="18.74138">
        <ele>57.074717</ele>
        <time>2022-05-31T08:57:00.568Z</time>
      </trkpt>
      <trkpt lat="42.48561" lon="18.74124">
        <ele>57.159066</ele>
        <time>2022-05-31T08:57:03.559Z</time>
      </trkpt>
      <trkpt lat="42.48554" lon="18.74109">
        <ele>57.248116</ele>
        <time>2022-05-31T08:57:06.593Z</time>
      </trkpt>
      <trkpt lat="42.48548" lon="18.74092">
        <ele>57.342814</ele>
        <time>2022-05-31T08:57:09.545Z</time>
      </trkpt>
      <trkpt lat="42.48544" lon="18.7408">
        <ele>57.406001</ele>
        <time>2022-05-31T08:57:11.573Z</time>
      </trkpt>
      <trkpt lat="42.48542" lon="18.74069">
        <ele>57.468404</ele>
        <time>2022-05-31T08:57:13.561Z</time>
      </trkpt>
      <trkpt lat="42.48539" lon="18.74056">
        <ele>57.537214</ele>
        <time>2022-05-31T08:57:15.564Z</time>
      </trkpt>
      <trkpt lat="42.48537" lon="18.74043">
        <ele>57.603397</ele>
        <time>2022-05-31T08:57:17.557Z</time>
      </trkpt>
      <trkpt lat="42.48535" lon="18.7403">
        <ele>57.616724</ele>
        <time>2022-05-31T08:57:19.547Z</time>
      </trkpt>
      <trkpt lat="42.48532" lon="18.74017">
        <ele>57.567849</ele>
        <time>2022-05-31T08:57:21.545Z</time>
      </trkpt>
      <trkpt lat="42.48529" lon="18.74005">
        <ele>57.519842</ele>
        <time>2022-05-31T08:57:23.584Z</time>
      </trkpt>
      <trkpt lat="42.48524" lon="18.73993">
        <ele>57.473307</ele>
        <time>2022-05-31T08:57:25.544Z</time>
      </trkpt>
      <trkpt lat="42.48519" lon="18.73983">
        <ele>57.425361</ele>
        <time>2022-05-31T08:57:27.537Z</time>
      </trkpt>
      <trkpt lat="42.48512" lon="18.73973">
        <ele>57.37757</ele>
        <time>2022-05-31T08:57:29.557Z</time>
      </trkpt>
      <trkpt lat="42.48506" lon="18.73964">
        <ele>57.332564</ele>
        <time>2022-05-31T08:57:31.563Z</time>
      </trkpt>
      <trkpt lat="42.48496" lon="18.73952">
        <ele>57.265654</ele>
        <time>2022-05-31T08:57:34.577Z</time>
      </trkpt>
      <trkpt lat="42.48489" lon="18.73944">
        <ele>57.220184</ele>
        <time>2022-05-31T08:57:36.533Z</time>
      </trkpt>
      <trkpt lat="42.48482" lon="18.73935">
        <ele>57.174567</ele>
        <time>2022-05-31T08:57:38.559Z</time>
      </trkpt>
      <trkpt lat="42.48475" lon="18.73926">
        <ele>57.126649</ele>
        <time>2022-05-31T08:57:40.539Z</time>
      </trkpt>
      <trkpt lat="42.48468" lon="18.73917">
        <ele>57.07635</ele>
        <time>2022-05-31T08:57:42.550Z</time>
      </trkpt>
      <trkpt lat="42.48462" lon="18.73906">
        <ele>57.026022</ele>
        <time>2022-05-31T08:57:44.566Z</time>
      </trkpt>
      <trkpt lat="42.48456" lon="18.73895">
        <ele>56.97483</ele>
        <time>2022-05-31T08:57:46.547Z</time>
      </trkpt>
      <trkpt lat="42.4845" lon="18.73883">
        <ele>56.924958</ele>
        <time>2022-05-31T08:57:48.560Z</time>
      </trkpt>
      <trkpt lat="42.48446" lon="18.73872">
        <ele>56.877464</ele>
        <time>2022-05-31T08:57:50.539Z</time>
      </trkpt>
      <trkpt lat="42.48442" lon="18.7386">
        <ele>56.83014</ele>
        <time>2022-05-31T08:57:52.541Z</time>
      </trkpt>
      <trkpt lat="42.48439" lon="18.73847">
        <ele>56.781749</ele>
        <time>2022-05-31T08:57:54.552Z</time>
      </trkpt>
      <trkpt lat="42.48437" lon="18.73834">
        <ele>56.787515</ele>
        <time>2022-05-31T08:57:56.569Z</time>
      </trkpt>
      <trkpt lat="42.48435" lon="18.73822">
        <ele>56.922767</ele>
        <time>2022-05-31T08:57:58.528Z</time>
      </trkpt>
      <trkpt lat="42.48435" lon="18.73809">
        <ele>57.057669</ele>
        <time>2022-05-31T08:58:00.535Z</time>
      </trkpt>
      <trkpt lat="42.48435" lon="18.73796">
        <ele>57.189375</ele>
        <time>2022-05-31T08:58:02.587Z</time>
      </trkpt>
      <trkpt lat="42.48435" lon="18.73784">
        <ele>57.320097</ele>
        <time>2022-05-31T08:58:04.544Z</time>
      </trkpt>
      <trkpt lat="42.48436" lon="18.73771">
        <ele>57.456006</ele>
        <time>2022-05-31T08:58:06.556Z</time>
      </trkpt>
      <trkpt lat="42.48436" lon="18.73758">
        <ele>57.592151</ele>
        <time>2022-05-31T08:58:08.569Z</time>
      </trkpt>
      <trkpt lat="42.48437" lon="18.73745">
        <ele>57.721834</ele>
        <time>2022-05-31T08:58:10.523Z</time>
      </trkpt>
      <trkpt lat="42.48438" lon="18.73727">
        <ele>57.912255</ele>
        <time>2022-05-31T08:58:13.553Z</time>
      </trkpt>
      <trkpt lat="42.48437" lon="18.73709">
        <ele>58.097916</ele>
        <time>2022-05-31T08:58:16.553Z</time>
      </trkpt>
      <trkpt lat="42.48435" lon="18.73697">
        <ele>58.228986</ele>
        <time>2022-05-31T08:58:18.555Z</time>
      </trkpt>
      <trkpt lat="42.48433" lon="18.73685">
        <ele>58.36287</ele>
        <time>2022-05-31T08:58:20.548Z</time>
      </trkpt>
      <trkpt lat="42.48431" lon="18.73671">
        <ele>58.503722</ele>
        <time>2022-05-31T08:58:22.544Z</time>
      </trkpt>
      <trkpt lat="42.48429" lon="18.73657">
        <ele>58.651748</ele>
        <time>2022-05-31T08:58:24.541Z</time>
      </trkpt>
      <trkpt lat="42.48427" lon="18.73644">
        <ele>58.799946</ele>
        <time>2022-05-31T08:58:26.551Z</time>
      </trkpt>
      <trkpt lat="42.48425" lon="18.7363">
        <ele>58.944078</ele>
        <time>2022-05-31T08:58:28.555Z</time>
      </trkpt>
      <trkpt lat="42.48424" lon="18.73618">
        <ele>59.077734</ele>
        <time>2022-05-31T08:58:30.533Z</time>
      </trkpt>
      <trkpt lat="42.48423" lon="18.73604">
        <ele>59.219096</ele>
        <time>2022-05-31T08:58:32.558Z</time>
      </trkpt>
      <trkpt lat="42.48423" lon="18.7359">
        <ele>59.363212</ele>
        <time>2022-05-31T08:58:34.561Z</time>
      </trkpt>
      <trkpt lat="42.48423" lon="18.73578">
        <ele>59.498001</ele>
        <time>2022-05-31T08:58:36.546Z</time>
      </trkpt>
      <trkpt lat="42.48424" lon="18.73561">
        <ele>59.685729</ele>
        <time>2022-05-31T08:58:39.573Z</time>
      </trkpt>
      <trkpt lat="42.48424" lon="18.73543">
        <ele>59.875334</ele>
        <time>2022-05-31T08:58:42.557Z</time>
      </trkpt>
      <trkpt lat="42.48424" lon="18.73527">
        <ele>60.049954</ele>
        <time>2022-05-31T08:58:45.540Z</time>
      </trkpt>
      <trkpt lat="42.48421" lon="18.7351">
        <ele>60.233828</ele>
        <time>2022-05-31T08:58:48.542Z</time>
      </trkpt>
      <trkpt lat="42.48416" lon="18.73495">
        <ele>60.415505</ele>
        <time>2022-05-31T08:58:51.547Z</time>
      </trkpt>
      <trkpt lat="42.4841" lon="18.73481">
        <ele>60.589945</ele>
        <time>2022-05-31T08:58:54.545Z</time>
      </trkpt>
      <trkpt lat="42.48404" lon="18.73466">
        <ele>60.767549</ele>
        <time>2022-05-31T08:58:57.543Z</time>
      </trkpt>
      <trkpt lat="42.48397" lon="18.73454">
        <ele>60.939226</ele>
        <time>2022-05-31T08:59:00.533Z</time>
      </trkpt>
      <trkpt lat="42.48389" lon="18.7344">
        <ele>61.12496</ele>
        <time>2022-05-31T08:59:03.554Z</time>
      </trkpt>
      <trkpt lat="42.48381" lon="18.73427">
        <ele>61.309024</ele>
        <time>2022-05-31T08:59:06.553Z</time>
      </trkpt>
      <trkpt lat="42.48373" lon="18.73413">
        <ele>61.498105</ele>
        <time>2022-05-31T08:59:09.548Z</time>
      </trkpt>
      <trkpt lat="42.48367" lon="18.73397">
        <ele>61.687203</ele>
        <time>2022-05-31T08:59:12.555Z</time>
      </trkpt>
      <trkpt lat="42.48361" lon="18.73381">
        <ele>61.883859</ele>
        <time>2022-05-31T08:59:15.545Z</time>
      </trkpt>
      <trkpt lat="42.48359" lon="18.73369">
        <ele>61.789911</ele>
        <time>2022-05-31T08:59:17.558Z</time>
      </trkpt>
      <trkpt lat="42.48356" lon="18.73357">
        <ele>61.590621</ele>
        <time>2022-05-31T08:59:19.587Z</time>
      </trkpt>
      <trkpt lat="42.48354" lon="18.73344">
        <ele>61.381002</ele>
        <time>2022-05-31T08:59:21.560Z</time>
      </trkpt>
      <trkpt lat="42.48352" lon="18.73332">
        <ele>61.177592</ele>
        <time>2022-05-31T08:59:23.556Z</time>
      </trkpt>
      <trkpt lat="42.4835" lon="18.7332">
        <ele>60.979158</ele>
        <time>2022-05-31T08:59:25.567Z</time>
      </trkpt>
      <trkpt lat="42.48349" lon="18.73307">
        <ele>60.775454</ele>
        <time>2022-05-31T08:59:27.552Z</time>
      </trkpt>
      <trkpt lat="42.48349" lon="18.73294">
        <ele>60.569303</ele>
        <time>2022-05-31T08:59:29.552Z</time>
      </trkpt>
      <trkpt lat="42.48348" lon="18.7328">
        <ele>60.349164</ele>
        <time>2022-05-31T08:59:31.563Z</time>
      </trkpt>
      <trkpt lat="42.48349" lon="18.73266">
        <ele>60.123773</ele>
        <time>2022-05-31T08:59:33.567Z</time>
      </trkpt>
      <trkpt lat="42.4835" lon="18.73252">
        <ele>59.895815</ele>
        <time>2022-05-31T08:59:35.546Z</time>
      </trkpt>
      <trkpt lat="42.48352" lon="18.73237">
        <ele>59.66229</ele>
        <time>2022-05-31T08:59:37.551Z</time>
      </trkpt>
      <trkpt lat="42.48354" lon="18.73223">
        <ele>59.430485</ele>
        <time>2022-05-31T08:59:39.547Z</time>
      </trkpt>
      <trkpt lat="42.48357" lon="18.7321">
        <ele>59.209286</ele>
        <time>2022-05-31T08:59:41.564Z</time>
      </trkpt>
      <trkpt lat="42.48361" lon="18.73198">
        <ele>58.99971</ele>
        <time>2022-05-31T08:59:43.542Z</time>
      </trkpt>
      <trkpt lat="42.48365" lon="18.73184">
        <ele>58.772998</ele>
        <time>2022-05-31T08:59:45.575Z</time>
      </trkpt>
      <trkpt lat="42.48369" lon="18.73171">
        <ele>58.533212</ele>
        <time>2022-05-31T08:59:47.578Z</time>
      </trkpt>
      <trkpt lat="42.48374" lon="18.73158">
        <ele>58.298364</ele>
        <time>2022-05-31T08:59:49.578Z</time>
      </trkpt>
      <trkpt lat="42.4838" lon="18.73145">
        <ele>58.066675</ele>
        <time>2022-05-31T08:59:51.539Z</time>
      </trkpt>
      <trkpt lat="42.48386" lon="18.73134">
        <ele>58.22137</ele>
        <time>2022-05-31T08:59:53.560Z</time>
      </trkpt>
      <trkpt lat="42.48392" lon="18.73124">
        <ele>58.439646</ele>
        <time>2022-05-31T08:59:55.573Z</time>
      </trkpt>
      <trkpt lat="42.48399" lon="18.73113">
        <ele>58.65842</ele>
        <time>2022-05-31T08:59:57.524Z</time>
      </trkpt>
      <trkpt lat="42.48406" lon="18.73104">
        <ele>58.872606</ele>
        <time>2022-05-31T08:59:59.548Z</time>
      </trkpt>
      <trkpt lat="42.48412" lon="18.73095">
        <ele>59.074578</ele>
        <time>2022-05-31T09:00:01.535Z</time>
      </trkpt>
      <trkpt lat="42.48418" lon="18.73086">
        <ele>59.272042</ele>
        <time>2022-05-31T09:00:03.533Z</time>
      </trkpt>
      <trkpt lat="42.48426" lon="18.73073">
        <ele>59.549713</ele>
        <time>2022-05-31T09:00:06.548Z</time>
      </trkpt>
      <trkpt lat="42.48433" lon="18.73058">
        <ele>59.828775</ele>
        <time>2022-05-31T09:00:09.577Z</time>
      </trkpt>
      <trkpt lat="42.48438" lon="18.73047">
        <ele>60.02708</ele>
        <time>2022-05-31T09:00:11.545Z</time>
      </trkpt>
      <trkpt lat="42.48444" lon="18.73031">
        <ele>60.313937</ele>
        <time>2022-05-31T09:00:14.552Z</time>
      </trkpt>
      <trkpt lat="42.48449" lon="18.73015">
        <ele>60.601309</ele>
        <time>2022-05-31T09:00:17.535Z</time>
      </trkpt>
      <trkpt lat="42.48451" lon="18.73002">
        <ele>60.803378</ele>
        <time>2022-05-31T09:00:19.539Z</time>
      </trkpt>
      <trkpt lat="42.48454" lon="18.7299">
        <ele>61.007372</ele>
        <time>2022-05-31T09:00:21.552Z</time>
      </trkpt>
      <trkpt lat="42.48455" lon="18.72977">
        <ele>61.213944</ele>
        <time>2022-05-31T09:00:23.564Z</time>
      </trkpt>
      <trkpt lat="42.48456" lon="18.72965">
        <ele>61.41212</ele>
        <time>2022-05-31T09:00:25.549Z</time>
      </trkpt>
      <trkpt lat="42.48456" lon="18.72952">
        <ele>61.615753</ele>
        <time>2022-05-31T09:00:27.554Z</time>
      </trkpt>
      <trkpt lat="42.48457" lon="18.72939">
        <ele>61.830773</ele>
        <time>2022-05-31T09:00:29.554Z</time>
      </trkpt>
      <trkpt lat="42.48457" lon="18.72926">
        <ele>61.923098</ele>
        <time>2022-05-31T09:00:31.549Z</time>
      </trkpt>
      <trkpt lat="42.48457" lon="18.72914">
        <ele>61.874303</ele>
        <time>2022-05-31T09:00:33.552Z</time>
      </trkpt>
      <trkpt lat="42.48458" lon="18.72901">
        <ele>61.824775</ele>
        <time>2022-05-31T09:00:35.539Z</time>
      </trkpt>
      <trkpt lat="42.48457" lon="18.72889">
        <ele>61.776395</ele>
        <time>2022-05-31T09:00:37.572Z</time>
      </trkpt>
      <trkpt lat="42.48457" lon="18.72875">
        <ele>61.724941</ele>
        <time>2022-05-31T09:00:39.564Z</time>
      </trkpt>
      <trkpt lat="42.48457" lon="18.72862">
        <ele>61.672277</ele>
        <time>2022-05-31T09:00:41.549Z</time>
      </trkpt>
      <trkpt lat="42.48457" lon="18.72848">
        <ele>61.620035</ele>
        <time>2022-05-31T09:00:43.578Z</time>
      </trkpt>
      <trkpt lat="42.48456" lon="18.72835">
        <ele>61.568516</ele>
        <time>2022-05-31T09:00:45.549Z</time>
      </trkpt>
      <trkpt lat="42.48455" lon="18.72822">
        <ele>61.516405</ele>
        <time>2022-05-31T09:00:47.548Z</time>
      </trkpt>
      <trkpt lat="42.48454" lon="18.72809">
        <ele>61.463907</ele>
        <time>2022-05-31T09:00:49.537Z</time>
      </trkpt>
      <trkpt lat="42.48453" lon="18.72794">
        <ele>61.408641</ele>
        <time>2022-05-31T09:00:51.549Z</time>
      </trkpt>
      <trkpt lat="42.48452" lon="18.72781">
        <ele>61.354591</ele>
        <time>2022-05-31T09:00:53.556Z</time>
      </trkpt>
      <trkpt lat="42.48451" lon="18.72767">
        <ele>61.300815</ele>
        <time>2022-05-31T09:00:55.579Z</time>
      </trkpt>
      <trkpt lat="42.48449" lon="18.72754">
        <ele>61.248288</ele>
        <time>2022-05-31T09:00:57.561Z</time>
      </trkpt>
      <trkpt lat="42.48448" lon="18.72741">
        <ele>61.197538</ele>
        <time>2022-05-31T09:00:59.546Z</time>
      </trkpt>
      <trkpt lat="42.48446" lon="18.72727">
        <ele>61.144924</ele>
        <time>2022-05-31T09:01:01.549Z</time>
      </trkpt>
      <trkpt lat="42.48445" lon="18.72714">
        <ele>61.089915</ele>
        <time>2022-05-31T09:01:03.563Z</time>
      </trkpt>
      <trkpt lat="42.48442" lon="18.727">
        <ele>61.036024</ele>
        <time>2022-05-31T09:01:05.550Z</time>
      </trkpt>
      <trkpt lat="42.4844" lon="18.72687">
        <ele>60.913562</ele>
        <time>2022-05-31T09:01:07.539Z</time>
      </trkpt>
      <trkpt lat="42.48438" lon="18.72673">
        <ele>60.56397</ele>
        <time>2022-05-31T09:01:09.546Z</time>
      </trkpt>
      <trkpt lat="42.48435" lon="18.72659">
        <ele>60.201124</ele>
        <time>2022-05-31T09:01:11.598Z</time>
      </trkpt>
      <trkpt lat="42.48433" lon="18.72646">
        <ele>59.843998</ele>
        <time>2022-05-31T09:01:13.570Z</time>
      </trkpt>
      <trkpt lat="42.4843" lon="18.72632">
        <ele>59.49074</ele>
        <time>2022-05-31T09:01:15.545Z</time>
      </trkpt>
      <trkpt lat="42.48427" lon="18.72619">
        <ele>59.133032</ele>
        <time>2022-05-31T09:01:17.546Z</time>
      </trkpt>
      <trkpt lat="42.48425" lon="18.72605">
        <ele>58.765213</ele>
        <time>2022-05-31T09:01:19.552Z</time>
      </trkpt>
      <trkpt lat="42.48422" lon="18.72592">
        <ele>58.417262</ele>
        <time>2022-05-31T09:01:21.558Z</time>
      </trkpt>
      <trkpt lat="42.4842" lon="18.72579">
        <ele>58.076746</ele>
        <time>2022-05-31T09:01:23.539Z</time>
      </trkpt>
      <trkpt lat="42.48418" lon="18.72565">
        <ele>57.734832</ele>
        <time>2022-05-31T09:01:25.556Z</time>
      </trkpt>
      <trkpt lat="42.48417" lon="18.72552">
        <ele>57.392132</ele>
        <time>2022-05-31T09:01:27.539Z</time>
      </trkpt>
      <trkpt lat="42.48415" lon="18.72539">
        <ele>57.062539</ele>
        <time>2022-05-31T09:01:29.561Z</time>
      </trkpt>
      <trkpt lat="42.48414" lon="18.72527">
        <ele>56.735958</ele>
        <time>2022-05-31T09:01:31.548Z</time>
      </trkpt>
      <trkpt lat="42.48413" lon="18.72514">
        <ele>56.403956</ele>
        <time>2022-05-31T09:01:33.549Z</time>
      </trkpt>
      <trkpt lat="42.48413" lon="18.725">
        <ele>56.06767</ele>
        <time>2022-05-31T09:01:35.559Z</time>
      </trkpt>
      <trkpt lat="42.48413" lon="18.72487">
        <ele>55.721198</ele>
        <time>2022-05-31T09:01:37.552Z</time>
      </trkpt>
      <trkpt lat="42.48413" lon="18.72474">
        <ele>55.387369</ele>
        <time>2022-05-31T09:01:39.547Z</time>
      </trkpt>
      <trkpt lat="42.48413" lon="18.72461">
        <ele>55.050994</ele>
        <time>2022-05-31T09:01:41.557Z</time>
      </trkpt>
      <trkpt lat="42.48413" lon="18.72447">
        <ele>54.761396</ele>
        <time>2022-05-31T09:01:43.546Z</time>
      </trkpt>
      <trkpt lat="42.48413" lon="18.72434">
        <ele>54.665836</ele>
        <time>2022-05-31T09:01:45.571Z</time>
      </trkpt>
      <trkpt lat="42.48413" lon="18.72421">
        <ele>54.565786</ele>
        <time>2022-05-31T09:01:47.543Z</time>
      </trkpt>
      <trkpt lat="42.48414" lon="18.72407">
        <ele>54.462696</ele>
        <time>2022-05-31T09:01:49.544Z</time>
      </trkpt>
      <trkpt lat="42.48414" lon="18.72393">
        <ele>54.361086</ele>
        <time>2022-05-31T09:01:51.551Z</time>
      </trkpt>
      <trkpt lat="42.48415" lon="18.72379">
        <ele>54.259476</ele>
        <time>2022-05-31T09:01:53.553Z</time>
      </trkpt>
      <trkpt lat="42.48415" lon="18.72366">
        <ele>54.160932</ele>
        <time>2022-05-31T09:01:55.557Z</time>
      </trkpt>
      <trkpt lat="42.48415" lon="18.72353">
        <ele>54.061542</ele>
        <time>2022-05-31T09:01:57.541Z</time>
      </trkpt>
      <trkpt lat="42.48416" lon="18.7234">
        <ele>53.963677</ele>
        <time>2022-05-31T09:01:59.539Z</time>
      </trkpt>
      <trkpt lat="42.48417" lon="18.72326">
        <ele>53.86442</ele>
        <time>2022-05-31T09:02:01.534Z</time>
      </trkpt>
      <trkpt lat="42.48418" lon="18.72313">
        <ele>53.767597</ele>
        <time>2022-05-31T09:02:03.556Z</time>
      </trkpt>
      <trkpt lat="42.48419" lon="18.723">
        <ele>53.667826</ele>
        <time>2022-05-31T09:02:05.544Z</time>
      </trkpt>
      <trkpt lat="42.4842" lon="18.72286">
        <ele>53.567098</ele>
        <time>2022-05-31T09:02:07.560Z</time>
      </trkpt>
      <trkpt lat="42.48421" lon="18.72273">
        <ele>53.465369</ele>
        <time>2022-05-31T09:02:09.558Z</time>
      </trkpt>
      <trkpt lat="42.48422" lon="18.72259">
        <ele>53.36717</ele>
        <time>2022-05-31T09:02:11.533Z</time>
      </trkpt>
      <trkpt lat="42.48423" lon="18.72247">
        <ele>53.272445</ele>
        <time>2022-05-31T09:02:13.589Z</time>
      </trkpt>
      <trkpt lat="42.48424" lon="18.72233">
        <ele>53.173411</ele>
        <time>2022-05-31T09:02:15.546Z</time>
      </trkpt>
      <trkpt lat="42.48424" lon="18.72221">
        <ele>53.079333</ele>
        <time>2022-05-31T09:02:17.554Z</time>
      </trkpt>
      <trkpt lat="42.48424" lon="18.72208">
        <ele>52.983768</ele>
        <time>2022-05-31T09:02:19.550Z</time>
      </trkpt>
      <trkpt lat="42.48424" lon="18.72195">
        <ele>53.137533</ele>
        <time>2022-05-31T09:02:21.557Z</time>
      </trkpt>
      <trkpt lat="42.48424" lon="18.72181">
        <ele>53.31617</ele>
        <time>2022-05-31T09:02:23.551Z</time>
      </trkpt>
      <trkpt lat="42.48424" lon="18.72168">
        <ele>53.501472</ele>
        <time>2022-05-31T09:02:25.562Z</time>
      </trkpt>
      <trkpt lat="42.48425" lon="18.72153">
        <ele>53.696443</ele>
        <time>2022-05-31T09:02:27.540Z</time>
      </trkpt>
      <trkpt lat="42.48425" lon="18.72139">
        <ele>53.888456</ele>
        <time>2022-05-31T09:02:29.565Z</time>
      </trkpt>
      <trkpt lat="42.48425" lon="18.72125">
        <ele>54.080513</ele>
        <time>2022-05-31T09:02:31.530Z</time>
      </trkpt>
      <trkpt lat="42.48425" lon="18.7211">
        <ele>54.269806</ele>
        <time>2022-05-31T09:02:33.550Z</time>
      </trkpt>
      <trkpt lat="42.48424" lon="18.72096">
        <ele>54.459808</ele>
        <time>2022-05-31T09:02:35.548Z</time>
      </trkpt>
      <trkpt lat="42.48424" lon="18.72082">
        <ele>54.658633</ele>
        <time>2022-05-31T09:02:37.541Z</time>
      </trkpt>
      <trkpt lat="42.48423" lon="18.72067">
        <ele>54.858965</ele>
        <time>2022-05-31T09:02:39.530Z</time>
      </trkpt>
      <trkpt lat="42.48422" lon="18.72053">
        <ele>55.047796</ele>
        <time>2022-05-31T09:02:41.529Z</time>
      </trkpt>
      <trkpt lat="42.48421" lon="18.72038">
        <ele>55.251331</ele>
        <time>2022-05-31T09:02:43.550Z</time>
      </trkpt>
      <trkpt lat="42.4842" lon="18.72022">
        <ele>55.459707</ele>
        <time>2022-05-31T09:02:45.546Z</time>
      </trkpt>
      <trkpt lat="42.4842" lon="18.72007">
        <ele>55.658698</ele>
        <time>2022-05-31T09:02:47.581Z</time>
      </trkpt>
      <trkpt lat="42.48419" lon="18.71992">
        <ele>55.867582</ele>
        <time>2022-05-31T09:02:49.532Z</time>
      </trkpt>
      <trkpt lat="42.48417" lon="18.71976">
        <ele>56.074794</ele>
        <time>2022-05-31T09:02:51.545Z</time>
      </trkpt>
      <trkpt lat="42.48416" lon="18.71961">
        <ele>56.253514</ele>
        <time>2022-05-31T09:02:53.551Z</time>
      </trkpt>
      <trkpt lat="42.48414" lon="18.71947">
        <ele>56.276862</ele>
        <time>2022-05-31T09:02:55.554Z</time>
      </trkpt>
      <trkpt lat="42.48413" lon="18.71933">
        <ele>56.299376</ele>
        <time>2022-05-31T09:02:57.553Z</time>
      </trkpt>
      <trkpt lat="42.48411" lon="18.71918">
        <ele>56.322036</ele>
        <time>2022-05-31T09:02:59.545Z</time>
      </trkpt>
      <trkpt lat="42.48409" lon="18.71904">
        <ele>56.345138</ele>
        <time>2022-05-31T09:03:01.545Z</time>
      </trkpt>
      <trkpt lat="42.48407" lon="18.7189">
        <ele>56.36727</ele>
        <time>2022-05-31T09:03:03.536Z</time>
      </trkpt>
      <trkpt lat="42.48405" lon="18.71877">
        <ele>56.38896</ele>
        <time>2022-05-31T09:03:05.557Z</time>
      </trkpt>
      <trkpt lat="42.48402" lon="18.71864">
        <ele>56.41058</ele>
        <time>2022-05-31T09:03:07.563Z</time>
      </trkpt>
      <trkpt lat="42.484" lon="18.7185">
        <ele>56.432607</ele>
        <time>2022-05-31T09:03:09.548Z</time>
      </trkpt>
      <trkpt lat="42.48398" lon="18.71836">
        <ele>56.455001</ele>
        <time>2022-05-31T09:03:11.545Z</time>
      </trkpt>
      <trkpt lat="42.48395" lon="18.71823">
        <ele>56.47658</ele>
        <time>2022-05-31T09:03:13.537Z</time>
      </trkpt>
      <trkpt lat="42.48394" lon="18.7181">
        <ele>56.496879</ele>
        <time>2022-05-31T09:03:15.549Z</time>
      </trkpt>
      <trkpt lat="42.48393" lon="18.71797">
        <ele>56.517232</ele>
        <time>2022-05-31T09:03:17.553Z</time>
      </trkpt>
      <trkpt lat="42.48391" lon="18.71784">
        <ele>56.537758</ele>
        <time>2022-05-31T09:03:19.553Z</time>
      </trkpt>
      <trkpt lat="42.4839" lon="18.71772">
        <ele>56.557161</ele>
        <time>2022-05-31T09:03:21.552Z</time>
      </trkpt>
      <trkpt lat="42.48387" lon="18.71756">
        <ele>56.583984</ele>
        <time>2022-05-31T09:03:24.549Z</time>
      </trkpt>
      <trkpt lat="42.48385" lon="18.71739">
        <ele>56.610797</ele>
        <time>2022-05-31T09:03:27.545Z</time>
      </trkpt>
      <trkpt lat="42.48383" lon="18.71722">
        <ele>56.63045</ele>
        <time>2022-05-31T09:03:30.544Z</time>
      </trkpt>
      <trkpt lat="42.48381" lon="18.71705">
        <ele>56.598884</ele>
        <time>2022-05-31T09:03:33.567Z</time>
      </trkpt>
      <trkpt lat="42.4838" lon="18.71688">
        <ele>56.569124</ele>
        <time>2022-05-31T09:03:36.534Z</time>
      </trkpt>
      <trkpt lat="42.48378" lon="18.71673">
        <ele>56.540118</ele>
        <time>2022-05-31T09:03:39.557Z</time>
      </trkpt>
      <trkpt lat="42.48377" lon="18.71656">
        <ele>56.510028</ele>
        <time>2022-05-31T09:03:42.606Z</time>
      </trkpt>
      <trkpt lat="42.48376" lon="18.71638">
        <ele>56.477754</ele>
        <time>2022-05-31T09:03:45.545Z</time>
      </trkpt>
      <trkpt lat="42.48376" lon="18.71621">
        <ele>56.445875</ele>
        <time>2022-05-31T09:03:48.578Z</time>
      </trkpt>
      <trkpt lat="42.48376" lon="18.71604">
        <ele>56.414193</ele>
        <time>2022-05-31T09:03:51.552Z</time>
      </trkpt>
      <trkpt lat="42.48375" lon="18.71586">
        <ele>56.382487</ele>
        <time>2022-05-31T09:03:54.587Z</time>
      </trkpt>
      <trkpt lat="42.48376" lon="18.71573">
        <ele>56.359342</ele>
        <time>2022-05-31T09:03:56.584Z</time>
      </trkpt>
      <trkpt lat="42.48375" lon="18.71561">
        <ele>56.337106</ele>
        <time>2022-05-31T09:03:58.542Z</time>
      </trkpt>
      <trkpt lat="42.48375" lon="18.71543">
        <ele>56.303945</ele>
        <time>2022-05-31T09:04:01.545Z</time>
      </trkpt>
      <trkpt lat="42.48374" lon="18.71531">
        <ele>56.2815</ele>
        <time>2022-05-31T09:04:03.554Z</time>
      </trkpt>
      <trkpt lat="42.48374" lon="18.71513">
        <ele>56.248529</ele>
        <time>2022-05-31T09:04:06.553Z</time>
      </trkpt>
      <trkpt lat="42.48374" lon="18.71495">
        <ele>56.215751</ele>
        <time>2022-05-31T09:04:09.543Z</time>
      </trkpt>
      <trkpt lat="42.48374" lon="18.71482">
        <ele>56.192809</ele>
        <time>2022-05-31T09:04:11.550Z</time>
      </trkpt>
      <trkpt lat="42.48374" lon="18.71468">
        <ele>56.149005</ele>
        <time>2022-05-31T09:04:13.550Z</time>
      </trkpt>
      <trkpt lat="42.48374" lon="18.71454">
        <ele>56.102101</ele>
        <time>2022-05-31T09:04:15.549Z</time>
      </trkpt>
      <trkpt lat="42.48375" lon="18.71441">
        <ele>56.05585</ele>
        <time>2022-05-31T09:04:17.553Z</time>
      </trkpt>
      <trkpt lat="42.48375" lon="18.71427">
        <ele>56.011227</ele>
        <time>2022-05-31T09:04:19.551Z</time>
      </trkpt>
      <trkpt lat="42.48376" lon="18.71414">
        <ele>55.965291</ele>
        <time>2022-05-31T09:04:21.578Z</time>
      </trkpt>
      <trkpt lat="42.48376" lon="18.714">
        <ele>55.920714</ele>
        <time>2022-05-31T09:04:23.579Z</time>
      </trkpt>
      <trkpt lat="42.48377" lon="18.71386">
        <ele>55.874319</ele>
        <time>2022-05-31T09:04:25.557Z</time>
      </trkpt>
      <trkpt lat="42.48379" lon="18.71373">
        <ele>55.828333</ele>
        <time>2022-05-31T09:04:27.583Z</time>
      </trkpt>
      <trkpt lat="42.4838" lon="18.71359">
        <ele>55.780896</ele>
        <time>2022-05-31T09:04:29.553Z</time>
      </trkpt>
      <trkpt lat="42.48381" lon="18.71345">
        <ele>55.734412</ele>
        <time>2022-05-31T09:04:31.551Z</time>
      </trkpt>
      <trkpt lat="42.48382" lon="18.71331">
        <ele>55.688094</ele>
        <time>2022-05-31T09:04:33.602Z</time>
      </trkpt>
      <trkpt lat="42.48384" lon="18.71318">
        <ele>55.641325</ele>
        <time>2022-05-31T09:04:35.542Z</time>
      </trkpt>
      <trkpt lat="42.48386" lon="18.71303">
        <ele>55.59355</ele>
        <time>2022-05-31T09:04:37.546Z</time>
      </trkpt>
      <trkpt lat="42.48387" lon="18.71289">
        <ele>55.543852</ele>
        <time>2022-05-31T09:04:39.535Z</time>
      </trkpt>
      <trkpt lat="42.48389" lon="18.71274">
        <ele>55.493551</ele>
        <time>2022-05-31T09:04:41.547Z</time>
      </trkpt>
      <trkpt lat="42.4839" lon="18.71258">
        <ele>55.441469</ele>
        <time>2022-05-31T09:04:43.548Z</time>
      </trkpt>
      <trkpt lat="42.48392" lon="18.71243">
        <ele>55.390112</ele>
        <time>2022-05-31T09:04:45.549Z</time>
      </trkpt>
      <trkpt lat="42.48393" lon="18.71228">
        <ele>55.331657</ele>
        <time>2022-05-31T09:04:47.550Z</time>
      </trkpt>
      <trkpt lat="42.48394" lon="18.71212">
        <ele>55.26889</ele>
        <time>2022-05-31T09:04:49.558Z</time>
      </trkpt>
      <trkpt lat="42.48395" lon="18.71196">
        <ele>55.205949</ele>
        <time>2022-05-31T09:04:51.549Z</time>
      </trkpt>
      <trkpt lat="42.48396" lon="18.71181">
        <ele>55.143009</ele>
        <time>2022-05-31T09:04:53.544Z</time>
      </trkpt>
      <trkpt lat="42.48397" lon="18.71164">
        <ele>55.078294</ele>
        <time>2022-05-31T09:04:55.570Z</time>
      </trkpt>
      <trkpt lat="42.48398" lon="18.71147">
        <ele>55.009892</ele>
        <time>2022-05-31T09:04:57.554Z</time>
      </trkpt>
      <trkpt lat="42.48397" lon="18.7113">
        <ele>54.943204</ele>
        <time>2022-05-31T09:04:59.554Z</time>
      </trkpt>
      <trkpt lat="42.48396" lon="18.71113">
        <ele>54.875517</ele>
        <time>2022-05-31T09:05:01.546Z</time>
      </trkpt>
      <trkpt lat="42.48395" lon="18.71096">
        <ele>54.808621</ele>
        <time>2022-05-31T09:05:03.548Z</time>
      </trkpt>
      <trkpt lat="42.48394" lon="18.71081">
        <ele>54.746911</ele>
        <time>2022-05-31T09:05:05.556Z</time>
      </trkpt>
      <trkpt lat="42.48394" lon="18.71065">
        <ele>54.684515</ele>
        <time>2022-05-31T09:05:07.548Z</time>
      </trkpt>
      <trkpt lat="42.48393" lon="18.7105">
        <ele>54.6241</ele>
        <time>2022-05-31T09:05:09.545Z</time>
      </trkpt>
      <trkpt lat="42.48393" lon="18.71035">
        <ele>54.564146</ele>
        <time>2022-05-31T09:05:11.543Z</time>
      </trkpt>
      <trkpt lat="42.48393" lon="18.7102">
        <ele>54.504969</ele>
        <time>2022-05-31T09:05:13.549Z</time>
      </trkpt>
      <trkpt lat="42.48392" lon="18.71006">
        <ele>54.447328</ele>
        <time>2022-05-31T09:05:15.543Z</time>
      </trkpt>
      <trkpt lat="42.48392" lon="18.70991">
        <ele>54.42677</ele>
        <time>2022-05-31T09:05:17.620Z</time>
      </trkpt>
      <trkpt lat="42.48391" lon="18.70977">
        <ele>54.507632</ele>
        <time>2022-05-31T09:05:19.559Z</time>
      </trkpt>
      <trkpt lat="42.48392" lon="18.70962">
        <ele>54.588548</ele>
        <time>2022-05-31T09:05:21.555Z</time>
      </trkpt>
      <trkpt lat="42.48393" lon="18.70949">
        <ele>54.666781</ele>
        <time>2022-05-31T09:05:23.532Z</time>
      </trkpt>
      <trkpt lat="42.48393" lon="18.70935">
        <ele>54.74451</ele>
        <time>2022-05-31T09:05:25.560Z</time>
      </trkpt>
      <trkpt lat="42.48394" lon="18.70921">
        <ele>54.824478</ele>
        <time>2022-05-31T09:05:27.555Z</time>
      </trkpt>
      <trkpt lat="42.48395" lon="18.70906">
        <ele>54.905211</ele>
        <time>2022-05-31T09:05:29.545Z</time>
      </trkpt>
      <trkpt lat="42.48396" lon="18.70893">
        <ele>54.982594</ele>
        <time>2022-05-31T09:05:31.552Z</time>
      </trkpt>
      <trkpt lat="42.48398" lon="18.70879">
        <ele>55.059599</ele>
        <time>2022-05-31T09:05:33.558Z</time>
      </trkpt>
      <trkpt lat="42.48399" lon="18.70866">
        <ele>55.134039</ele>
        <time>2022-05-31T09:05:35.548Z</time>
      </trkpt>
      <trkpt lat="42.48401" lon="18.70853">
        <ele>55.205832</ele>
        <time>2022-05-31T09:05:37.551Z</time>
      </trkpt>
      <trkpt lat="42.48403" lon="18.70841">
        <ele>55.277273</ele>
        <time>2022-05-31T09:05:39.640Z</time>
      </trkpt>
      <trkpt lat="42.48405" lon="18.70829">
        <ele>55.348915</ele>
        <time>2022-05-31T09:05:41.549Z</time>
      </trkpt>
      <trkpt lat="42.48407" lon="18.70817">
        <ele>55.417529</ele>
        <time>2022-05-31T09:05:43.545Z</time>
      </trkpt>
      <trkpt lat="42.4841" lon="18.70804">
        <ele>55.489171</ele>
        <time>2022-05-31T09:05:45.573Z</time>
      </trkpt>
      <trkpt lat="42.48412" lon="18.70792">
        <ele>55.56199</ele>
        <time>2022-05-31T09:05:47.553Z</time>
      </trkpt>
      <trkpt lat="42.48416" lon="18.7078">
        <ele>55.632658</ele>
        <time>2022-05-31T09:05:49.540Z</time>
      </trkpt>
      <trkpt lat="42.48421" lon="18.70764">
        <ele>55.729087</ele>
        <time>2022-05-31T09:05:52.552Z</time>
      </trkpt>
      <trkpt lat="42.48424" lon="18.70749">
        <ele>55.703429</ele>
        <time>2022-05-31T09:05:55.554Z</time>
      </trkpt>
      <trkpt lat="42.48427" lon="18.70735">
        <ele>55.556099</ele>
        <time>2022-05-31T09:05:58.629Z</time>
      </trkpt>
      <trkpt lat="42.4843" lon="18.70719">
        <ele>55.402916</ele>
        <time>2022-05-31T09:06:01.543Z</time>
      </trkpt>
      <trkpt lat="42.48433" lon="18.70701">
        <ele>55.223653</ele>
        <time>2022-05-31T09:06:04.547Z</time>
      </trkpt>
      <trkpt lat="42.48435" lon="18.70685">
        <ele>55.072352</ele>
        <time>2022-05-31T09:06:06.564Z</time>
      </trkpt>
      <trkpt lat="42.48439" lon="18.70668">
        <ele>54.898639</ele>
        <time>2022-05-31T09:06:08.593Z</time>
      </trkpt>
      <trkpt lat="42.48442" lon="18.70651">
        <ele>54.727193</ele>
        <time>2022-05-31T09:06:10.528Z</time>
      </trkpt>
      <trkpt lat="42.48441" lon="18.70633">
        <ele>54.556973</ele>
        <time>2022-05-31T09:06:12.504Z</time>
      </trkpt>
      <trkpt lat="42.48438" lon="18.70617">
        <ele>54.398539</ele>
        <time>2022-05-31T09:06:14.511Z</time>
      </trkpt>
      <trkpt lat="42.48433" lon="18.70603">
        <ele>54.24786</ele>
        <time>2022-05-31T09:06:16.511Z</time>
      </trkpt>
      <trkpt lat="42.48427" lon="18.70591">
        <ele>54.108228</ele>
        <time>2022-05-31T09:06:18.531Z</time>
      </trkpt>
      <trkpt lat="42.48423" lon="18.70578">
        <ele>53.97092</ele>
        <time>2022-05-31T09:06:20.549Z</time>
      </trkpt>
      <trkpt lat="42.48421" lon="18.70564">
        <ele>53.835869</ele>
        <time>2022-05-31T09:06:22.530Z</time>
      </trkpt>
      <trkpt lat="42.4842" lon="18.7055">
        <ele>53.697297</ele>
        <time>2022-05-31T09:06:24.564Z</time>
      </trkpt>
      <trkpt lat="42.4842" lon="18.70536">
        <ele>53.562621</ele>
        <time>2022-05-31T09:06:26.559Z</time>
      </trkpt>
      <trkpt lat="42.4842" lon="18.70521">
        <ele>53.424165</ele>
        <time>2022-05-31T09:06:28.542Z</time>
      </trkpt>
      <trkpt lat="42.4842" lon="18.70507">
        <ele>53.265613</ele>
        <time>2022-05-31T09:06:30.548Z</time>
      </trkpt>
      <trkpt lat="42.48421" lon="18.70493">
        <ele>53.101674</ele>
        <time>2022-05-31T09:06:32.536Z</time>
      </trkpt>
      <trkpt lat="42.48422" lon="18.70479">
        <ele>52.945602</ele>
        <time>2022-05-31T09:06:34.527Z</time>
      </trkpt>
      <trkpt lat="42.48423" lon="18.70466">
        <ele>52.797323</ele>
        <time>2022-05-31T09:06:36.555Z</time>
      </trkpt>
      <trkpt lat="42.48423" lon="18.70451">
        <ele>52.626735</ele>
        <time>2022-05-31T09:06:38.536Z</time>
      </trkpt>
      <trkpt lat="42.48425" lon="18.70435">
        <ele>52.435699</ele>
        <time>2022-05-31T09:06:40.544Z</time>
      </trkpt>
      <trkpt lat="42.48429" lon="18.70421">
        <ele>52.260541</ele>
        <time>2022-05-31T09:06:42.642Z</time>
      </trkpt>
      <trkpt lat="42.48435" lon="18.70409">
        <ele>52.096666</ele>
        <time>2022-05-31T09:06:44.558Z</time>
      </trkpt>
      <trkpt lat="42.48442" lon="18.704">
        <ele>51.95152</ele>
        <time>2022-05-31T09:06:46.576Z</time>
      </trkpt>
      <trkpt lat="42.48449" lon="18.70391">
        <ele>51.80242</ele>
        <time>2022-05-31T09:06:48.557Z</time>
      </trkpt>
      <trkpt lat="42.48456" lon="18.70382">
        <ele>51.656189</ele>
        <time>2022-05-31T09:06:50.596Z</time>
      </trkpt>
      <trkpt lat="42.48465" lon="18.7037">
        <ele>51.465345</ele>
        <time>2022-05-31T09:06:53.568Z</time>
      </trkpt>
      <trkpt lat="42.48472" lon="18.70363">
        <ele>51.324897</ele>
        <time>2022-05-31T09:06:55.544Z</time>
      </trkpt>
      <trkpt lat="42.4848" lon="18.70355">
        <ele>51.167869</ele>
        <time>2022-05-31T09:06:57.536Z</time>
      </trkpt>
      <trkpt lat="42.48489" lon="18.70347">
        <ele>51.005132</ele>
        <time>2022-05-31T09:06:59.537Z</time>
      </trkpt>
      <trkpt lat="42.48497" lon="18.70339">
        <ele>50.853885</ele>
        <time>2022-05-31T09:07:01.550Z</time>
      </trkpt>
      <trkpt lat="42.48504" lon="18.70331">
        <ele>50.711776</ele>
        <time>2022-05-31T09:07:03.570Z</time>
      </trkpt>
      <trkpt lat="42.48514" lon="18.70318">
        <ele>50.58374</ele>
        <time>2022-05-31T09:07:06.553Z</time>
      </trkpt>
      <trkpt lat="42.48519" lon="18.70303">
        <ele>50.492738</ele>
        <time>2022-05-31T09:07:09.540Z</time>
      </trkpt>
      <trkpt lat="42.48522" lon="18.70289">
        <ele>50.409852</ele>
        <time>2022-05-31T09:07:12.553Z</time>
      </trkpt>
      <trkpt lat="42.48522" lon="18.70274">
        <ele>50.328273</ele>
        <time>2022-05-31T09:07:15.539Z</time>
      </trkpt>
      <trkpt lat="42.48521" lon="18.70259">
        <ele>50.245484</ele>
        <time>2022-05-31T09:07:18.545Z</time>
      </trkpt>
      <trkpt lat="42.48518" lon="18.70245">
        <ele>50.162491</ele>
        <time>2022-05-31T09:07:21.531Z</time>
      </trkpt>
      <trkpt lat="42.48513" lon="18.70231">
        <ele>50.077519</ele>
        <time>2022-05-31T09:07:24.559Z</time>
      </trkpt>
      <trkpt lat="42.48508" lon="18.70217">
        <ele>49.993245</ele>
        <time>2022-05-31T09:07:27.555Z</time>
      </trkpt>
      <trkpt lat="42.48504" lon="18.70202">
        <ele>49.905578</ele>
        <time>2022-05-31T09:07:30.535Z</time>
      </trkpt>
      <trkpt lat="42.485" lon="18.70187">
        <ele>49.816018</ele>
        <time>2022-05-31T09:07:33.555Z</time>
      </trkpt>
      <trkpt lat="42.485" lon="18.70169">
        <ele>49.718398</ele>
        <time>2022-05-31T09:07:36.574Z</time>
      </trkpt>
      <trkpt lat="42.485" lon="18.70152">
        <ele>49.622501</ele>
        <time>2022-05-31T09:07:39.539Z</time>
      </trkpt>
      <trkpt lat="42.48498" lon="18.70136">
        <ele>49.532969</ele>
        <time>2022-05-31T09:07:42.572Z</time>
      </trkpt>
      <trkpt lat="42.48499" lon="18.7012">
        <ele>49.444085</ele>
        <time>2022-05-31T09:07:46.535Z</time>
      </trkpt>
      <trkpt lat="42.48499" lon="18.70105">
        <ele>49.364173</ele>
        <time>2022-05-31T09:07:49.541Z</time>
      </trkpt>
      <trkpt lat="42.48498" lon="18.70092">
        <ele>49.282093</ele>
        <time>2022-05-31T09:07:52.553Z</time>
      </trkpt>
      <trkpt lat="42.48499" lon="18.70077">
        <ele>49.153658</ele>
        <time>2022-05-31T09:07:55.530Z</time>
      </trkpt>
      <trkpt lat="42.48504" lon="18.70062">
        <ele>49.02707</ele>
        <time>2022-05-31T09:07:58.585Z</time>
      </trkpt>
      <trkpt lat="42.48509" lon="18.70048">
        <ele>48.892216</ele>
        <time>2022-05-31T09:08:01.572Z</time>
      </trkpt>
      <trkpt lat="42.48512" lon="18.70031">
        <ele>48.74985</ele>
        <time>2022-05-31T09:08:04.539Z</time>
      </trkpt>
      <trkpt lat="42.48516" lon="18.70015">
        <ele>48.605672</ele>
        <time>2022-05-31T09:08:07.560Z</time>
      </trkpt>
      <trkpt lat="42.48523" lon="18.7">
        <ele>48.464683</ele>
        <time>2022-05-31T09:08:10.530Z</time>
      </trkpt>
      <trkpt lat="42.4853" lon="18.69987">
        <ele>48.330393</ele>
        <time>2022-05-31T09:08:13.549Z</time>
      </trkpt>
      <trkpt lat="42.48537" lon="18.69976">
        <ele>48.209884</ele>
        <time>2022-05-31T09:08:16.550Z</time>
      </trkpt>
      <trkpt lat="42.48542" lon="18.69964">
        <ele>48.0913</ele>
        <time>2022-05-31T09:08:19.593Z</time>
      </trkpt>
      <trkpt lat="42.48548" lon="18.6995">
        <ele>47.959605</ele>
        <time>2022-05-31T09:08:22.555Z</time>
      </trkpt>
      <trkpt lat="42.48553" lon="18.69936">
        <ele>47.827998</ele>
        <time>2022-05-31T09:08:25.539Z</time>
      </trkpt>
      <trkpt lat="42.4856" lon="18.69922">
        <ele>47.68876</ele>
        <time>2022-05-31T09:08:28.546Z</time>
      </trkpt>
      <trkpt lat="42.48566" lon="18.69909">
        <ele>47.55885</ele>
        <time>2022-05-31T09:08:31.548Z</time>
      </trkpt>
      <trkpt lat="42.48573" lon="18.69897">
        <ele>47.435244</ele>
        <time>2022-05-31T09:08:34.544Z</time>
      </trkpt>
      <trkpt lat="42.48577" lon="18.69885">
        <ele>47.323255</ele>
        <time>2022-05-31T09:08:38.559Z</time>
      </trkpt>
      <trkpt lat="42.48583" lon="18.69874">
        <ele>47.356823</ele>
        <time>2022-05-31T09:08:46.556Z</time>
      </trkpt>
      <trkpt lat="42.48587" lon="18.69862">
        <ele>47.462075</ele>
        <time>2022-05-31T09:08:52.533Z</time>
      </trkpt>
      <trkpt lat="42.48593" lon="18.69852">
        <ele>47.565685</ele>
        <time>2022-05-31T09:09:08.576Z</time>
      </trkpt>
      <trkpt lat="42.48605" lon="18.69823">
        <ele>47.837768</ele>
        <time>2022-05-31T09:09:56.568Z</time>
      </trkpt>
      <trkpt lat="42.4861" lon="18.69812">
        <ele>47.938837</ele>
        <time>2022-05-31T09:10:00.539Z</time>
      </trkpt>
      <trkpt lat="42.48613" lon="18.698">
        <ele>48.036924</ele>
        <time>2022-05-31T09:10:03.557Z</time>
      </trkpt>
      <trkpt lat="42.48619" lon="18.69791">
        <ele>48.13599</ele>
        <time>2022-05-31T09:10:06.566Z</time>
      </trkpt>
      <trkpt lat="42.48625" lon="18.69781">
        <ele>48.237821</ele>
        <time>2022-05-31T09:10:09.543Z</time>
      </trkpt>
      <trkpt lat="42.48633" lon="18.69772">
        <ele>48.34395</ele>
        <time>2022-05-31T09:10:12.543Z</time>
      </trkpt>
      <trkpt lat="42.4864" lon="18.69761">
        <ele>48.463747</ele>
        <time>2022-05-31T09:10:15.550Z</time>
      </trkpt>
      <trkpt lat="42.48649" lon="18.69753">
        <ele>48.58731</ele>
        <time>2022-05-31T09:10:18.555Z</time>
      </trkpt>
      <trkpt lat="42.4866" lon="18.69743">
        <ele>48.723672</ele>
        <time>2022-05-31T09:10:21.548Z</time>
      </trkpt>
      <trkpt lat="42.4867" lon="18.69735">
        <ele>48.852504</ele>
        <time>2022-05-31T09:10:24.546Z</time>
      </trkpt>
      <trkpt lat="42.4868" lon="18.69728">
        <ele>48.978835</ele>
        <time>2022-05-31T09:10:27.549Z</time>
      </trkpt>
      <trkpt lat="42.48691" lon="18.69722">
        <ele>49.105164</ele>
        <time>2022-05-31T09:10:30.540Z</time>
      </trkpt>
      <trkpt lat="42.48701" lon="18.69718">
        <ele>49.217353</ele>
        <time>2022-05-31T09:10:33.552Z</time>
      </trkpt>
      <trkpt lat="42.4871" lon="18.69713">
        <ele>49.231268</ele>
        <time>2022-05-31T09:10:36.552Z</time>
      </trkpt>
      <trkpt lat="42.4872" lon="18.69707">
        <ele>49.222983</ele>
        <time>2022-05-31T09:10:39.542Z</time>
      </trkpt>
      <trkpt lat="42.48731" lon="18.69701">
        <ele>49.213851</ele>
        <time>2022-05-31T09:10:43.562Z</time>
      </trkpt>
      <trkpt lat="42.48739" lon="18.69697">
        <ele>49.20672</ele>
        <time>2022-05-31T09:10:47.553Z</time>
      </trkpt>
      <trkpt lat="42.48748" lon="18.69689">
        <ele>49.198323</ele>
        <time>2022-05-31T09:10:51.588Z</time>
      </trkpt>
      <trkpt lat="42.48755" lon="18.69681">
        <ele>49.190786</ele>
        <time>2022-05-31T09:10:54.547Z</time>
      </trkpt>
      <trkpt lat="42.48762" lon="18.69669">
        <ele>49.18189</ele>
        <time>2022-05-31T09:10:58.550Z</time>
      </trkpt>
      <trkpt lat="42.48766" lon="18.69658">
        <ele>49.174771</ele>
        <time>2022-05-31T09:11:01.552Z</time>
      </trkpt>
      <trkpt lat="42.48768" lon="18.69646">
        <ele>49.16754</ele>
        <time>2022-05-31T09:11:04.590Z</time>
      </trkpt>
      <trkpt lat="42.48772" lon="18.69633">
        <ele>49.158882</ele>
        <time>2022-05-31T09:11:08.557Z</time>
      </trkpt>
      <trkpt lat="42.48775" lon="18.6962">
        <ele>49.151125</ele>
        <time>2022-05-31T09:11:12.558Z</time>
      </trkpt>
      <trkpt lat="42.48777" lon="18.69607">
        <ele>49.143265</ele>
        <time>2022-05-31T09:11:16.566Z</time>
      </trkpt>
      <trkpt lat="42.48781" lon="18.69564">
        <ele>49.118021</ele>
        <time>2022-05-31T09:12:27.565Z</time>
      </trkpt>
      <trkpt lat="42.48788" lon="18.69554">
        <ele>49.110194</ele>
        <time>2022-05-31T09:12:31.549Z</time>
      </trkpt>
      <trkpt lat="42.48794" lon="18.69542">
        <ele>49.101765</ele>
        <time>2022-05-31T09:12:36.553Z</time>
      </trkpt>
      <trkpt lat="42.48799" lon="18.69529">
        <ele>49.172956</ele>
        <time>2022-05-31T09:12:40.543Z</time>
      </trkpt>
      <trkpt lat="42.48805" lon="18.69517">
        <ele>49.515806</ele>
        <time>2022-05-31T09:12:44.543Z</time>
      </trkpt>
      <trkpt lat="42.48811" lon="18.69506">
        <ele>49.840716</ele>
        <time>2022-05-31T09:12:48.558Z</time>
      </trkpt>
      <trkpt lat="42.48819" lon="18.69496">
        <ele>50.194291</ele>
        <time>2022-05-31T09:12:52.547Z</time>
      </trkpt>
      <trkpt lat="42.48828" lon="18.69488">
        <ele>50.535682</ele>
        <time>2022-05-31T09:12:57.552Z</time>
      </trkpt>
      <trkpt lat="42.48838" lon="18.69485">
        <ele>50.869126</ele>
        <time>2022-05-31T09:13:02.538Z</time>
      </trkpt>
      <trkpt lat="42.48847" lon="18.69482">
        <ele>51.162494</ele>
        <time>2022-05-31T09:13:07.572Z</time>
      </trkpt>
      <trkpt lat="42.48856" lon="18.69482">
        <ele>51.465628</ele>
        <time>2022-05-31T09:13:12.545Z</time>
      </trkpt>
      <trkpt lat="42.48867" lon="18.6948">
        <ele>51.808494</ele>
        <time>2022-05-31T09:13:17.557Z</time>
      </trkpt>
      <trkpt lat="42.48875" lon="18.69474">
        <ele>52.101722</ele>
        <time>2022-05-31T09:13:24.550Z</time>
      </trkpt>
      <trkpt lat="42.48916" lon="18.69434">
        <ele>53.742838</ele>
        <time>2022-05-31T09:37:49.521Z</time>
      </trkpt>
      <trkpt lat="42.48923" lon="18.69425">
        <ele>54.069295</ele>
        <time>2022-05-31T09:37:53.521Z</time>
      </trkpt>
      <trkpt lat="42.4893" lon="18.69414">
        <ele>54.384826</ele>
        <time>2022-05-31T09:37:57.514Z</time>
      </trkpt>
      <trkpt lat="42.48936" lon="18.69405">
        <ele>54.703136</ele>
        <time>2022-05-31T09:38:01.528Z</time>
      </trkpt>
      <trkpt lat="42.48943" lon="18.69396">
        <ele>54.825894</ele>
        <time>2022-05-31T09:38:06.526Z</time>
      </trkpt>
      <trkpt lat="42.48951" lon="18.69387">
        <ele>54.642576</ele>
        <time>2022-05-31T09:38:11.519Z</time>
      </trkpt>
      <trkpt lat="42.48955" lon="18.69375">
        <ele>54.472311</ele>
        <time>2022-05-31T09:38:16.533Z</time>
      </trkpt>
      <trkpt lat="42.48961" lon="18.69365">
        <ele>54.308986</ele>
        <time>2022-05-31T09:38:21.587Z</time>
      </trkpt>
      <trkpt lat="42.48969" lon="18.69358">
        <ele>54.137137</ele>
        <time>2022-05-31T09:38:26.516Z</time>
      </trkpt>
      <trkpt lat="42.48977" lon="18.6935">
        <ele>53.964301</ele>
        <time>2022-05-31T09:38:29.519Z</time>
      </trkpt>
      <trkpt lat="42.48985" lon="18.69338">
        <ele>53.755431</ele>
        <time>2022-05-31T09:38:32.531Z</time>
      </trkpt>
      <trkpt lat="42.48993" lon="18.69327">
        <ele>53.541387</ele>
        <time>2022-05-31T09:38:35.512Z</time>
      </trkpt>
      <trkpt lat="42.49002" lon="18.69316">
        <ele>53.328096</ele>
        <time>2022-05-31T09:38:38.519Z</time>
      </trkpt>
      <trkpt lat="42.49011" lon="18.69305">
        <ele>53.120666</ele>
        <time>2022-05-31T09:38:41.520Z</time>
      </trkpt>
      <trkpt lat="42.49019" lon="18.69294">
        <ele>52.911914</ele>
        <time>2022-05-31T09:38:44.525Z</time>
      </trkpt>
      <trkpt lat="42.49029" lon="18.69284">
        <ele>52.7006</ele>
        <time>2022-05-31T09:38:47.518Z</time>
      </trkpt>
      <trkpt lat="42.49039" lon="18.69275">
        <ele>52.478937</ele>
        <time>2022-05-31T09:38:50.517Z</time>
      </trkpt>
      <trkpt lat="42.4905" lon="18.69264">
        <ele>52.246778</ele>
        <time>2022-05-31T09:38:53.527Z</time>
      </trkpt>
      <trkpt lat="42.49061" lon="18.69255">
        <ele>52.013859</ele>
        <time>2022-05-31T09:38:56.522Z</time>
      </trkpt>
      <trkpt lat="42.49072" lon="18.69245">
        <ele>51.774472</ele>
        <time>2022-05-31T09:38:59.513Z</time>
      </trkpt>
      <trkpt lat="42.4908" lon="18.69239">
        <ele>51.387626</ele>
        <time>2022-05-31T09:39:01.515Z</time>
      </trkpt>
      <trkpt lat="42.49088" lon="18.69233">
        <ele>50.83477</ele>
        <time>2022-05-31T09:39:03.540Z</time>
      </trkpt>
      <trkpt lat="42.49097" lon="18.69227">
        <ele>50.264753</ele>
        <time>2022-05-31T09:39:05.518Z</time>
      </trkpt>
      <trkpt lat="42.49105" lon="18.69222">
        <ele>49.681274</ele>
        <time>2022-05-31T09:39:07.516Z</time>
      </trkpt>
      <trkpt lat="42.49114" lon="18.69217">
        <ele>49.07539</ele>
        <time>2022-05-31T09:39:09.548Z</time>
      </trkpt>
      <trkpt lat="42.49123" lon="18.69211">
        <ele>48.480729</ele>
        <time>2022-05-31T09:39:11.521Z</time>
      </trkpt>
      <trkpt lat="42.49133" lon="18.69207">
        <ele>47.883922</ele>
        <time>2022-05-31T09:39:13.519Z</time>
      </trkpt>
      <trkpt lat="42.49142" lon="18.69203">
        <ele>47.272632</ele>
        <time>2022-05-31T09:39:15.537Z</time>
      </trkpt>
      <trkpt lat="42.49151" lon="18.69199">
        <ele>46.674374</ele>
        <time>2022-05-31T09:39:17.518Z</time>
      </trkpt>
      <trkpt lat="42.49161" lon="18.69194">
        <ele>46.038412</ele>
        <time>2022-05-31T09:39:19.519Z</time>
      </trkpt>
      <trkpt lat="42.49171" lon="18.69189">
        <ele>45.41661</ele>
        <time>2022-05-31T09:39:21.516Z</time>
      </trkpt>
      <trkpt lat="42.4918" lon="18.69185">
        <ele>44.831382</ele>
        <time>2022-05-31T09:39:23.524Z</time>
      </trkpt>
      <trkpt lat="42.49189" lon="18.69182">
        <ele>44.260555</ele>
        <time>2022-05-31T09:39:25.517Z</time>
      </trkpt>
      <trkpt lat="42.49198" lon="18.69177">
        <ele>43.68552</ele>
        <time>2022-05-31T09:39:27.528Z</time>
      </trkpt>
      <trkpt lat="42.4921" lon="18.69172">
        <ele>42.879781</ele>
        <time>2022-05-31T09:39:30.527Z</time>
      </trkpt>
      <trkpt lat="42.49219" lon="18.6917">
        <ele>42.322812</ele>
        <time>2022-05-31T09:39:32.533Z</time>
      </trkpt>
      <trkpt lat="42.49232" lon="18.69166">
        <ele>41.521198</ele>
        <time>2022-05-31T09:39:35.517Z</time>
      </trkpt>
      <trkpt lat="42.49241" lon="18.69164">
        <ele>40.953756</ele>
        <time>2022-05-31T09:39:37.521Z</time>
      </trkpt>
      <trkpt lat="42.49254" lon="18.69163">
        <ele>40.693412</ele>
        <time>2022-05-31T09:39:40.524Z</time>
      </trkpt>
      <trkpt lat="42.49268" lon="18.69164">
        <ele>40.69406</ele>
        <time>2022-05-31T09:39:43.547Z</time>
      </trkpt>
      <trkpt lat="42.49279" lon="18.69164">
        <ele>40.694599</ele>
        <time>2022-05-31T09:39:46.528Z</time>
      </trkpt>
      <trkpt lat="42.4929" lon="18.69165">
        <ele>40.695143</ele>
        <time>2022-05-31T09:39:49.544Z</time>
      </trkpt>
      <trkpt lat="42.49301" lon="18.69165">
        <ele>40.695696</ele>
        <time>2022-05-31T09:39:52.525Z</time>
      </trkpt>
      <trkpt lat="42.49311" lon="18.69163">
        <ele>40.696189</ele>
        <time>2022-05-31T09:39:55.540Z</time>
      </trkpt>
      <trkpt lat="42.4932" lon="18.69161">
        <ele>40.696657</ele>
        <time>2022-05-31T09:39:58.521Z</time>
      </trkpt>
      <trkpt lat="42.4933" lon="18.69159">
        <ele>40.697147</ele>
        <time>2022-05-31T09:40:01.533Z</time>
      </trkpt>
      <trkpt lat="42.49341" lon="18.69159">
        <ele>40.697652</ele>
        <time>2022-05-31T09:40:04.520Z</time>
      </trkpt>
      <trkpt lat="42.49351" lon="18.69158">
        <ele>40.698167</ele>
        <time>2022-05-31T09:40:07.583Z</time>
      </trkpt>
      <trkpt lat="42.49362" lon="18.69158">
        <ele>40.698681</ele>
        <time>2022-05-31T09:40:10.525Z</time>
      </trkpt>
      <trkpt lat="42.49373" lon="18.69158">
        <ele>40.69922</ele>
        <time>2022-05-31T09:40:13.525Z</time>
      </trkpt>
      <trkpt lat="42.49384" lon="18.69159">
        <ele>40.69977</ele>
        <time>2022-05-31T09:40:16.518Z</time>
      </trkpt>
      <trkpt lat="42.49395" lon="18.69161">
        <ele>40.700306</ele>
        <time>2022-05-31T09:40:19.525Z</time>
      </trkpt>
      <trkpt lat="42.49406" lon="18.69162">
        <ele>40.700876</ele>
        <time>2022-05-31T09:40:22.527Z</time>
      </trkpt>
      <trkpt lat="42.49418" lon="18.69164">
        <ele>40.701473</ele>
        <time>2022-05-31T09:40:25.520Z</time>
      </trkpt>
      <trkpt lat="42.49429" lon="18.69163">
        <ele>40.871839</ele>
        <time>2022-05-31T09:40:28.525Z</time>
      </trkpt>
      <trkpt lat="42.49441" lon="18.69162">
        <ele>41.295944</ele>
        <time>2022-05-31T09:40:31.520Z</time>
      </trkpt>
      <trkpt lat="42.49452" lon="18.6916">
        <ele>41.713105</ele>
        <time>2022-05-31T09:40:34.518Z</time>
      </trkpt>
      <trkpt lat="42.49463" lon="18.69157">
        <ele>42.131933</ele>
        <time>2022-05-31T09:40:37.520Z</time>
      </trkpt>
      <trkpt lat="42.49475" lon="18.69152">
        <ele>42.568936</ele>
        <time>2022-05-31T09:40:40.514Z</time>
      </trkpt>
      <trkpt lat="42.49487" lon="18.69145">
        <ele>43.071744</ele>
        <time>2022-05-31T09:40:43.512Z</time>
      </trkpt>
      <trkpt lat="42.49496" lon="18.69139">
        <ele>43.430464</ele>
        <time>2022-05-31T09:40:45.525Z</time>
      </trkpt>
      <trkpt lat="42.49505" lon="18.69133">
        <ele>43.787998</ele>
        <time>2022-05-31T09:40:47.516Z</time>
      </trkpt>
      <trkpt lat="42.49514" lon="18.69127">
        <ele>44.141406</ele>
        <time>2022-05-31T09:40:49.521Z</time>
      </trkpt>
      <trkpt lat="42.49522" lon="18.69122">
        <ele>44.486593</ele>
        <time>2022-05-31T09:40:51.518Z</time>
      </trkpt>
      <trkpt lat="42.49531" lon="18.69117">
        <ele>44.843978</ele>
        <time>2022-05-31T09:40:53.538Z</time>
      </trkpt>
      <trkpt lat="42.49541" lon="18.69114">
        <ele>45.200416</ele>
        <time>2022-05-31T09:40:55.514Z</time>
      </trkpt>
      <trkpt lat="42.49551" lon="18.69111">
        <ele>45.575873</ele>
        <time>2022-05-31T09:40:57.518Z</time>
      </trkpt>
      <trkpt lat="42.49561" lon="18.69109">
        <ele>45.949263</ele>
        <time>2022-05-31T09:40:59.539Z</time>
      </trkpt>
      <trkpt lat="42.49571" lon="18.69108">
        <ele>46.329913</ele>
        <time>2022-05-31T09:41:01.530Z</time>
      </trkpt>
      <trkpt lat="42.49582" lon="18.69108">
        <ele>46.713608</ele>
        <time>2022-05-31T09:41:03.522Z</time>
      </trkpt>
      <trkpt lat="42.49592" lon="18.69109">
        <ele>47.102303</ele>
        <time>2022-05-31T09:41:05.562Z</time>
      </trkpt>
      <trkpt lat="42.49603" lon="18.69111">
        <ele>47.32665</ele>
        <time>2022-05-31T09:41:07.541Z</time>
      </trkpt>
      <trkpt lat="42.49614" lon="18.69113">
        <ele>47.417428</ele>
        <time>2022-05-31T09:41:09.550Z</time>
      </trkpt>
      <trkpt lat="42.49625" lon="18.69116">
        <ele>47.511699</ele>
        <time>2022-05-31T09:41:11.592Z</time>
      </trkpt>
      <trkpt lat="42.49635" lon="18.6912">
        <ele>47.603582</ele>
        <time>2022-05-31T09:41:13.548Z</time>
      </trkpt>
      <trkpt lat="42.49645" lon="18.69125">
        <ele>47.691291</ele>
        <time>2022-05-31T09:41:15.551Z</time>
      </trkpt>
      <trkpt lat="42.49654" lon="18.69129">
        <ele>47.779216</ele>
        <time>2022-05-31T09:41:17.549Z</time>
      </trkpt>
      <trkpt lat="42.49664" lon="18.69135">
        <ele>47.866688</ele>
        <time>2022-05-31T09:41:19.563Z</time>
      </trkpt>
      <trkpt lat="42.49674" lon="18.6914">
        <ele>47.957489</ele>
        <time>2022-05-31T09:41:21.549Z</time>
      </trkpt>
      <trkpt lat="42.49683" lon="18.69147">
        <ele>48.048031</ele>
        <time>2022-05-31T09:41:23.540Z</time>
      </trkpt>
      <trkpt lat="42.49693" lon="18.69153">
        <ele>48.138165</ele>
        <time>2022-05-31T09:41:25.532Z</time>
      </trkpt>
      <trkpt lat="42.49702" lon="18.6916">
        <ele>48.229254</ele>
        <time>2022-05-31T09:41:27.548Z</time>
      </trkpt>
      <trkpt lat="42.49712" lon="18.69166">
        <ele>48.319303</ele>
        <time>2022-05-31T09:41:29.585Z</time>
      </trkpt>
      <trkpt lat="42.49721" lon="18.69172">
        <ele>48.404188</ele>
        <time>2022-05-31T09:41:31.545Z</time>
      </trkpt>
      <trkpt lat="42.4973" lon="18.69178">
        <ele>48.491884</ele>
        <time>2022-05-31T09:41:33.577Z</time>
      </trkpt>
      <trkpt lat="42.49739" lon="18.69185">
        <ele>48.582426</ele>
        <time>2022-05-31T09:41:35.573Z</time>
      </trkpt>
      <trkpt lat="42.49749" lon="18.6919">
        <ele>48.675039</ele>
        <time>2022-05-31T09:41:37.546Z</time>
      </trkpt>
      <trkpt lat="42.49759" lon="18.69196">
        <ele>48.766693</ele>
        <time>2022-05-31T09:41:39.523Z</time>
      </trkpt>
      <trkpt lat="42.4977" lon="18.692">
        <ele>48.728687</ele>
        <time>2022-05-31T09:41:41.541Z</time>
      </trkpt>
      <trkpt lat="42.4978" lon="18.69204">
        <ele>48.590345</ele>
        <time>2022-05-31T09:41:43.560Z</time>
      </trkpt>
      <trkpt lat="42.4979" lon="18.69208">
        <ele>48.455706</ele>
        <time>2022-05-31T09:41:45.539Z</time>
      </trkpt>
      <trkpt lat="42.49801" lon="18.69212">
        <ele>48.312414</ele>
        <time>2022-05-31T09:41:47.557Z</time>
      </trkpt>
      <trkpt lat="42.49811" lon="18.69214">
        <ele>48.176196</ele>
        <time>2022-05-31T09:41:49.550Z</time>
      </trkpt>
      <trkpt lat="42.49822" lon="18.69217">
        <ele>48.038711</ele>
        <time>2022-05-31T09:41:51.553Z</time>
      </trkpt>
      <trkpt lat="42.49833" lon="18.69219">
        <ele>47.896013</ele>
        <time>2022-05-31T09:41:53.559Z</time>
      </trkpt>
      <trkpt lat="42.49844" lon="18.69221">
        <ele>47.750919</ele>
        <time>2022-05-31T09:41:55.548Z</time>
      </trkpt>
      <trkpt lat="42.49855" lon="18.69223">
        <ele>47.616498</ele>
        <time>2022-05-31T09:41:57.574Z</time>
      </trkpt>
      <trkpt lat="42.49865" lon="18.69226">
        <ele>47.478041</ele>
        <time>2022-05-31T09:41:59.550Z</time>
      </trkpt>
      <trkpt lat="42.49876" lon="18.69228">
        <ele>47.338414</ele>
        <time>2022-05-31T09:42:01.546Z</time>
      </trkpt>
      <trkpt lat="42.49888" lon="18.69229">
        <ele>47.188719</ele>
        <time>2022-05-31T09:42:03.565Z</time>
      </trkpt>
      <trkpt lat="42.49899" lon="18.69231">
        <ele>47.042845</ele>
        <time>2022-05-31T09:42:05.585Z</time>
      </trkpt>
      <trkpt lat="42.49909" lon="18.69233">
        <ele>46.907479</ele>
        <time>2022-05-31T09:42:07.555Z</time>
      </trkpt>
      <trkpt lat="42.4992" lon="18.69235">
        <ele>46.765745</ele>
        <time>2022-05-31T09:42:09.554Z</time>
      </trkpt>
      <trkpt lat="42.49932" lon="18.69239">
        <ele>46.606922</ele>
        <time>2022-05-31T09:42:11.555Z</time>
      </trkpt>
      <trkpt lat="42.49944" lon="18.69241">
        <ele>46.3953</ele>
        <time>2022-05-31T09:42:13.541Z</time>
      </trkpt>
      <trkpt lat="42.49955" lon="18.69245">
        <ele>46.015516</ele>
        <time>2022-05-31T09:42:15.541Z</time>
      </trkpt>
      <trkpt lat="42.49967" lon="18.69248">
        <ele>45.63427</ele>
        <time>2022-05-31T09:42:17.555Z</time>
      </trkpt>
      <trkpt lat="42.49978" lon="18.69252">
        <ele>45.264592</ele>
        <time>2022-05-31T09:42:19.549Z</time>
      </trkpt>
      <trkpt lat="42.49989" lon="18.69255">
        <ele>44.889674</ele>
        <time>2022-05-31T09:42:21.544Z</time>
      </trkpt>
      <trkpt lat="42.5" lon="18.69259">
        <ele>44.515714</ele>
        <time>2022-05-31T09:42:23.553Z</time>
      </trkpt>
      <trkpt lat="42.50012" lon="18.69263">
        <ele>44.127355</ele>
        <time>2022-05-31T09:42:25.542Z</time>
      </trkpt>
      <trkpt lat="42.50023" lon="18.69267">
        <ele>43.757677</ele>
        <time>2022-05-31T09:42:27.540Z</time>
      </trkpt>
      <trkpt lat="42.50034" lon="18.69271">
        <ele>43.378786</ele>
        <time>2022-05-31T09:42:29.548Z</time>
      </trkpt>
      <trkpt lat="42.50046" lon="18.69273">
        <ele>42.999393</ele>
        <time>2022-05-31T09:42:31.574Z</time>
      </trkpt>
      <trkpt lat="42.50057" lon="18.69272">
        <ele>42.645675</ele>
        <time>2022-05-31T09:42:33.546Z</time>
      </trkpt>
      <trkpt lat="42.50067" lon="18.69269">
        <ele>42.292238</ele>
        <time>2022-05-31T09:42:35.551Z</time>
      </trkpt>
      <trkpt lat="42.50078" lon="18.69265">
        <ele>41.938683</ele>
        <time>2022-05-31T09:42:37.570Z</time>
      </trkpt>
      <trkpt lat="42.50087" lon="18.69258">
        <ele>41.599803</ele>
        <time>2022-05-31T09:42:39.551Z</time>
      </trkpt>
      <trkpt lat="42.50096" lon="18.69251">
        <ele>41.24895</ele>
        <time>2022-05-31T09:42:41.561Z</time>
      </trkpt>
      <trkpt lat="42.50107" lon="18.69243">
        <ele>40.878249</ele>
        <time>2022-05-31T09:42:43.600Z</time>
      </trkpt>
      <trkpt lat="42.50118" lon="18.69237">
        <ele>40.655152</ele>
        <time>2022-05-31T09:42:45.541Z</time>
      </trkpt>
      <trkpt lat="42.50129" lon="18.69231">
        <ele>40.614333</ele>
        <time>2022-05-31T09:42:47.577Z</time>
      </trkpt>
      <trkpt lat="42.50141" lon="18.69227">
        <ele>40.576382</ele>
        <time>2022-05-31T09:42:49.554Z</time>
      </trkpt>
      <trkpt lat="42.50151" lon="18.69224">
        <ele>40.542656</ele>
        <time>2022-05-31T09:42:51.541Z</time>
      </trkpt>
      <trkpt lat="42.5016" lon="18.6922">
        <ele>40.510072</ele>
        <time>2022-05-31T09:42:53.549Z</time>
      </trkpt>
      <trkpt lat="42.5017" lon="18.69219">
        <ele>40.476883</ele>
        <time>2022-05-31T09:42:55.553Z</time>
      </trkpt>
      <trkpt lat="42.50181" lon="18.69218">
        <ele>40.440832</ele>
        <time>2022-05-31T09:42:57.552Z</time>
      </trkpt>
      <trkpt lat="42.50194" lon="18.69219">
        <ele>40.400471</ele>
        <time>2022-05-31T09:42:59.558Z</time>
      </trkpt>
      <trkpt lat="42.50207" lon="18.69223">
        <ele>40.356517</ele>
        <time>2022-05-31T09:43:01.547Z</time>
      </trkpt>
      <trkpt lat="42.50219" lon="18.69229">
        <ele>40.314145</ele>
        <time>2022-05-31T09:43:03.530Z</time>
      </trkpt>
      <trkpt lat="42.5023" lon="18.69237">
        <ele>40.273457</ele>
        <time>2022-05-31T09:43:05.579Z</time>
      </trkpt>
      <trkpt lat="42.50239" lon="18.69248">
        <ele>40.232555</ele>
        <time>2022-05-31T09:43:07.557Z</time>
      </trkpt>
      <trkpt lat="42.50247" lon="18.6926">
        <ele>40.192662</ele>
        <time>2022-05-31T09:43:09.544Z</time>
      </trkpt>
      <trkpt lat="42.50254" lon="18.69274">
        <ele>40.152759</ele>
        <time>2022-05-31T09:43:11.551Z</time>
      </trkpt>
      <trkpt lat="42.50258" lon="18.6929">
        <ele>40.11382</ele>
        <time>2022-05-31T09:43:13.556Z</time>
      </trkpt>
      <trkpt lat="42.50259" lon="18.69306">
        <ele>40.176674</ele>
        <time>2022-05-31T09:43:15.573Z</time>
      </trkpt>
      <trkpt lat="42.5026" lon="18.69322">
        <ele>40.464714</ele>
        <time>2022-05-31T09:43:17.554Z</time>
      </trkpt>
      <trkpt lat="42.50261" lon="18.69337">
        <ele>40.74862</ele>
        <time>2022-05-31T09:43:19.546Z</time>
      </trkpt>
      <trkpt lat="42.50263" lon="18.69353">
        <ele>41.033824</ele>
        <time>2022-05-31T09:43:21.530Z</time>
      </trkpt>
      <trkpt lat="42.50266" lon="18.69367">
        <ele>41.310675</ele>
        <time>2022-05-31T09:43:23.552Z</time>
      </trkpt>
      <trkpt lat="42.50271" lon="18.69381">
        <ele>41.590437</ele>
        <time>2022-05-31T09:43:25.556Z</time>
      </trkpt>
      <trkpt lat="42.50279" lon="18.69393">
        <ele>41.877037</ele>
        <time>2022-05-31T09:43:27.558Z</time>
      </trkpt>
      <trkpt lat="42.50288" lon="18.69403">
        <ele>42.177347</ele>
        <time>2022-05-31T09:43:29.557Z</time>
      </trkpt>
      <trkpt lat="42.50299" lon="18.69411">
        <ele>42.475526</ele>
        <time>2022-05-31T09:43:31.553Z</time>
      </trkpt>
      <trkpt lat="42.50309" lon="18.69418">
        <ele>42.755096</ele>
        <time>2022-05-31T09:43:33.534Z</time>
      </trkpt>
      <trkpt lat="42.50319" lon="18.69425">
        <ele>43.052066</ele>
        <time>2022-05-31T09:43:35.549Z</time>
      </trkpt>
      <trkpt lat="42.50329" lon="18.69433">
        <ele>43.334298</ele>
        <time>2022-05-31T09:43:37.549Z</time>
      </trkpt>
      <trkpt lat="42.5034" lon="18.6944">
        <ele>43.635753</ele>
        <time>2022-05-31T09:43:39.542Z</time>
      </trkpt>
      <trkpt lat="42.5035" lon="18.69447">
        <ele>43.90886</ele>
        <time>2022-05-31T09:43:41.547Z</time>
      </trkpt>
      <trkpt lat="42.50359" lon="18.69452">
        <ele>44.147168</ele>
        <time>2022-05-31T09:43:43.556Z</time>
      </trkpt>
      <trkpt lat="42.5037" lon="18.69454">
        <ele>44.410766</ele>
        <time>2022-05-31T09:43:45.573Z</time>
      </trkpt>
      <trkpt lat="42.5038" lon="18.69454">
        <ele>44.704673</ele>
        <time>2022-05-31T09:43:47.550Z</time>
      </trkpt>
      <trkpt lat="42.50389" lon="18.69455">
        <ele>45.012699</ele>
        <time>2022-05-31T09:43:49.535Z</time>
      </trkpt>
      <trkpt lat="42.50401" lon="18.69452">
        <ele>45.438353</ele>
        <time>2022-05-31T09:43:52.575Z</time>
      </trkpt>
      <trkpt lat="42.50412" lon="18.69447">
        <ele>45.841088</ele>
        <time>2022-05-31T09:43:55.536Z</time>
      </trkpt>
      <trkpt lat="42.50423" lon="18.6944">
        <ele>46.250721</ele>
        <time>2022-05-31T09:43:58.551Z</time>
      </trkpt>
      <trkpt lat="42.50433" lon="18.69435">
        <ele>46.625108</ele>
        <time>2022-05-31T09:44:01.561Z</time>
      </trkpt>
      <trkpt lat="42.50441" lon="18.69429">
        <ele>46.936253</ele>
        <time>2022-05-31T09:44:04.552Z</time>
      </trkpt>
      <trkpt lat="42.50452" lon="18.69422">
        <ele>47.331666</ele>
        <time>2022-05-31T09:44:08.549Z</time>
      </trkpt>
      <trkpt lat="42.50461" lon="18.69415">
        <ele>47.686677</ele>
        <time>2022-05-31T09:44:12.556Z</time>
      </trkpt>
      <trkpt lat="42.5047" lon="18.69411">
        <ele>48.019705</ele>
        <time>2022-05-31T09:44:16.559Z</time>
      </trkpt>
      <trkpt lat="42.50479" lon="18.69407">
        <ele>48.363263</ele>
        <time>2022-05-31T09:44:21.553Z</time>
      </trkpt>
      <trkpt lat="42.50488" lon="18.69402">
        <ele>48.685507</ele>
        <time>2022-05-31T09:44:25.563Z</time>
      </trkpt>
      <trkpt lat="42.50497" lon="18.69396">
        <ele>49.031724</ele>
        <time>2022-05-31T09:44:29.562Z</time>
      </trkpt>
      <trkpt lat="42.50506" lon="18.69391">
        <ele>49.368527</ele>
        <time>2022-05-31T09:44:33.538Z</time>
      </trkpt>
      <trkpt lat="42.50516" lon="18.69385">
        <ele>49.740662</ele>
        <time>2022-05-31T09:44:37.547Z</time>
      </trkpt>
      <trkpt lat="42.50526" lon="18.69379">
        <ele>50.107187</ele>
        <time>2022-05-31T09:44:41.532Z</time>
      </trkpt>
      <trkpt lat="42.50536" lon="18.69375">
        <ele>50.462928</ele>
        <time>2022-05-31T09:44:45.546Z</time>
      </trkpt>
      <trkpt lat="42.50546" lon="18.69371">
        <ele>50.741066</ele>
        <time>2022-05-31T09:44:49.544Z</time>
      </trkpt>
      <trkpt lat="42.50557" lon="18.69369">
        <ele>50.856051</ele>
        <time>2022-05-31T09:44:53.561Z</time>
      </trkpt>
      <trkpt lat="42.50567" lon="18.69368">
        <ele>50.952139</ele>
        <time>2022-05-31T09:44:56.553Z</time>
      </trkpt>
      <trkpt lat="42.50576" lon="18.69369">
        <ele>51.053565</ele>
        <time>2022-05-31T09:44:59.542Z</time>
      </trkpt>
      <trkpt lat="42.50586" lon="18.69372">
        <ele>51.156622</ele>
        <time>2022-05-31T09:45:02.547Z</time>
      </trkpt>
      <trkpt lat="42.50597" lon="18.69377">
        <ele>51.279296</ele>
        <time>2022-05-31T09:45:05.531Z</time>
      </trkpt>
      <trkpt lat="42.50606" lon="18.69382">
        <ele>51.378714</ele>
        <time>2022-05-31T09:45:07.549Z</time>
      </trkpt>
      <trkpt lat="42.50615" lon="18.69389">
        <ele>51.478519</ele>
        <time>2022-05-31T09:45:09.548Z</time>
      </trkpt>
      <trkpt lat="42.50623" lon="18.69398">
        <ele>51.588343</ele>
        <time>2022-05-31T09:45:11.546Z</time>
      </trkpt>
      <trkpt lat="42.50631" lon="18.69408">
        <ele>51.705244</ele>
        <time>2022-05-31T09:45:13.537Z</time>
      </trkpt>
      <trkpt lat="42.5064" lon="18.6942">
        <ele>51.831145</ele>
        <time>2022-05-31T09:45:15.558Z</time>
      </trkpt>
      <trkpt lat="42.50648" lon="18.69434">
        <ele>51.966649</ele>
        <time>2022-05-31T09:45:17.546Z</time>
      </trkpt>
      <trkpt lat="42.50657" lon="18.69449">
        <ele>52.112985</ele>
        <time>2022-05-31T09:45:19.560Z</time>
      </trkpt>
      <trkpt lat="42.50667" lon="18.69464">
        <ele>52.269931</ele>
        <time>2022-05-31T09:45:21.548Z</time>
      </trkpt>
      <trkpt lat="42.50678" lon="18.6948">
        <ele>52.431542</ele>
        <time>2022-05-31T09:45:23.550Z</time>
      </trkpt>
      <trkpt lat="42.50688" lon="18.69496">
        <ele>52.463171</ele>
        <time>2022-05-31T09:45:25.570Z</time>
      </trkpt>
      <trkpt lat="42.50698" lon="18.69512">
        <ele>51.99458</ele>
        <time>2022-05-31T09:45:27.550Z</time>
      </trkpt>
      <trkpt lat="42.50709" lon="18.69527">
        <ele>51.522859</ele>
        <time>2022-05-31T09:45:29.555Z</time>
      </trkpt>
      <trkpt lat="42.50721" lon="18.69542">
        <ele>51.05204</ele>
        <time>2022-05-31T09:45:31.549Z</time>
      </trkpt>
      <trkpt lat="42.50732" lon="18.69555">
        <ele>50.607284</ele>
        <time>2022-05-31T09:45:33.540Z</time>
      </trkpt>
      <trkpt lat="42.50743" lon="18.69566">
        <ele>50.185983</ele>
        <time>2022-05-31T09:45:35.570Z</time>
      </trkpt>
      <trkpt lat="42.50756" lon="18.69575">
        <ele>49.757028</ele>
        <time>2022-05-31T09:45:37.541Z</time>
      </trkpt>
      <trkpt lat="42.50768" lon="18.69581">
        <ele>49.366484</ele>
        <time>2022-05-31T09:45:39.551Z</time>
      </trkpt>
      <trkpt lat="42.5078" lon="18.69587">
        <ele>48.981784</ele>
        <time>2022-05-31T09:45:41.568Z</time>
      </trkpt>
      <trkpt lat="42.5079" lon="18.69592">
        <ele>48.65856</ele>
        <time>2022-05-31T09:45:43.549Z</time>
      </trkpt>
      <trkpt lat="42.508" lon="18.69596">
        <ele>48.353452</ele>
        <time>2022-05-31T09:45:45.540Z</time>
      </trkpt>
      <trkpt lat="42.50809" lon="18.69599">
        <ele>48.061969</ele>
        <time>2022-05-31T09:45:47.596Z</time>
      </trkpt>
      <trkpt lat="42.50818" lon="18.69603">
        <ele>47.776037</ele>
        <time>2022-05-31T09:45:49.549Z</time>
      </trkpt>
      <trkpt lat="42.5083" lon="18.6961">
        <ele>47.392849</ele>
        <time>2022-05-31T09:45:52.547Z</time>
      </trkpt>
      <trkpt lat="42.50842" lon="18.69618">
        <ele>47.055624</ele>
        <time>2022-05-31T09:45:55.539Z</time>
      </trkpt>
      <trkpt lat="42.50853" lon="18.69624">
        <ele>46.826724</ele>
        <time>2022-05-31T09:45:58.606Z</time>
      </trkpt>
      <trkpt lat="42.50864" lon="18.69633">
        <ele>46.603791</ele>
        <time>2022-05-31T09:46:01.544Z</time>
      </trkpt>
      <trkpt lat="42.50874" lon="18.69642">
        <ele>46.372751</ele>
        <time>2022-05-31T09:46:04.545Z</time>
      </trkpt>
      <trkpt lat="42.50886" lon="18.6965">
        <ele>46.128319</ele>
        <time>2022-05-31T09:46:07.523Z</time>
      </trkpt>
      <trkpt lat="42.50898" lon="18.69656">
        <ele>45.877155</ele>
        <time>2022-05-31T09:46:10.510Z</time>
      </trkpt>
      <trkpt lat="42.50907" lon="18.6966">
        <ele>45.710181</ele>
        <time>2022-05-31T09:46:12.549Z</time>
      </trkpt>
      <trkpt lat="42.50916" lon="18.69664">
        <ele>45.537361</ele>
        <time>2022-05-31T09:46:14.577Z</time>
      </trkpt>
      <trkpt lat="42.50925" lon="18.69667">
        <ele>45.365227</ele>
        <time>2022-05-31T09:46:16.544Z</time>
      </trkpt>
      <trkpt lat="42.50938" lon="18.6967">
        <ele>45.11729</ele>
        <time>2022-05-31T09:46:19.550Z</time>
      </trkpt>
      <trkpt lat="42.50951" lon="18.69672">
        <ele>44.872408</ele>
        <time>2022-05-31T09:46:22.544Z</time>
      </trkpt>
      <trkpt lat="42.50965" lon="18.69672">
        <ele>44.621011</ele>
        <time>2022-05-31T09:46:25.565Z</time>
      </trkpt>
      <trkpt lat="42.50978" lon="18.69671">
        <ele>44.37693</ele>
        <time>2022-05-31T09:46:28.537Z</time>
      </trkpt>
      <trkpt lat="42.5099" lon="18.69669">
        <ele>44.137503</ele>
        <time>2022-05-31T09:46:31.591Z</time>
      </trkpt>
      <trkpt lat="42.50999" lon="18.69665">
        <ele>43.961862</ele>
        <time>2022-05-31T09:46:33.527Z</time>
      </trkpt>
      <trkpt lat="42.51009" lon="18.69661">
        <ele>43.824737</ele>
        <time>2022-05-31T09:46:35.550Z</time>
      </trkpt>
      <trkpt lat="42.51019" lon="18.69657">
        <ele>43.887136</ele>
        <time>2022-05-31T09:46:37.575Z</time>
      </trkpt>
      <trkpt lat="42.51028" lon="18.69652">
        <ele>43.949725</ele>
        <time>2022-05-31T09:46:39.535Z</time>
      </trkpt>
      <trkpt lat="42.51037" lon="18.69646">
        <ele>44.013917</ele>
        <time>2022-05-31T09:46:41.553Z</time>
      </trkpt>
      <trkpt lat="42.51046" lon="18.69641">
        <ele>44.07356</ele>
        <time>2022-05-31T09:46:43.566Z</time>
      </trkpt>
      <trkpt lat="42.51054" lon="18.69635">
        <ele>44.132502</ele>
        <time>2022-05-31T09:46:45.553Z</time>
      </trkpt>
      <trkpt lat="42.51062" lon="18.69629">
        <ele>44.190671</ele>
        <time>2022-05-31T09:46:47.539Z</time>
      </trkpt>
      <trkpt lat="42.5107" lon="18.69622">
        <ele>44.250411</ele>
        <time>2022-05-31T09:46:49.589Z</time>
      </trkpt>
      <trkpt lat="42.51078" lon="18.69616">
        <ele>44.310085</ele>
        <time>2022-05-31T09:46:51.551Z</time>
      </trkpt>
      <trkpt lat="42.51086" lon="18.69609">
        <ele>44.369224</ele>
        <time>2022-05-31T09:46:53.533Z</time>
      </trkpt>
      <trkpt lat="42.51094" lon="18.69602">
        <ele>44.426237</ele>
        <time>2022-05-31T09:46:55.586Z</time>
      </trkpt>
      <trkpt lat="42.51106" lon="18.69596">
        <ele>44.506844</ele>
        <time>2022-05-31T09:46:58.548Z</time>
      </trkpt>
      <trkpt lat="42.51115" lon="18.69592">
        <ele>44.565077</ele>
        <time>2022-05-31T09:47:00.550Z</time>
      </trkpt>
      <trkpt lat="42.51128" lon="18.69587">
        <ele>44.648258</ele>
        <time>2022-05-31T09:47:03.550Z</time>
      </trkpt>
      <trkpt lat="42.5114" lon="18.69584">
        <ele>44.73058</ele>
        <time>2022-05-31T09:47:06.552Z</time>
      </trkpt>
      <trkpt lat="42.51149" lon="18.69581">
        <ele>44.786865</ele>
        <time>2022-05-31T09:47:08.544Z</time>
      </trkpt>
      <trkpt lat="42.51158" lon="18.69579">
        <ele>44.846593</ele>
        <time>2022-05-31T09:47:10.540Z</time>
      </trkpt>
      <trkpt lat="42.51168" lon="18.69577">
        <ele>44.907834</ele>
        <time>2022-05-31T09:47:12.575Z</time>
      </trkpt>
      <trkpt lat="42.51178" lon="18.69575">
        <ele>44.919752</ele>
        <time>2022-05-31T09:47:14.557Z</time>
      </trkpt>
      <trkpt lat="42.51187" lon="18.69573">
        <ele>44.865958</ele>
        <time>2022-05-31T09:47:16.550Z</time>
      </trkpt>
      <trkpt lat="42.51197" lon="18.69571">
        <ele>44.813257</ele>
        <time>2022-05-31T09:47:18.556Z</time>
      </trkpt>
      <trkpt lat="42.51206" lon="18.6957">
        <ele>44.761899</ele>
        <time>2022-05-31T09:47:20.538Z</time>
      </trkpt>
      <trkpt lat="42.51215" lon="18.69569">
        <ele>44.711979</ele>
        <time>2022-05-31T09:47:22.548Z</time>
      </trkpt>
      <trkpt lat="42.51225" lon="18.69567">
        <ele>44.660204</ele>
        <time>2022-05-31T09:47:24.535Z</time>
      </trkpt>
      <trkpt lat="42.51234" lon="18.69565">
        <ele>44.609687</ele>
        <time>2022-05-31T09:47:26.538Z</time>
      </trkpt>
      <trkpt lat="42.51243" lon="18.69563">
        <ele>44.557244</ele>
        <time>2022-05-31T09:47:28.537Z</time>
      </trkpt>
      <trkpt lat="42.51253" lon="18.69559">
        <ele>44.502518</ele>
        <time>2022-05-31T09:47:30.539Z</time>
      </trkpt>
      <trkpt lat="42.51262" lon="18.69555">
        <ele>44.447776</ele>
        <time>2022-05-31T09:47:32.546Z</time>
      </trkpt>
      <trkpt lat="42.51271" lon="18.69551">
        <ele>44.394337</ele>
        <time>2022-05-31T09:47:34.532Z</time>
      </trkpt>
      <trkpt lat="42.5128" lon="18.69547">
        <ele>44.34192</ele>
        <time>2022-05-31T09:47:36.547Z</time>
      </trkpt>
      <trkpt lat="42.51289" lon="18.69542">
        <ele>44.288351</ele>
        <time>2022-05-31T09:47:38.554Z</time>
      </trkpt>
      <trkpt lat="42.51299" lon="18.69538">
        <ele>44.235302</ele>
        <time>2022-05-31T09:47:40.546Z</time>
      </trkpt>
      <trkpt lat="42.51308" lon="18.69534">
        <ele>44.182636</ele>
        <time>2022-05-31T09:47:42.552Z</time>
      </trkpt>
      <trkpt lat="42.51317" lon="18.69529">
        <ele>44.128885</ele>
        <time>2022-05-31T09:47:44.545Z</time>
      </trkpt>
      <trkpt lat="42.51325" lon="18.69525">
        <ele>44.077793</ele>
        <time>2022-05-31T09:47:46.545Z</time>
      </trkpt>
      <trkpt lat="42.51334" lon="18.69521">
        <ele>44.0267</ele>
        <time>2022-05-31T09:47:48.553Z</time>
      </trkpt>
      <trkpt lat="42.51343" lon="18.69517">
        <ele>43.975981</ele>
        <time>2022-05-31T09:47:50.532Z</time>
      </trkpt>
      <trkpt lat="42.51352" lon="18.69513">
        <ele>43.924543</ele>
        <time>2022-05-31T09:47:52.541Z</time>
      </trkpt>
      <trkpt lat="42.5136" lon="18.69508">
        <ele>43.87103</ele>
        <time>2022-05-31T09:47:54.547Z</time>
      </trkpt>
      <trkpt lat="42.51369" lon="18.69502">
        <ele>43.817527</ele>
        <time>2022-05-31T09:47:56.540Z</time>
      </trkpt>
      <trkpt lat="42.51377" lon="18.69497">
        <ele>43.765757</ele>
        <time>2022-05-31T09:47:58.597Z</time>
      </trkpt>
      <trkpt lat="42.51385" lon="18.69492">
        <ele>43.714339</ele>
        <time>2022-05-31T09:48:00.536Z</time>
      </trkpt>
      <trkpt lat="42.51397" lon="18.69485">
        <ele>43.637538</ele>
        <time>2022-05-31T09:48:03.536Z</time>
      </trkpt>
      <trkpt lat="42.51409" lon="18.69475">
        <ele>43.55941</ele>
        <time>2022-05-31T09:48:06.535Z</time>
      </trkpt>
      <trkpt lat="42.51418" lon="18.6947">
        <ele>43.505881</ele>
        <time>2022-05-31T09:48:08.549Z</time>
      </trkpt>
      <trkpt lat="42.51429" lon="18.69463">
        <ele>43.435694</ele>
        <time>2022-05-31T09:48:11.553Z</time>
      </trkpt>
      <trkpt lat="42.5144" lon="18.69455">
        <ele>43.361135</ele>
        <time>2022-05-31T09:48:14.537Z</time>
      </trkpt>
      <trkpt lat="42.51452" lon="18.69447">
        <ele>43.285426</ele>
        <time>2022-05-31T09:48:17.547Z</time>
      </trkpt>
      <trkpt lat="42.5146" lon="18.69441">
        <ele>43.233238</ele>
        <time>2022-05-31T09:48:19.574Z</time>
      </trkpt>
      <trkpt lat="42.51468" lon="18.69435">
        <ele>43.180855</ele>
        <time>2022-05-31T09:48:21.551Z</time>
      </trkpt>
      <trkpt lat="42.51476" lon="18.6943">
        <ele>43.12905</ele>
        <time>2022-05-31T09:48:23.554Z</time>
      </trkpt>
      <trkpt lat="42.51488" lon="18.69421">
        <ele>43.053143</ele>
        <time>2022-05-31T09:48:26.537Z</time>
      </trkpt>
      <trkpt lat="42.51499" lon="18.69412">
        <ele>42.979185</ele>
        <time>2022-05-31T09:48:29.573Z</time>
      </trkpt>
      <trkpt lat="42.51507" lon="18.69405">
        <ele>42.926637</ele>
        <time>2022-05-31T09:48:31.578Z</time>
      </trkpt>
      <trkpt lat="42.51515" lon="18.69399">
        <ele>42.993543</ele>
        <time>2022-05-31T09:48:33.539Z</time>
      </trkpt>
      <trkpt lat="42.51526" lon="18.6939">
        <ele>43.098274</ele>
        <time>2022-05-31T09:48:36.541Z</time>
      </trkpt>
      <trkpt lat="42.51537" lon="18.69381">
        <ele>43.20321</ele>
        <time>2022-05-31T09:48:39.537Z</time>
      </trkpt>
      <trkpt lat="42.51548" lon="18.69371">
        <ele>43.30635</ele>
        <time>2022-05-31T09:48:42.580Z</time>
      </trkpt>
      <trkpt lat="42.51558" lon="18.69361">
        <ele>43.406556</ele>
        <time>2022-05-31T09:48:45.550Z</time>
      </trkpt>
      <trkpt lat="42.51566" lon="18.69354">
        <ele>43.478388</ele>
        <time>2022-05-31T09:48:47.555Z</time>
      </trkpt>
      <trkpt lat="42.51576" lon="18.69344">
        <ele>43.582836</ele>
        <time>2022-05-31T09:48:50.539Z</time>
      </trkpt>
      <trkpt lat="42.51587" lon="18.69333">
        <ele>43.686224</ele>
        <time>2022-05-31T09:48:53.558Z</time>
      </trkpt>
      <trkpt lat="42.51596" lon="18.69321">
        <ele>43.7878</ele>
        <time>2022-05-31T09:48:56.546Z</time>
      </trkpt>
      <trkpt lat="42.51605" lon="18.69309">
        <ele>43.886757</ele>
        <time>2022-05-31T09:48:59.574Z</time>
      </trkpt>
      <trkpt lat="42.51614" lon="18.69297">
        <ele>43.987648</ele>
        <time>2022-05-31T09:49:02.527Z</time>
      </trkpt>
      <trkpt lat="42.51622" lon="18.69284">
        <ele>44.088978</ele>
        <time>2022-05-31T09:49:05.586Z</time>
      </trkpt>
      <trkpt lat="42.51631" lon="18.69271">
        <ele>44.190196</ele>
        <time>2022-05-31T09:49:08.545Z</time>
      </trkpt>
      <trkpt lat="42.51639" lon="18.69257">
        <ele>44.295084</ele>
        <time>2022-05-31T09:49:11.580Z</time>
      </trkpt>
      <trkpt lat="42.51646" lon="18.69243">
        <ele>44.454203</ele>
        <time>2022-05-31T09:49:14.550Z</time>
      </trkpt>
      <trkpt lat="42.51654" lon="18.6923">
        <ele>44.703308</ele>
        <time>2022-05-31T09:49:17.576Z</time>
      </trkpt>
      <trkpt lat="42.51661" lon="18.69215">
        <ele>44.961045</ele>
        <time>2022-05-31T09:49:20.537Z</time>
      </trkpt>
      <trkpt lat="42.51668" lon="18.692">
        <ele>45.218782</ele>
        <time>2022-05-31T09:49:23.563Z</time>
      </trkpt>
      <trkpt lat="42.51674" lon="18.69184">
        <ele>45.478074</ele>
        <time>2022-05-31T09:49:26.542Z</time>
      </trkpt>
      <trkpt lat="42.51681" lon="18.69169">
        <ele>45.737048</ele>
        <time>2022-05-31T09:49:29.554Z</time>
      </trkpt>
      <trkpt lat="42.51687" lon="18.69153">
        <ele>45.99225</ele>
        <time>2022-05-31T09:49:32.539Z</time>
      </trkpt>
      <trkpt lat="42.51692" lon="18.69137">
        <ele>46.246617</ele>
        <time>2022-05-31T09:49:35.541Z</time>
      </trkpt>
      <trkpt lat="42.51696" lon="18.69126">
        <ele>46.424546</ele>
        <time>2022-05-31T09:49:37.553Z</time>
      </trkpt>
      <trkpt lat="42.51699" lon="18.69115">
        <ele>46.605905</ele>
        <time>2022-05-31T09:49:39.538Z</time>
      </trkpt>
      <trkpt lat="42.51702" lon="18.69103">
        <ele>46.785216</ele>
        <time>2022-05-31T09:49:41.549Z</time>
      </trkpt>
      <trkpt lat="42.51706" lon="18.69087">
        <ele>47.036915</ele>
        <time>2022-05-31T09:49:44.549Z</time>
      </trkpt>
      <trkpt lat="42.5171" lon="18.6907">
        <ele>47.29965</ele>
        <time>2022-05-31T09:49:47.551Z</time>
      </trkpt>
      <trkpt lat="42.51713" lon="18.69052">
        <ele>47.559686</ele>
        <time>2022-05-31T09:49:50.549Z</time>
      </trkpt>
      <trkpt lat="42.51715" lon="18.6904">
        <ele>47.746137</ele>
        <time>2022-05-31T09:49:52.593Z</time>
      </trkpt>
      <trkpt lat="42.51718" lon="18.69028">
        <ele>47.92425</ele>
        <time>2022-05-31T09:49:54.544Z</time>
      </trkpt>
      <trkpt lat="42.5172" lon="18.69015">
        <ele>48.063202</ele>
        <time>2022-05-31T09:49:56.555Z</time>
      </trkpt>
      <trkpt lat="42.51721" lon="18.69002">
        <ele>48.202412</ele>
        <time>2022-05-31T09:49:58.558Z</time>
      </trkpt>
      <trkpt lat="42.51722" lon="18.6899">
        <ele>48.334646</ele>
        <time>2022-05-31T09:50:00.533Z</time>
      </trkpt>
      <trkpt lat="42.51724" lon="18.68977">
        <ele>48.473857</ele>
        <time>2022-05-31T09:50:02.555Z</time>
      </trkpt>
      <trkpt lat="42.51725" lon="18.68964">
        <ele>48.61311</ele>
        <time>2022-05-31T09:50:04.558Z</time>
      </trkpt>
      <trkpt lat="42.51726" lon="18.68951">
        <ele>48.755242</ele>
        <time>2022-05-31T09:50:06.563Z</time>
      </trkpt>
      <trkpt lat="42.51727" lon="18.68938">
        <ele>48.893775</ele>
        <time>2022-05-31T09:50:08.551Z</time>
      </trkpt>
      <trkpt lat="42.51727" lon="18.68925">
        <ele>49.027933</ele>
        <time>2022-05-31T09:50:10.528Z</time>
      </trkpt>
      <trkpt lat="42.51727" lon="18.68913">
        <ele>49.15886</ele>
        <time>2022-05-31T09:50:12.544Z</time>
      </trkpt>
      <trkpt lat="42.51727" lon="18.689">
        <ele>49.292956</ele>
        <time>2022-05-31T09:50:14.551Z</time>
      </trkpt>
      <trkpt lat="42.51727" lon="18.68888">
        <ele>49.423922</ele>
        <time>2022-05-31T09:50:16.542Z</time>
      </trkpt>
      <trkpt lat="42.51727" lon="18.6887">
        <ele>49.614434</ele>
        <time>2022-05-31T09:50:19.556Z</time>
      </trkpt>
      <trkpt lat="42.51727" lon="18.68858">
        <ele>49.744273</ele>
        <time>2022-05-31T09:50:21.582Z</time>
      </trkpt>
      <trkpt lat="42.51727" lon="18.6884">
        <ele>49.93694</ele>
        <time>2022-05-31T09:50:24.546Z</time>
      </trkpt>
      <trkpt lat="42.51726" lon="18.68822">
        <ele>50.123262</ele>
        <time>2022-05-31T09:50:27.550Z</time>
      </trkpt>
      <trkpt lat="42.51726" lon="18.6881">
        <ele>50.256411</ele>
        <time>2022-05-31T09:50:29.554Z</time>
      </trkpt>
      <trkpt lat="42.51725" lon="18.68796">
        <ele>50.399005</ele>
        <time>2022-05-31T09:50:31.578Z</time>
      </trkpt>
      <trkpt lat="42.51723" lon="18.68784">
        <ele>50.538964</ele>
        <time>2022-05-31T09:50:33.541Z</time>
      </trkpt>
      <trkpt lat="42.51721" lon="18.68766">
        <ele>50.759209</ele>
        <time>2022-05-31T09:50:36.551Z</time>
      </trkpt>
      <trkpt lat="42.51719" lon="18.68753">
        <ele>50.90949</ele>
        <time>2022-05-31T09:50:38.553Z</time>
      </trkpt>
      <trkpt lat="42.51715" lon="18.68737">
        <ele>51.120795</ele>
        <time>2022-05-31T09:50:41.552Z</time>
      </trkpt>
      <trkpt lat="42.51712" lon="18.68725">
        <ele>51.267715</ele>
        <time>2022-05-31T09:50:43.582Z</time>
      </trkpt>
      <trkpt lat="42.51707" lon="18.68715">
        <ele>51.416094</ele>
        <time>2022-05-31T09:50:45.551Z</time>
      </trkpt>
      <trkpt lat="42.51702" lon="18.68704">
        <ele>51.568586</ele>
        <time>2022-05-31T09:50:47.551Z</time>
      </trkpt>
      <trkpt lat="42.51697" lon="18.68694">
        <ele>51.717653</ele>
        <time>2022-05-31T09:50:49.581Z</time>
      </trkpt>
      <trkpt lat="42.51687" lon="18.68681">
        <ele>51.934067</ele>
        <time>2022-05-31T09:50:52.540Z</time>
      </trkpt>
      <trkpt lat="42.51677" lon="18.6867">
        <ele>52.151219</ele>
        <time>2022-05-31T09:50:55.535Z</time>
      </trkpt>
      <trkpt lat="42.51669" lon="18.68663">
        <ele>52.299077</ele>
        <time>2022-05-31T09:50:57.552Z</time>
      </trkpt>
      <trkpt lat="42.51661" lon="18.68657">
        <ele>52.449682</ele>
        <time>2022-05-31T09:50:59.547Z</time>
      </trkpt>
      <trkpt lat="42.51654" lon="18.68649">
        <ele>52.597037</ele>
        <time>2022-05-31T09:51:01.544Z</time>
      </trkpt>
      <trkpt lat="42.51647" lon="18.68641">
        <ele>52.747599</ele>
        <time>2022-05-31T09:51:03.549Z</time>
      </trkpt>
      <trkpt lat="42.51638" lon="18.68628">
        <ele>52.959186</ele>
        <time>2022-05-31T09:51:06.562Z</time>
      </trkpt>
      <trkpt lat="42.51631" lon="18.68615">
        <ele>53.156649</ele>
        <time>2022-05-31T09:51:09.554Z</time>
      </trkpt>
      <trkpt lat="42.51626" lon="18.68601">
        <ele>53.34627</ele>
        <time>2022-05-31T09:51:12.550Z</time>
      </trkpt>
      <trkpt lat="42.51622" lon="18.68589">
        <ele>53.731759</ele>
        <time>2022-05-31T09:51:15.539Z</time>
      </trkpt>
      <trkpt lat="42.51618" lon="18.68577">
        <ele>54.608751</ele>
        <time>2022-05-31T09:51:19.549Z</time>
      </trkpt>
      <trkpt lat="42.51614" lon="18.68564">
        <ele>55.489907</ele>
        <time>2022-05-31T09:51:24.529Z</time>
      </trkpt>
      <trkpt lat="42.51612" lon="18.6855">
        <ele>56.388368</ele>
        <time>2022-05-31T09:51:30.529Z</time>
      </trkpt>
      <trkpt lat="42.51613" lon="18.68535">
        <ele>57.367438</ele>
        <time>2022-05-31T09:51:36.552Z</time>
      </trkpt>
      <trkpt lat="42.51612" lon="18.68521">
        <ele>58.227536</ele>
        <time>2022-05-31T09:51:41.541Z</time>
      </trkpt>
      <trkpt lat="42.5161" lon="18.68507">
        <ele>59.107777</ele>
        <time>2022-05-31T09:51:47.548Z</time>
      </trkpt>
      <trkpt lat="42.51608" lon="18.68494">
        <ele>60.011316</ele>
        <time>2022-05-31T09:51:53.553Z</time>
      </trkpt>
      <trkpt lat="42.51611" lon="18.68481">
        <ele>60.861128</ele>
        <time>2022-05-31T09:52:00.541Z</time>
      </trkpt>
      <trkpt lat="42.51612" lon="18.68469">
        <ele>61.661192</ele>
        <time>2022-05-31T09:52:06.540Z</time>
      </trkpt>
      <trkpt lat="42.5161" lon="18.68455">
        <ele>62.587048</ele>
        <time>2022-05-31T09:52:12.553Z</time>
      </trkpt>
      <trkpt lat="42.51605" lon="18.68442">
        <ele>63.494953</ele>
        <time>2022-05-31T09:52:18.556Z</time>
      </trkpt>
      <trkpt lat="42.516" lon="18.68432">
        <ele>64.267792</ele>
        <time>2022-05-31T09:52:24.579Z</time>
      </trkpt>
      <trkpt lat="42.51595" lon="18.68421">
        <ele>65.076123</ele>
        <time>2022-05-31T09:52:30.535Z</time>
      </trkpt>
      <trkpt lat="42.51589" lon="18.68411">
        <ele>65.920815</ele>
        <time>2022-05-31T09:52:36.620Z</time>
      </trkpt>
      <trkpt lat="42.51581" lon="18.684">
        <ele>66.855766</ele>
        <time>2022-05-31T09:52:42.553Z</time>
      </trkpt>
      <trkpt lat="42.51576" lon="18.6839">
        <ele>67.654152</ele>
        <time>2022-05-31T09:52:47.583Z</time>
      </trkpt>
      <trkpt lat="42.5157" lon="18.6838">
        <ele>68.43266</ele>
        <time>2022-05-31T09:52:52.555Z</time>
      </trkpt>
      <trkpt lat="42.51565" lon="18.6837">
        <ele>69.114831</ele>
        <time>2022-05-31T09:52:58.591Z</time>
      </trkpt>
      <trkpt lat="42.51561" lon="18.68359">
        <ele>69.546639</ele>
        <time>2022-05-31T09:53:04.541Z</time>
      </trkpt>
      <trkpt lat="42.51557" lon="18.68347">
        <ele>70.006994</ele>
        <time>2022-05-31T09:53:11.541Z</time>
      </trkpt>
      <trkpt lat="42.51552" lon="18.68335">
        <ele>70.478397</ele>
        <time>2022-05-31T09:53:18.548Z</time>
      </trkpt>
      <trkpt lat="42.51549" lon="18.68323">
        <ele>70.917487</ele>
        <time>2022-05-31T09:53:23.560Z</time>
      </trkpt>
      <trkpt lat="42.51545" lon="18.68312">
        <ele>71.354658</ele>
        <time>2022-05-31T09:53:28.545Z</time>
      </trkpt>
      <trkpt lat="42.51541" lon="18.683">
        <ele>71.805451</ele>
        <time>2022-05-31T09:53:34.550Z</time>
      </trkpt>
      <trkpt lat="42.51535" lon="18.68291">
        <ele>72.24905</ele>
        <time>2022-05-31T09:53:40.537Z</time>
      </trkpt>
      <trkpt lat="42.51526" lon="18.68285">
        <ele>72.699475</ele>
        <time>2022-05-31T09:53:46.547Z</time>
      </trkpt>
      <trkpt lat="42.51518" lon="18.6828">
        <ele>73.144149</ele>
        <time>2022-05-31T09:53:52.546Z</time>
      </trkpt>
      <trkpt lat="42.51507" lon="18.68278">
        <ele>73.662726</ele>
        <time>2022-05-31T09:53:59.546Z</time>
      </trkpt>
      <trkpt lat="42.51497" lon="18.68277">
        <ele>74.119461</ele>
        <time>2022-05-31T09:54:04.555Z</time>
      </trkpt>
      <trkpt lat="42.51488" lon="18.68276">
        <ele>74.586282</ele>
        <time>2022-05-31T09:54:10.543Z</time>
      </trkpt>
      <trkpt lat="42.51478" lon="18.68277">
        <ele>75.04516</ele>
        <time>2022-05-31T09:54:16.542Z</time>
      </trkpt>
      <trkpt lat="42.51468" lon="18.68276">
        <ele>75.514708</ele>
        <time>2022-05-31T09:54:23.545Z</time>
      </trkpt>
      <trkpt lat="42.51458" lon="18.68274">
        <ele>75.990404</ele>
        <time>2022-05-31T09:54:30.532Z</time>
      </trkpt>
      <trkpt lat="42.51449" lon="18.68268">
        <ele>76.474195</ele>
        <time>2022-05-31T09:54:36.530Z</time>
      </trkpt>
      <trkpt lat="42.5144" lon="18.68263">
        <ele>76.953533</ele>
        <time>2022-05-31T09:54:42.545Z</time>
      </trkpt>
      <trkpt lat="42.51432" lon="18.68254">
        <ele>77.420934</ele>
        <time>2022-05-31T09:54:48.544Z</time>
      </trkpt>
      <trkpt lat="42.51424" lon="18.68245">
        <ele>77.540673</ele>
        <time>2022-05-31T09:54:55.539Z</time>
      </trkpt>
      <trkpt lat="42.51417" lon="18.68235">
        <ele>77.587637</ele>
        <time>2022-05-31T09:55:02.546Z</time>
      </trkpt>
      <trkpt lat="42.5141" lon="18.68226">
        <ele>77.630442</ele>
        <time>2022-05-31T09:55:08.550Z</time>
      </trkpt>
      <trkpt lat="42.51403" lon="18.68216">
        <ele>77.674209</ele>
        <time>2022-05-31T09:55:14.537Z</time>
      </trkpt>
      <trkpt lat="42.51396" lon="18.68208">
        <ele>77.715348</ele>
        <time>2022-05-31T09:55:20.527Z</time>
      </trkpt>
      <trkpt lat="42.51389" lon="18.68198">
        <ele>77.759547</ele>
        <time>2022-05-31T09:55:26.576Z</time>
      </trkpt>
      <trkpt lat="42.51382" lon="18.68189">
        <ele>77.802035</ele>
        <time>2022-05-31T09:55:31.542Z</time>
      </trkpt>
      <trkpt lat="42.51375" lon="18.6818">
        <ele>77.845143</ele>
        <time>2022-05-31T09:55:36.549Z</time>
      </trkpt>
      <trkpt lat="42.51367" lon="18.68171">
        <ele>77.893611</ele>
        <time>2022-05-31T09:55:41.554Z</time>
      </trkpt>
      <trkpt lat="42.51358" lon="18.68164">
        <ele>77.938714</ele>
        <time>2022-05-31T09:55:45.547Z</time>
      </trkpt>
      <trkpt lat="42.51349" lon="18.68156">
        <ele>77.984921</ele>
        <time>2022-05-31T09:55:49.585Z</time>
      </trkpt>
      <trkpt lat="42.51339" lon="18.68148">
        <ele>78.037859</ele>
        <time>2022-05-31T09:55:53.553Z</time>
      </trkpt>
      <trkpt lat="42.51329" lon="18.6814">
        <ele>78.087254</ele>
        <time>2022-05-31T09:55:56.533Z</time>
      </trkpt>
      <trkpt lat="42.51319" lon="18.68132">
        <ele>78.141989</ele>
        <time>2022-05-31T09:55:59.555Z</time>
      </trkpt>
      <trkpt lat="42.5131" lon="18.68129">
        <ele>78.182746</ele>
        <time>2022-05-31T09:56:01.554Z</time>
      </trkpt>
      <trkpt lat="42.513" lon="18.68128">
        <ele>78.225085</ele>
        <time>2022-05-31T09:56:03.534Z</time>
      </trkpt>
      <trkpt lat="42.5129" lon="18.68131">
        <ele>78.27419</ele>
        <time>2022-05-31T09:56:05.539Z</time>
      </trkpt>
      <trkpt lat="42.51279" lon="18.68137">
        <ele>78.115181</ele>
        <time>2022-05-31T09:56:07.553Z</time>
      </trkpt>
      <trkpt lat="42.51267" lon="18.68144">
        <ele>77.714846</ele>
        <time>2022-05-31T09:56:09.541Z</time>
      </trkpt>
      <trkpt lat="42.51254" lon="18.68149">
        <ele>77.306738</ele>
        <time>2022-05-31T09:56:11.587Z</time>
      </trkpt>
      <trkpt lat="42.51241" lon="18.68151">
        <ele>76.88773</ele>
        <time>2022-05-31T09:56:13.547Z</time>
      </trkpt>
      <trkpt lat="42.51227" lon="18.68149">
        <ele>76.456012</ele>
        <time>2022-05-31T09:56:15.552Z</time>
      </trkpt>
      <trkpt lat="42.51213" lon="18.68144">
        <ele>76.006782</ele>
        <time>2022-05-31T09:56:17.531Z</time>
      </trkpt>
      <trkpt lat="42.51201" lon="18.68134">
        <ele>75.555103</ele>
        <time>2022-05-31T09:56:19.549Z</time>
      </trkpt>
      <trkpt lat="42.5119" lon="18.6812">
        <ele>75.087463</ele>
        <time>2022-05-31T09:56:21.549Z</time>
      </trkpt>
      <trkpt lat="42.5118" lon="18.68103">
        <ele>74.590173</ele>
        <time>2022-05-31T09:56:23.542Z</time>
      </trkpt>
      <trkpt lat="42.5117" lon="18.68085">
        <ele>74.063481</ele>
        <time>2022-05-31T09:56:25.575Z</time>
      </trkpt>
      <trkpt lat="42.51161" lon="18.68065">
        <ele>73.504147</ele>
        <time>2022-05-31T09:56:27.553Z</time>
      </trkpt>
      <trkpt lat="42.51156" lon="18.68054">
        <ele>73.211743</ele>
        <time>2022-05-31T09:56:28.552Z</time>
      </trkpt>
      <trkpt lat="42.51152" lon="18.68042">
        <ele>72.924686</ele>
        <time>2022-05-31T09:56:29.554Z</time>
      </trkpt>
      <trkpt lat="42.51148" lon="18.68031">
        <ele>72.63127</ele>
        <time>2022-05-31T09:56:30.541Z</time>
      </trkpt>
      <trkpt lat="42.51144" lon="18.68019">
        <ele>72.336043</ele>
        <time>2022-05-31T09:56:31.554Z</time>
      </trkpt>
      <trkpt lat="42.51141" lon="18.68007">
        <ele>72.045819</ele>
        <time>2022-05-31T09:56:32.553Z</time>
      </trkpt>
      <trkpt lat="42.51137" lon="18.67995">
        <ele>71.754375</ele>
        <time>2022-05-31T09:56:33.577Z</time>
      </trkpt>
      <trkpt lat="42.51133" lon="18.67983">
        <ele>71.465344</ele>
        <time>2022-05-31T09:56:34.548Z</time>
      </trkpt>
      <trkpt lat="42.5113" lon="18.67971">
        <ele>71.180813</ele>
        <time>2022-05-31T09:56:35.584Z</time>
      </trkpt>
      <trkpt lat="42.51126" lon="18.67959">
        <ele>70.900466</ele>
        <time>2022-05-31T09:56:36.547Z</time>
      </trkpt>
      <trkpt lat="42.51121" lon="18.67939">
        <ele>70.403797</ele>
        <time>2022-05-31T09:56:38.549Z</time>
      </trkpt>
      <trkpt lat="42.51114" lon="18.67921">
        <ele>69.971295</ele>
        <time>2022-05-31T09:56:40.552Z</time>
      </trkpt>
      <trkpt lat="42.51105" lon="18.67905">
        <ele>69.511521</ele>
        <time>2022-05-31T09:56:42.550Z</time>
      </trkpt>
      <trkpt lat="42.51091" lon="18.67893">
        <ele>69.018985</ele>
        <time>2022-05-31T09:56:44.547Z</time>
      </trkpt>
      <trkpt lat="42.51076" lon="18.67883">
        <ele>68.515011</ele>
        <time>2022-05-31T09:56:46.542Z</time>
      </trkpt>
      <trkpt lat="42.51061" lon="18.67872">
        <ele>67.992541</ele>
        <time>2022-05-31T09:56:48.547Z</time>
      </trkpt>
      <trkpt lat="42.51046" lon="18.67863">
        <ele>67.480683</ele>
        <time>2022-05-31T09:56:50.525Z</time>
      </trkpt>
      <trkpt lat="42.51028" lon="18.67858">
        <ele>66.784528</ele>
        <time>2022-05-31T09:56:52.585Z</time>
      </trkpt>
      <trkpt lat="42.51011" lon="18.67859">
        <ele>65.920565</ele>
        <time>2022-05-31T09:56:54.544Z</time>
      </trkpt>
      <trkpt lat="42.50994" lon="18.67866">
        <ele>65.063738</ele>
        <time>2022-05-31T09:56:56.551Z</time>
      </trkpt>
      <trkpt lat="42.50977" lon="18.67872">
        <ele>64.206911</ele>
        <time>2022-05-31T09:56:58.552Z</time>
      </trkpt>
      <trkpt lat="42.50961" lon="18.67876">
        <ele>63.39635</ele>
        <time>2022-05-31T09:57:00.535Z</time>
      </trkpt>
      <trkpt lat="42.50944" lon="18.67875">
        <ele>62.575938</ele>
        <time>2022-05-31T09:57:02.565Z</time>
      </trkpt>
      <trkpt lat="42.50928" lon="18.6787">
        <ele>61.747067</ele>
        <time>2022-05-31T09:57:04.554Z</time>
      </trkpt>
      <trkpt lat="42.50911" lon="18.67862">
        <ele>60.886452</ele>
        <time>2022-05-31T09:57:06.545Z</time>
      </trkpt>
      <trkpt lat="42.50897" lon="18.67849">
        <ele>60.025918</ele>
        <time>2022-05-31T09:57:08.575Z</time>
      </trkpt>
      <trkpt lat="42.50883" lon="18.67835">
        <ele>59.18249</ele>
        <time>2022-05-31T09:57:10.531Z</time>
      </trkpt>
      <trkpt lat="42.50869" lon="18.67821">
        <ele>58.365295</ele>
        <time>2022-05-31T09:57:12.551Z</time>
      </trkpt>
      <trkpt lat="42.50856" lon="18.67808">
        <ele>57.855676</ele>
        <time>2022-05-31T09:57:14.540Z</time>
      </trkpt>
      <trkpt lat="42.50843" lon="18.67793">
        <ele>57.349474</ele>
        <time>2022-05-31T09:57:16.550Z</time>
      </trkpt>
      <trkpt lat="42.50831" lon="18.67778">
        <ele>56.853049</ele>
        <time>2022-05-31T09:57:18.556Z</time>
      </trkpt>
      <trkpt lat="42.5082" lon="18.67763">
        <ele>56.372253</ele>
        <time>2022-05-31T09:57:20.534Z</time>
      </trkpt>
      <trkpt lat="42.50809" lon="18.67747">
        <ele>55.883623</ele>
        <time>2022-05-31T09:57:22.539Z</time>
      </trkpt>
      <trkpt lat="42.50796" lon="18.67734">
        <ele>55.392204</ele>
        <time>2022-05-31T09:57:24.537Z</time>
      </trkpt>
      <trkpt lat="42.50782" lon="18.67722">
        <ele>54.893961</ele>
        <time>2022-05-31T09:57:26.559Z</time>
      </trkpt>
      <trkpt lat="42.50767" lon="18.67712">
        <ele>54.382827</ele>
        <time>2022-05-31T09:57:28.545Z</time>
      </trkpt>
      <trkpt lat="42.50751" lon="18.67705">
        <ele>53.875127</ele>
        <time>2022-05-31T09:57:30.570Z</time>
      </trkpt>
      <trkpt lat="42.50735" lon="18.677">
        <ele>53.379418</ele>
        <time>2022-05-31T09:57:32.545Z</time>
      </trkpt>
      <trkpt lat="42.50719" lon="18.67695">
        <ele>52.875191</ele>
        <time>2022-05-31T09:57:34.561Z</time>
      </trkpt>
      <trkpt lat="42.50702" lon="18.6769">
        <ele>52.366869</ele>
        <time>2022-05-31T09:57:36.568Z</time>
      </trkpt>
      <trkpt lat="42.50685" lon="18.67686">
        <ele>51.853654</ele>
        <time>2022-05-31T09:57:38.554Z</time>
      </trkpt>
      <trkpt lat="42.50667" lon="18.67685">
        <ele>51.314664</ele>
        <time>2022-05-31T09:57:40.540Z</time>
      </trkpt>
      <trkpt lat="42.50657" lon="18.67685">
        <ele>51.031607</ele>
        <time>2022-05-31T09:57:41.562Z</time>
      </trkpt>
      <trkpt lat="42.50648" lon="18.67687">
        <ele>50.759393</ele>
        <time>2022-05-31T09:57:42.546Z</time>
      </trkpt>
      <trkpt lat="42.5063" lon="18.67689">
        <ele>50.225891</ele>
        <time>2022-05-31T09:57:44.553Z</time>
      </trkpt>
      <trkpt lat="42.50621" lon="18.67688">
        <ele>49.95236</ele>
        <time>2022-05-31T09:57:45.545Z</time>
      </trkpt>
      <trkpt lat="42.50612" lon="18.67687">
        <ele>49.674689</ele>
        <time>2022-05-31T09:57:46.556Z</time>
      </trkpt>
      <trkpt lat="42.50603" lon="18.67685">
        <ele>49.397747</ele>
        <time>2022-05-31T09:57:47.577Z</time>
      </trkpt>
      <trkpt lat="42.50594" lon="18.67683">
        <ele>49.121333</ele>
        <time>2022-05-31T09:57:48.538Z</time>
      </trkpt>
      <trkpt lat="42.50585" lon="18.67679">
        <ele>48.847093</ele>
        <time>2022-05-31T09:57:49.534Z</time>
      </trkpt>
      <trkpt lat="42.50568" lon="18.6767">
        <ele>48.319595</ele>
        <time>2022-05-31T09:57:51.563Z</time>
      </trkpt>
      <trkpt lat="42.50552" lon="18.67658">
        <ele>47.77663</ele>
        <time>2022-05-31T09:57:53.533Z</time>
      </trkpt>
      <trkpt lat="42.50545" lon="18.6765">
        <ele>47.550438</ele>
        <time>2022-05-31T09:57:54.548Z</time>
      </trkpt>
      <trkpt lat="42.50537" lon="18.67642">
        <ele>47.482837</ele>
        <time>2022-05-31T09:57:55.535Z</time>
      </trkpt>
      <trkpt lat="42.5053" lon="18.67634">
        <ele>47.417239</ele>
        <time>2022-05-31T09:57:56.541Z</time>
      </trkpt>
      <trkpt lat="42.50519" lon="18.67615">
        <ele>47.29244</ele>
        <time>2022-05-31T09:57:58.578Z</time>
      </trkpt>
      <trkpt lat="42.50509" lon="18.67596">
        <ele>47.170698</ele>
        <time>2022-05-31T09:58:00.533Z</time>
      </trkpt>
      <trkpt lat="42.50501" lon="18.67575">
        <ele>47.050943</ele>
        <time>2022-05-31T09:58:02.570Z</time>
      </trkpt>
      <trkpt lat="42.50494" lon="18.67555">
        <ele>46.936057</ele>
        <time>2022-05-31T09:58:04.548Z</time>
      </trkpt>
      <trkpt lat="42.50488" lon="18.67535">
        <ele>46.823602</ele>
        <time>2022-05-31T09:58:06.550Z</time>
      </trkpt>
      <trkpt lat="42.50483" lon="18.67515">
        <ele>46.715586</ele>
        <time>2022-05-31T09:58:08.544Z</time>
      </trkpt>
      <trkpt lat="42.50479" lon="18.67496">
        <ele>46.610748</ele>
        <time>2022-05-31T09:58:10.563Z</time>
      </trkpt>
      <trkpt lat="42.50478" lon="18.67476">
        <ele>46.507391</ele>
        <time>2022-05-31T09:58:12.542Z</time>
      </trkpt>
      <trkpt lat="42.50478" lon="18.67457">
        <ele>46.409587</ele>
        <time>2022-05-31T09:58:14.538Z</time>
      </trkpt>
      <trkpt lat="42.5048" lon="18.67439">
        <ele>46.318356</ele>
        <time>2022-05-31T09:58:16.552Z</time>
      </trkpt>
      <trkpt lat="42.50483" lon="18.67423">
        <ele>46.438159</ele>
        <time>2022-05-31T09:58:18.555Z</time>
      </trkpt>
      <trkpt lat="42.50486" lon="18.67408">
        <ele>46.579718</ele>
        <time>2022-05-31T09:58:20.525Z</time>
      </trkpt>
      <trkpt lat="42.5049" lon="18.67394">
        <ele>46.717246</ele>
        <time>2022-05-31T09:58:22.549Z</time>
      </trkpt>
      <trkpt lat="42.50494" lon="18.6738">
        <ele>46.853702</ele>
        <time>2022-05-31T09:58:24.549Z</time>
      </trkpt>
      <trkpt lat="42.50499" lon="18.67367">
        <ele>46.986469</ele>
        <time>2022-05-31T09:58:26.570Z</time>
      </trkpt>
      <trkpt lat="42.50504" lon="18.67355">
        <ele>47.108417</ele>
        <time>2022-05-31T09:58:28.551Z</time>
      </trkpt>
      <trkpt lat="42.50508" lon="18.67343">
        <ele>47.232226</ele>
        <time>2022-05-31T09:58:30.541Z</time>
      </trkpt>
      <trkpt lat="42.50513" lon="18.67332">
        <ele>47.35097</ele>
        <time>2022-05-31T09:58:32.550Z</time>
      </trkpt>
      <trkpt lat="42.50517" lon="18.6732">
        <ele>47.467505</ele>
        <time>2022-05-31T09:58:34.544Z</time>
      </trkpt>
      <trkpt lat="42.50521" lon="18.67308">
        <ele>47.58561</ele>
        <time>2022-05-31T09:58:36.557Z</time>
      </trkpt>
      <trkpt lat="42.50527" lon="18.67292">
        <ele>47.746612</ele>
        <time>2022-05-31T09:58:39.584Z</time>
      </trkpt>
      <trkpt lat="42.50532" lon="18.67276">
        <ele>47.906003</ele>
        <time>2022-05-31T09:58:42.563Z</time>
      </trkpt>
      <trkpt lat="42.50535" lon="18.67258">
        <ele>48.071769</ele>
        <time>2022-05-31T09:58:45.546Z</time>
      </trkpt>
      <trkpt lat="42.50534" lon="18.6724">
        <ele>48.236596</ele>
        <time>2022-05-31T09:58:48.548Z</time>
      </trkpt>
      <trkpt lat="42.50531" lon="18.67228">
        <ele>48.355816</ele>
        <time>2022-05-31T09:58:50.532Z</time>
      </trkpt>
      <trkpt lat="42.50526" lon="18.67217">
        <ele>48.475425</ele>
        <time>2022-05-31T09:58:52.532Z</time>
      </trkpt>
      <trkpt lat="42.5052" lon="18.67205">
        <ele>48.620023</ele>
        <time>2022-05-31T09:58:54.570Z</time>
      </trkpt>
      <trkpt lat="42.50515" lon="18.67194">
        <ele>48.765747</ele>
        <time>2022-05-31T09:58:56.548Z</time>
      </trkpt>
      <trkpt lat="42.50509" lon="18.67183">
        <ele>48.913134</ele>
        <time>2022-05-31T09:58:58.549Z</time>
      </trkpt>
      <trkpt lat="42.50503" lon="18.67172">
        <ele>49.065066</ele>
        <time>2022-05-31T09:59:00.535Z</time>
      </trkpt>
      <trkpt lat="42.50498" lon="18.67161">
        <ele>49.217176</ele>
        <time>2022-05-31T09:59:02.552Z</time>
      </trkpt>
      <trkpt lat="42.50492" lon="18.67149">
        <ele>49.370945</ele>
        <time>2022-05-31T09:59:04.540Z</time>
      </trkpt>
      <trkpt lat="42.50487" lon="18.67137">
        <ele>49.526004</ele>
        <time>2022-05-31T09:59:06.557Z</time>
      </trkpt>
      <trkpt lat="42.50482" lon="18.67125">
        <ele>49.68334</ele>
        <time>2022-05-31T09:59:08.552Z</time>
      </trkpt>
      <trkpt lat="42.50477" lon="18.67112">
        <ele>49.846115</ele>
        <time>2022-05-31T09:59:10.541Z</time>
      </trkpt>
      <trkpt lat="42.50473" lon="18.67098">
        <ele>50.003361</ele>
        <time>2022-05-31T09:59:12.555Z</time>
      </trkpt>
      <trkpt lat="42.5047" lon="18.67085">
        <ele>50.163766</ele>
        <time>2022-05-31T09:59:14.540Z</time>
      </trkpt>
      <trkpt lat="42.50468" lon="18.6707">
        <ele>50.327457</ele>
        <time>2022-05-31T09:59:16.550Z</time>
      </trkpt>
      <trkpt lat="42.50466" lon="18.67056">
        <ele>50.484664</ele>
        <time>2022-05-31T09:59:18.588Z</time>
      </trkpt>
      <trkpt lat="42.50465" lon="18.67042">
        <ele>50.638354</ele>
        <time>2022-05-31T09:59:20.541Z</time>
      </trkpt>
      <trkpt lat="42.50464" lon="18.67029">
        <ele>50.790172</ele>
        <time>2022-05-31T09:59:22.545Z</time>
      </trkpt>
      <trkpt lat="42.50462" lon="18.67015">
        <ele>50.944549</ele>
        <time>2022-05-31T09:59:24.579Z</time>
      </trkpt>
      <trkpt lat="42.50461" lon="18.67001">
        <ele>51.096926</ele>
        <time>2022-05-31T09:59:26.545Z</time>
      </trkpt>
      <trkpt lat="42.50459" lon="18.66988">
        <ele>51.220347</ele>
        <time>2022-05-31T09:59:28.552Z</time>
      </trkpt>
      <trkpt lat="42.50458" lon="18.66975">
        <ele>51.147926</ele>
        <time>2022-05-31T09:59:30.542Z</time>
      </trkpt>
      <trkpt lat="42.50457" lon="18.66963">
        <ele>51.075982</ele>
        <time>2022-05-31T09:59:32.556Z</time>
      </trkpt>
      <trkpt lat="42.50456" lon="18.66949">
        <ele>51.002384</ele>
        <time>2022-05-31T09:59:34.553Z</time>
      </trkpt>
      <trkpt lat="42.50457" lon="18.66936">
        <ele>50.926918</ele>
        <time>2022-05-31T09:59:36.560Z</time>
      </trkpt>
      <trkpt lat="42.50458" lon="18.66923">
        <ele>50.853054</ele>
        <time>2022-05-31T09:59:38.549Z</time>
      </trkpt>
      <trkpt lat="42.50459" lon="18.66909">
        <ele>50.777635</ele>
        <time>2022-05-31T09:59:40.530Z</time>
      </trkpt>
      <trkpt lat="42.50461" lon="18.66896">
        <ele>50.704521</ele>
        <time>2022-05-31T09:59:42.541Z</time>
      </trkpt>
      <trkpt lat="42.50463" lon="18.66884">
        <ele>50.632702</ele>
        <time>2022-05-31T09:59:44.548Z</time>
      </trkpt>
      <trkpt lat="42.50466" lon="18.66872">
        <ele>50.564071</ele>
        <time>2022-05-31T09:59:46.549Z</time>
      </trkpt>
      <trkpt lat="42.50469" lon="18.6686">
        <ele>50.494699</ele>
        <time>2022-05-31T09:59:48.552Z</time>
      </trkpt>
      <trkpt lat="42.50471" lon="18.66848">
        <ele>50.42413</ele>
        <time>2022-05-31T09:59:50.541Z</time>
      </trkpt>
      <trkpt lat="42.50474" lon="18.66835">
        <ele>50.351024</ele>
        <time>2022-05-31T09:59:52.552Z</time>
      </trkpt>
      <trkpt lat="42.50475" lon="18.66817">
        <ele>50.251262</ele>
        <time>2022-05-31T09:59:55.552Z</time>
      </trkpt>
      <trkpt lat="42.50473" lon="18.668">
        <ele>50.152482</ele>
        <time>2022-05-31T09:59:58.548Z</time>
      </trkpt>
      <trkpt lat="42.50466" lon="18.66784">
        <ele>50.050241</ele>
        <time>2022-05-31T10:00:01.544Z</time>
      </trkpt>
      <trkpt lat="42.5046" lon="18.66774">
        <ele>49.981768</ele>
        <time>2022-05-31T10:00:03.532Z</time>
      </trkpt>
      <trkpt lat="42.50452" lon="18.66767">
        <ele>49.913275</ele>
        <time>2022-05-31T10:00:05.579Z</time>
      </trkpt>
      <trkpt lat="42.50443" lon="18.66762">
        <ele>49.849894</ele>
        <time>2022-05-31T10:00:07.553Z</time>
      </trkpt>
      <trkpt lat="42.50435" lon="18.66758">
        <ele>49.797575</ele>
        <time>2022-05-31T10:00:09.534Z</time>
      </trkpt>
      <trkpt lat="42.50426" lon="18.66756">
        <ele>49.746108</ele>
        <time>2022-05-31T10:00:11.544Z</time>
      </trkpt>
      <trkpt lat="42.50417" lon="18.66752">
        <ele>49.693907</ele>
        <time>2022-05-31T10:00:13.556Z</time>
      </trkpt>
      <trkpt lat="42.50404" lon="18.66747">
        <ele>49.618679</ele>
        <time>2022-05-31T10:00:16.541Z</time>
      </trkpt>
      <trkpt lat="42.50395" lon="18.66742">
        <ele>49.564877</ele>
        <time>2022-05-31T10:00:18.557Z</time>
      </trkpt>
      <trkpt lat="42.50386" lon="18.66737">
        <ele>49.508822</ele>
        <time>2022-05-31T10:00:20.540Z</time>
      </trkpt>
      <trkpt lat="42.50377" lon="18.66731">
        <ele>49.453524</ele>
        <time>2022-05-31T10:00:22.551Z</time>
      </trkpt>
      <trkpt lat="42.50369" lon="18.66725">
        <ele>49.399325</ele>
        <time>2022-05-31T10:00:24.549Z</time>
      </trkpt>
      <trkpt lat="42.50361" lon="18.66717">
        <ele>49.34734</ele>
        <time>2022-05-31T10:00:26.543Z</time>
      </trkpt>
      <trkpt lat="42.50354" lon="18.6671">
        <ele>49.294291</ele>
        <time>2022-05-31T10:00:28.595Z</time>
      </trkpt>
      <trkpt lat="42.50346" lon="18.66701">
        <ele>49.238578</ele>
        <time>2022-05-31T10:00:30.542Z</time>
      </trkpt>
      <trkpt lat="42.5034" lon="18.66691">
        <ele>49.182686</ele>
        <time>2022-05-31T10:00:32.541Z</time>
      </trkpt>
      <trkpt lat="42.50333" lon="18.6668">
        <ele>49.124784</ele>
        <time>2022-05-31T10:00:34.549Z</time>
      </trkpt>
      <trkpt lat="42.50327" lon="18.6667">
        <ele>49.072237</ele>
        <time>2022-05-31T10:00:36.539Z</time>
      </trkpt>
      <trkpt lat="42.50322" lon="18.6666">
        <ele>49.019388</ele>
        <time>2022-05-31T10:00:38.549Z</time>
      </trkpt>
      <trkpt lat="42.50317" lon="18.66649">
        <ele>48.966867</ele>
        <time>2022-05-31T10:00:40.537Z</time>
      </trkpt>
      <trkpt lat="42.50313" lon="18.66637">
        <ele>48.913008</ele>
        <time>2022-05-31T10:00:42.551Z</time>
      </trkpt>
      <trkpt lat="42.5031" lon="18.66625">
        <ele>48.852267</ele>
        <time>2022-05-31T10:00:44.543Z</time>
      </trkpt>
      <trkpt lat="42.50306" lon="18.66612">
        <ele>48.709631</ele>
        <time>2022-05-31T10:00:46.548Z</time>
      </trkpt>
      <trkpt lat="42.50302" lon="18.666">
        <ele>48.564629</ele>
        <time>2022-05-31T10:00:48.555Z</time>
      </trkpt>
      <trkpt lat="42.50298" lon="18.66588">
        <ele>48.422998</ele>
        <time>2022-05-31T10:00:50.575Z</time>
      </trkpt>
      <trkpt lat="42.50294" lon="18.66577">
        <ele>48.280321</ele>
        <time>2022-05-31T10:00:52.560Z</time>
      </trkpt>
      <trkpt lat="42.50289" lon="18.66565">
        <ele>48.138099</ele>
        <time>2022-05-31T10:00:54.549Z</time>
      </trkpt>
      <trkpt lat="42.50284" lon="18.66554">
        <ele>47.995218</ele>
        <time>2022-05-31T10:00:56.568Z</time>
      </trkpt>
      <trkpt lat="42.50277" lon="18.66544">
        <ele>47.851027</ele>
        <time>2022-05-31T10:00:58.531Z</time>
      </trkpt>
      <trkpt lat="42.50272" lon="18.66535">
        <ele>47.714187</ele>
        <time>2022-05-31T10:01:00.530Z</time>
      </trkpt>
      <trkpt lat="42.50263" lon="18.6652">
        <ele>47.517783</ele>
        <time>2022-05-31T10:01:03.529Z</time>
      </trkpt>
      <trkpt lat="42.50258" lon="18.66511">
        <ele>47.383475</ele>
        <time>2022-05-31T10:01:05.539Z</time>
      </trkpt>
      <trkpt lat="42.50252" lon="18.66501">
        <ele>47.24139</ele>
        <time>2022-05-31T10:01:07.534Z</time>
      </trkpt>
      <trkpt lat="42.50245" lon="18.66491">
        <ele>47.097449</ele>
        <time>2022-05-31T10:01:09.531Z</time>
      </trkpt>
      <trkpt lat="42.50238" lon="18.66482">
        <ele>46.959225</ele>
        <time>2022-05-31T10:01:11.553Z</time>
      </trkpt>
      <trkpt lat="42.50231" lon="18.66474">
        <ele>46.822289</ele>
        <time>2022-05-31T10:01:13.538Z</time>
      </trkpt>
      <trkpt lat="42.50222" lon="18.66461">
        <ele>46.629964</ele>
        <time>2022-05-31T10:01:16.526Z</time>
      </trkpt>
      <trkpt lat="42.50216" lon="18.66452">
        <ele>46.496635</ele>
        <time>2022-05-31T10:01:18.531Z</time>
      </trkpt>
      <trkpt lat="42.50207" lon="18.6644">
        <ele>46.304161</ele>
        <time>2022-05-31T10:01:21.523Z</time>
      </trkpt>
      <trkpt lat="42.50201" lon="18.66431">
        <ele>46.232975</ele>
        <time>2022-05-31T10:01:23.521Z</time>
      </trkpt>
      <trkpt lat="42.50194" lon="18.66423">
        <ele>46.333083</ele>
        <time>2022-05-31T10:01:25.542Z</time>
      </trkpt>
      <trkpt lat="42.50187" lon="18.66415">
        <ele>46.435523</ele>
        <time>2022-05-31T10:01:27.516Z</time>
      </trkpt>
      <trkpt lat="42.50178" lon="18.66403">
        <ele>46.575492</ele>
        <time>2022-05-31T10:01:30.546Z</time>
      </trkpt>
      <trkpt lat="42.50169" lon="18.66394">
        <ele>46.700589</ele>
        <time>2022-05-31T10:01:33.573Z</time>
      </trkpt>
      <trkpt lat="42.50159" lon="18.66386">
        <ele>46.826388</ele>
        <time>2022-05-31T10:01:36.528Z</time>
      </trkpt>
      <trkpt lat="42.50149" lon="18.66381">
        <ele>46.948464</ele>
        <time>2022-05-31T10:01:39.576Z</time>
      </trkpt>
      <trkpt lat="42.50139" lon="18.66375">
        <ele>47.07127</ele>
        <time>2022-05-31T10:01:42.613Z</time>
      </trkpt>
      <trkpt lat="42.50128" lon="18.66367">
        <ele>47.198008</ele>
        <time>2022-05-31T10:01:45.571Z</time>
      </trkpt>
      <trkpt lat="42.5012" lon="18.66359">
        <ele>47.317534</ele>
        <time>2022-05-31T10:01:48.554Z</time>
      </trkpt>
      <trkpt lat="42.50112" lon="18.66349">
        <ele>47.43535</ele>
        <time>2022-05-31T10:01:51.538Z</time>
      </trkpt>
      <trkpt lat="42.50105" lon="18.66337">
        <ele>47.561353</ele>
        <time>2022-05-31T10:01:54.545Z</time>
      </trkpt>
      <trkpt lat="42.50098" lon="18.66325">
        <ele>47.681978</ele>
        <time>2022-05-31T10:01:57.551Z</time>
      </trkpt>
      <trkpt lat="42.50094" lon="18.66312">
        <ele>47.805258</ele>
        <time>2022-05-31T10:02:00.545Z</time>
      </trkpt>
      <trkpt lat="42.5009" lon="18.66297">
        <ele>47.930314</ele>
        <time>2022-05-31T10:02:03.545Z</time>
      </trkpt>
      <trkpt lat="42.50088" lon="18.66283">
        <ele>48.052132</ele>
        <time>2022-05-31T10:02:06.533Z</time>
      </trkpt>
      <trkpt lat="42.50088" lon="18.66267">
        <ele>48.175795</ele>
        <time>2022-05-31T10:02:09.550Z</time>
      </trkpt>
      <trkpt lat="42.50088" lon="18.66252">
        <ele>48.270542</ele>
        <time>2022-05-31T10:02:12.553Z</time>
      </trkpt>
      <trkpt lat="42.50088" lon="18.66236">
        <ele>48.357064</ele>
        <time>2022-05-31T10:02:15.552Z</time>
      </trkpt>
      <trkpt lat="42.50087" lon="18.6622">
        <ele>48.446032</ele>
        <time>2022-05-31T10:02:18.554Z</time>
      </trkpt>
      <trkpt lat="42.50084" lon="18.66205">
        <ele>48.534237</ele>
        <time>2022-05-31T10:02:21.548Z</time>
      </trkpt>
      <trkpt lat="42.5008" lon="18.66189">
        <ele>48.625043</ele>
        <time>2022-05-31T10:02:24.551Z</time>
      </trkpt>
      <trkpt lat="42.50075" lon="18.66174">
        <ele>48.71946</ele>
        <time>2022-05-31T10:02:27.581Z</time>
      </trkpt>
      <trkpt lat="42.50069" lon="18.66158">
        <ele>48.816623</ele>
        <time>2022-05-31T10:02:30.549Z</time>
      </trkpt>
      <trkpt lat="42.50061" lon="18.66144">
        <ele>48.915729</ele>
        <time>2022-05-31T10:02:33.539Z</time>
      </trkpt>
      <trkpt lat="42.50054" lon="18.66136">
        <ele>48.984555</ele>
        <time>2022-05-31T10:02:35.544Z</time>
      </trkpt>
      <trkpt lat="42.50047" lon="18.66129">
        <ele>49.054575</ele>
        <time>2022-05-31T10:02:37.550Z</time>
      </trkpt>
      <trkpt lat="42.50038" lon="18.66122">
        <ele>49.127857</ele>
        <time>2022-05-31T10:02:39.579Z</time>
      </trkpt>
      <trkpt lat="42.5003" lon="18.66116">
        <ele>49.200968</ele>
        <time>2022-05-31T10:02:41.529Z</time>
      </trkpt>
      <trkpt lat="42.50021" lon="18.66109">
        <ele>49.273422</ele>
        <time>2022-05-31T10:02:43.541Z</time>
      </trkpt>
      <trkpt lat="42.50012" lon="18.66104">
        <ele>49.345607</ele>
        <time>2022-05-31T10:02:45.561Z</time>
      </trkpt>
      <trkpt lat="42.50004" lon="18.66099">
        <ele>49.418265</ele>
        <time>2022-05-31T10:02:47.529Z</time>
      </trkpt>
      <trkpt lat="42.49995" lon="18.66094">
        <ele>49.489108</ele>
        <time>2022-05-31T10:02:49.542Z</time>
      </trkpt>
      <trkpt lat="42.49986" lon="18.6609">
        <ele>49.549347</ele>
        <time>2022-05-31T10:02:51.583Z</time>
      </trkpt>
      <trkpt lat="42.49977" lon="18.66085">
        <ele>49.456807</ele>
        <time>2022-05-31T10:02:53.548Z</time>
      </trkpt>
      <trkpt lat="42.49968" lon="18.6608">
        <ele>49.364522</ele>
        <time>2022-05-31T10:02:55.543Z</time>
      </trkpt>
      <trkpt lat="42.49959" lon="18.66076">
        <ele>49.271981</ele>
        <time>2022-05-31T10:02:57.544Z</time>
      </trkpt>
      <trkpt lat="42.4995" lon="18.66069">
        <ele>49.176935</ele>
        <time>2022-05-31T10:02:59.531Z</time>
      </trkpt>
      <trkpt lat="42.49941" lon="18.66061">
        <ele>49.0743</ele>
        <time>2022-05-31T10:03:01.547Z</time>
      </trkpt>
      <trkpt lat="42.49932" lon="18.66053">
        <ele>48.968957</ele>
        <time>2022-05-31T10:03:03.574Z</time>
      </trkpt>
      <trkpt lat="42.49923" lon="18.66045">
        <ele>48.863226</ele>
        <time>2022-05-31T10:03:05.549Z</time>
      </trkpt>
      <trkpt lat="42.49914" lon="18.66036">
        <ele>48.756706</ele>
        <time>2022-05-31T10:03:07.548Z</time>
      </trkpt>
      <trkpt lat="42.49905" lon="18.66027">
        <ele>48.65339</ele>
        <time>2022-05-31T10:03:09.583Z</time>
      </trkpt>
      <trkpt lat="42.49898" lon="18.66017">
        <ele>48.553253</ele>
        <time>2022-05-31T10:03:11.556Z</time>
      </trkpt>
      <trkpt lat="42.49892" lon="18.66006">
        <ele>48.460043</ele>
        <time>2022-05-31T10:03:13.537Z</time>
      </trkpt>
      <trkpt lat="42.49886" lon="18.65996">
        <ele>48.364583</ele>
        <time>2022-05-31T10:03:15.553Z</time>
      </trkpt>
      <trkpt lat="42.49879" lon="18.65985">
        <ele>48.266868</ele>
        <time>2022-05-31T10:03:17.547Z</time>
      </trkpt>
      <trkpt lat="42.49873" lon="18.65975">
        <ele>48.17059</ele>
        <time>2022-05-31T10:03:19.553Z</time>
      </trkpt>
      <trkpt lat="42.49867" lon="18.65965">
        <ele>48.079483</ele>
        <time>2022-05-31T10:03:21.533Z</time>
      </trkpt>
      <trkpt lat="42.49861" lon="18.65955">
        <ele>47.990271</ele>
        <time>2022-05-31T10:03:23.549Z</time>
      </trkpt>
      <trkpt lat="42.49852" lon="18.65941">
        <ele>47.865168</ele>
        <time>2022-05-31T10:03:26.526Z</time>
      </trkpt>
      <trkpt lat="42.49844" lon="18.65929">
        <ele>47.867083</ele>
        <time>2022-05-31T10:03:29.545Z</time>
      </trkpt>
      <trkpt lat="42.49835" lon="18.65917">
        <ele>47.909821</ele>
        <time>2022-05-31T10:03:32.555Z</time>
      </trkpt>
      <trkpt lat="42.49826" lon="18.65905">
        <ele>47.954413</ele>
        <time>2022-05-31T10:03:35.561Z</time>
      </trkpt>
      <trkpt lat="42.49818" lon="18.65893">
        <ele>47.996367</ele>
        <time>2022-05-31T10:03:38.555Z</time>
      </trkpt>
      <trkpt lat="42.4981" lon="18.65883">
        <ele>48.033302</ele>
        <time>2022-05-31T10:03:41.556Z</time>
      </trkpt>
      <trkpt lat="42.49803" lon="18.65873">
        <ele>48.070725</ele>
        <time>2022-05-31T10:03:44.542Z</time>
      </trkpt>
      <trkpt lat="42.49793" lon="18.65863">
        <ele>48.112401</ele>
        <time>2022-05-31T10:03:47.552Z</time>
      </trkpt>
      <trkpt lat="42.49783" lon="18.65853">
        <ele>48.156496</ele>
        <time>2022-05-31T10:03:50.541Z</time>
      </trkpt>
      <trkpt lat="42.49771" lon="18.65845">
        <ele>48.203398</ele>
        <time>2022-05-31T10:03:53.549Z</time>
      </trkpt>
      <trkpt lat="42.49761" lon="18.65842">
        <ele>48.237858</ele>
        <time>2022-05-31T10:03:55.546Z</time>
      </trkpt>
      <trkpt lat="42.49752" lon="18.65839">
        <ele>48.272118</ele>
        <time>2022-05-31T10:03:57.545Z</time>
      </trkpt>
      <trkpt lat="42.49742" lon="18.65835">
        <ele>48.306536</ele>
        <time>2022-05-31T10:03:59.551Z</time>
      </trkpt>
      <trkpt lat="42.49733" lon="18.65829">
        <ele>48.341034</ele>
        <time>2022-05-31T10:04:01.550Z</time>
      </trkpt>
      <trkpt lat="42.49725" lon="18.65822">
        <ele>48.374451</ele>
        <time>2022-05-31T10:04:03.535Z</time>
      </trkpt>
      <trkpt lat="42.49717" lon="18.65815">
        <ele>48.407705</ele>
        <time>2022-05-31T10:04:05.555Z</time>
      </trkpt>
      <trkpt lat="42.4971" lon="18.65807">
        <ele>48.441686</ele>
        <time>2022-05-31T10:04:07.552Z</time>
      </trkpt>
      <trkpt lat="42.49703" lon="18.65796">
        <ele>48.450044</ele>
        <time>2022-05-31T10:04:09.549Z</time>
      </trkpt>
      <trkpt lat="42.49696" lon="18.65785">
        <ele>48.417692</ele>
        <time>2022-05-31T10:04:11.598Z</time>
      </trkpt>
      <trkpt lat="42.49691" lon="18.65772">
        <ele>48.386267</ele>
        <time>2022-05-31T10:04:13.558Z</time>
      </trkpt>
      <trkpt lat="42.49686" lon="18.6576">
        <ele>48.354716</ele>
        <time>2022-05-31T10:04:15.546Z</time>
      </trkpt>
      <trkpt lat="42.49682" lon="18.65748">
        <ele>48.326705</ele>
        <time>2022-05-31T10:04:17.566Z</time>
      </trkpt>
      <trkpt lat="42.49679" lon="18.65736">
        <ele>48.297274</ele>
        <time>2022-05-31T10:04:19.548Z</time>
      </trkpt>
      <trkpt lat="42.49677" lon="18.65723">
        <ele>48.267355</ele>
        <time>2022-05-31T10:04:21.546Z</time>
      </trkpt>
      <trkpt lat="42.49671" lon="18.65707">
        <ele>48.230027</ele>
        <time>2022-05-31T10:04:23.538Z</time>
      </trkpt>
      <trkpt lat="42.49666" lon="18.65693">
        <ele>48.195075</ele>
        <time>2022-05-31T10:04:25.537Z</time>
      </trkpt>
      <trkpt lat="42.49661" lon="18.65679">
        <ele>48.16032</ele>
        <time>2022-05-31T10:04:27.543Z</time>
      </trkpt>
      <trkpt lat="42.49656" lon="18.65666">
        <ele>48.127349</ele>
        <time>2022-05-31T10:04:29.539Z</time>
      </trkpt>
      <trkpt lat="42.49651" lon="18.65652">
        <ele>48.094578</ele>
        <time>2022-05-31T10:04:31.537Z</time>
      </trkpt>
      <trkpt lat="42.49647" lon="18.65639">
        <ele>48.062242</ele>
        <time>2022-05-31T10:04:33.535Z</time>
      </trkpt>
      <trkpt lat="42.49644" lon="18.65625">
        <ele>48.029361</ele>
        <time>2022-05-31T10:04:35.562Z</time>
      </trkpt>
      <trkpt lat="42.49642" lon="18.65611">
        <ele>47.997748</ele>
        <time>2022-05-31T10:04:37.574Z</time>
      </trkpt>
      <trkpt lat="42.4964" lon="18.65596">
        <ele>47.965806</ele>
        <time>2022-05-31T10:04:39.550Z</time>
      </trkpt>
      <trkpt lat="42.49638" lon="18.65583">
        <ele>47.93643</ele>
        <time>2022-05-31T10:04:41.535Z</time>
      </trkpt>
      <trkpt lat="42.49636" lon="18.65571">
        <ele>47.9533</ele>
        <time>2022-05-31T10:04:43.548Z</time>
      </trkpt>
      <trkpt lat="42.49634" lon="18.65559">
        <ele>48.002644</ele>
        <time>2022-05-31T10:04:45.552Z</time>
      </trkpt>
      <trkpt lat="42.49631" lon="18.65546">
        <ele>48.05612</ele>
        <time>2022-05-31T10:04:47.540Z</time>
      </trkpt>
      <trkpt lat="42.49625" lon="18.6553">
        <ele>48.12555</ele>
        <time>2022-05-31T10:04:50.531Z</time>
      </trkpt>
      <trkpt lat="42.4962" lon="18.6552">
        <ele>48.175966</ele>
        <time>2022-05-31T10:04:52.529Z</time>
      </trkpt>
      <trkpt lat="42.49614" lon="18.65509">
        <ele>48.228962</ele>
        <time>2022-05-31T10:04:54.542Z</time>
      </trkpt>
      <trkpt lat="42.49606" lon="18.65496">
        <ele>48.297754</ele>
        <time>2022-05-31T10:04:57.540Z</time>
      </trkpt>
      <trkpt lat="42.496" lon="18.65487">
        <ele>48.346505</ele>
        <time>2022-05-31T10:04:59.579Z</time>
      </trkpt>
      <trkpt lat="42.49592" lon="18.65472">
        <ele>48.418178</ele>
        <time>2022-05-31T10:05:02.529Z</time>
      </trkpt>
      <trkpt lat="42.49586" lon="18.65458">
        <ele>48.485701</ele>
        <time>2022-05-31T10:05:05.530Z</time>
      </trkpt>
      <trkpt lat="42.49577" lon="18.65447">
        <ele>48.550171</ele>
        <time>2022-05-31T10:05:08.545Z</time>
      </trkpt>
      <trkpt lat="42.49566" lon="18.65443">
        <ele>48.610201</ele>
        <time>2022-05-31T10:05:11.637Z</time>
      </trkpt>
      <trkpt lat="42.49555" lon="18.65448">
        <ele>48.670967</ele>
        <time>2022-05-31T10:05:14.547Z</time>
      </trkpt>
      <trkpt lat="42.49543" lon="18.65448">
        <ele>48.734889</ele>
        <time>2022-05-31T10:05:17.539Z</time>
      </trkpt>
      <trkpt lat="42.49534" lon="18.65434">
        <ele>48.811478</ele>
        <time>2022-05-31T10:05:20.540Z</time>
      </trkpt>
      <trkpt lat="42.49529" lon="18.65421">
        <ele>48.871261</ele>
        <time>2022-05-31T10:05:22.546Z</time>
      </trkpt>
      <trkpt lat="42.49526" lon="18.65408">
        <ele>48.904589</ele>
        <time>2022-05-31T10:05:24.578Z</time>
      </trkpt>
      <trkpt lat="42.49524" lon="18.65395">
        <ele>48.918718</ele>
        <time>2022-05-31T10:05:26.539Z</time>
      </trkpt>
      <trkpt lat="42.49521" lon="18.65383">
        <ele>48.932665</ele>
        <time>2022-05-31T10:05:28.537Z</time>
      </trkpt>
      <trkpt lat="42.49518" lon="18.65371">
        <ele>48.946709</ele>
        <time>2022-05-31T10:05:30.533Z</time>
      </trkpt>
      <trkpt lat="42.49516" lon="18.65358">
        <ele>48.961637</ele>
        <time>2022-05-31T10:05:32.548Z</time>
      </trkpt>
      <trkpt lat="42.49513" lon="18.65345">
        <ele>48.976164</ele>
        <time>2022-05-31T10:05:34.550Z</time>
      </trkpt>
      <trkpt lat="42.4951" lon="18.65333">
        <ele>48.989724</ele>
        <time>2022-05-31T10:05:36.543Z</time>
      </trkpt>
      <trkpt lat="42.49508" lon="18.65321">
        <ele>49.00328</ele>
        <time>2022-05-31T10:05:38.570Z</time>
      </trkpt>
      <trkpt lat="42.49505" lon="18.65309">
        <ele>49.017264</ele>
        <time>2022-05-31T10:05:40.632Z</time>
      </trkpt>
      <trkpt lat="42.49501" lon="18.65293">
        <ele>49.036188</ele>
        <time>2022-05-31T10:05:43.560Z</time>
      </trkpt>
      <trkpt lat="42.49498" lon="18.65282">
        <ele>49.049704</ele>
        <time>2022-05-31T10:05:45.551Z</time>
      </trkpt>
      <trkpt lat="42.49493" lon="18.6527">
        <ele>49.063645</ele>
        <time>2022-05-31T10:05:47.588Z</time>
      </trkpt>
      <trkpt lat="42.49489" lon="18.65259">
        <ele>49.077524</ele>
        <time>2022-05-31T10:05:49.556Z</time>
      </trkpt>
      <trkpt lat="42.49481" lon="18.65245">
        <ele>49.096988</ele>
        <time>2022-05-31T10:05:52.548Z</time>
      </trkpt>
      <trkpt lat="42.49476" lon="18.65235">
        <ele>49.110965</ele>
        <time>2022-05-31T10:05:54.554Z</time>
      </trkpt>
      <trkpt lat="42.4947" lon="18.65224">
        <ele>49.125031</ele>
        <time>2022-05-31T10:05:56.551Z</time>
      </trkpt>
      <trkpt lat="42.49464" lon="18.65214">
        <ele>49.140071</ele>
        <time>2022-05-31T10:05:58.539Z</time>
      </trkpt>
      <trkpt lat="42.49458" lon="18.65204">
        <ele>49.153723</ele>
        <time>2022-05-31T10:06:00.520Z</time>
      </trkpt>
      <trkpt lat="42.49449" lon="18.65192">
        <ele>49.132867</ele>
        <time>2022-05-31T10:06:03.529Z</time>
      </trkpt>
      <trkpt lat="42.4944" lon="18.65184">
        <ele>49.060871</ele>
        <time>2022-05-31T10:06:06.556Z</time>
      </trkpt>
      <trkpt lat="42.49429" lon="18.65179">
        <ele>48.982204</ele>
        <time>2022-05-31T10:06:09.565Z</time>
      </trkpt>
      <trkpt lat="42.49416" lon="18.65179">
        <ele>48.896956</ele>
        <time>2022-05-31T10:06:12.591Z</time>
      </trkpt>
      <trkpt lat="42.49407" lon="18.65181">
        <ele>48.83574</ele>
        <time>2022-05-31T10:06:14.544Z</time>
      </trkpt>
      <trkpt lat="42.49398" lon="18.65184">
        <ele>48.768895</ele>
        <time>2022-05-31T10:06:16.548Z</time>
      </trkpt>
      <trkpt lat="42.49387" lon="18.65186">
        <ele>48.698906</ele>
        <time>2022-05-31T10:06:18.544Z</time>
      </trkpt>
      <trkpt lat="42.49376" lon="18.65187">
        <ele>48.622977</ele>
        <time>2022-05-31T10:06:20.580Z</time>
      </trkpt>
      <trkpt lat="42.49366" lon="18.65184">
        <ele>48.556738</ele>
        <time>2022-05-31T10:06:22.552Z</time>
      </trkpt>
      <trkpt lat="42.49356" lon="18.65178">
        <ele>48.485112</ele>
        <time>2022-05-31T10:06:24.552Z</time>
      </trkpt>
      <trkpt lat="42.49347" lon="18.65171">
        <ele>48.412063</ele>
        <time>2022-05-31T10:06:26.542Z</time>
      </trkpt>
      <trkpt lat="42.49338" lon="18.65162">
        <ele>48.336755</ele>
        <time>2022-05-31T10:06:28.544Z</time>
      </trkpt>
      <trkpt lat="42.49329" lon="18.65152">
        <ele>48.257701</ele>
        <time>2022-05-31T10:06:30.535Z</time>
      </trkpt>
      <trkpt lat="42.4932" lon="18.65142">
        <ele>48.180359</ele>
        <time>2022-05-31T10:06:32.546Z</time>
      </trkpt>
      <trkpt lat="42.49312" lon="18.65132">
        <ele>48.108827</ele>
        <time>2022-05-31T10:06:34.556Z</time>
      </trkpt>
      <trkpt lat="42.49304" lon="18.65122">
        <ele>48.036466</ele>
        <time>2022-05-31T10:06:36.551Z</time>
      </trkpt>
      <trkpt lat="42.49296" lon="18.65113">
        <ele>47.964584</ele>
        <time>2022-05-31T10:06:38.548Z</time>
      </trkpt>
      <trkpt lat="42.49287" lon="18.65104">
        <ele>47.806196</ele>
        <time>2022-05-31T10:06:40.545Z</time>
      </trkpt>
      <trkpt lat="42.49279" lon="18.65096">
        <ele>47.642758</ele>
        <time>2022-05-31T10:06:42.534Z</time>
      </trkpt>
      <trkpt lat="42.4927" lon="18.65089">
        <ele>47.480944</ele>
        <time>2022-05-31T10:06:44.554Z</time>
      </trkpt>
      <trkpt lat="42.49261" lon="18.65082">
        <ele>47.313464</ele>
        <time>2022-05-31T10:06:46.551Z</time>
      </trkpt>
      <trkpt lat="42.49252" lon="18.65075">
        <ele>47.156282</ele>
        <time>2022-05-31T10:06:48.561Z</time>
      </trkpt>
      <trkpt lat="42.49244" lon="18.65067">
        <ele>47.001928</ele>
        <time>2022-05-31T10:06:50.546Z</time>
      </trkpt>
      <trkpt lat="42.49236" lon="18.6506">
        <ele>46.848144</ele>
        <time>2022-05-31T10:06:52.553Z</time>
      </trkpt>
      <trkpt lat="42.49224" lon="18.6505">
        <ele>46.636723</ele>
        <time>2022-05-31T10:06:55.550Z</time>
      </trkpt>
      <trkpt lat="42.49217" lon="18.65043">
        <ele>46.495343</ele>
        <time>2022-05-31T10:06:57.550Z</time>
      </trkpt>
      <trkpt lat="42.49209" lon="18.65036">
        <ele>46.337737</ele>
        <time>2022-05-31T10:06:59.552Z</time>
      </trkpt>
      <trkpt lat="42.492" lon="18.65029">
        <ele>46.188892</ele>
        <time>2022-05-31T10:07:01.537Z</time>
      </trkpt>
      <trkpt lat="42.49192" lon="18.65024">
        <ele>46.043588</ele>
        <time>2022-05-31T10:07:03.536Z</time>
      </trkpt>
      <trkpt lat="42.49183" lon="18.65022">
        <ele>45.901605</ele>
        <time>2022-05-31T10:07:05.557Z</time>
      </trkpt>
      <trkpt lat="42.49174" lon="18.65022">
        <ele>45.755845</ele>
        <time>2022-05-31T10:07:07.557Z</time>
      </trkpt>
      <trkpt lat="42.4916" lon="18.65025">
        <ele>45.5455</ele>
        <time>2022-05-31T10:07:10.549Z</time>
      </trkpt>
      <trkpt lat="42.49151" lon="18.65029">
        <ele>45.390299</ele>
        <time>2022-05-31T10:07:12.554Z</time>
      </trkpt>
      <trkpt lat="42.49141" lon="18.65032">
        <ele>45.23421</ele>
        <time>2022-05-31T10:07:14.541Z</time>
      </trkpt>
      <trkpt lat="42.49131" lon="18.65035">
        <ele>45.133802</ele>
        <time>2022-05-31T10:07:16.551Z</time>
      </trkpt>
      <trkpt lat="42.49121" lon="18.65035">
        <ele>45.121412</ele>
        <time>2022-05-31T10:07:18.542Z</time>
      </trkpt>
      <trkpt lat="42.49111" lon="18.65034">
        <ele>45.108847</ele>
        <time>2022-05-31T10:07:20.542Z</time>
      </trkpt>
      <trkpt lat="42.49102" lon="18.65032">
        <ele>45.097139</ele>
        <time>2022-05-31T10:07:22.542Z</time>
      </trkpt>
      <trkpt lat="42.49089" lon="18.65025">
        <ele>45.080641</ele>
        <time>2022-05-31T10:07:25.558Z</time>
      </trkpt>
      <trkpt lat="42.49078" lon="18.65017">
        <ele>45.064507</ele>
        <time>2022-05-31T10:07:28.535Z</time>
      </trkpt>
      <trkpt lat="42.49068" lon="18.65006">
        <ele>45.048758</ele>
        <time>2022-05-31T10:07:31.546Z</time>
      </trkpt>
      <trkpt lat="42.49057" lon="18.64995">
        <ele>45.032366</ele>
        <time>2022-05-31T10:07:34.545Z</time>
      </trkpt>
      <trkpt lat="42.49051" lon="18.64986">
        <ele>45.021093</ele>
        <time>2022-05-31T10:07:36.545Z</time>
      </trkpt>
      <trkpt lat="42.49045" lon="18.64977">
        <ele>45.009576</ele>
        <time>2022-05-31T10:07:38.576Z</time>
      </trkpt>
      <trkpt lat="42.49038" lon="18.64967">
        <ele>44.99732</ele>
        <time>2022-05-31T10:07:40.536Z</time>
      </trkpt>
      <trkpt lat="42.49031" lon="18.64957">
        <ele>44.984728</ele>
        <time>2022-05-31T10:07:42.542Z</time>
      </trkpt>
      <trkpt lat="42.49024" lon="18.64946">
        <ele>44.971582</ele>
        <time>2022-05-31T10:07:44.552Z</time>
      </trkpt>
      <trkpt lat="42.49017" lon="18.64936">
        <ele>44.9591</ele>
        <time>2022-05-31T10:07:46.552Z</time>
      </trkpt>
      <trkpt lat="42.49009" lon="18.64927">
        <ele>44.945649</ele>
        <time>2022-05-31T10:07:48.551Z</time>
      </trkpt>
      <trkpt lat="42.49" lon="18.64919">
        <ele>44.932624</ele>
        <time>2022-05-31T10:07:50.533Z</time>
      </trkpt>
      <trkpt lat="42.48992" lon="18.64912">
        <ele>44.920447</ele>
        <time>2022-05-31T10:07:52.557Z</time>
      </trkpt>
      <trkpt lat="42.48982" lon="18.64908">
        <ele>44.964246</ele>
        <time>2022-05-31T10:07:54.538Z</time>
      </trkpt>
      <trkpt lat="42.48972" lon="18.64904">
        <ele>45.049321</ele>
        <time>2022-05-31T10:07:56.539Z</time>
      </trkpt>
      <trkpt lat="42.4896" lon="18.64904">
        <ele>45.136616</ele>
        <time>2022-05-31T10:07:58.537Z</time>
      </trkpt>
      <trkpt lat="42.48949" lon="18.64904">
        <ele>45.218484</ele>
        <time>2022-05-31T10:08:00.549Z</time>
      </trkpt>
      <trkpt lat="42.48938" lon="18.64907">
        <ele>45.303996</ele>
        <time>2022-05-31T10:08:02.536Z</time>
      </trkpt>
      <trkpt lat="42.48928" lon="18.64911">
        <ele>45.385378</ele>
        <time>2022-05-31T10:08:04.540Z</time>
      </trkpt>
      <trkpt lat="42.48919" lon="18.64916">
        <ele>45.463251</ele>
        <time>2022-05-31T10:08:06.557Z</time>
      </trkpt>
      <trkpt lat="42.48911" lon="18.64924">
        <ele>45.539228</ele>
        <time>2022-05-31T10:08:08.555Z</time>
      </trkpt>
      <trkpt lat="42.48904" lon="18.64933">
        <ele>45.616324</ele>
        <time>2022-05-31T10:08:10.535Z</time>
      </trkpt>
      <trkpt lat="42.48897" lon="18.64944">
        <ele>45.6938</ele>
        <time>2022-05-31T10:08:12.552Z</time>
      </trkpt>
      <trkpt lat="42.4889" lon="18.64954">
        <ele>45.773357</ele>
        <time>2022-05-31T10:08:14.549Z</time>
      </trkpt>
      <trkpt lat="42.48884" lon="18.64966">
        <ele>45.85554</ele>
        <time>2022-05-31T10:08:16.554Z</time>
      </trkpt>
      <trkpt lat="42.48878" lon="18.64978">
        <ele>45.935466</ele>
        <time>2022-05-31T10:08:18.549Z</time>
      </trkpt>
      <trkpt lat="42.48872" lon="18.64989">
        <ele>46.016755</ele>
        <time>2022-05-31T10:08:20.529Z</time>
      </trkpt>
      <trkpt lat="42.48866" lon="18.65001">
        <ele>46.098971</ele>
        <time>2022-05-31T10:08:22.554Z</time>
      </trkpt>
      <trkpt lat="42.48859" lon="18.65014">
        <ele>46.186598</ele>
        <time>2022-05-31T10:08:24.540Z</time>
      </trkpt>
      <trkpt lat="42.48852" lon="18.65026">
        <ele>46.272026</ele>
        <time>2022-05-31T10:08:26.578Z</time>
      </trkpt>
      <trkpt lat="42.48845" lon="18.65037">
        <ele>46.195436</ele>
        <time>2022-05-31T10:08:28.558Z</time>
      </trkpt>
      <trkpt lat="42.48838" lon="18.65048">
        <ele>46.070706</ele>
        <time>2022-05-31T10:08:30.529Z</time>
      </trkpt>
      <trkpt lat="42.4883" lon="18.65058">
        <ele>45.950354</ele>
        <time>2022-05-31T10:08:32.589Z</time>
      </trkpt>
      <trkpt lat="42.48823" lon="18.65068">
        <ele>45.831022</ele>
        <time>2022-05-31T10:08:34.548Z</time>
      </trkpt>
      <trkpt lat="42.48815" lon="18.65078">
        <ele>45.711838</ele>
        <time>2022-05-31T10:08:36.552Z</time>
      </trkpt>
      <trkpt lat="42.48807" lon="18.65087">
        <ele>45.590595</ele>
        <time>2022-05-31T10:08:38.557Z</time>
      </trkpt>
      <trkpt lat="42.48799" lon="18.65095">
        <ele>45.471898</ele>
        <time>2022-05-31T10:08:40.527Z</time>
      </trkpt>
      <trkpt lat="42.48791" lon="18.65103">
        <ele>45.356124</ele>
        <time>2022-05-31T10:08:42.576Z</time>
      </trkpt>
      <trkpt lat="42.48783" lon="18.65109">
        <ele>45.249855</ele>
        <time>2022-05-31T10:08:44.552Z</time>
      </trkpt>
      <trkpt lat="42.48776" lon="18.65116">
        <ele>45.145078</ele>
        <time>2022-05-31T10:08:46.547Z</time>
      </trkpt>
      <trkpt lat="42.48764" lon="18.65125">
        <ele>44.988751</ele>
        <time>2022-05-31T10:08:49.538Z</time>
      </trkpt>
      <trkpt lat="42.48752" lon="18.65135">
        <ele>44.83409</ele>
        <time>2022-05-31T10:08:52.544Z</time>
      </trkpt>
      <trkpt lat="42.48741" lon="18.65145">
        <ele>44.677098</ele>
        <time>2022-05-31T10:08:55.549Z</time>
      </trkpt>
      <trkpt lat="42.48733" lon="18.65151">
        <ele>44.569846</ele>
        <time>2022-05-31T10:08:57.576Z</time>
      </trkpt>
      <trkpt lat="42.48723" lon="18.6516">
        <ele>44.428676</ele>
        <time>2022-05-31T10:09:00.517Z</time>
      </trkpt>
      <trkpt lat="42.48712" lon="18.6517">
        <ele>44.275115</ele>
        <time>2022-05-31T10:09:03.573Z</time>
      </trkpt>
      <trkpt lat="42.48704" lon="18.65182">
        <ele>44.307065</ele>
        <time>2022-05-31T10:09:06.527Z</time>
      </trkpt>
      <trkpt lat="42.48699" lon="18.65197">
        <ele>44.481763</ele>
        <time>2022-05-31T10:09:09.578Z</time>
      </trkpt>
      <trkpt lat="42.48696" lon="18.65213">
        <ele>44.662335</ele>
        <time>2022-05-31T10:09:12.556Z</time>
      </trkpt>
      <trkpt lat="42.48696" lon="18.65228">
        <ele>44.822208</ele>
        <time>2022-05-31T10:09:15.563Z</time>
      </trkpt>
      <trkpt lat="42.48698" lon="18.65243">
        <ele>44.98823</ele>
        <time>2022-05-31T10:09:18.549Z</time>
      </trkpt>
      <trkpt lat="42.487" lon="18.6526">
        <ele>45.176726</ele>
        <time>2022-05-31T10:09:21.589Z</time>
      </trkpt>
      <trkpt lat="42.48703" lon="18.65276">
        <ele>45.363089</ele>
        <time>2022-05-31T10:09:24.550Z</time>
      </trkpt>
      <trkpt lat="42.48704" lon="18.65288">
        <ele>45.496509</ele>
        <time>2022-05-31T10:09:26.557Z</time>
      </trkpt>
      <trkpt lat="42.48705" lon="18.65301">
        <ele>45.632943</ele>
        <time>2022-05-31T10:09:28.551Z</time>
      </trkpt>
      <trkpt lat="42.48705" lon="18.65313">
        <ele>45.766765</ele>
        <time>2022-05-31T10:09:30.541Z</time>
      </trkpt>
      <trkpt lat="42.48705" lon="18.6533">
        <ele>45.945121</ele>
        <time>2022-05-31T10:09:33.571Z</time>
      </trkpt>
      <trkpt lat="42.48706" lon="18.65346">
        <ele>46.120196</ele>
        <time>2022-05-31T10:09:36.544Z</time>
      </trkpt>
      <trkpt lat="42.48705" lon="18.65361">
        <ele>46.288767</ele>
        <time>2022-05-31T10:09:39.595Z</time>
      </trkpt>
      <trkpt lat="42.48705" lon="18.65377">
        <ele>46.461668</ele>
        <time>2022-05-31T10:09:42.557Z</time>
      </trkpt>
      <trkpt lat="42.48705" lon="18.65393">
        <ele>46.632394</ele>
        <time>2022-05-31T10:09:45.553Z</time>
      </trkpt>
      <trkpt lat="42.48705" lon="18.65409">
        <ele>46.805389</ele>
        <time>2022-05-31T10:09:48.539Z</time>
      </trkpt>
      <trkpt lat="42.48705" lon="18.65425">
        <ele>46.759925</ele>
        <time>2022-05-31T10:09:51.546Z</time>
      </trkpt>
      <trkpt lat="42.48705" lon="18.65441">
        <ele>46.612405</ele>
        <time>2022-05-31T10:09:54.551Z</time>
      </trkpt>
      <trkpt lat="42.48704" lon="18.65457">
        <ele>46.459952</ele>
        <time>2022-05-31T10:09:57.551Z</time>
      </trkpt>
      <trkpt lat="42.48703" lon="18.65473">
        <ele>46.303063</ele>
        <time>2022-05-31T10:10:00.553Z</time>
      </trkpt>
      <trkpt lat="42.48701" lon="18.6549">
        <ele>46.145877</ele>
        <time>2022-05-31T10:10:03.532Z</time>
      </trkpt>
      <trkpt lat="42.48699" lon="18.65507">
        <ele>45.977986</ele>
        <time>2022-05-31T10:10:06.545Z</time>
      </trkpt>
      <trkpt lat="42.48697" lon="18.65525">
        <ele>45.808798</ele>
        <time>2022-05-31T10:10:09.579Z</time>
      </trkpt>
      <trkpt lat="42.48696" lon="18.65538">
        <ele>45.68528</ele>
        <time>2022-05-31T10:10:11.541Z</time>
      </trkpt>
      <trkpt lat="42.48696" lon="18.6555">
        <ele>45.566886</ele>
        <time>2022-05-31T10:10:13.579Z</time>
      </trkpt>
      <trkpt lat="42.48694" lon="18.65568">
        <ele>45.396756</ele>
        <time>2022-05-31T10:10:16.532Z</time>
      </trkpt>
      <trkpt lat="42.48692" lon="18.65586">
        <ele>45.221918</ele>
        <time>2022-05-31T10:10:19.580Z</time>
      </trkpt>
      <trkpt lat="42.4869" lon="18.65599">
        <ele>45.096193</ele>
        <time>2022-05-31T10:10:21.548Z</time>
      </trkpt>
      <trkpt lat="42.48689" lon="18.65612">
        <ele>44.972172</ele>
        <time>2022-05-31T10:10:23.538Z</time>
      </trkpt>
      <trkpt lat="42.48688" lon="18.65625">
        <ele>44.848654</ele>
        <time>2022-05-31T10:10:25.565Z</time>
      </trkpt>
      <trkpt lat="42.48687" lon="18.65638">
        <ele>44.726469</ele>
        <time>2022-05-31T10:10:27.551Z</time>
      </trkpt>
      <trkpt lat="42.48687" lon="18.6565">
        <ele>44.606511</ele>
        <time>2022-05-31T10:10:29.553Z</time>
      </trkpt>
      <trkpt lat="42.48687" lon="18.65663">
        <ele>44.49218</ele>
        <time>2022-05-31T10:10:31.566Z</time>
      </trkpt>
      <trkpt lat="42.48688" lon="18.65681">
        <ele>44.340583</ele>
        <time>2022-05-31T10:10:34.557Z</time>
      </trkpt>
      <trkpt lat="42.4869" lon="18.65698">
        <ele>44.194197</ele>
        <time>2022-05-31T10:10:37.555Z</time>
      </trkpt>
      <trkpt lat="42.48692" lon="18.6571">
        <ele>44.089272</ele>
        <time>2022-05-31T10:10:39.548Z</time>
      </trkpt>
      <trkpt lat="42.48694" lon="18.65722">
        <ele>43.983294</ele>
        <time>2022-05-31T10:10:41.548Z</time>
      </trkpt>
      <trkpt lat="42.48697" lon="18.65734">
        <ele>43.873636</ele>
        <time>2022-05-31T10:10:43.555Z</time>
      </trkpt>
      <trkpt lat="42.48699" lon="18.65748">
        <ele>43.753642</ele>
        <time>2022-05-31T10:10:45.545Z</time>
      </trkpt>
      <trkpt lat="42.48702" lon="18.65762">
        <ele>43.632296</ele>
        <time>2022-05-31T10:10:47.531Z</time>
      </trkpt>
      <trkpt lat="42.48705" lon="18.65776">
        <ele>43.512843</ele>
        <time>2022-05-31T10:10:49.541Z</time>
      </trkpt>
      <trkpt lat="42.48707" lon="18.6579">
        <ele>43.38432</ele>
        <time>2022-05-31T10:10:51.544Z</time>
      </trkpt>
      <trkpt lat="42.48708" lon="18.65803">
        <ele>43.274616</ele>
        <time>2022-05-31T10:10:53.588Z</time>
      </trkpt>
      <trkpt lat="42.48707" lon="18.65817">
        <ele>43.155855</ele>
        <time>2022-05-31T10:10:55.569Z</time>
      </trkpt>
      <trkpt lat="42.48706" lon="18.65831">
        <ele>43.042908</ele>
        <time>2022-05-31T10:10:57.556Z</time>
      </trkpt>
      <trkpt lat="42.48704" lon="18.65843">
        <ele>42.934663</ele>
        <time>2022-05-31T10:10:59.540Z</time>
      </trkpt>
      <trkpt lat="42.48701" lon="18.6586">
        <ele>42.783838</ele>
        <time>2022-05-31T10:11:02.556Z</time>
      </trkpt>
      <trkpt lat="42.48697" lon="18.65875">
        <ele>42.64816</ele>
        <time>2022-05-31T10:11:05.568Z</time>
      </trkpt>
      <trkpt lat="42.48692" lon="18.65893">
        <ele>42.492518</ele>
        <time>2022-05-31T10:11:08.549Z</time>
      </trkpt>
      <trkpt lat="42.48689" lon="18.65905">
        <ele>42.619355</ele>
        <time>2022-05-31T10:11:10.552Z</time>
      </trkpt>
      <trkpt lat="42.48686" lon="18.65918">
        <ele>42.786924</ele>
        <time>2022-05-31T10:11:12.591Z</time>
      </trkpt>
      <trkpt lat="42.48684" lon="18.65931">
        <ele>42.95676</ele>
        <time>2022-05-31T10:11:14.579Z</time>
      </trkpt>
      <trkpt lat="42.48682" lon="18.65943">
        <ele>43.121175</ele>
        <time>2022-05-31T10:11:16.538Z</time>
      </trkpt>
      <trkpt lat="42.48681" lon="18.65956">
        <ele>43.284081</ele>
        <time>2022-05-31T10:11:18.545Z</time>
      </trkpt>
      <trkpt lat="42.48681" lon="18.6597">
        <ele>43.456142</ele>
        <time>2022-05-31T10:11:20.546Z</time>
      </trkpt>
      <trkpt lat="42.48683" lon="18.65983">
        <ele>43.626782</ele>
        <time>2022-05-31T10:11:22.548Z</time>
      </trkpt>
      <trkpt lat="42.48686" lon="18.65996">
        <ele>43.800721</ele>
        <time>2022-05-31T10:11:24.553Z</time>
      </trkpt>
      <trkpt lat="42.4869" lon="18.66009">
        <ele>43.974822</ele>
        <time>2022-05-31T10:11:26.521Z</time>
      </trkpt>
      <trkpt lat="42.48694" lon="18.66022">
        <ele>44.150562</ele>
        <time>2022-05-31T10:11:28.548Z</time>
      </trkpt>
      <trkpt lat="42.48697" lon="18.66035">
        <ele>44.328476</ele>
        <time>2022-05-31T10:11:30.536Z</time>
      </trkpt>
      <trkpt lat="42.48702" lon="18.66049">
        <ele>44.522024</ele>
        <time>2022-05-31T10:11:32.539Z</time>
      </trkpt>
      <trkpt lat="42.48706" lon="18.66062">
        <ele>44.69913</ele>
        <time>2022-05-31T10:11:34.547Z</time>
      </trkpt>
      <trkpt lat="42.4871" lon="18.66075">
        <ele>44.873561</ele>
        <time>2022-05-31T10:11:36.570Z</time>
      </trkpt>
      <trkpt lat="42.48714" lon="18.66088">
        <ele>45.050978</ele>
        <time>2022-05-31T10:11:38.538Z</time>
      </trkpt>
      <trkpt lat="42.48717" lon="18.66101">
        <ele>45.229035</ele>
        <time>2022-05-31T10:11:40.536Z</time>
      </trkpt>
      <trkpt lat="42.48719" lon="18.66115">
        <ele>45.412767</ele>
        <time>2022-05-31T10:11:42.560Z</time>
      </trkpt>
      <trkpt lat="42.48721" lon="18.66129">
        <ele>45.558097</ele>
        <time>2022-05-31T10:11:44.544Z</time>
      </trkpt>
      <trkpt lat="42.48722" lon="18.66143">
        <ele>45.544521</ele>
        <time>2022-05-31T10:11:46.540Z</time>
      </trkpt>
      <trkpt lat="42.48722" lon="18.66157">
        <ele>45.530296</ele>
        <time>2022-05-31T10:11:48.556Z</time>
      </trkpt>
      <trkpt lat="42.48722" lon="18.66172">
        <ele>45.516042</ele>
        <time>2022-05-31T10:11:50.542Z</time>
      </trkpt>
      <trkpt lat="42.4872" lon="18.66187">
        <ele>45.501472</ele>
        <time>2022-05-31T10:11:52.537Z</time>
      </trkpt>
      <trkpt lat="42.48718" lon="18.66202">
        <ele>45.48693</ele>
        <time>2022-05-31T10:11:54.555Z</time>
      </trkpt>
      <trkpt lat="42.48715" lon="18.66216">
        <ele>45.473086</ele>
        <time>2022-05-31T10:11:56.580Z</time>
      </trkpt>
      <trkpt lat="42.48712" lon="18.66229">
        <ele>45.45919</ele>
        <time>2022-05-31T10:11:58.559Z</time>
      </trkpt>
      <trkpt lat="42.48708" lon="18.66243">
        <ele>45.445568</ele>
        <time>2022-05-31T10:12:00.542Z</time>
      </trkpt>
      <trkpt lat="42.48704" lon="18.66256">
        <ele>45.431177</ele>
        <time>2022-05-31T10:12:02.546Z</time>
      </trkpt>
      <trkpt lat="42.487" lon="18.66271">
        <ele>45.416462</ele>
        <time>2022-05-31T10:12:04.544Z</time>
      </trkpt>
      <trkpt lat="42.48696" lon="18.66284">
        <ele>45.402105</ele>
        <time>2022-05-31T10:12:06.560Z</time>
      </trkpt>
      <trkpt lat="42.48692" lon="18.66298">
        <ele>45.387666</ele>
        <time>2022-05-31T10:12:08.562Z</time>
      </trkpt>
      <trkpt lat="42.48689" lon="18.66313">
        <ele>45.373127</ele>
        <time>2022-05-31T10:12:10.535Z</time>
      </trkpt>
      <trkpt lat="42.48686" lon="18.66328">
        <ele>45.358216</ele>
        <time>2022-05-31T10:12:12.557Z</time>
      </trkpt>
      <trkpt lat="42.48684" lon="18.66342">
        <ele>45.344202</ele>
        <time>2022-05-31T10:12:14.522Z</time>
      </trkpt>
      <trkpt lat="42.48683" lon="18.66357">
        <ele>45.32917</ele>
        <time>2022-05-31T10:12:16.543Z</time>
      </trkpt>
      <trkpt lat="42.48681" lon="18.66373">
        <ele>45.181779</ele>
        <time>2022-05-31T10:12:18.587Z</time>
      </trkpt>
      <trkpt lat="42.48679" lon="18.66389">
        <ele>44.978108</ele>
        <time>2022-05-31T10:12:20.534Z</time>
      </trkpt>
      <trkpt lat="42.48677" lon="18.66406">
        <ele>44.759053</ele>
        <time>2022-05-31T10:12:22.541Z</time>
      </trkpt>
      <trkpt lat="42.48673" lon="18.66423">
        <ele>44.540831</ele>
        <time>2022-05-31T10:12:24.542Z</time>
      </trkpt>
      <trkpt lat="42.48669" lon="18.66438">
        <ele>44.33064</ele>
        <time>2022-05-31T10:12:26.529Z</time>
      </trkpt>
      <trkpt lat="42.48664" lon="18.66453">
        <ele>44.119802</ele>
        <time>2022-05-31T10:12:28.549Z</time>
      </trkpt>
      <trkpt lat="42.48658" lon="18.66467">
        <ele>43.910364</ele>
        <time>2022-05-31T10:12:30.542Z</time>
      </trkpt>
      <trkpt lat="42.48653" lon="18.66481">
        <ele>43.712376</ele>
        <time>2022-05-31T10:12:32.523Z</time>
      </trkpt>
      <trkpt lat="42.48647" lon="18.66495">
        <ele>43.507657</ele>
        <time>2022-05-31T10:12:34.555Z</time>
      </trkpt>
      <trkpt lat="42.48641" lon="18.66509">
        <ele>43.30405</ele>
        <time>2022-05-31T10:12:36.554Z</time>
      </trkpt>
      <trkpt lat="42.48636" lon="18.66523">
        <ele>43.103586</ele>
        <time>2022-05-31T10:12:38.525Z</time>
      </trkpt>
      <trkpt lat="42.48632" lon="18.66537">
        <ele>42.907743</ele>
        <time>2022-05-31T10:12:40.572Z</time>
      </trkpt>
      <trkpt lat="42.4863" lon="18.66552">
        <ele>42.72003</ele>
        <time>2022-05-31T10:12:42.552Z</time>
      </trkpt>
      <trkpt lat="42.48629" lon="18.66567">
        <ele>42.529453</ele>
        <time>2022-05-31T10:12:44.529Z</time>
      </trkpt>
      <trkpt lat="42.4863" lon="18.66582">
        <ele>42.338978</ele>
        <time>2022-05-31T10:12:46.582Z</time>
      </trkpt>
      <trkpt lat="42.48632" lon="18.66596">
        <ele>42.279749</ele>
        <time>2022-05-31T10:12:48.542Z</time>
      </trkpt>
      <trkpt lat="42.48635" lon="18.66609">
        <ele>42.506911</ele>
        <time>2022-05-31T10:12:50.552Z</time>
      </trkpt>
      <trkpt lat="42.48638" lon="18.66624">
        <ele>42.744256</ele>
        <time>2022-05-31T10:12:52.538Z</time>
      </trkpt>
      <trkpt lat="42.48639" lon="18.66639">
        <ele>42.994716</ele>
        <time>2022-05-31T10:12:54.548Z</time>
      </trkpt>
      <trkpt lat="42.48639" lon="18.66655">
        <ele>43.241786</ele>
        <time>2022-05-31T10:12:56.544Z</time>
      </trkpt>
      <trkpt lat="42.48639" lon="18.66671">
        <ele>43.493832</ele>
        <time>2022-05-31T10:12:58.531Z</time>
      </trkpt>
      <trkpt lat="42.48638" lon="18.66686">
        <ele>43.73387</ele>
        <time>2022-05-31T10:13:00.537Z</time>
      </trkpt>
      <trkpt lat="42.48636" lon="18.66699">
        <ele>43.958428</ele>
        <time>2022-05-31T10:13:02.536Z</time>
      </trkpt>
      <trkpt lat="42.48634" lon="18.66712">
        <ele>44.163397</ele>
        <time>2022-05-31T10:13:04.552Z</time>
      </trkpt>
      <trkpt lat="42.48632" lon="18.66724">
        <ele>44.367717</ele>
        <time>2022-05-31T10:13:06.553Z</time>
      </trkpt>
      <trkpt lat="42.48629" lon="18.66738">
        <ele>44.58723</ele>
        <time>2022-05-31T10:13:08.528Z</time>
      </trkpt>
      <trkpt lat="42.48625" lon="18.66751">
        <ele>44.810803</ele>
        <time>2022-05-31T10:13:10.524Z</time>
      </trkpt>
      <trkpt lat="42.48621" lon="18.66763">
        <ele>45.030632</ele>
        <time>2022-05-31T10:13:12.544Z</time>
      </trkpt>
      <trkpt lat="42.48616" lon="18.66775">
        <ele>45.237741</ele>
        <time>2022-05-31T10:13:14.547Z</time>
      </trkpt>
      <trkpt lat="42.48611" lon="18.66786">
        <ele>45.453684</ele>
        <time>2022-05-31T10:13:16.540Z</time>
      </trkpt>
      <trkpt lat="42.48605" lon="18.66797">
        <ele>45.670668</ele>
        <time>2022-05-31T10:13:18.558Z</time>
      </trkpt>
      <trkpt lat="42.48599" lon="18.66808">
        <ele>45.883704</ele>
        <time>2022-05-31T10:13:20.534Z</time>
      </trkpt>
      <trkpt lat="42.48593" lon="18.66818">
        <ele>46.094246</ele>
        <time>2022-05-31T10:13:22.546Z</time>
      </trkpt>
      <trkpt lat="42.48587" lon="18.66828">
        <ele>46.017336</ele>
        <time>2022-05-31T10:13:24.550Z</time>
      </trkpt>
      <trkpt lat="42.48581" lon="18.66837">
        <ele>45.936267</ele>
        <time>2022-05-31T10:13:26.589Z</time>
      </trkpt>
      <trkpt lat="42.48575" lon="18.66847">
        <ele>45.849379</ele>
        <time>2022-05-31T10:13:28.542Z</time>
      </trkpt>
      <trkpt lat="42.48569" lon="18.66857">
        <ele>45.767851</ele>
        <time>2022-05-31T10:13:30.527Z</time>
      </trkpt>
      <trkpt lat="42.48563" lon="18.66867">
        <ele>45.685764</ele>
        <time>2022-05-31T10:13:32.528Z</time>
      </trkpt>
      <trkpt lat="42.48556" lon="18.66881">
        <ele>45.57252</ele>
        <time>2022-05-31T10:13:35.525Z</time>
      </trkpt>
      <trkpt lat="42.48549" lon="18.66896">
        <ele>45.452106</ele>
        <time>2022-05-31T10:13:38.539Z</time>
      </trkpt>
      <trkpt lat="42.48544" lon="18.66908">
        <ele>45.368267</ele>
        <time>2022-05-31T10:13:40.539Z</time>
      </trkpt>
      <trkpt lat="42.4854" lon="18.66919">
        <ele>45.286844</ele>
        <time>2022-05-31T10:13:42.551Z</time>
      </trkpt>
      <trkpt lat="42.48536" lon="18.6693">
        <ele>45.204007</ele>
        <time>2022-05-31T10:13:44.536Z</time>
      </trkpt>
      <trkpt lat="42.48532" lon="18.66941">
        <ele>45.123167</ele>
        <time>2022-05-31T10:13:46.552Z</time>
      </trkpt>
      <trkpt lat="42.48526" lon="18.66957">
        <ele>45.003811</ele>
        <time>2022-05-31T10:13:49.573Z</time>
      </trkpt>
      <trkpt lat="42.48522" lon="18.66968">
        <ele>44.922395</ele>
        <time>2022-05-31T10:13:51.543Z</time>
      </trkpt>
      <trkpt lat="42.48518" lon="18.6698">
        <ele>44.839192</ele>
        <time>2022-05-31T10:13:53.533Z</time>
      </trkpt>
      <trkpt lat="42.48514" lon="18.66991">
        <ele>44.757768</ele>
        <time>2022-05-31T10:13:55.537Z</time>
      </trkpt>
      <trkpt lat="42.48509" lon="18.67001">
        <ele>44.67737</ele>
        <time>2022-05-31T10:13:57.550Z</time>
      </trkpt>
      <trkpt lat="42.48505" lon="18.67012">
        <ele>44.594683</ele>
        <time>2022-05-31T10:13:59.534Z</time>
      </trkpt>
      <trkpt lat="42.485" lon="18.67024">
        <ele>44.507495</ele>
        <time>2022-05-31T10:14:01.563Z</time>
      </trkpt>
      <trkpt lat="42.48494" lon="18.67036">
        <ele>44.323918</ele>
        <time>2022-05-31T10:14:03.541Z</time>
      </trkpt>
      <trkpt lat="42.48489" lon="18.67047">
        <ele>44.130636</ele>
        <time>2022-05-31T10:14:05.536Z</time>
      </trkpt>
      <trkpt lat="42.48484" lon="18.67059">
        <ele>43.945852</ele>
        <time>2022-05-31T10:14:07.552Z</time>
      </trkpt>
      <trkpt lat="42.4848" lon="18.67071">
        <ele>43.761417</ele>
        <time>2022-05-31T10:14:09.543Z</time>
      </trkpt>
      <trkpt lat="42.48476" lon="18.67082">
        <ele>43.584144</ele>
        <time>2022-05-31T10:14:11.560Z</time>
      </trkpt>
      <trkpt lat="42.48472" lon="18.67094">
        <ele>43.39414</ele>
        <time>2022-05-31T10:14:13.579Z</time>
      </trkpt>
      <trkpt lat="42.48468" lon="18.67106">
        <ele>43.219018</ele>
        <time>2022-05-31T10:14:15.554Z</time>
      </trkpt>
      <trkpt lat="42.48465" lon="18.67118">
        <ele>43.035432</ele>
        <time>2022-05-31T10:14:17.578Z</time>
      </trkpt>
      <trkpt lat="42.48462" lon="18.67131">
        <ele>42.842515</ele>
        <time>2022-05-31T10:14:19.556Z</time>
      </trkpt>
      <trkpt lat="42.48459" lon="18.67144">
        <ele>42.645586</ele>
        <time>2022-05-31T10:14:21.545Z</time>
      </trkpt>
      <trkpt lat="42.48456" lon="18.67156">
        <ele>42.471979</ele>
        <time>2022-05-31T10:14:23.537Z</time>
      </trkpt>
      <trkpt lat="42.48455" lon="18.67169">
        <ele>42.291222</ele>
        <time>2022-05-31T10:14:25.556Z</time>
      </trkpt>
      <trkpt lat="42.48453" lon="18.67183">
        <ele>42.092888</ele>
        <time>2022-05-31T10:14:27.563Z</time>
      </trkpt>
      <trkpt lat="42.48452" lon="18.67197">
        <ele>41.896535</ele>
        <time>2022-05-31T10:14:29.532Z</time>
      </trkpt>
      <trkpt lat="42.48451" lon="18.67209">
        <ele>41.715711</ele>
        <time>2022-05-31T10:14:31.556Z</time>
      </trkpt>
      <trkpt lat="42.4845" lon="18.67223">
        <ele>41.524904</ele>
        <time>2022-05-31T10:14:33.558Z</time>
      </trkpt>
      <trkpt lat="42.48449" lon="18.67237">
        <ele>41.327087</ele>
        <time>2022-05-31T10:14:35.566Z</time>
      </trkpt>
      <trkpt lat="42.48448" lon="18.6725">
        <ele>41.137974</ele>
        <time>2022-05-31T10:14:37.585Z</time>
      </trkpt>
      <trkpt lat="42.48447" lon="18.67263">
        <ele>41.231554</ele>
        <time>2022-05-31T10:14:39.533Z</time>
      </trkpt>
      <trkpt lat="42.48446" lon="18.67276">
        <ele>41.507221</ele>
        <time>2022-05-31T10:14:41.551Z</time>
      </trkpt>
      <trkpt lat="42.48446" lon="18.67289">
        <ele>41.790592</ele>
        <time>2022-05-31T10:14:43.549Z</time>
      </trkpt>
      <trkpt lat="42.48445" lon="18.67303">
        <ele>42.078407</ele>
        <time>2022-05-31T10:14:45.541Z</time>
      </trkpt>
      <trkpt lat="42.48444" lon="18.67316">
        <ele>42.363206</ele>
        <time>2022-05-31T10:14:47.547Z</time>
      </trkpt>
      <trkpt lat="42.48443" lon="18.67329">
        <ele>42.638095</ele>
        <time>2022-05-31T10:14:49.545Z</time>
      </trkpt>
      <trkpt lat="42.48441" lon="18.67341">
        <ele>42.900683</ele>
        <time>2022-05-31T10:14:51.552Z</time>
      </trkpt>
      <trkpt lat="42.48438" lon="18.67357">
        <ele>43.263653</ele>
        <time>2022-05-31T10:14:54.555Z</time>
      </trkpt>
      <trkpt lat="42.48435" lon="18.67372">
        <ele>43.600955</ele>
        <time>2022-05-31T10:14:57.542Z</time>
      </trkpt>
      <trkpt lat="42.48431" lon="18.67386">
        <ele>43.90775</ele>
        <time>2022-05-31T10:15:00.534Z</time>
      </trkpt>
      <trkpt lat="42.48427" lon="18.67399">
        <ele>44.203575</ele>
        <time>2022-05-31T10:15:03.539Z</time>
      </trkpt>
      <trkpt lat="42.48422" lon="18.67412">
        <ele>44.519108</ele>
        <time>2022-05-31T10:15:06.549Z</time>
      </trkpt>
      <trkpt lat="42.48417" lon="18.67424">
        <ele>44.830101</ele>
        <time>2022-05-31T10:15:09.557Z</time>
      </trkpt>
      <trkpt lat="42.48411" lon="18.67435">
        <ele>45.118587</ele>
        <time>2022-05-31T10:15:12.551Z</time>
      </trkpt>
      <trkpt lat="42.48406" lon="18.67446">
        <ele>45.398713</ele>
        <time>2022-05-31T10:15:15.553Z</time>
      </trkpt>
      <trkpt lat="42.484" lon="18.67457">
        <ele>45.69555</ele>
        <time>2022-05-31T10:15:18.542Z</time>
      </trkpt>
      <trkpt lat="42.48394" lon="18.67469">
        <ele>45.985658</ele>
        <time>2022-05-31T10:15:21.549Z</time>
      </trkpt>
      <trkpt lat="42.48389" lon="18.67478">
        <ele>46.251727</ele>
        <time>2022-05-31T10:15:24.553Z</time>
      </trkpt>
      <trkpt lat="42.48383" lon="18.67488">
        <ele>46.03386</ele>
        <time>2022-05-31T10:15:27.545Z</time>
      </trkpt>
      <trkpt lat="42.48378" lon="18.67499">
        <ele>45.732342</ele>
        <time>2022-05-31T10:15:30.543Z</time>
      </trkpt>
      <trkpt lat="42.48372" lon="18.6751">
        <ele>45.40879</ele>
        <time>2022-05-31T10:15:33.530Z</time>
      </trkpt>
      <trkpt lat="42.48367" lon="18.67521">
        <ele>45.110998</ele>
        <time>2022-05-31T10:15:36.554Z</time>
      </trkpt>
      <trkpt lat="42.48361" lon="18.67531">
        <ele>44.796133</ele>
        <time>2022-05-31T10:15:39.557Z</time>
      </trkpt>
      <trkpt lat="42.48355" lon="18.67543">
        <ele>44.469562</ele>
        <time>2022-05-31T10:15:42.551Z</time>
      </trkpt>
      <trkpt lat="42.4835" lon="18.67554">
        <ele>44.155757</ele>
        <time>2022-05-31T10:15:45.574Z</time>
      </trkpt>
      <trkpt lat="42.48345" lon="18.67565">
        <ele>43.837178</ele>
        <time>2022-05-31T10:15:48.572Z</time>
      </trkpt>
      <trkpt lat="42.4834" lon="18.67579">
        <ele>43.469409</ele>
        <time>2022-05-31T10:15:51.557Z</time>
      </trkpt>
      <trkpt lat="42.48334" lon="18.67593">
        <ele>43.082956</ele>
        <time>2022-05-31T10:15:54.542Z</time>
      </trkpt>
      <trkpt lat="42.4833" lon="18.67606">
        <ele>42.760204</ele>
        <time>2022-05-31T10:15:57.546Z</time>
      </trkpt>
      <trkpt lat="42.48325" lon="18.67618">
        <ele>42.435317</ele>
        <time>2022-05-31T10:16:00.530Z</time>
      </trkpt>
      <trkpt lat="42.48321" lon="18.6763">
        <ele>42.118225</ele>
        <time>2022-05-31T10:16:03.532Z</time>
      </trkpt>
      <trkpt lat="42.48317" lon="18.67642">
        <ele>41.802945</ele>
        <time>2022-05-31T10:16:06.548Z</time>
      </trkpt>
      <trkpt lat="42.48313" lon="18.67656">
        <ele>41.454746</ele>
        <time>2022-05-31T10:16:09.542Z</time>
      </trkpt>
      <trkpt lat="42.48309" lon="18.67669">
        <ele>41.113172</ele>
        <time>2022-05-31T10:16:12.538Z</time>
      </trkpt>
      <trkpt lat="42.48305" lon="18.67683">
        <ele>40.746708</ele>
        <time>2022-05-31T10:16:15.556Z</time>
      </trkpt>
      <trkpt lat="42.48299" lon="18.677">
        <ele>40.31129</ele>
        <time>2022-05-31T10:16:18.545Z</time>
      </trkpt>
      <trkpt lat="42.48294" lon="18.67713">
        <ele>39.93364</ele>
        <time>2022-05-31T10:16:21.539Z</time>
      </trkpt>
      <trkpt lat="42.48289" lon="18.67728">
        <ele>39.510127</ele>
        <time>2022-05-31T10:16:24.534Z</time>
      </trkpt>
      <trkpt lat="42.48283" lon="18.67744">
        <ele>39.058444</ele>
        <time>2022-05-31T10:16:27.587Z</time>
      </trkpt>
      <trkpt lat="42.48278" lon="18.67755">
        <ele>38.733123</ele>
        <time>2022-05-31T10:16:29.560Z</time>
      </trkpt>
      <trkpt lat="42.48273" lon="18.67766">
        <ele>38.416793</ele>
        <time>2022-05-31T10:16:31.567Z</time>
      </trkpt>
      <trkpt lat="42.48267" lon="18.67779">
        <ele>38.03422</ele>
        <time>2022-05-31T10:16:33.534Z</time>
      </trkpt>
      <trkpt lat="42.48261" lon="18.6779">
        <ele>37.705898</ele>
        <time>2022-05-31T10:16:35.546Z</time>
      </trkpt>
      <trkpt lat="42.48257" lon="18.67801">
        <ele>37.378416</ele>
        <time>2022-05-31T10:16:37.571Z</time>
      </trkpt>
      <trkpt lat="42.48249" lon="18.67816">
        <ele>36.922268</ele>
        <time>2022-05-31T10:16:40.537Z</time>
      </trkpt>
      <trkpt lat="42.48242" lon="18.67831">
        <ele>36.482479</ele>
        <time>2022-05-31T10:16:43.588Z</time>
      </trkpt>
      <trkpt lat="42.48234" lon="18.67845">
        <ele>36.031145</ele>
        <time>2022-05-31T10:16:46.541Z</time>
      </trkpt>
      <trkpt lat="42.48229" lon="18.67855">
        <ele>35.723146</ele>
        <time>2022-05-31T10:16:48.554Z</time>
      </trkpt>
      <trkpt lat="42.48222" lon="18.6787">
        <ele>35.277038</ele>
        <time>2022-05-31T10:16:51.549Z</time>
      </trkpt>
      <trkpt lat="42.48215" lon="18.67883">
        <ele>34.872125</ele>
        <time>2022-05-31T10:16:54.575Z</time>
      </trkpt>
      <trkpt lat="42.48209" lon="18.67897">
        <ele>34.482192</ele>
        <time>2022-05-31T10:16:57.561Z</time>
      </trkpt>
      <trkpt lat="42.48204" lon="18.67908">
        <ele>34.467799</ele>
        <time>2022-05-31T10:17:00.561Z</time>
      </trkpt>
      <trkpt lat="42.48197" lon="18.67921">
        <ele>34.632673</ele>
        <time>2022-05-31T10:17:03.542Z</time>
      </trkpt>
      <trkpt lat="42.4819" lon="18.67935">
        <ele>34.809851</ele>
        <time>2022-05-31T10:17:06.541Z</time>
      </trkpt>
      <trkpt lat="42.48182" lon="18.6795">
        <ele>34.991891</ele>
        <time>2022-05-31T10:17:09.540Z</time>
      </trkpt>
      <trkpt lat="42.48176" lon="18.67964">
        <ele>35.154721</ele>
        <time>2022-05-31T10:17:12.538Z</time>
      </trkpt>
      <trkpt lat="42.4817" lon="18.67977">
        <ele>35.315518</ele>
        <time>2022-05-31T10:17:15.559Z</time>
      </trkpt>
      <trkpt lat="42.48164" lon="18.67989">
        <ele>35.469016</ele>
        <time>2022-05-31T10:17:18.556Z</time>
      </trkpt>
      <trkpt lat="42.48158" lon="18.68003">
        <ele>35.62322</ele>
        <time>2022-05-31T10:17:21.536Z</time>
      </trkpt>
      <trkpt lat="42.48152" lon="18.68016">
        <ele>35.785192</ele>
        <time>2022-05-31T10:17:24.549Z</time>
      </trkpt>
      <trkpt lat="42.48146" lon="18.6803">
        <ele>35.949385</ele>
        <time>2022-05-31T10:17:27.550Z</time>
      </trkpt>
      <trkpt lat="42.48141" lon="18.68043">
        <ele>36.104494</ele>
        <time>2022-05-31T10:17:30.535Z</time>
      </trkpt>
      <trkpt lat="42.48135" lon="18.68058">
        <ele>36.267783</ele>
        <time>2022-05-31T10:17:33.562Z</time>
      </trkpt>
      <trkpt lat="42.4813" lon="18.68072">
        <ele>36.428195</ele>
        <time>2022-05-31T10:17:36.548Z</time>
      </trkpt>
      <trkpt lat="42.48125" lon="18.68085">
        <ele>36.578582</ele>
        <time>2022-05-31T10:17:39.544Z</time>
      </trkpt>
      <trkpt lat="42.4812" lon="18.68098">
        <ele>36.733387</ele>
        <time>2022-05-31T10:17:42.551Z</time>
      </trkpt>
      <trkpt lat="42.48114" lon="18.68113">
        <ele>36.899645</ele>
        <time>2022-05-31T10:17:45.565Z</time>
      </trkpt>
      <trkpt lat="42.48109" lon="18.68128">
        <ele>37.080313</ele>
        <time>2022-05-31T10:17:48.578Z</time>
      </trkpt>
      <trkpt lat="42.48104" lon="18.68145">
        <ele>37.267871</ele>
        <time>2022-05-31T10:17:51.569Z</time>
      </trkpt>
      <trkpt lat="42.48099" lon="18.68156">
        <ele>37.402244</ele>
        <time>2022-05-31T10:17:53.569Z</time>
      </trkpt>
      <trkpt lat="42.48092" lon="18.68172">
        <ele>37.593855</ele>
        <time>2022-05-31T10:17:56.542Z</time>
      </trkpt>
      <trkpt lat="42.48086" lon="18.68188">
        <ele>37.785725</ele>
        <time>2022-05-31T10:17:59.568Z</time>
      </trkpt>
      <trkpt lat="42.4808" lon="18.68204">
        <ele>37.973664</ele>
        <time>2022-05-31T10:18:02.540Z</time>
      </trkpt>
      <trkpt lat="42.48074" lon="18.68219">
        <ele>38.151544</ele>
        <time>2022-05-31T10:18:05.556Z</time>
      </trkpt>
      <trkpt lat="42.48069" lon="18.68236">
        <ele>38.3403</ele>
        <time>2022-05-31T10:18:08.547Z</time>
      </trkpt>
      <trkpt lat="42.48063" lon="18.6825">
        <ele>38.513393</ele>
        <time>2022-05-31T10:18:11.551Z</time>
      </trkpt>
      <trkpt lat="42.48058" lon="18.68266">
        <ele>38.691943</ele>
        <time>2022-05-31T10:18:14.551Z</time>
      </trkpt>
      <trkpt lat="42.48052" lon="18.68282">
        <ele>38.87381</ele>
        <time>2022-05-31T10:18:17.544Z</time>
      </trkpt>
      <trkpt lat="42.48047" lon="18.68296">
        <ele>39.043894</ele>
        <time>2022-05-31T10:18:20.538Z</time>
      </trkpt>
      <trkpt lat="42.48041" lon="18.6831">
        <ele>39.214658</ele>
        <time>2022-05-31T10:18:23.563Z</time>
      </trkpt>
      <trkpt lat="42.48035" lon="18.68324">
        <ele>39.388054</ele>
        <time>2022-05-31T10:18:26.543Z</time>
      </trkpt>
      <trkpt lat="42.48029" lon="18.68338">
        <ele>39.415248</ele>
        <time>2022-05-31T10:18:29.558Z</time>
      </trkpt>
      <trkpt lat="42.48023" lon="18.68353">
        <ele>39.42155</ele>
        <time>2022-05-31T10:18:32.564Z</time>
      </trkpt>
      <trkpt lat="42.48017" lon="18.68368">
        <ele>39.428121</ele>
        <time>2022-05-31T10:18:35.528Z</time>
      </trkpt>
      <trkpt lat="42.4801" lon="18.68384">
        <ele>39.434732</ele>
        <time>2022-05-31T10:18:38.551Z</time>
      </trkpt>
      <trkpt lat="42.48004" lon="18.68399">
        <ele>39.441524</ele>
        <time>2022-05-31T10:18:41.530Z</time>
      </trkpt>
      <trkpt lat="42.47997" lon="18.68415">
        <ele>39.448418</ele>
        <time>2022-05-31T10:18:44.560Z</time>
      </trkpt>
      <trkpt lat="42.47993" lon="18.68426">
        <ele>39.453135</ele>
        <time>2022-05-31T10:18:46.557Z</time>
      </trkpt>
      <trkpt lat="42.47988" lon="18.68437">
        <ele>39.45779</ele>
        <time>2022-05-31T10:18:48.546Z</time>
      </trkpt>
      <trkpt lat="42.47983" lon="18.68448">
        <ele>39.462564</ele>
        <time>2022-05-31T10:18:50.546Z</time>
      </trkpt>
      <trkpt lat="42.47977" lon="18.68463">
        <ele>39.469225</ele>
        <time>2022-05-31T10:18:53.554Z</time>
      </trkpt>
      <trkpt lat="42.47972" lon="18.68474">
        <ele>39.47413</ele>
        <time>2022-05-31T10:18:55.591Z</time>
      </trkpt>
      <trkpt lat="42.47966" lon="18.68486">
        <ele>39.479239</ele>
        <time>2022-05-31T10:18:57.540Z</time>
      </trkpt>
      <trkpt lat="42.47959" lon="18.68501">
        <ele>39.4861</ele>
        <time>2022-05-31T10:19:00.543Z</time>
      </trkpt>
      <trkpt lat="42.47954" lon="18.68511">
        <ele>39.490662</ele>
        <time>2022-05-31T10:19:02.537Z</time>
      </trkpt>
      <trkpt lat="42.47948" lon="18.68521">
        <ele>39.495347</ele>
        <time>2022-05-31T10:19:04.549Z</time>
      </trkpt>
      <trkpt lat="42.47943" lon="18.68531">
        <ele>39.5</ele>
        <time>2022-05-31T10:19:06.590Z</time>
      </trkpt>
      <trkpt lat="42.47938" lon="18.68542">
        <ele>39.851856</ele>
        <time>2022-05-31T10:19:08.540Z</time>
      </trkpt>
      <trkpt lat="42.47932" lon="18.68553">
        <ele>40.391186</ele>
        <time>2022-05-31T10:19:10.534Z</time>
      </trkpt>
      <trkpt lat="42.47926" lon="18.68563">
        <ele>40.904372</ele>
        <time>2022-05-31T10:19:12.549Z</time>
      </trkpt>
      <trkpt lat="42.47921" lon="18.68573">
        <ele>41.40519</ele>
        <time>2022-05-31T10:19:14.540Z</time>
      </trkpt>
      <trkpt lat="42.47914" lon="18.68588">
        <ele>42.109469</ele>
        <time>2022-05-31T10:19:17.578Z</time>
      </trkpt>
      <trkpt lat="42.47907" lon="18.68602">
        <ele>42.819424</ele>
        <time>2022-05-31T10:19:20.533Z</time>
      </trkpt>
      <trkpt lat="42.47899" lon="18.68615">
        <ele>43.487157</ele>
        <time>2022-05-31T10:19:23.579Z</time>
      </trkpt>
      <trkpt lat="42.4789" lon="18.68624">
        <ele>44.127967</ele>
        <time>2022-05-31T10:19:26.537Z</time>
      </trkpt>
      <trkpt lat="42.4788" lon="18.68631">
        <ele>44.75525</ele>
        <time>2022-05-31T10:19:29.545Z</time>
      </trkpt>
      <trkpt lat="42.47869" lon="18.68633">
        <ele>45.344611</ele>
        <time>2022-05-31T10:19:32.533Z</time>
      </trkpt>
      <trkpt lat="42.47858" lon="18.6863">
        <ele>45.937822</ele>
        <time>2022-05-31T10:19:35.580Z</time>
      </trkpt>
      <trkpt lat="42.4785" lon="18.68623">
        <ele>46.494428</ele>
        <time>2022-05-31T10:19:38.552Z</time>
      </trkpt>
      <trkpt lat="42.47843" lon="18.68612">
        <ele>47.070732</ele>
        <time>2022-05-31T10:19:41.562Z</time>
      </trkpt>
      <trkpt lat="42.47837" lon="18.68599">
        <ele>47.676116</ele>
        <time>2022-05-31T10:19:44.551Z</time>
      </trkpt>
      <trkpt lat="42.47831" lon="18.68587">
        <ele>48.285271</ele>
        <time>2022-05-31T10:19:47.553Z</time>
      </trkpt>
      <trkpt lat="42.47825" lon="18.68575">
        <ele>48.867103</ele>
        <time>2022-05-31T10:19:50.548Z</time>
      </trkpt>
      <trkpt lat="42.47817" lon="18.68565">
        <ele>49.415735</ele>
        <time>2022-05-31T10:19:53.557Z</time>
      </trkpt>
      <trkpt lat="42.47808" lon="18.68557">
        <ele>49.49889</ele>
        <time>2022-05-31T10:19:56.545Z</time>
      </trkpt>
      <trkpt lat="42.47798" lon="18.68548">
        <ele>49.592911</ele>
        <time>2022-05-31T10:19:59.541Z</time>
      </trkpt>
      <trkpt lat="42.47788" lon="18.68537">
        <ele>49.689301</ele>
        <time>2022-05-31T10:20:02.549Z</time>
      </trkpt>
      <trkpt lat="42.47781" lon="18.68524">
        <ele>49.784354</ele>
        <time>2022-05-31T10:20:05.546Z</time>
      </trkpt>
      <trkpt lat="42.47775" lon="18.6851">
        <ele>49.875408</ele>
        <time>2022-05-31T10:20:08.551Z</time>
      </trkpt>
      <trkpt lat="42.4777" lon="18.68495">
        <ele>49.964293</ele>
        <time>2022-05-31T10:20:11.545Z</time>
      </trkpt>
      <trkpt lat="42.47765" lon="18.68483">
        <ele>50.046393</ele>
        <time>2022-05-31T10:20:14.534Z</time>
      </trkpt>
      <trkpt lat="42.47759" lon="18.6847">
        <ele>50.131882</ele>
        <time>2022-05-31T10:20:17.542Z</time>
      </trkpt>
      <trkpt lat="42.47752" lon="18.68458">
        <ele>50.218271</ele>
        <time>2022-05-31T10:20:20.539Z</time>
      </trkpt>
      <trkpt lat="42.47744" lon="18.68446">
        <ele>50.309006</ele>
        <time>2022-05-31T10:20:23.550Z</time>
      </trkpt>
      <trkpt lat="42.47736" lon="18.68435">
        <ele>50.396877</ele>
        <time>2022-05-31T10:20:26.543Z</time>
      </trkpt>
      <trkpt lat="42.47728" lon="18.68423">
        <ele>50.489716</ele>
        <time>2022-05-31T10:20:29.556Z</time>
      </trkpt>
      <trkpt lat="42.47719" lon="18.68413">
        <ele>50.580136</ele>
        <time>2022-05-31T10:20:32.545Z</time>
      </trkpt>
      <trkpt lat="42.4771" lon="18.68403">
        <ele>50.668287</ele>
        <time>2022-05-31T10:20:35.557Z</time>
      </trkpt>
      <trkpt lat="42.47701" lon="18.68395">
        <ele>50.75464</ele>
        <time>2022-05-31T10:20:38.555Z</time>
      </trkpt>
      <trkpt lat="42.4769" lon="18.68389">
        <ele>50.619728</ele>
        <time>2022-05-31T10:20:41.571Z</time>
      </trkpt>
      <trkpt lat="42.47678" lon="18.68385">
        <ele>50.278207</ele>
        <time>2022-05-31T10:20:44.555Z</time>
      </trkpt>
      <trkpt lat="42.47666" lon="18.68385">
        <ele>49.961591</ele>
        <time>2022-05-31T10:20:47.540Z</time>
      </trkpt>
      <trkpt lat="42.47653" lon="18.68389">
        <ele>49.606989</ele>
        <time>2022-05-31T10:20:50.542Z</time>
      </trkpt>
      <trkpt lat="42.47643" lon="18.68391">
        <ele>49.337162</ele>
        <time>2022-05-31T10:20:52.548Z</time>
      </trkpt>
      <trkpt lat="42.47632" lon="18.68392">
        <ele>49.044612</ele>
        <time>2022-05-31T10:20:54.552Z</time>
      </trkpt>
      <trkpt lat="42.47623" lon="18.68388">
        <ele>48.77479</ele>
        <time>2022-05-31T10:20:56.555Z</time>
      </trkpt>
      <trkpt lat="42.47613" lon="18.68382">
        <ele>48.487487</ele>
        <time>2022-05-31T10:20:58.549Z</time>
      </trkpt>
      <trkpt lat="42.47604" lon="18.68373">
        <ele>48.194333</ele>
        <time>2022-05-31T10:21:00.532Z</time>
      </trkpt>
      <trkpt lat="42.47597" lon="18.68364">
        <ele>47.933784</ele>
        <time>2022-05-31T10:21:02.579Z</time>
      </trkpt>
      <trkpt lat="42.47589" lon="18.68353">
        <ele>47.633671</ele>
        <time>2022-05-31T10:21:04.547Z</time>
      </trkpt>
      <trkpt lat="42.47581" lon="18.68344">
        <ele>47.348526</ele>
        <time>2022-05-31T10:21:06.544Z</time>
      </trkpt>
      <trkpt lat="42.47572" lon="18.68337">
        <ele>47.065095</ele>
        <time>2022-05-31T10:21:08.540Z</time>
      </trkpt>
      <trkpt lat="42.47562" lon="18.6833">
        <ele>46.767558</ele>
        <time>2022-05-31T10:21:10.547Z</time>
      </trkpt>
      <trkpt lat="42.47552" lon="18.68324">
        <ele>46.477872</ele>
        <time>2022-05-31T10:21:12.548Z</time>
      </trkpt>
      <trkpt lat="42.47543" lon="18.68316">
        <ele>46.177871</ele>
        <time>2022-05-31T10:21:14.554Z</time>
      </trkpt>
      <trkpt lat="42.47533" lon="18.68309">
        <ele>45.873558</ele>
        <time>2022-05-31T10:21:16.557Z</time>
      </trkpt>
      <trkpt lat="42.47525" lon="18.683">
        <ele>45.538864</ele>
        <time>2022-05-31T10:21:18.556Z</time>
      </trkpt>
      <trkpt lat="42.47516" lon="18.6829">
        <ele>45.191426</ele>
        <time>2022-05-31T10:21:20.534Z</time>
      </trkpt>
      <trkpt lat="42.47507" lon="18.68281">
        <ele>44.832326</ele>
        <time>2022-05-31T10:21:22.544Z</time>
      </trkpt>
      <trkpt lat="42.47499" lon="18.68271">
        <ele>44.484353</ele>
        <time>2022-05-31T10:21:24.548Z</time>
      </trkpt>
      <trkpt lat="42.4749" lon="18.68261">
        <ele>44.128147</ele>
        <time>2022-05-31T10:21:26.558Z</time>
      </trkpt>
      <trkpt lat="42.47481" lon="18.68251">
        <ele>43.755383</ele>
        <time>2022-05-31T10:21:28.558Z</time>
      </trkpt>
      <trkpt lat="42.47473" lon="18.68241">
        <ele>43.405983</ele>
        <time>2022-05-31T10:21:30.537Z</time>
      </trkpt>
      <trkpt lat="42.47465" lon="18.6823">
        <ele>43.068323</ele>
        <time>2022-05-31T10:21:32.543Z</time>
      </trkpt>
      <trkpt lat="42.47458" lon="18.6822">
        <ele>42.755812</ele>
        <time>2022-05-31T10:21:34.553Z</time>
      </trkpt>
      <trkpt lat="42.47452" lon="18.68211">
        <ele>42.454933</ele>
        <time>2022-05-31T10:21:36.582Z</time>
      </trkpt>
      <trkpt lat="42.47443" lon="18.68198">
        <ele>42.036266</ele>
        <time>2022-05-31T10:21:39.553Z</time>
      </trkpt>
      <trkpt lat="42.47434" lon="18.68185">
        <ele>41.636283</ele>
        <time>2022-05-31T10:21:42.553Z</time>
      </trkpt>
      <trkpt lat="42.47426" lon="18.68172">
        <ele>41.237335</ele>
        <time>2022-05-31T10:21:45.553Z</time>
      </trkpt>
      <trkpt lat="42.47417" lon="18.68159">
        <ele>40.839453</ele>
        <time>2022-05-31T10:21:48.576Z</time>
      </trkpt>
      <trkpt lat="42.47409" lon="18.68146">
        <ele>40.450913</ele>
        <time>2022-05-31T10:21:51.551Z</time>
      </trkpt>
      <trkpt lat="42.47401" lon="18.68134">
        <ele>40.392723</ele>
        <time>2022-05-31T10:21:54.544Z</time>
      </trkpt>
      <trkpt lat="42.47392" lon="18.68121">
        <ele>40.482535</ele>
        <time>2022-05-31T10:21:57.555Z</time>
      </trkpt>
      <trkpt lat="42.47383" lon="18.6811">
        <ele>40.568449</ele>
        <time>2022-05-31T10:22:00.545Z</time>
      </trkpt>
      <trkpt lat="42.47375" lon="18.68103">
        <ele>40.631094</ele>
        <time>2022-05-31T10:22:02.559Z</time>
      </trkpt>
      <trkpt lat="42.47364" lon="18.68095">
        <ele>40.720342</ele>
        <time>2022-05-31T10:22:05.556Z</time>
      </trkpt>
      <trkpt lat="42.47351" lon="18.68088">
        <ele>40.814345</ele>
        <time>2022-05-31T10:22:08.551Z</time>
      </trkpt>
      <trkpt lat="42.47343" lon="18.68083">
        <ele>40.88128</ele>
        <time>2022-05-31T10:22:10.540Z</time>
      </trkpt>
      <trkpt lat="42.4733" lon="18.68076">
        <ele>40.973519</ele>
        <time>2022-05-31T10:22:13.550Z</time>
      </trkpt>
      <trkpt lat="42.47318" lon="18.6807">
        <ele>41.063247</ele>
        <time>2022-05-31T10:22:16.548Z</time>
      </trkpt>
      <trkpt lat="42.47309" lon="18.68065">
        <ele>41.130035</ele>
        <time>2022-05-31T10:22:18.544Z</time>
      </trkpt>
      <trkpt lat="42.473" lon="18.68061">
        <ele>41.197402</ele>
        <time>2022-05-31T10:22:20.537Z</time>
      </trkpt>
      <trkpt lat="42.47291" lon="18.68057">
        <ele>41.264463</ele>
        <time>2022-05-31T10:22:22.551Z</time>
      </trkpt>
      <trkpt lat="42.47281" lon="18.68053">
        <ele>41.337828</ele>
        <time>2022-05-31T10:22:24.579Z</time>
      </trkpt>
      <trkpt lat="42.47271" lon="18.68052">
        <ele>41.40857</ele>
        <time>2022-05-31T10:22:26.552Z</time>
      </trkpt>
      <trkpt lat="42.47262" lon="18.68053">
        <ele>41.473621</ele>
        <time>2022-05-31T10:22:28.551Z</time>
      </trkpt>
      <trkpt lat="42.47253" lon="18.68055">
        <ele>41.536292</ele>
        <time>2022-05-31T10:22:30.537Z</time>
      </trkpt>
      <trkpt lat="42.47243" lon="18.68056">
        <ele>41.656274</ele>
        <time>2022-05-31T10:22:32.548Z</time>
      </trkpt>
      <trkpt lat="42.47233" lon="18.68058">
        <ele>41.90509</ele>
        <time>2022-05-31T10:22:34.592Z</time>
      </trkpt>
      <trkpt lat="42.4722" lon="18.6806">
        <ele>42.223082</ele>
        <time>2022-05-31T10:22:37.546Z</time>
      </trkpt>
      <trkpt lat="42.47207" lon="18.6806">
        <ele>42.553775</ele>
        <time>2022-05-31T10:22:40.543Z</time>
      </trkpt>
      <trkpt lat="42.47198" lon="18.68059">
        <ele>42.792949</ele>
        <time>2022-05-31T10:22:42.549Z</time>
      </trkpt>
      <trkpt lat="42.47188" lon="18.68056">
        <ele>43.030439</ele>
        <time>2022-05-31T10:22:44.557Z</time>
      </trkpt>
      <trkpt lat="42.47179" lon="18.68054">
        <ele>43.272845</ele>
        <time>2022-05-31T10:22:46.560Z</time>
      </trkpt>
      <trkpt lat="42.47169" lon="18.68051">
        <ele>43.51737</ele>
        <time>2022-05-31T10:22:48.548Z</time>
      </trkpt>
      <trkpt lat="42.4716" lon="18.68049">
        <ele>43.748263</ele>
        <time>2022-05-31T10:22:50.534Z</time>
      </trkpt>
      <trkpt lat="42.47152" lon="18.68044">
        <ele>43.976838</ele>
        <time>2022-05-31T10:22:52.533Z</time>
      </trkpt>
      <trkpt lat="42.4714" lon="18.68036">
        <ele>44.292237</ele>
        <time>2022-05-31T10:22:55.566Z</time>
      </trkpt>
      <trkpt lat="42.47131" lon="18.68027">
        <ele>44.591847</ele>
        <time>2022-05-31T10:22:58.541Z</time>
      </trkpt>
      <trkpt lat="42.47123" lon="18.68017">
        <ele>44.856398</ele>
        <time>2022-05-31T10:23:01.539Z</time>
      </trkpt>
      <trkpt lat="42.47116" lon="18.68006">
        <ele>45.12602</ele>
        <time>2022-05-31T10:23:04.549Z</time>
      </trkpt>
      <trkpt lat="42.47111" lon="18.67995">
        <ele>45.375247</ele>
        <time>2022-05-31T10:23:07.547Z</time>
      </trkpt>
      <trkpt lat="42.47105" lon="18.67981">
        <ele>45.669091</ele>
        <time>2022-05-31T10:23:11.566Z</time>
      </trkpt>
      <trkpt lat="42.47101" lon="18.67968">
        <ele>45.923332</ele>
        <time>2022-05-31T10:23:15.633Z</time>
      </trkpt>
      <trkpt lat="42.47097" lon="18.67956">
        <ele>46.150207</ele>
        <time>2022-05-31T10:23:19.552Z</time>
      </trkpt>
      <trkpt lat="42.47094" lon="18.67943">
        <ele>46.331541</ele>
        <time>2022-05-31T10:23:23.540Z</time>
      </trkpt>
      <trkpt lat="42.4709" lon="18.6793">
        <ele>46.517904</ele>
        <time>2022-05-31T10:23:27.548Z</time>
      </trkpt>
      <trkpt lat="42.47087" lon="18.67918">
        <ele>46.699803</ele>
        <time>2022-05-31T10:23:31.599Z</time>
      </trkpt>
      <trkpt lat="42.47083" lon="18.67906">
        <ele>46.876589</ele>
        <time>2022-05-31T10:23:35.549Z</time>
      </trkpt>
      <trkpt lat="42.4708" lon="18.67893">
        <ele>47.057226</ele>
        <time>2022-05-31T10:23:39.549Z</time>
      </trkpt>
      <trkpt lat="42.47076" lon="18.67881">
        <ele>47.23528</ele>
        <time>2022-05-31T10:23:43.552Z</time>
      </trkpt>
      <trkpt lat="42.47073" lon="18.67867">
        <ele>47.429232</ele>
        <time>2022-05-31T10:23:47.553Z</time>
      </trkpt>
      <trkpt lat="42.47069" lon="18.67853">
        <ele>47.644187</ele>
        <time>2022-05-31T10:23:51.543Z</time>
      </trkpt>
      <trkpt lat="42.47064" lon="18.67838">
        <ele>47.861675</ele>
        <time>2022-05-31T10:23:55.549Z</time>
      </trkpt>
      <trkpt lat="42.47061" lon="18.67826">
        <ele>48.03477</ele>
        <time>2022-05-31T10:23:58.556Z</time>
      </trkpt>
      <trkpt lat="42.47057" lon="18.67814">
        <ele>48.207505</ele>
        <time>2022-05-31T10:24:01.553Z</time>
      </trkpt>
      <trkpt lat="42.47051" lon="18.67803">
        <ele>48.397469</ele>
        <time>2022-05-31T10:24:04.559Z</time>
      </trkpt>
      <trkpt lat="42.47043" lon="18.67792">
        <ele>48.599834</ele>
        <time>2022-05-31T10:24:07.539Z</time>
      </trkpt>
      <trkpt lat="42.47034" lon="18.67782">
        <ele>48.815961</ele>
        <time>2022-05-31T10:24:10.539Z</time>
      </trkpt>
      <trkpt lat="42.47024" lon="18.67774">
        <ele>49.029873</ele>
        <time>2022-05-31T10:24:13.556Z</time>
      </trkpt>
      <trkpt lat="42.47014" lon="18.67768">
        <ele>49.224823</ele>
        <time>2022-05-31T10:24:16.574Z</time>
      </trkpt>
      <trkpt lat="42.47003" lon="18.6776">
        <ele>49.307644</ele>
        <time>2022-05-31T10:24:19.556Z</time>
      </trkpt>
      <trkpt lat="42.46992" lon="18.67752">
        <ele>48.946108</ele>
        <time>2022-05-31T10:24:22.550Z</time>
      </trkpt>
      <trkpt lat="42.46981" lon="18.67742">
        <ele>48.563108</ele>
        <time>2022-05-31T10:24:25.547Z</time>
      </trkpt>
      <trkpt lat="42.4697" lon="18.67733">
        <ele>48.200083</ele>
        <time>2022-05-31T10:24:28.553Z</time>
      </trkpt>
      <trkpt lat="42.46959" lon="18.67723">
        <ele>47.818452</ele>
        <time>2022-05-31T10:24:31.560Z</time>
      </trkpt>
      <trkpt lat="42.46951" lon="18.67716">
        <ele>47.541087</ele>
        <time>2022-05-31T10:24:33.545Z</time>
      </trkpt>
      <trkpt lat="42.46944" lon="18.67708">
        <ele>47.276223</ele>
        <time>2022-05-31T10:24:35.566Z</time>
      </trkpt>
      <trkpt lat="42.46936" lon="18.677">
        <ele>47.010976</ele>
        <time>2022-05-31T10:24:37.541Z</time>
      </trkpt>
      <trkpt lat="42.4693" lon="18.67691">
        <ele>46.739896</ele>
        <time>2022-05-31T10:24:39.538Z</time>
      </trkpt>
      <trkpt lat="42.46921" lon="18.67677">
        <ele>46.358849</ele>
        <time>2022-05-31T10:24:42.551Z</time>
      </trkpt>
      <trkpt lat="42.46915" lon="18.67663">
        <ele>46.013924</ele>
        <time>2022-05-31T10:24:45.548Z</time>
      </trkpt>
      <trkpt lat="42.46911" lon="18.67652">
        <ele>45.750869</ele>
        <time>2022-05-31T10:24:47.547Z</time>
      </trkpt>
      <trkpt lat="42.46906" lon="18.67641">
        <ele>45.471761</ele>
        <time>2022-05-31T10:24:49.568Z</time>
      </trkpt>
      <trkpt lat="42.469" lon="18.67626">
        <ele>45.108562</ele>
        <time>2022-05-31T10:24:52.557Z</time>
      </trkpt>
      <trkpt lat="42.46893" lon="18.67611">
        <ele>44.738154</ele>
        <time>2022-05-31T10:24:55.542Z</time>
      </trkpt>
      <trkpt lat="42.46885" lon="18.67597">
        <ele>44.376064</ele>
        <time>2022-05-31T10:24:58.542Z</time>
      </trkpt>
      <trkpt lat="42.46876" lon="18.67584">
        <ele>44.154078</ele>
        <time>2022-05-31T10:25:01.545Z</time>
      </trkpt>
      <trkpt lat="42.46868" lon="18.67577">
        <ele>44.05799</ele>
        <time>2022-05-31T10:25:03.541Z</time>
      </trkpt>
      <trkpt lat="42.4686" lon="18.6757">
        <ele>43.961821</ele>
        <time>2022-05-31T10:25:05.547Z</time>
      </trkpt>
      <trkpt lat="42.46848" lon="18.67563">
        <ele>43.823926</ele>
        <time>2022-05-31T10:25:08.551Z</time>
      </trkpt>
      <trkpt lat="42.46839" lon="18.67559">
        <ele>43.729946</ele>
        <time>2022-05-31T10:25:10.551Z</time>
      </trkpt>
      <trkpt lat="42.46827" lon="18.67556">
        <ele>43.597095</ele>
        <time>2022-05-31T10:25:13.562Z</time>
      </trkpt>
      <trkpt lat="42.46815" lon="18.67555">
        <ele>43.473685</ele>
        <time>2022-05-31T10:25:16.556Z</time>
      </trkpt>
      <trkpt lat="42.46803" lon="18.67555">
        <ele>43.350323</ele>
        <time>2022-05-31T10:25:19.528Z</time>
      </trkpt>
      <trkpt lat="42.46791" lon="18.67554">
        <ele>43.225811</ele>
        <time>2022-05-31T10:25:22.547Z</time>
      </trkpt>
      <trkpt lat="42.4678" lon="18.67551">
        <ele>43.104587</ele>
        <time>2022-05-31T10:25:25.565Z</time>
      </trkpt>
      <trkpt lat="42.46769" lon="18.67548">
        <ele>42.991152</ele>
        <time>2022-05-31T10:25:28.554Z</time>
      </trkpt>
      <trkpt lat="42.46758" lon="18.67541">
        <ele>42.871511</ele>
        <time>2022-05-31T10:25:31.571Z</time>
      </trkpt>
      <trkpt lat="42.46749" lon="18.67533">
        <ele>42.753556</ele>
        <time>2022-05-31T10:25:34.555Z</time>
      </trkpt>
      <trkpt lat="42.4674" lon="18.67521">
        <ele>42.628367</ele>
        <time>2022-05-31T10:25:37.551Z</time>
      </trkpt>
      <trkpt lat="42.46732" lon="18.67509">
        <ele>42.501368</ele>
        <time>2022-05-31T10:25:40.533Z</time>
      </trkpt>
      <trkpt lat="42.46724" lon="18.67495">
        <ele>42.432871</ele>
        <time>2022-05-31T10:25:43.580Z</time>
      </trkpt>
      <trkpt lat="42.46717" lon="18.67481">
        <ele>42.921777</ele>
        <time>2022-05-31T10:25:46.537Z</time>
      </trkpt>
      <trkpt lat="42.4671" lon="18.67466">
        <ele>43.423747</ele>
        <time>2022-05-31T10:25:49.592Z</time>
      </trkpt>
      <trkpt lat="42.46703" lon="18.67452">
        <ele>43.90103</ele>
        <time>2022-05-31T10:25:52.559Z</time>
      </trkpt>
      <trkpt lat="42.46693" lon="18.67441">
        <ele>44.414284</ele>
        <time>2022-05-31T10:25:55.550Z</time>
      </trkpt>
      <trkpt lat="42.46681" lon="18.67433">
        <ele>44.903838</ele>
        <time>2022-05-31T10:25:58.548Z</time>
      </trkpt>
      <trkpt lat="42.46674" lon="18.67421">
        <ele>45.344626</ele>
        <time>2022-05-31T10:26:01.557Z</time>
      </trkpt>
      <trkpt lat="42.46669" lon="18.67405">
        <ele>45.837664</ele>
        <time>2022-05-31T10:26:04.556Z</time>
      </trkpt>
      <trkpt lat="42.46663" lon="18.67391">
        <ele>46.325187</ele>
        <time>2022-05-31T10:26:07.554Z</time>
      </trkpt>
      <trkpt lat="42.46656" lon="18.67376">
        <ele>46.806214</ele>
        <time>2022-05-31T10:26:10.547Z</time>
      </trkpt>
      <trkpt lat="42.46647" lon="18.67363">
        <ele>47.309452</ele>
        <time>2022-05-31T10:26:13.555Z</time>
      </trkpt>
      <trkpt lat="42.46641" lon="18.67355">
        <ele>47.656836</ele>
        <time>2022-05-31T10:26:15.560Z</time>
      </trkpt>
      <trkpt lat="42.4663" lon="18.67346">
        <ele>48.144815</ele>
        <time>2022-05-31T10:26:18.563Z</time>
      </trkpt>
      <trkpt lat="42.46619" lon="18.6734">
        <ele>48.606589</ele>
        <time>2022-05-31T10:26:21.545Z</time>
      </trkpt>
      <trkpt lat="42.46607" lon="18.67337">
        <ele>49.047933</ele>
        <time>2022-05-31T10:26:24.546Z</time>
      </trkpt>
      <trkpt lat="42.46596" lon="18.67336">
        <ele>49.19269</ele>
        <time>2022-05-31T10:26:27.559Z</time>
      </trkpt>
      <trkpt lat="42.46584" lon="18.67338">
        <ele>48.944024</ele>
        <time>2022-05-31T10:26:30.541Z</time>
      </trkpt>
      <trkpt lat="42.46573" lon="18.6734">
        <ele>48.704076</ele>
        <time>2022-05-31T10:26:33.542Z</time>
      </trkpt>
      <trkpt lat="42.46561" lon="18.67341">
        <ele>48.445174</ele>
        <time>2022-05-31T10:26:36.578Z</time>
      </trkpt>
      <trkpt lat="42.46549" lon="18.67342">
        <ele>48.189297</ele>
        <time>2022-05-31T10:26:39.573Z</time>
      </trkpt>
      <trkpt lat="42.46536" lon="18.67341">
        <ele>47.914147</ele>
        <time>2022-05-31T10:26:42.547Z</time>
      </trkpt>
      <trkpt lat="42.46524" lon="18.67341">
        <ele>47.649579</ele>
        <time>2022-05-31T10:26:45.539Z</time>
      </trkpt>
      <trkpt lat="42.46512" lon="18.6734">
        <ele>47.399725</ele>
        <time>2022-05-31T10:26:48.541Z</time>
      </trkpt>
      <trkpt lat="42.465" lon="18.67339">
        <ele>47.13065</ele>
        <time>2022-05-31T10:26:51.565Z</time>
      </trkpt>
      <trkpt lat="42.46489" lon="18.67338">
        <ele>46.900449</ele>
        <time>2022-05-31T10:26:54.546Z</time>
      </trkpt>
      <trkpt lat="42.46479" lon="18.67338">
        <ele>46.681049</ele>
        <time>2022-05-31T10:26:57.536Z</time>
      </trkpt>
      <trkpt lat="42.46468" lon="18.67337">
        <ele>46.446612</ele>
        <time>2022-05-31T10:27:00.529Z</time>
      </trkpt>
      <trkpt lat="42.46459" lon="18.67337">
        <ele>46.244248</ele>
        <time>2022-05-31T10:27:03.555Z</time>
      </trkpt>
      <trkpt lat="42.4645" lon="18.67336">
        <ele>46.048611</ele>
        <time>2022-05-31T10:27:06.548Z</time>
      </trkpt>
      <trkpt lat="42.4644" lon="18.67336">
        <ele>45.850825</ele>
        <time>2022-05-31T10:27:09.547Z</time>
      </trkpt>
      <trkpt lat="42.46431" lon="18.67336">
        <ele>45.653058</ele>
        <time>2022-05-31T10:27:12.546Z</time>
      </trkpt>
      <trkpt lat="42.46419" lon="18.67336">
        <ele>45.436785</ele>
        <time>2022-05-31T10:27:16.547Z</time>
      </trkpt>
      <trkpt lat="42.4641" lon="18.67336">
        <ele>45.449732</ele>
        <time>2022-05-31T10:27:19.574Z</time>
      </trkpt>
      <trkpt lat="42.46401" lon="18.67336">
        <ele>45.461993</ele>
        <time>2022-05-31T10:27:22.554Z</time>
      </trkpt>
      <trkpt lat="42.46392" lon="18.67336">
        <ele>45.474674</ele>
        <time>2022-05-31T10:27:25.580Z</time>
      </trkpt>
      <trkpt lat="42.46382" lon="18.67334">
        <ele>45.487546</ele>
        <time>2022-05-31T10:27:28.559Z</time>
      </trkpt>
      <trkpt lat="42.46373" lon="18.67333">
        <ele>45.500701</ele>
        <time>2022-05-31T10:27:31.648Z</time>
      </trkpt>
      <trkpt lat="42.46364" lon="18.6733">
        <ele>45.513534</ele>
        <time>2022-05-31T10:27:34.547Z</time>
      </trkpt>
      <trkpt lat="42.46354" lon="18.67325">
        <ele>45.526766</ele>
        <time>2022-05-31T10:27:37.542Z</time>
      </trkpt>
      <trkpt lat="42.46345" lon="18.6732">
        <ele>45.540134</ele>
        <time>2022-05-31T10:27:40.535Z</time>
      </trkpt>
      <trkpt lat="42.46337" lon="18.67314">
        <ele>45.553676</ele>
        <time>2022-05-31T10:27:43.563Z</time>
      </trkpt>
      <trkpt lat="42.46328" lon="18.67308">
        <ele>45.567263</ele>
        <time>2022-05-31T10:27:46.542Z</time>
      </trkpt>
      <trkpt lat="42.46318" lon="18.67302">
        <ele>45.582038</ele>
        <time>2022-05-31T10:27:49.590Z</time>
      </trkpt>
      <trkpt lat="42.46307" lon="18.67296">
        <ele>45.598081</ele>
        <time>2022-05-31T10:27:52.554Z</time>
      </trkpt>
      <trkpt lat="42.46295" lon="18.67292">
        <ele>45.615123</ele>
        <time>2022-05-31T10:27:55.549Z</time>
      </trkpt>
      <trkpt lat="42.46285" lon="18.6729">
        <ele>45.628237</ele>
        <time>2022-05-31T10:27:57.558Z</time>
      </trkpt>
      <trkpt lat="42.46275" lon="18.67288">
        <ele>45.641538</ele>
        <time>2022-05-31T10:27:59.539Z</time>
      </trkpt>
      <trkpt lat="42.46265" lon="18.67288">
        <ele>45.655844</ele>
        <time>2022-05-31T10:28:01.554Z</time>
      </trkpt>
      <trkpt lat="42.46254" lon="18.67289">
        <ele>45.670983</ele>
        <time>2022-05-31T10:28:03.528Z</time>
      </trkpt>
      <trkpt lat="42.46242" lon="18.6729">
        <ele>45.614338</ele>
        <time>2022-05-31T10:28:05.664Z</time>
      </trkpt>
      <trkpt lat="42.46231" lon="18.67294">
        <ele>45.478824</ele>
        <time>2022-05-31T10:28:07.537Z</time>
      </trkpt>
      <trkpt lat="42.4622" lon="18.67298">
        <ele>45.342471</ele>
        <time>2022-05-31T10:28:09.545Z</time>
      </trkpt>
      <trkpt lat="42.46209" lon="18.67303">
        <ele>45.203969</ele>
        <time>2022-05-31T10:28:11.549Z</time>
      </trkpt>
      <trkpt lat="42.46199" lon="18.6731">
        <ele>45.062346</ele>
        <time>2022-05-31T10:28:13.541Z</time>
      </trkpt>
      <trkpt lat="42.46188" lon="18.67318">
        <ele>44.920199</ele>
        <time>2022-05-31T10:28:15.544Z</time>
      </trkpt>
      <trkpt lat="42.46179" lon="18.67327">
        <ele>44.783462</ele>
        <time>2022-05-31T10:28:17.540Z</time>
      </trkpt>
      <trkpt lat="42.4617" lon="18.67336">
        <ele>44.645615</ele>
        <time>2022-05-31T10:28:19.542Z</time>
      </trkpt>
      <trkpt lat="42.46161" lon="18.67345">
        <ele>44.511863</ele>
        <time>2022-05-31T10:28:21.557Z</time>
      </trkpt>
      <trkpt lat="42.46152" lon="18.67354">
        <ele>44.383932</ele>
        <time>2022-05-31T10:28:23.546Z</time>
      </trkpt>
      <trkpt lat="42.46144" lon="18.67363">
        <ele>44.256431</ele>
        <time>2022-05-31T10:28:25.545Z</time>
      </trkpt>
      <trkpt lat="42.46136" lon="18.67372">
        <ele>44.130481</ele>
        <time>2022-05-31T10:28:27.542Z</time>
      </trkpt>
      <trkpt lat="42.4613" lon="18.67381">
        <ele>44.020984</ele>
        <time>2022-05-31T10:28:29.552Z</time>
      </trkpt>
      <trkpt lat="42.46122" lon="18.67394">
        <ele>43.869181</ele>
        <time>2022-05-31T10:28:32.554Z</time>
      </trkpt>
      <trkpt lat="42.46115" lon="18.67408">
        <ele>43.722604</ele>
        <time>2022-05-31T10:28:35.557Z</time>
      </trkpt>
      <trkpt lat="42.46109" lon="18.67424">
        <ele>43.56172</ele>
        <time>2022-05-31T10:28:38.550Z</time>
      </trkpt>
      <trkpt lat="42.46106" lon="18.67436">
        <ele>43.585212</ele>
        <time>2022-05-31T10:28:40.540Z</time>
      </trkpt>
      <trkpt lat="42.46102" lon="18.67449">
        <ele>43.696287</ele>
        <time>2022-05-31T10:28:42.578Z</time>
      </trkpt>
      <trkpt lat="42.46098" lon="18.67461">
        <ele>43.807115</ele>
        <time>2022-05-31T10:28:44.547Z</time>
      </trkpt>
      <trkpt lat="42.46094" lon="18.67472">
        <ele>43.914358</ele>
        <time>2022-05-31T10:28:46.549Z</time>
      </trkpt>
      <trkpt lat="42.46089" lon="18.67483">
        <ele>44.024569</ele>
        <time>2022-05-31T10:28:48.559Z</time>
      </trkpt>
      <trkpt lat="42.46083" lon="18.67494">
        <ele>44.133961</ele>
        <time>2022-05-31T10:28:50.531Z</time>
      </trkpt>
      <trkpt lat="42.46076" lon="18.67504">
        <ele>44.24656</ele>
        <time>2022-05-31T10:28:52.537Z</time>
      </trkpt>
      <trkpt lat="42.46069" lon="18.67512">
        <ele>44.352745</ele>
        <time>2022-05-31T10:28:54.552Z</time>
      </trkpt>
      <trkpt lat="42.46062" lon="18.6752">
        <ele>44.46214</ele>
        <time>2022-05-31T10:28:56.577Z</time>
      </trkpt>
      <trkpt lat="42.46053" lon="18.67528">
        <ele>44.573479</ele>
        <time>2022-05-31T10:28:58.558Z</time>
      </trkpt>
      <trkpt lat="42.46045" lon="18.67534">
        <ele>44.681783</ele>
        <time>2022-05-31T10:29:00.557Z</time>
      </trkpt>
      <trkpt lat="42.46037" lon="18.67539">
        <ele>44.78647</ele>
        <time>2022-05-31T10:29:02.527Z</time>
      </trkpt>
      <trkpt lat="42.46028" lon="18.67543">
        <ele>44.891174</ele>
        <time>2022-05-31T10:29:04.559Z</time>
      </trkpt>
      <trkpt lat="42.46019" lon="18.67545">
        <ele>44.995146</ele>
        <time>2022-05-31T10:29:06.543Z</time>
      </trkpt>
      <trkpt lat="42.46007" lon="18.67547">
        <ele>45.132872</ele>
        <time>2022-05-31T10:29:09.558Z</time>
      </trkpt>
      <trkpt lat="42.45994" lon="18.67545">
        <ele>45.275085</ele>
        <time>2022-05-31T10:29:12.555Z</time>
      </trkpt>
      <trkpt lat="42.45982" lon="18.6754">
        <ele>45.41613</ele>
        <time>2022-05-31T10:29:15.555Z</time>
      </trkpt>
      <trkpt lat="42.45972" lon="18.67529">
        <ele>45.575071</ele>
        <time>2022-05-31T10:29:18.557Z</time>
      </trkpt>
      <trkpt lat="42.45963" lon="18.67516">
        <ele>45.817415</ele>
        <time>2022-05-31T10:29:21.556Z</time>
      </trkpt>
      <trkpt lat="42.45958" lon="18.67501">
        <ele>46.058569</ele>
        <time>2022-05-31T10:29:24.577Z</time>
      </trkpt>
      <trkpt lat="42.45955" lon="18.67484">
        <ele>46.30595</ele>
        <time>2022-05-31T10:29:27.540Z</time>
      </trkpt>
      <trkpt lat="42.45954" lon="18.67472">
        <ele>46.478581</ele>
        <time>2022-05-31T10:29:29.548Z</time>
      </trkpt>
      <trkpt lat="42.45954" lon="18.67459">
        <ele>46.653144</ele>
        <time>2022-05-31T10:29:31.549Z</time>
      </trkpt>
      <trkpt lat="42.45954" lon="18.67447">
        <ele>46.830468</ele>
        <time>2022-05-31T10:29:33.554Z</time>
      </trkpt>
      <trkpt lat="42.45953" lon="18.67434">
        <ele>47.017711</ele>
        <time>2022-05-31T10:29:35.546Z</time>
      </trkpt>
      <trkpt lat="42.45953" lon="18.67421">
        <ele>47.20207</ele>
        <time>2022-05-31T10:29:37.529Z</time>
      </trkpt>
      <trkpt lat="42.45953" lon="18.67407">
        <ele>47.393632</ele>
        <time>2022-05-31T10:29:39.551Z</time>
      </trkpt>
      <trkpt lat="42.45953" lon="18.67393">
        <ele>47.599255</ele>
        <time>2022-05-31T10:29:41.548Z</time>
      </trkpt>
      <trkpt lat="42.45953" lon="18.6738">
        <ele>47.776495</ele>
        <time>2022-05-31T10:29:43.554Z</time>
      </trkpt>
      <trkpt lat="42.45953" lon="18.67366">
        <ele>47.970748</ele>
        <time>2022-05-31T10:29:45.553Z</time>
      </trkpt>
      <trkpt lat="42.45953" lon="18.67353">
        <ele>48.160748</ele>
        <time>2022-05-31T10:29:47.569Z</time>
      </trkpt>
      <trkpt lat="42.45953" lon="18.6734">
        <ele>48.345067</ele>
        <time>2022-05-31T10:29:49.540Z</time>
      </trkpt>
      <trkpt lat="42.45952" lon="18.67327">
        <ele>48.525388</ele>
        <time>2022-05-31T10:29:51.551Z</time>
      </trkpt>
      <trkpt lat="42.45952" lon="18.67314">
        <ele>48.716806</ele>
        <time>2022-05-31T10:29:53.574Z</time>
      </trkpt>
      <trkpt lat="42.45952" lon="18.673">
        <ele>48.905388</ele>
        <time>2022-05-31T10:29:55.539Z</time>
      </trkpt>
      <trkpt lat="42.45952" lon="18.67288">
        <ele>49.036497</ele>
        <time>2022-05-31T10:29:57.553Z</time>
      </trkpt>
      <trkpt lat="42.45951" lon="18.67275">
        <ele>49.105078</ele>
        <time>2022-05-31T10:29:59.542Z</time>
      </trkpt>
      <trkpt lat="42.45951" lon="18.67263">
        <ele>49.172549</ele>
        <time>2022-05-31T10:30:01.557Z</time>
      </trkpt>
      <trkpt lat="42.45951" lon="18.6725">
        <ele>49.242775</ele>
        <time>2022-05-31T10:30:03.565Z</time>
      </trkpt>
      <trkpt lat="42.45949" lon="18.67232">
        <ele>49.337951</ele>
        <time>2022-05-31T10:30:06.543Z</time>
      </trkpt>
      <trkpt lat="42.45947" lon="18.67215">
        <ele>49.432997</ele>
        <time>2022-05-31T10:30:09.540Z</time>
      </trkpt>
      <trkpt lat="42.45945" lon="18.67202">
        <ele>49.50377</ele>
        <time>2022-05-31T10:30:11.551Z</time>
      </trkpt>
      <trkpt lat="42.45942" lon="18.67189">
        <ele>49.575745</ele>
        <time>2022-05-31T10:30:13.557Z</time>
      </trkpt>
      <trkpt lat="42.45939" lon="18.67176">
        <ele>49.649947</ele>
        <time>2022-05-31T10:30:15.533Z</time>
      </trkpt>
      <trkpt lat="42.45935" lon="18.67164">
        <ele>49.722917</ele>
        <time>2022-05-31T10:30:17.537Z</time>
      </trkpt>
      <trkpt lat="42.45931" lon="18.67153">
        <ele>49.789506</ele>
        <time>2022-05-31T10:30:19.570Z</time>
      </trkpt>
      <trkpt lat="42.45925" lon="18.67137">
        <ele>49.884274</ele>
        <time>2022-05-31T10:30:22.554Z</time>
      </trkpt>
      <trkpt lat="42.45918" lon="18.67122">
        <ele>49.979842</ele>
        <time>2022-05-31T10:30:25.533Z</time>
      </trkpt>
      <trkpt lat="42.45912" lon="18.67106">
        <ele>50.076234</ele>
        <time>2022-05-31T10:30:28.530Z</time>
      </trkpt>
      <trkpt lat="42.45908" lon="18.67095">
        <ele>50.14438</ele>
        <time>2022-05-31T10:30:30.546Z</time>
      </trkpt>
      <trkpt lat="42.45902" lon="18.67079">
        <ele>50.240019</ele>
        <time>2022-05-31T10:30:33.545Z</time>
      </trkpt>
      <trkpt lat="42.45896" lon="18.67064">
        <ele>50.27113</ele>
        <time>2022-05-31T10:30:36.553Z</time>
      </trkpt>
      <trkpt lat="42.45889" lon="18.67048">
        <ele>49.887327</ele>
        <time>2022-05-31T10:30:39.585Z</time>
      </trkpt>
      <trkpt lat="42.45881" lon="18.67034">
        <ele>49.508729</ele>
        <time>2022-05-31T10:30:42.551Z</time>
      </trkpt>
      <trkpt lat="42.45872" lon="18.67021">
        <ele>49.107196</ele>
        <time>2022-05-31T10:30:45.552Z</time>
      </trkpt>
      <trkpt lat="42.45865" lon="18.67013">
        <ele>48.830041</ele>
        <time>2022-05-31T10:30:47.544Z</time>
      </trkpt>
      <trkpt lat="42.45854" lon="18.67004">
        <ele>48.442716</ele>
        <time>2022-05-31T10:30:50.571Z</time>
      </trkpt>
      <trkpt lat="42.45845" lon="18.66998">
        <ele>48.152098</ele>
        <time>2022-05-31T10:30:52.548Z</time>
      </trkpt>
      <trkpt lat="42.45836" lon="18.66991">
        <ele>47.848856</ele>
        <time>2022-05-31T10:30:54.555Z</time>
      </trkpt>
      <trkpt lat="42.45828" lon="18.66981">
        <ele>47.53672</ele>
        <time>2022-05-31T10:30:56.553Z</time>
      </trkpt>
      <trkpt lat="42.45822" lon="18.66971">
        <ele>47.25053</ele>
        <time>2022-05-31T10:30:58.541Z</time>
      </trkpt>
      <trkpt lat="42.45817" lon="18.66961">
        <ele>46.9806</ele>
        <time>2022-05-31T10:31:00.547Z</time>
      </trkpt>
      <trkpt lat="42.45812" lon="18.6695">
        <ele>46.710543</ele>
        <time>2022-05-31T10:31:02.550Z</time>
      </trkpt>
      <trkpt lat="42.45804" lon="18.66935">
        <ele>46.309107</ele>
        <time>2022-05-31T10:31:05.566Z</time>
      </trkpt>
      <trkpt lat="42.45799" lon="18.66925">
        <ele>46.034108</ele>
        <time>2022-05-31T10:31:07.537Z</time>
      </trkpt>
      <trkpt lat="42.45791" lon="18.6691">
        <ele>45.636158</ele>
        <time>2022-05-31T10:31:10.543Z</time>
      </trkpt>
      <trkpt lat="42.45783" lon="18.66895">
        <ele>45.243463</ele>
        <time>2022-05-31T10:31:13.551Z</time>
      </trkpt>
      <trkpt lat="42.45775" lon="18.66881">
        <ele>44.984256</ele>
        <time>2022-05-31T10:31:16.552Z</time>
      </trkpt>
      <trkpt lat="42.45768" lon="18.66866">
        <ele>44.911058</ele>
        <time>2022-05-31T10:31:19.560Z</time>
      </trkpt>
      <trkpt lat="42.45759" lon="18.66852">
        <ele>44.838741</ele>
        <time>2022-05-31T10:31:22.554Z</time>
      </trkpt>
      <trkpt lat="42.45754" lon="18.66842">
        <ele>44.788212</ele>
        <time>2022-05-31T10:31:24.588Z</time>
      </trkpt>
      <trkpt lat="42.45748" lon="18.66832">
        <ele>44.73801</ele>
        <time>2022-05-31T10:31:26.552Z</time>
      </trkpt>
      <trkpt lat="42.45742" lon="18.66823">
        <ele>44.688437</ele>
        <time>2022-05-31T10:31:28.553Z</time>
      </trkpt>
      <trkpt lat="42.45734" lon="18.66809">
        <ele>44.618056</ele>
        <time>2022-05-31T10:31:31.555Z</time>
      </trkpt>
      <trkpt lat="42.4573" lon="18.66795">
        <ele>44.555734</ele>
        <time>2022-05-31T10:31:34.563Z</time>
      </trkpt>
      <trkpt lat="42.45727" lon="18.66778">
        <ele>44.487826</ele>
        <time>2022-05-31T10:31:37.546Z</time>
      </trkpt>
      <trkpt lat="42.45725" lon="18.66766">
        <ele>44.438173</ele>
        <time>2022-05-31T10:31:39.547Z</time>
      </trkpt>
      <trkpt lat="42.45722" lon="18.66753">
        <ele>44.381238</ele>
        <time>2022-05-31T10:31:41.554Z</time>
      </trkpt>
      <trkpt lat="42.45721" lon="18.66739">
        <ele>44.327239</ele>
        <time>2022-05-31T10:31:43.546Z</time>
      </trkpt>
      <trkpt lat="42.4572" lon="18.66726">
        <ele>44.273167</ele>
        <time>2022-05-31T10:31:45.542Z</time>
      </trkpt>
      <trkpt lat="42.45718" lon="18.66713">
        <ele>44.21893</ele>
        <time>2022-05-31T10:31:47.541Z</time>
      </trkpt>
      <trkpt lat="42.45716" lon="18.66701">
        <ele>44.168854</ele>
        <time>2022-05-31T10:31:49.551Z</time>
      </trkpt>
      <trkpt lat="42.45713" lon="18.66682">
        <ele>44.09453</ele>
        <time>2022-05-31T10:31:52.561Z</time>
      </trkpt>
      <trkpt lat="42.45711" lon="18.6667">
        <ele>44.043951</ele>
        <time>2022-05-31T10:31:54.548Z</time>
      </trkpt>
      <trkpt lat="42.45709" lon="18.66658">
        <ele>44.024208</ele>
        <time>2022-05-31T10:31:56.548Z</time>
      </trkpt>
      <trkpt lat="42.45706" lon="18.66641">
        <ele>44.008156</ele>
        <time>2022-05-31T10:31:59.573Z</time>
      </trkpt>
      <trkpt lat="42.45703" lon="18.66623">
        <ele>43.992051</ele>
        <time>2022-05-31T10:32:02.548Z</time>
      </trkpt>
      <trkpt lat="42.45698" lon="18.66608">
        <ele>43.977797</ele>
        <time>2022-05-31T10:32:05.575Z</time>
      </trkpt>
      <trkpt lat="42.45695" lon="18.66594">
        <ele>43.964337</ele>
        <time>2022-05-31T10:32:08.557Z</time>
      </trkpt>
      <trkpt lat="42.45692" lon="18.66582">
        <ele>43.953585</ele>
        <time>2022-05-31T10:32:10.550Z</time>
      </trkpt>
      <trkpt lat="42.45689" lon="18.66569">
        <ele>43.94184</ele>
        <time>2022-05-31T10:32:12.549Z</time>
      </trkpt>
      <trkpt lat="42.45686" lon="18.66557">
        <ele>43.930148</ele>
        <time>2022-05-31T10:32:14.553Z</time>
      </trkpt>
      <trkpt lat="42.45684" lon="18.66544">
        <ele>43.918488</ele>
        <time>2022-05-31T10:32:16.578Z</time>
      </trkpt>
      <trkpt lat="42.45681" lon="18.66531">
        <ele>43.906743</ele>
        <time>2022-05-31T10:32:18.552Z</time>
      </trkpt>
      <trkpt lat="42.45678" lon="18.66519">
        <ele>43.895186</ele>
        <time>2022-05-31T10:32:20.540Z</time>
      </trkpt>
      <trkpt lat="42.45676" lon="18.66506">
        <ele>43.883697</ele>
        <time>2022-05-31T10:32:22.548Z</time>
      </trkpt>
      <trkpt lat="42.45674" lon="18.66489">
        <ele>43.867873</ele>
        <time>2022-05-31T10:32:25.556Z</time>
      </trkpt>
      <trkpt lat="42.45671" lon="18.66475">
        <ele>43.855212</ele>
        <time>2022-05-31T10:32:27.569Z</time>
      </trkpt>
      <trkpt lat="42.45669" lon="18.66461">
        <ele>43.842944</ele>
        <time>2022-05-31T10:32:29.550Z</time>
      </trkpt>
      <trkpt lat="42.45666" lon="18.66448">
        <ele>43.830908</ele>
        <time>2022-05-31T10:32:31.559Z</time>
      </trkpt>
      <trkpt lat="42.45663" lon="18.66435">
        <ele>43.818532</ele>
        <time>2022-05-31T10:32:33.558Z</time>
      </trkpt>
      <trkpt lat="42.4566" lon="18.66422">
        <ele>43.62401</ele>
        <time>2022-05-31T10:32:35.554Z</time>
      </trkpt>
      <trkpt lat="42.45656" lon="18.66409">
        <ele>43.418122</ele>
        <time>2022-05-31T10:32:37.545Z</time>
      </trkpt>
      <trkpt lat="42.45653" lon="18.66398">
        <ele>43.215144</ele>
        <time>2022-05-31T10:32:39.551Z</time>
      </trkpt>
      <trkpt lat="42.45649" lon="18.66386">
        <ele>43.014037</ele>
        <time>2022-05-31T10:32:41.550Z</time>
      </trkpt>
      <trkpt lat="42.45646" lon="18.66375">
        <ele>42.816968</ele>
        <time>2022-05-31T10:32:43.542Z</time>
      </trkpt>
      <trkpt lat="42.45642" lon="18.66363">
        <ele>42.616273</ele>
        <time>2022-05-31T10:32:45.545Z</time>
      </trkpt>
      <trkpt lat="42.45636" lon="18.6635">
        <ele>42.365363</ele>
        <time>2022-05-31T10:32:49.545Z</time>
      </trkpt>
      <trkpt lat="42.45632" lon="18.66337">
        <ele>42.140707</ele>
        <time>2022-05-31T10:32:51.560Z</time>
      </trkpt>
      <trkpt lat="42.45628" lon="18.66325">
        <ele>41.940473</ele>
        <time>2022-05-31T10:32:53.553Z</time>
      </trkpt>
      <trkpt lat="42.45625" lon="18.66314">
        <ele>41.741262</ele>
        <time>2022-05-31T10:32:55.556Z</time>
      </trkpt>
      <trkpt lat="42.45623" lon="18.66302">
        <ele>41.541288</ele>
        <time>2022-05-31T10:32:57.557Z</time>
      </trkpt>
      <trkpt lat="42.45619" lon="18.6629">
        <ele>41.345839</ele>
        <time>2022-05-31T10:32:59.541Z</time>
      </trkpt>
      <trkpt lat="42.45614" lon="18.66274">
        <ele>41.057752</ele>
        <time>2022-05-31T10:33:02.599Z</time>
      </trkpt>
      <trkpt lat="42.45608" lon="18.66259">
        <ele>40.791697</ele>
        <time>2022-05-31T10:33:05.552Z</time>
      </trkpt>
      <trkpt lat="42.45603" lon="18.66249">
        <ele>40.596247</ele>
        <time>2022-05-31T10:33:08.577Z</time>
      </trkpt>
      <trkpt lat="42.45598" lon="18.66237">
        <ele>40.383629</ele>
        <time>2022-05-31T10:33:11.547Z</time>
      </trkpt>
      <trkpt lat="42.45593" lon="18.66225">
        <ele>40.154912</ele>
        <time>2022-05-31T10:33:15.547Z</time>
      </trkpt>
      <trkpt lat="42.45587" lon="18.66212">
        <ele>39.955159</ele>
        <time>2022-05-31T10:33:19.562Z</time>
      </trkpt>
      <trkpt lat="42.45581" lon="18.66198">
        <ele>40.538389</ele>
        <time>2022-05-31T10:33:22.551Z</time>
      </trkpt>
      <trkpt lat="42.45574" lon="18.66184">
        <ele>41.120065</ele>
        <time>2022-05-31T10:33:25.576Z</time>
      </trkpt>
      <trkpt lat="42.45567" lon="18.66171">
        <ele>41.686776</ele>
        <time>2022-05-31T10:33:28.548Z</time>
      </trkpt>
      <trkpt lat="42.45559" lon="18.66164">
        <ele>42.124754</ele>
        <time>2022-05-31T10:33:30.550Z</time>
      </trkpt>
      <trkpt lat="42.45552" lon="18.66153">
        <ele>42.659607</ele>
        <time>2022-05-31T10:33:33.688Z</time>
      </trkpt>
      <trkpt lat="42.45544" lon="18.66139">
        <ele>43.258564</ele>
        <time>2022-05-31T10:33:36.550Z</time>
      </trkpt>
      <trkpt lat="42.45536" lon="18.66128">
        <ele>43.802512</ele>
        <time>2022-05-31T10:33:39.562Z</time>
      </trkpt>
      <trkpt lat="42.45528" lon="18.66115">
        <ele>44.383912</ele>
        <time>2022-05-31T10:33:42.557Z</time>
      </trkpt>
      <trkpt lat="42.4552" lon="18.66102">
        <ele>45.010523</ele>
        <time>2022-05-31T10:33:45.547Z</time>
      </trkpt>
      <trkpt lat="42.45511" lon="18.66089">
        <ele>45.636342</ele>
        <time>2022-05-31T10:33:48.596Z</time>
      </trkpt>
      <trkpt lat="42.45501" lon="18.66076">
        <ele>46.255315</ele>
        <time>2022-05-31T10:33:51.546Z</time>
      </trkpt>
      <trkpt lat="42.45493" lon="18.66065">
        <ele>46.827679</ele>
        <time>2022-05-31T10:33:54.554Z</time>
      </trkpt>
      <trkpt lat="42.45485" lon="18.66055">
        <ele>47.323109</ele>
        <time>2022-05-31T10:33:57.549Z</time>
      </trkpt>
      <trkpt lat="42.45477" lon="18.66044">
        <ele>47.856998</ele>
        <time>2022-05-31T10:34:00.551Z</time>
      </trkpt>
      <trkpt lat="42.45469" lon="18.66035">
        <ele>48.389347</ele>
        <time>2022-05-31T10:34:03.591Z</time>
      </trkpt>
      <trkpt lat="42.45461" lon="18.66026">
        <ele>48.289549</ele>
        <time>2022-05-31T10:34:06.549Z</time>
      </trkpt>
      <trkpt lat="42.45452" lon="18.66017">
        <ele>48.032293</ele>
        <time>2022-05-31T10:34:09.541Z</time>
      </trkpt>
      <trkpt lat="42.45442" lon="18.66005">
        <ele>47.718093</ele>
        <time>2022-05-31T10:34:12.545Z</time>
      </trkpt>
      <trkpt lat="42.45433" lon="18.65996">
        <ele>47.462464</ele>
        <time>2022-05-31T10:34:14.558Z</time>
      </trkpt>
      <trkpt lat="42.45425" lon="18.65988">
        <ele>47.216854</ele>
        <time>2022-05-31T10:34:16.582Z</time>
      </trkpt>
      <trkpt lat="42.45417" lon="18.6598">
        <ele>46.986627</ele>
        <time>2022-05-31T10:34:18.555Z</time>
      </trkpt>
      <trkpt lat="42.45408" lon="18.65971">
        <ele>46.736224</ele>
        <time>2022-05-31T10:34:20.563Z</time>
      </trkpt>
      <trkpt lat="42.45399" lon="18.65963">
        <ele>46.468559</ele>
        <time>2022-05-31T10:34:22.581Z</time>
      </trkpt>
      <trkpt lat="42.4539" lon="18.65953">
        <ele>46.212615</ele>
        <time>2022-05-31T10:34:24.556Z</time>
      </trkpt>
      <trkpt lat="42.45381" lon="18.65946">
        <ele>45.965979</ele>
        <time>2022-05-31T10:34:26.550Z</time>
      </trkpt>
      <trkpt lat="42.45372" lon="18.65938">
        <ele>45.719623</ele>
        <time>2022-05-31T10:34:28.555Z</time>
      </trkpt>
      <trkpt lat="42.45365" lon="18.65931">
        <ele>45.506862</ele>
        <time>2022-05-31T10:34:30.533Z</time>
      </trkpt>
      <trkpt lat="42.45355" lon="18.65923">
        <ele>45.224265</ele>
        <time>2022-05-31T10:34:33.556Z</time>
      </trkpt>
      <trkpt lat="42.45346" lon="18.65914">
        <ele>44.972082</ele>
        <time>2022-05-31T10:34:36.553Z</time>
      </trkpt>
      <trkpt lat="42.45338" lon="18.65906">
        <ele>44.743691</ele>
        <time>2022-05-31T10:34:39.559Z</time>
      </trkpt>
      <trkpt lat="42.4533" lon="18.65898">
        <ele>44.494457</ele>
        <time>2022-05-31T10:34:42.522Z</time>
      </trkpt>
      <trkpt lat="42.45321" lon="18.65886">
        <ele>44.23472</ele>
        <time>2022-05-31T10:34:45.555Z</time>
      </trkpt>
      <trkpt lat="42.45312" lon="18.65876">
        <ele>44.055424</ele>
        <time>2022-05-31T10:34:48.564Z</time>
      </trkpt>
      <trkpt lat="42.45303" lon="18.65866">
        <ele>43.874249</ele>
        <time>2022-05-31T10:34:51.572Z</time>
      </trkpt>
      <trkpt lat="42.45293" lon="18.65856">
        <ele>43.688669</ele>
        <time>2022-05-31T10:34:54.537Z</time>
      </trkpt>
      <trkpt lat="42.45283" lon="18.65846">
        <ele>43.500344</ele>
        <time>2022-05-31T10:34:57.538Z</time>
      </trkpt>
      <trkpt lat="42.45274" lon="18.65835">
        <ele>43.316763</ele>
        <time>2022-05-31T10:35:00.538Z</time>
      </trkpt>
      <trkpt lat="42.45265" lon="18.65824">
        <ele>43.141473</ele>
        <time>2022-05-31T10:35:03.566Z</time>
      </trkpt>
      <trkpt lat="42.45257" lon="18.65815">
        <ele>42.979642</ele>
        <time>2022-05-31T10:35:06.548Z</time>
      </trkpt>
      <trkpt lat="42.45248" lon="18.65808">
        <ele>42.824045</ele>
        <time>2022-05-31T10:35:10.594Z</time>
      </trkpt>
      <trkpt lat="42.45239" lon="18.65804">
        <ele>42.680391</ele>
        <time>2022-05-31T10:35:13.539Z</time>
      </trkpt>
      <trkpt lat="42.45228" lon="18.658">
        <ele>42.503526</ele>
        <time>2022-05-31T10:35:16.538Z</time>
      </trkpt>
      <trkpt lat="42.45219" lon="18.65796">
        <ele>42.361099</ele>
        <time>2022-05-31T10:35:18.574Z</time>
      </trkpt>
      <trkpt lat="42.4521" lon="18.6579">
        <ele>42.209749</ele>
        <time>2022-05-31T10:35:20.541Z</time>
      </trkpt>
      <trkpt lat="42.45202" lon="18.65782">
        <ele>42.058648</ele>
        <time>2022-05-31T10:35:22.553Z</time>
      </trkpt>
      <trkpt lat="42.45196" lon="18.65772">
        <ele>41.916321</ele>
        <time>2022-05-31T10:35:24.577Z</time>
      </trkpt>
      <trkpt lat="42.45188" lon="18.6576">
        <ele>41.733765</ele>
        <time>2022-05-31T10:35:27.537Z</time>
      </trkpt>
      <trkpt lat="42.45179" lon="18.65748">
        <ele>41.54784</ele>
        <time>2022-05-31T10:35:30.530Z</time>
      </trkpt>
      <trkpt lat="42.45174" lon="18.65738">
        <ele>41.640242</ele>
        <time>2022-05-31T10:35:32.580Z</time>
      </trkpt>
      <trkpt lat="42.45168" lon="18.65729">
        <ele>41.735474</ele>
        <time>2022-05-31T10:35:34.549Z</time>
      </trkpt>
      <trkpt lat="42.45162" lon="18.65719">
        <ele>41.831841</ele>
        <time>2022-05-31T10:35:36.586Z</time>
      </trkpt>
      <trkpt lat="42.45154" lon="18.65705">
        <ele>41.966884</ele>
        <time>2022-05-31T10:35:39.559Z</time>
      </trkpt>
      <trkpt lat="42.45146" lon="18.65691">
        <ele>42.099015</ele>
        <time>2022-05-31T10:35:42.549Z</time>
      </trkpt>
      <trkpt lat="42.45146" lon="18.65676">
        <ele>42.215029</ele>
        <time>2022-05-31T10:35:45.547Z</time>
      </trkpt>
      <trkpt lat="42.45152" lon="18.65667">
        <ele>42.308737</ele>
        <time>2022-05-31T10:35:48.551Z</time>
      </trkpt>
      <trkpt lat="42.45162" lon="18.65659">
        <ele>42.42728</ele>
        <time>2022-05-31T10:35:51.544Z</time>
      </trkpt>
      <trkpt lat="42.45175" lon="18.65653">
        <ele>42.5678</ele>
        <time>2022-05-31T10:35:55.539Z</time>
      </trkpt>
      <trkpt lat="42.45184" lon="18.65642">
        <ele>42.690676</ele>
        <time>2022-05-31T10:35:58.542Z</time>
      </trkpt>
      <trkpt lat="42.4519" lon="18.65628">
        <ele>42.816531</ele>
        <time>2022-05-31T10:36:01.541Z</time>
      </trkpt>
      <trkpt lat="42.45196" lon="18.65615">
        <ele>42.932686</ele>
        <time>2022-05-31T10:36:04.541Z</time>
      </trkpt>
      <trkpt lat="42.45203" lon="18.65606">
        <ele>43.034458</ele>
        <time>2022-05-31T10:36:07.549Z</time>
      </trkpt>
      <trkpt lat="42.45212" lon="18.65596">
        <ele>43.155309</ele>
        <time>2022-05-31T10:36:11.560Z</time>
      </trkpt>
      <trkpt lat="42.4522" lon="18.65589">
        <ele>43.257596</ele>
        <time>2022-05-31T10:36:14.546Z</time>
      </trkpt>
      <trkpt lat="42.45231" lon="18.6558">
        <ele>43.383539</ele>
        <time>2022-05-31T10:36:18.547Z</time>
      </trkpt>
      <trkpt lat="42.45241" lon="18.65573">
        <ele>43.836099</ele>
        <time>2022-05-31T10:36:21.542Z</time>
      </trkpt>
      <trkpt lat="42.45249" lon="18.65566">
        <ele>44.297967</ele>
        <time>2022-05-31T10:36:24.603Z</time>
      </trkpt>
      <trkpt lat="42.45257" lon="18.65556">
        <ele>44.808048</ele>
        <time>2022-05-31T10:36:28.540Z</time>
      </trkpt>
      <trkpt lat="42.45262" lon="18.65546">
        <ele>45.236513</ele>
        <time>2022-05-31T10:36:31.549Z</time>
      </trkpt>
      <trkpt lat="42.45269" lon="18.65536">
        <ele>45.696616</ele>
        <time>2022-05-31T10:36:34.535Z</time>
      </trkpt>
      <trkpt lat="42.45277" lon="18.65528">
        <ele>46.158522</ele>
        <time>2022-05-31T10:36:37.550Z</time>
      </trkpt>
      <trkpt lat="42.45287" lon="18.65522">
        <ele>46.673344</ele>
        <time>2022-05-31T10:36:41.593Z</time>
      </trkpt>
      <trkpt lat="42.45297" lon="18.65516">
        <ele>47.181297</ele>
        <time>2022-05-31T10:36:45.578Z</time>
      </trkpt>
      <trkpt lat="42.45305" lon="18.6551">
        <ele>47.6219</ele>
        <time>2022-05-31T10:36:49.553Z</time>
      </trkpt>
      <trkpt lat="42.45315" lon="18.65504">
        <ele>48.119891</ele>
        <time>2022-05-31T10:36:54.550Z</time>
      </trkpt>
      <trkpt lat="42.45323" lon="18.65497">
        <ele>48.577484</ele>
        <time>2022-05-31T10:36:59.554Z</time>
      </trkpt>
      <trkpt lat="42.45331" lon="18.6549">
        <ele>49.023763</ele>
        <time>2022-05-31T10:37:04.559Z</time>
      </trkpt>
      <trkpt lat="42.4534" lon="18.65482">
        <ele>49.547626</ele>
        <time>2022-05-31T10:37:09.539Z</time>
      </trkpt>
      <trkpt lat="42.45349" lon="18.65474">
        <ele>50.055671</ele>
        <time>2022-05-31T10:37:14.580Z</time>
      </trkpt>
      <trkpt lat="42.45358" lon="18.65469">
        <ele>50.512581</ele>
        <time>2022-05-31T10:37:20.533Z</time>
      </trkpt>
      <trkpt lat="42.45367" lon="18.65463">
        <ele>50.960585</ele>
        <time>2022-05-31T10:37:25.550Z</time>
      </trkpt>
      <trkpt lat="42.45375" lon="18.65456">
        <ele>51.423491</ele>
        <time>2022-05-31T10:37:30.533Z</time>
      </trkpt>
      <trkpt lat="42.4538" lon="18.65444">
        <ele>51.824945</ele>
        <time>2022-05-31T10:37:35.564Z</time>
      </trkpt>
      <trkpt lat="42.45379" lon="18.65431">
        <ele>51.785014</ele>
        <time>2022-05-31T10:37:39.553Z</time>
      </trkpt>
      <trkpt lat="42.45375" lon="18.65418">
        <ele>51.744672</ele>
        <time>2022-05-31T10:37:42.554Z</time>
      </trkpt>
      <trkpt lat="42.45371" lon="18.65404">
        <ele>51.702242</ele>
        <time>2022-05-31T10:37:45.548Z</time>
      </trkpt>
      <trkpt lat="42.45366" lon="18.65389">
        <ele>51.653189</ele>
        <time>2022-05-31T10:37:48.555Z</time>
      </trkpt>
      <trkpt lat="42.45361" lon="18.65373">
        <ele>51.600598</ele>
        <time>2022-05-31T10:37:51.561Z</time>
      </trkpt>
      <trkpt lat="42.45356" lon="18.65362">
        <ele>51.563671</ele>
        <time>2022-05-31T10:37:53.559Z</time>
      </trkpt>
      <trkpt lat="42.4535" lon="18.6535">
        <ele>51.524076</ele>
        <time>2022-05-31T10:37:55.540Z</time>
      </trkpt>
      <trkpt lat="42.45344" lon="18.65339">
        <ele>51.483115</ele>
        <time>2022-05-31T10:37:57.550Z</time>
      </trkpt>
      <trkpt lat="42.45337" lon="18.65329">
        <ele>51.442156</ele>
        <time>2022-05-31T10:37:59.580Z</time>
      </trkpt>
      <trkpt lat="42.45329" lon="18.65319">
        <ele>51.398985</ele>
        <time>2022-05-31T10:38:01.551Z</time>
      </trkpt>
      <trkpt lat="42.4532" lon="18.6531">
        <ele>51.35482</ele>
        <time>2022-05-31T10:38:03.543Z</time>
      </trkpt>
      <trkpt lat="42.4531" lon="18.65301">
        <ele>51.307871</ele>
        <time>2022-05-31T10:38:05.551Z</time>
      </trkpt>
      <trkpt lat="42.45301" lon="18.65293">
        <ele>51.263839</ele>
        <time>2022-05-31T10:38:07.553Z</time>
      </trkpt>
      <trkpt lat="42.45291" lon="18.65286">
        <ele>51.218444</ele>
        <time>2022-05-31T10:38:09.561Z</time>
      </trkpt>
      <trkpt lat="42.45281" lon="18.65278">
        <ele>51.172901</ele>
        <time>2022-05-31T10:38:11.540Z</time>
      </trkpt>
      <trkpt lat="42.4527" lon="18.65269">
        <ele>51.122115</ele>
        <time>2022-05-31T10:38:13.603Z</time>
      </trkpt>
      <trkpt lat="42.45259" lon="18.6526">
        <ele>51.043994</ele>
        <time>2022-05-31T10:38:15.558Z</time>
      </trkpt>
      <trkpt lat="42.45247" lon="18.65251">
        <ele>50.954311</ele>
        <time>2022-05-31T10:38:17.546Z</time>
      </trkpt>
      <trkpt lat="42.45235" lon="18.65242">
        <ele>50.865748</ele>
        <time>2022-05-31T10:38:19.538Z</time>
      </trkpt>
      <trkpt lat="42.45224" lon="18.65231">
        <ele>50.781494</ele>
        <time>2022-05-31T10:38:21.551Z</time>
      </trkpt>
      <trkpt lat="42.45216" lon="18.65221">
        <ele>50.706916</ele>
        <time>2022-05-31T10:38:23.558Z</time>
      </trkpt>
      <trkpt lat="42.45208" lon="18.65211">
        <ele>50.636901</ele>
        <time>2022-05-31T10:38:25.556Z</time>
      </trkpt>
      <trkpt lat="42.45201" lon="18.65202">
        <ele>50.575472</ele>
        <time>2022-05-31T10:38:27.557Z</time>
      </trkpt>
      <trkpt lat="42.45195" lon="18.65192">
        <ele>50.51494</ele>
        <time>2022-05-31T10:38:29.550Z</time>
      </trkpt>
      <trkpt lat="42.45187" lon="18.65183">
        <ele>50.451381</ele>
        <time>2022-05-31T10:38:31.556Z</time>
      </trkpt>
      <trkpt lat="42.4518" lon="18.65175">
        <ele>50.391114</ele>
        <time>2022-05-31T10:38:33.587Z</time>
      </trkpt>
      <trkpt lat="42.4517" lon="18.65163">
        <ele>50.305253</ele>
        <time>2022-05-31T10:38:36.549Z</time>
      </trkpt>
      <trkpt lat="42.45162" lon="18.65153">
        <ele>50.232133</ele>
        <time>2022-05-31T10:38:39.555Z</time>
      </trkpt>
      <trkpt lat="42.45155" lon="18.65142">
        <ele>50.161652</ele>
        <time>2022-05-31T10:38:42.513Z</time>
      </trkpt>
      <trkpt lat="42.4516" lon="18.65127">
        <ele>50.087155</ele>
        <time>2022-05-31T10:38:46.558Z</time>
      </trkpt>
      <trkpt lat="42.4517" lon="18.65122">
        <ele>50.018171</ele>
        <time>2022-05-31T10:38:52.554Z</time>
      </trkpt>
      <trkpt lat="42.45159" lon="18.65123">
        <ele>49.908036</ele>
        <time>2022-05-31T10:39:16.538Z</time>
      </trkpt>
      <trkpt lat="42.45149" lon="18.65132">
        <ele>49.540589</ele>
        <time>2022-05-31T10:39:19.537Z</time>
      </trkpt>
      <trkpt lat="42.4514" lon="18.65138">
        <ele>49.244981</ele>
        <time>2022-05-31T10:39:21.539Z</time>
      </trkpt>
      <trkpt lat="42.4513" lon="18.65145">
        <ele>48.924819</ele>
        <time>2022-05-31T10:39:23.560Z</time>
      </trkpt>
      <trkpt lat="42.45121" lon="18.6515">
        <ele>48.604715</ele>
        <time>2022-05-31T10:39:25.578Z</time>
      </trkpt>
      <trkpt lat="42.45109" lon="18.65152">
        <ele>48.264078</ele>
        <time>2022-05-31T10:39:27.549Z</time>
      </trkpt>
      <trkpt lat="42.45099" lon="18.65152">
        <ele>47.962219</ele>
        <time>2022-05-31T10:39:29.605Z</time>
      </trkpt>
      <trkpt lat="42.45089" lon="18.65153">
        <ele>47.660032</ele>
        <time>2022-05-31T10:39:31.568Z</time>
      </trkpt>
      <trkpt lat="42.45079" lon="18.65153">
        <ele>47.35201</ele>
        <time>2022-05-31T10:39:33.556Z</time>
      </trkpt>
      <trkpt lat="42.45068" lon="18.65153">
        <ele>47.004893</ele>
        <time>2022-05-31T10:39:35.551Z</time>
      </trkpt>
      <trkpt lat="42.45057" lon="18.65153">
        <ele>46.688011</ele>
        <time>2022-05-31T10:39:37.550Z</time>
      </trkpt>
      <trkpt lat="42.45046" lon="18.6515">
        <ele>46.348486</ele>
        <time>2022-05-31T10:39:39.553Z</time>
      </trkpt>
      <trkpt lat="42.45038" lon="18.6514">
        <ele>46.023775</ele>
        <time>2022-05-31T10:39:41.556Z</time>
      </trkpt>
      <trkpt lat="42.45033" lon="18.65123">
        <ele>45.617368</ele>
        <time>2022-05-31T10:39:44.553Z</time>
      </trkpt>
      <trkpt lat="42.45031" lon="18.65111">
        <ele>45.339871</ele>
        <time>2022-05-31T10:39:46.562Z</time>
      </trkpt>
      <trkpt lat="42.45028" lon="18.65095">
        <ele>44.971248</ele>
        <time>2022-05-31T10:39:49.548Z</time>
      </trkpt>
      <trkpt lat="42.45023" lon="18.65083">
        <ele>44.678003</ele>
        <time>2022-05-31T10:39:52.537Z</time>
      </trkpt>
      <trkpt lat="42.45019" lon="18.65071">
        <ele>44.491181</ele>
        <time>2022-05-31T10:39:55.536Z</time>
      </trkpt>
      <trkpt lat="42.45015" lon="18.65058">
        <ele>44.405533</ele>
        <time>2022-05-31T10:39:58.556Z</time>
      </trkpt>
      <trkpt lat="42.45011" lon="18.65044">
        <ele>44.317273</ele>
        <time>2022-05-31T10:40:01.551Z</time>
      </trkpt>
      <trkpt lat="42.45007" lon="18.65029">
        <ele>44.225377</ele>
        <time>2022-05-31T10:40:04.551Z</time>
      </trkpt>
      <trkpt lat="42.45003" lon="18.65015">
        <ele>44.137381</ele>
        <time>2022-05-31T10:40:07.587Z</time>
      </trkpt>
      <trkpt lat="42.44999" lon="18.65003">
        <ele>44.061997</ele>
        <time>2022-05-31T10:40:25.557Z</time>
      </trkpt>
      <trkpt lat="42.44994" lon="18.64992">
        <ele>43.983086</ele>
        <time>2022-05-31T10:40:32.548Z</time>
      </trkpt>
      <trkpt lat="42.44989" lon="18.64978">
        <ele>43.893466</ele>
        <time>2022-05-31T10:40:36.549Z</time>
      </trkpt>
      <trkpt lat="42.44985" lon="18.64965">
        <ele>43.810821</ele>
        <time>2022-05-31T10:40:40.549Z</time>
      </trkpt>
      <trkpt lat="42.44981" lon="18.64951">
        <ele>43.721731</ele>
        <time>2022-05-31T10:40:44.555Z</time>
      </trkpt>
      <trkpt lat="42.44977" lon="18.64939">
        <ele>43.64422</ele>
        <time>2022-05-31T10:40:47.551Z</time>
      </trkpt>
      <trkpt lat="42.44972" lon="18.64926">
        <ele>43.563225</ele>
        <time>2022-05-31T10:40:50.537Z</time>
      </trkpt>
      <trkpt lat="42.44968" lon="18.64915">
        <ele>43.485889</ele>
        <time>2022-05-31T10:40:53.561Z</time>
      </trkpt>
      <trkpt lat="42.44962" lon="18.64901">
        <ele>43.390757</ele>
        <time>2022-05-31T10:40:57.549Z</time>
      </trkpt>
      <trkpt lat="42.44958" lon="18.64889">
        <ele>43.315367</ele>
        <time>2022-05-31T10:41:02.544Z</time>
      </trkpt>
      <trkpt lat="42.44953" lon="18.64877">
        <ele>43.233568</ele>
        <time>2022-05-31T10:41:07.559Z</time>
      </trkpt>
      <trkpt lat="42.44949" lon="18.64864">
        <ele>43.152091</ele>
        <time>2022-05-31T10:41:10.576Z</time>
      </trkpt>
      <trkpt lat="42.44944" lon="18.64851">
        <ele>43.086479</ele>
        <time>2022-05-31T10:41:13.574Z</time>
      </trkpt>
      <trkpt lat="42.44939" lon="18.64839">
        <ele>43.047499</ele>
        <time>2022-05-31T10:41:16.580Z</time>
      </trkpt>
      <trkpt lat="42.44934" lon="18.64826">
        <ele>43.007809</ele>
        <time>2022-05-31T10:41:19.562Z</time>
      </trkpt>
      <trkpt lat="42.44928" lon="18.64813">
        <ele>42.966513</ele>
        <time>2022-05-31T10:41:22.597Z</time>
      </trkpt>
      <trkpt lat="42.44921" lon="18.648">
        <ele>42.924092</ele>
        <time>2022-05-31T10:41:25.558Z</time>
      </trkpt>
      <trkpt lat="42.44916" lon="18.64786">
        <ele>42.88056</ele>
        <time>2022-05-31T10:41:28.587Z</time>
      </trkpt>
      <trkpt lat="42.4491" lon="18.64773">
        <ele>42.840522</ele>
        <time>2022-05-31T10:41:31.550Z</time>
      </trkpt>
      <trkpt lat="42.44903" lon="18.64761">
        <ele>42.799657</ele>
        <time>2022-05-31T10:41:34.509Z</time>
      </trkpt>
      <trkpt lat="42.44895" lon="18.6475">
        <ele>42.75781</ele>
        <time>2022-05-31T10:41:37.553Z</time>
      </trkpt>
      <trkpt lat="42.44887" lon="18.64738">
        <ele>42.715526</ele>
        <time>2022-05-31T10:41:40.546Z</time>
      </trkpt>
      <trkpt lat="42.44878" lon="18.64727">
        <ele>42.670726</ele>
        <time>2022-05-31T10:41:43.569Z</time>
      </trkpt>
      <trkpt lat="42.44869" lon="18.64716">
        <ele>42.62719</ele>
        <time>2022-05-31T10:41:46.550Z</time>
      </trkpt>
      <trkpt lat="42.44861" lon="18.64706">
        <ele>42.585725</ele>
        <time>2022-05-31T10:41:49.524Z</time>
      </trkpt>
      <trkpt lat="42.44853" lon="18.64695">
        <ele>42.545412</ele>
        <time>2022-05-31T10:41:52.567Z</time>
      </trkpt>
      <trkpt lat="42.44847" lon="18.64685">
        <ele>42.509631</ele>
        <time>2022-05-31T10:41:55.538Z</time>
      </trkpt>
      <trkpt lat="42.4484" lon="18.64676">
        <ele>42.473894</ele>
        <time>2022-05-31T10:41:58.563Z</time>
      </trkpt>
      <trkpt lat="42.44834" lon="18.64663">
        <ele>42.434761</ele>
        <time>2022-05-31T10:42:01.557Z</time>
      </trkpt>
      <trkpt lat="42.44829" lon="18.64648">
        <ele>42.397013</ele>
        <time>2022-05-31T10:42:04.541Z</time>
      </trkpt>
      <trkpt lat="42.44824" lon="18.64631">
        <ele>42.355614</ele>
        <time>2022-05-31T10:42:07.579Z</time>
      </trkpt>
      <trkpt lat="42.4482" lon="18.64614">
        <ele>42.315198</ele>
        <time>2022-05-31T10:42:10.542Z</time>
      </trkpt>
      <trkpt lat="42.44815" lon="18.64599">
        <ele>42.277447</ele>
        <time>2022-05-31T10:42:13.531Z</time>
      </trkpt>
      <trkpt lat="42.44811" lon="18.64584">
        <ele>42.242149</ele>
        <time>2022-05-31T10:42:16.550Z</time>
      </trkpt>
      <trkpt lat="42.44806" lon="18.64569">
        <ele>42.203651</ele>
        <time>2022-05-31T10:42:19.553Z</time>
      </trkpt>
      <trkpt lat="42.448" lon="18.64553">
        <ele>42.162772</ele>
        <time>2022-05-31T10:42:22.549Z</time>
      </trkpt>
      <trkpt lat="42.44793" lon="18.64539">
        <ele>42.124344</ele>
        <time>2022-05-31T10:42:25.613Z</time>
      </trkpt>
      <trkpt lat="42.44786" lon="18.64525">
        <ele>42.085164</ele>
        <time>2022-05-31T10:42:28.589Z</time>
      </trkpt>
      <trkpt lat="42.44778" lon="18.6451">
        <ele>42.045263</ele>
        <time>2022-05-31T10:42:31.572Z</time>
      </trkpt>
      <trkpt lat="42.44771" lon="18.64495">
        <ele>42.003913</ele>
        <time>2022-05-31T10:42:34.597Z</time>
      </trkpt>
      <trkpt lat="42.44763" lon="18.64481">
        <ele>41.963488</ele>
        <time>2022-05-31T10:42:37.548Z</time>
      </trkpt>
      <trkpt lat="42.44755" lon="18.64467">
        <ele>41.923607</ele>
        <time>2022-05-31T10:42:40.557Z</time>
      </trkpt>
      <trkpt lat="42.44749" lon="18.64453">
        <ele>41.89445</ele>
        <time>2022-05-31T10:42:43.550Z</time>
      </trkpt>
      <trkpt lat="42.44741" lon="18.64439">
        <ele>41.973907</ele>
        <time>2022-05-31T10:42:46.565Z</time>
      </trkpt>
      <trkpt lat="42.44736" lon="18.64429">
        <ele>42.029929</ele>
        <time>2022-05-31T10:42:48.550Z</time>
      </trkpt>
      <trkpt lat="42.44728" lon="18.64417">
        <ele>42.103532</ele>
        <time>2022-05-31T10:42:51.590Z</time>
      </trkpt>
      <trkpt lat="42.4472" lon="18.64404">
        <ele>42.181218</ele>
        <time>2022-05-31T10:42:54.543Z</time>
      </trkpt>
      <trkpt lat="42.44714" lon="18.64394">
        <ele>42.238931</ele>
        <time>2022-05-31T10:42:56.552Z</time>
      </trkpt>
      <trkpt lat="42.44705" lon="18.64381">
        <ele>42.322273</ele>
        <time>2022-05-31T10:42:59.536Z</time>
      </trkpt>
      <trkpt lat="42.447" lon="18.6437">
        <ele>42.377449</ele>
        <time>2022-05-31T10:43:01.566Z</time>
      </trkpt>
      <trkpt lat="42.44695" lon="18.6436">
        <ele>42.43327</ele>
        <time>2022-05-31T10:43:03.538Z</time>
      </trkpt>
      <trkpt lat="42.44687" lon="18.64347">
        <ele>42.50979</ele>
        <time>2022-05-31T10:43:06.555Z</time>
      </trkpt>
      <trkpt lat="42.44679" lon="18.64335">
        <ele>42.584632</ele>
        <time>2022-05-31T10:43:09.537Z</time>
      </trkpt>
      <trkpt lat="42.44671" lon="18.64321">
        <ele>42.665295</ele>
        <time>2022-05-31T10:43:12.545Z</time>
      </trkpt>
      <trkpt lat="42.44663" lon="18.64308">
        <ele>42.741745</ele>
        <time>2022-05-31T10:43:15.544Z</time>
      </trkpt>
      <trkpt lat="42.44657" lon="18.64299">
        <ele>42.798949</ele>
        <time>2022-05-31T10:43:17.575Z</time>
      </trkpt>
      <trkpt lat="42.44651" lon="18.64289">
        <ele>42.854708</ele>
        <time>2022-05-31T10:43:19.586Z</time>
      </trkpt>
      <trkpt lat="42.44642" lon="18.64276">
        <ele>42.937208</ele>
        <time>2022-05-31T10:43:22.560Z</time>
      </trkpt>
      <trkpt lat="42.44636" lon="18.64267">
        <ele>42.993766</ele>
        <time>2022-05-31T10:43:24.572Z</time>
      </trkpt>
      <trkpt lat="42.4463" lon="18.64258">
        <ele>43.010844</ele>
        <time>2022-05-31T10:43:26.536Z</time>
      </trkpt>
      <trkpt lat="42.44621" lon="18.64245">
        <ele>43.030842</ele>
        <time>2022-05-31T10:43:29.554Z</time>
      </trkpt>
      <trkpt lat="42.44615" lon="18.64235">
        <ele>43.0443</ele>
        <time>2022-05-31T10:43:31.540Z</time>
      </trkpt>
      <trkpt lat="42.44609" lon="18.64226">
        <ele>43.0576</ele>
        <time>2022-05-31T10:43:33.564Z</time>
      </trkpt>
      <trkpt lat="42.44601" lon="18.64212">
        <ele>43.077273</ele>
        <time>2022-05-31T10:43:36.573Z</time>
      </trkpt>
      <trkpt lat="42.44593" lon="18.64199">
        <ele>43.096211</ele>
        <time>2022-05-31T10:43:39.542Z</time>
      </trkpt>
      <trkpt lat="42.44585" lon="18.64185">
        <ele>43.114799</ele>
        <time>2022-05-31T10:43:42.582Z</time>
      </trkpt>
      <trkpt lat="42.44577" lon="18.64172">
        <ele>43.13368</ele>
        <time>2022-05-31T10:43:45.537Z</time>
      </trkpt>
      <trkpt lat="42.44568" lon="18.64158">
        <ele>43.153334</ele>
        <time>2022-05-31T10:43:48.551Z</time>
      </trkpt>
      <trkpt lat="42.4456" lon="18.64144">
        <ele>43.173588</ele>
        <time>2022-05-31T10:43:51.536Z</time>
      </trkpt>
      <trkpt lat="42.44551" lon="18.64131">
        <ele>43.193101</ele>
        <time>2022-05-31T10:43:54.549Z</time>
      </trkpt>
      <trkpt lat="42.44542" lon="18.64119">
        <ele>43.212153</ele>
        <time>2022-05-31T10:43:57.537Z</time>
      </trkpt>
      <trkpt lat="42.44533" lon="18.64109">
        <ele>43.229515</ele>
        <time>2022-05-31T10:44:00.536Z</time>
      </trkpt>
      <trkpt lat="42.44525" lon="18.64102">
        <ele>43.24382</ele>
        <time>2022-05-31T10:44:02.534Z</time>
      </trkpt>
      <trkpt lat="42.44517" lon="18.64094">
        <ele>43.25776</ele>
        <time>2022-05-31T10:44:04.551Z</time>
      </trkpt>
      <trkpt lat="42.4451" lon="18.64086">
        <ele>43.291366</ele>
        <time>2022-05-31T10:44:06.533Z</time>
      </trkpt>
      <trkpt lat="42.44504" lon="18.64076">
        <ele>43.356738</ele>
        <time>2022-05-31T10:44:08.538Z</time>
      </trkpt>
      <trkpt lat="42.44499" lon="18.64067">
        <ele>43.421612</ele>
        <time>2022-05-31T10:44:10.580Z</time>
      </trkpt>
      <trkpt lat="42.44493" lon="18.64057">
        <ele>43.486133</ele>
        <time>2022-05-31T10:44:12.528Z</time>
      </trkpt>
      <trkpt lat="42.44485" lon="18.64042">
        <ele>43.580284</ele>
        <time>2022-05-31T10:44:15.548Z</time>
      </trkpt>
      <trkpt lat="42.44478" lon="18.64029">
        <ele>43.66268</ele>
        <time>2022-05-31T10:44:18.559Z</time>
      </trkpt>
      <trkpt lat="42.44471" lon="18.64018">
        <ele>43.740982</ele>
        <time>2022-05-31T10:44:21.538Z</time>
      </trkpt>
      <trkpt lat="42.44463" lon="18.64006">
        <ele>43.827117</ele>
        <time>2022-05-31T10:44:24.581Z</time>
      </trkpt>
      <trkpt lat="42.44455" lon="18.63992">
        <ele>43.916175</ele>
        <time>2022-05-31T10:44:27.553Z</time>
      </trkpt>
      <trkpt lat="42.44447" lon="18.63978">
        <ele>44.007482</ele>
        <time>2022-05-31T10:44:30.536Z</time>
      </trkpt>
      <trkpt lat="42.44439" lon="18.63964">
        <ele>44.101569</ele>
        <time>2022-05-31T10:44:33.541Z</time>
      </trkpt>
      <trkpt lat="42.44433" lon="18.63954">
        <ele>44.165597</ele>
        <time>2022-05-31T10:44:35.546Z</time>
      </trkpt>
      <trkpt lat="42.44425" lon="18.6394">
        <ele>44.256328</ele>
        <time>2022-05-31T10:44:38.554Z</time>
      </trkpt>
      <trkpt lat="42.44417" lon="18.63926">
        <ele>44.348771</ele>
        <time>2022-05-31T10:44:41.547Z</time>
      </trkpt>
      <trkpt lat="42.4441" lon="18.63912">
        <ele>44.442465</ele>
        <time>2022-05-31T10:44:44.547Z</time>
      </trkpt>
      <trkpt lat="42.44406" lon="18.63901">
        <ele>44.506188</ele>
        <time>2022-05-31T10:44:46.564Z</time>
      </trkpt>
      <trkpt lat="42.44403" lon="18.63888">
        <ele>44.542437</ele>
        <time>2022-05-31T10:44:48.536Z</time>
      </trkpt>
      <trkpt lat="42.444" lon="18.63876">
        <ele>44.557554</ele>
        <time>2022-05-31T10:44:50.535Z</time>
      </trkpt>
      <trkpt lat="42.44397" lon="18.6386">
        <ele>44.578708</ele>
        <time>2022-05-31T10:44:53.557Z</time>
      </trkpt>
      <trkpt lat="42.44394" lon="18.63843">
        <ele>44.600155</ele>
        <time>2022-05-31T10:44:56.575Z</time>
      </trkpt>
      <trkpt lat="42.4439" lon="18.63828">
        <ele>44.619431</ele>
        <time>2022-05-31T10:44:59.560Z</time>
      </trkpt>
      <trkpt lat="42.44384" lon="18.63813">
        <ele>44.639969</ele>
        <time>2022-05-31T10:45:02.597Z</time>
      </trkpt>
      <trkpt lat="42.44378" lon="18.63797">
        <ele>44.661927</ele>
        <time>2022-05-31T10:45:05.543Z</time>
      </trkpt>
      <trkpt lat="42.44373" lon="18.63781">
        <ele>44.682787</ele>
        <time>2022-05-31T10:45:08.545Z</time>
      </trkpt>
      <trkpt lat="42.44367" lon="18.63764">
        <ele>44.705362</ele>
        <time>2022-05-31T10:45:11.550Z</time>
      </trkpt>
      <trkpt lat="42.44361" lon="18.63749">
        <ele>44.726911</ele>
        <time>2022-05-31T10:45:14.547Z</time>
      </trkpt>
      <trkpt lat="42.44356" lon="18.63736">
        <ele>44.74457</ele>
        <time>2022-05-31T10:45:17.551Z</time>
      </trkpt>
      <trkpt lat="42.4435" lon="18.63724">
        <ele>44.762559</ele>
        <time>2022-05-31T10:45:20.570Z</time>
      </trkpt>
      <trkpt lat="42.44345" lon="18.63709">
        <ele>44.782337</ele>
        <time>2022-05-31T10:45:23.544Z</time>
      </trkpt>
      <trkpt lat="42.44341" lon="18.63697">
        <ele>44.798123</ele>
        <time>2022-05-31T10:45:26.549Z</time>
      </trkpt>
      <trkpt lat="42.44338" lon="18.63683">
        <ele>44.815711</ele>
        <time>2022-05-31T10:45:30.581Z</time>
      </trkpt>
      <trkpt lat="42.44335" lon="18.63667">
        <ele>44.774984</ele>
        <time>2022-05-31T10:45:34.587Z</time>
      </trkpt>
      <trkpt lat="42.44332" lon="18.63653">
        <ele>44.581646</ele>
        <time>2022-05-31T10:45:37.569Z</time>
      </trkpt>
      <trkpt lat="42.44328" lon="18.63638">
        <ele>44.383907</ele>
        <time>2022-05-31T10:45:40.542Z</time>
      </trkpt>
      <trkpt lat="42.44325" lon="18.63623">
        <ele>44.198434</ele>
        <time>2022-05-31T10:45:43.556Z</time>
      </trkpt>
      <trkpt lat="42.44323" lon="18.6361">
        <ele>44.024248</ele>
        <time>2022-05-31T10:45:46.550Z</time>
      </trkpt>
      <trkpt lat="42.44323" lon="18.63596">
        <ele>43.847355</ele>
        <time>2022-05-31T10:45:49.549Z</time>
      </trkpt>
      <trkpt lat="42.44321" lon="18.63582">
        <ele>43.670723</ele>
        <time>2022-05-31T10:45:52.545Z</time>
      </trkpt>
      <trkpt lat="42.44316" lon="18.63567">
        <ele>43.475834</ele>
        <time>2022-05-31T10:45:56.547Z</time>
      </trkpt>
      <trkpt lat="42.44311" lon="18.63555">
        <ele>43.295676</ele>
        <time>2022-05-31T10:46:01.578Z</time>
      </trkpt>
      <trkpt lat="42.44309" lon="18.63543">
        <ele>43.142494</ele>
        <time>2022-05-31T10:46:05.531Z</time>
      </trkpt>
      <trkpt lat="42.44304" lon="18.63533">
        <ele>42.985689</ele>
        <time>2022-05-31T10:46:08.534Z</time>
      </trkpt>
      <trkpt lat="42.44299" lon="18.63519">
        <ele>42.795208</ele>
        <time>2022-05-31T10:46:11.558Z</time>
      </trkpt>
      <trkpt lat="42.44297" lon="18.63502">
        <ele>42.5847</ele>
        <time>2022-05-31T10:46:14.549Z</time>
      </trkpt>
      <trkpt lat="42.44298" lon="18.63485">
        <ele>42.363269</ele>
        <time>2022-05-31T10:46:17.555Z</time>
      </trkpt>
      <trkpt lat="42.44299" lon="18.63467">
        <ele>42.143088</ele>
        <time>2022-05-31T10:46:20.540Z</time>
      </trkpt>
      <trkpt lat="42.443" lon="18.63449">
        <ele>41.912019</ele>
        <time>2022-05-31T10:46:23.556Z</time>
      </trkpt>
      <trkpt lat="42.44297" lon="18.63431">
        <ele>41.787314</ele>
        <time>2022-05-31T10:46:26.561Z</time>
      </trkpt>
      <trkpt lat="42.44294" lon="18.63419">
        <ele>41.808629</ele>
        <time>2022-05-31T10:46:28.554Z</time>
      </trkpt>
      <trkpt lat="42.44289" lon="18.63404">
        <ele>41.837656</ele>
        <time>2022-05-31T10:46:31.543Z</time>
      </trkpt>
      <trkpt lat="42.4428" lon="18.6339">
        <ele>41.868631</ele>
        <time>2022-05-31T10:46:34.553Z</time>
      </trkpt>
      <trkpt lat="42.44272" lon="18.63378">
        <ele>41.898557</ele>
        <time>2022-05-31T10:46:37.552Z</time>
      </trkpt>
      <trkpt lat="42.44263" lon="18.63364">
        <ele>41.929147</ele>
        <time>2022-05-31T10:46:40.526Z</time>
      </trkpt>
      <trkpt lat="42.44255" lon="18.63351">
        <ele>41.95947</ele>
        <time>2022-05-31T10:46:43.560Z</time>
      </trkpt>
      <trkpt lat="42.44246" lon="18.63339">
        <ele>41.987097</ele>
        <time>2022-05-31T10:46:46.537Z</time>
      </trkpt>
      <trkpt lat="42.44238" lon="18.6333">
        <ele>42.012882</ele>
        <time>2022-05-31T10:46:49.584Z</time>
      </trkpt>
      <trkpt lat="42.44229" lon="18.63322">
        <ele>42.036804</ele>
        <time>2022-05-31T10:46:52.554Z</time>
      </trkpt>
      <trkpt lat="42.44222" lon="18.63314">
        <ele>42.057958</ele>
        <time>2022-05-31T10:46:55.546Z</time>
      </trkpt>
      <trkpt lat="42.44215" lon="18.63305">
        <ele>42.081175</ele>
        <time>2022-05-31T10:46:58.629Z</time>
      </trkpt>
      <trkpt lat="42.44206" lon="18.63294">
        <ele>42.109001</ele>
        <time>2022-05-31T10:47:01.591Z</time>
      </trkpt>
      <trkpt lat="42.44199" lon="18.6328">
        <ele>42.137229</ele>
        <time>2022-05-31T10:47:04.550Z</time>
      </trkpt>
      <trkpt lat="42.44194" lon="18.63265">
        <ele>42.166139</ele>
        <time>2022-05-31T10:47:07.546Z</time>
      </trkpt>
      <trkpt lat="42.4419" lon="18.63249">
        <ele>42.194403</ele>
        <time>2022-05-31T10:47:10.537Z</time>
      </trkpt>
      <trkpt lat="42.44185" lon="18.63235">
        <ele>42.20169</ele>
        <time>2022-05-31T10:47:13.549Z</time>
      </trkpt>
      <trkpt lat="42.44177" lon="18.63224">
        <ele>42.208517</ele>
        <time>2022-05-31T10:47:17.586Z</time>
      </trkpt>
      <trkpt lat="42.44162" lon="18.63208">
        <ele>42.221024</ele>
        <time>2022-05-31T11:21:56.557Z</time>
      </trkpt>
      <trkpt lat="42.44152" lon="18.63201">
        <ele>42.227817</ele>
        <time>2022-05-31T11:22:01.546Z</time>
      </trkpt>
      <trkpt lat="42.44142" lon="18.63196">
        <ele>42.234846</ele>
        <time>2022-05-31T11:22:05.547Z</time>
      </trkpt>
      <trkpt lat="42.44133" lon="18.63192">
        <ele>42.240561</ele>
        <time>2022-05-31T11:22:08.552Z</time>
      </trkpt>
      <trkpt lat="42.44123" lon="18.63184">
        <ele>42.24784</ele>
        <time>2022-05-31T11:22:12.548Z</time>
      </trkpt>
      <trkpt lat="42.44116" lon="18.63174">
        <ele>42.254402</ele>
        <time>2022-05-31T11:22:16.566Z</time>
      </trkpt>
      <trkpt lat="42.44111" lon="18.63163">
        <ele>42.260262</ele>
        <time>2022-05-31T11:22:20.536Z</time>
      </trkpt>
      <trkpt lat="42.44108" lon="18.63148">
        <ele>42.267574</ele>
        <time>2022-05-31T11:22:24.541Z</time>
      </trkpt>
      <trkpt lat="42.44107" lon="18.63133">
        <ele>42.274402</ele>
        <time>2022-05-31T11:22:28.536Z</time>
      </trkpt>
      <trkpt lat="42.44107" lon="18.63118">
        <ele>42.281375</ele>
        <time>2022-05-31T11:22:31.545Z</time>
      </trkpt>
      <trkpt lat="42.44109" lon="18.63103">
        <ele>42.288595</ele>
        <time>2022-05-31T11:22:34.544Z</time>
      </trkpt>
      <trkpt lat="42.44111" lon="18.63088">
        <ele>42.295531</ele>
        <time>2022-05-31T11:22:37.533Z</time>
      </trkpt>
      <trkpt lat="42.44113" lon="18.63074">
        <ele>42.302126</ele>
        <time>2022-05-31T11:22:40.541Z</time>
      </trkpt>
      <trkpt lat="42.44114" lon="18.63061">
        <ele>42.315923</ele>
        <time>2022-05-31T11:22:43.537Z</time>
      </trkpt>
      <trkpt lat="42.44114" lon="18.63047">
        <ele>42.359829</ele>
        <time>2022-05-31T11:22:46.548Z</time>
      </trkpt>
      <trkpt lat="42.44113" lon="18.63034">
        <ele>42.402325</ele>
        <time>2022-05-31T11:22:49.576Z</time>
      </trkpt>
      <trkpt lat="42.4411" lon="18.63022">
        <ele>42.44694</ele>
        <time>2022-05-31T11:22:52.530Z</time>
      </trkpt>
      <trkpt lat="42.44105" lon="18.63009">
        <ele>42.492985</ele>
        <time>2022-05-31T11:22:56.538Z</time>
      </trkpt>
      <trkpt lat="42.44101" lon="18.62997">
        <ele>42.536021</ele>
        <time>2022-05-31T11:22:59.543Z</time>
      </trkpt>
      <trkpt lat="42.44096" lon="18.62984">
        <ele>42.583206</ele>
        <time>2022-05-31T11:23:02.548Z</time>
      </trkpt>
      <trkpt lat="42.4409" lon="18.62971">
        <ele>42.634311</ele>
        <time>2022-05-31T11:23:05.541Z</time>
      </trkpt>
      <trkpt lat="42.44084" lon="18.62957">
        <ele>42.686786</ele>
        <time>2022-05-31T11:23:08.541Z</time>
      </trkpt>
      <trkpt lat="42.4408" lon="18.62944">
        <ele>42.733594</ele>
        <time>2022-05-31T11:23:11.534Z</time>
      </trkpt>
      <trkpt lat="42.44076" lon="18.62928">
        <ele>42.788027</ele>
        <time>2022-05-31T11:23:14.543Z</time>
      </trkpt>
      <trkpt lat="42.44071" lon="18.62912">
        <ele>42.844908</ele>
        <time>2022-05-31T11:23:17.554Z</time>
      </trkpt>
      <trkpt lat="42.44067" lon="18.62896">
        <ele>42.899844</ele>
        <time>2022-05-31T11:23:20.536Z</time>
      </trkpt>
      <trkpt lat="42.44063" lon="18.62879">
        <ele>42.957058</ele>
        <time>2022-05-31T11:23:23.540Z</time>
      </trkpt>
      <trkpt lat="42.44059" lon="18.62865">
        <ele>43.008114</ele>
        <time>2022-05-31T11:23:26.540Z</time>
      </trkpt>
      <trkpt lat="42.44055" lon="18.6285">
        <ele>43.059783</ele>
        <time>2022-05-31T11:23:29.552Z</time>
      </trkpt>
      <trkpt lat="42.44052" lon="18.62833">
        <ele>43.043601</ele>
        <time>2022-05-31T11:23:32.545Z</time>
      </trkpt>
      <trkpt lat="42.44049" lon="18.62816">
        <ele>42.756625</ele>
        <time>2022-05-31T11:23:35.550Z</time>
      </trkpt>
      <trkpt lat="42.44047" lon="18.62803">
        <ele>42.554295</ele>
        <time>2022-05-31T11:23:37.554Z</time>
      </trkpt>
      <trkpt lat="42.44044" lon="18.62787">
        <ele>42.274677</ele>
        <time>2022-05-31T11:23:40.535Z</time>
      </trkpt>
      <trkpt lat="42.4404" lon="18.62774">
        <ele>42.062454</ele>
        <time>2022-05-31T11:23:43.562Z</time>
      </trkpt>
      <trkpt lat="42.44035" lon="18.62765">
        <ele>41.867596</ele>
        <time>2022-05-31T11:23:46.545Z</time>
      </trkpt>
      <trkpt lat="42.4403" lon="18.62749">
        <ele>41.593896</ele>
        <time>2022-05-31T11:23:49.545Z</time>
      </trkpt>
      <trkpt lat="42.44029" lon="18.62736">
        <ele>41.383233</ele>
        <time>2022-05-31T11:23:51.553Z</time>
      </trkpt>
      <trkpt lat="42.44029" lon="18.62721">
        <ele>41.148886</ele>
        <time>2022-05-31T11:23:53.544Z</time>
      </trkpt>
      <trkpt lat="42.44028" lon="18.62709">
        <ele>40.946208</ele>
        <time>2022-05-31T11:23:55.536Z</time>
      </trkpt>
      <trkpt lat="42.44027" lon="18.62691">
        <ele>40.664538</ele>
        <time>2022-05-31T11:23:58.548Z</time>
      </trkpt>
      <trkpt lat="42.44024" lon="18.62674">
        <ele>40.391871</ele>
        <time>2022-05-31T11:24:01.546Z</time>
      </trkpt>
      <trkpt lat="42.44022" lon="18.62657">
        <ele>40.107776</ele>
        <time>2022-05-31T11:24:04.545Z</time>
      </trkpt>
      <trkpt lat="42.44019" lon="18.62641">
        <ele>39.833802</ele>
        <time>2022-05-31T11:24:07.548Z</time>
      </trkpt>
      <trkpt lat="42.44015" lon="18.62629">
        <ele>39.636082</ele>
        <time>2022-05-31T11:24:09.551Z</time>
      </trkpt>
      <trkpt lat="42.4401" lon="18.62613">
        <ele>39.348955</ele>
        <time>2022-05-31T11:24:12.554Z</time>
      </trkpt>
      <trkpt lat="42.44005" lon="18.62601">
        <ele>39.192672</ele>
        <time>2022-05-31T11:24:14.547Z</time>
      </trkpt>
      <trkpt lat="42.44001" lon="18.62585">
        <ele>39.166755</ele>
        <time>2022-05-31T11:24:17.578Z</time>
      </trkpt>
      <trkpt lat="42.43996" lon="18.6257">
        <ele>39.143205</ele>
        <time>2022-05-31T11:24:20.512Z</time>
      </trkpt>
      <trkpt lat="42.43992" lon="18.62557">
        <ele>39.122273</ele>
        <time>2022-05-31T11:24:23.553Z</time>
      </trkpt>
      <trkpt lat="42.43988" lon="18.6254">
        <ele>39.097314</ele>
        <time>2022-05-31T11:24:26.547Z</time>
      </trkpt>
      <trkpt lat="42.43984" lon="18.62529">
        <ele>39.079246</ele>
        <time>2022-05-31T11:24:28.550Z</time>
      </trkpt>
      <trkpt lat="42.43977" lon="18.62517">
        <ele>39.056164</ele>
        <time>2022-05-31T11:24:31.549Z</time>
      </trkpt>
      <trkpt lat="42.43968" lon="18.62504">
        <ele>39.029682</ele>
        <time>2022-05-31T11:24:34.541Z</time>
      </trkpt>
      <trkpt lat="42.43962" lon="18.62494">
        <ele>39.011329</ele>
        <time>2022-05-31T11:24:36.557Z</time>
      </trkpt>
      <trkpt lat="42.43955" lon="18.62479">
        <ele>38.985096</ele>
        <time>2022-05-31T11:24:39.550Z</time>
      </trkpt>
      <trkpt lat="42.4395" lon="18.62463">
        <ele>38.960157</ele>
        <time>2022-05-31T11:24:42.529Z</time>
      </trkpt>
      <trkpt lat="42.43947" lon="18.62452">
        <ele>38.94233</ele>
        <time>2022-05-31T11:24:45.585Z</time>
      </trkpt>
      <trkpt lat="42.43946" lon="18.62438">
        <ele>38.921514</ele>
        <time>2022-05-31T11:24:49.582Z</time>
      </trkpt>
      <trkpt lat="42.43946" lon="18.62421">
        <ele>38.89652</ele>
        <time>2022-05-31T11:24:52.531Z</time>
      </trkpt>
      <trkpt lat="42.43948" lon="18.62404">
        <ele>38.87159</ele>
        <time>2022-05-31T11:24:55.572Z</time>
      </trkpt>
      <trkpt lat="42.43949" lon="18.6239">
        <ele>38.851141</ele>
        <time>2022-05-31T11:24:58.541Z</time>
      </trkpt>
      <trkpt lat="42.43952" lon="18.62375">
        <ele>38.913954</ele>
        <time>2022-05-31T11:25:01.542Z</time>
      </trkpt>
      <trkpt lat="42.43955" lon="18.6236">
        <ele>39.049055</ele>
        <time>2022-05-31T11:25:04.540Z</time>
      </trkpt>
      <trkpt lat="42.43958" lon="18.62343">
        <ele>39.197373</ele>
        <time>2022-05-31T11:25:07.552Z</time>
      </trkpt>
      <trkpt lat="42.43959" lon="18.6233">
        <ele>39.305367</ele>
        <time>2022-05-31T11:25:09.544Z</time>
      </trkpt>
      <trkpt lat="42.4396" lon="18.62318">
        <ele>39.413715</ele>
        <time>2022-05-31T11:25:11.552Z</time>
      </trkpt>
      <trkpt lat="42.43958" lon="18.62301">
        <ele>39.556509</ele>
        <time>2022-05-31T11:25:14.551Z</time>
      </trkpt>
      <trkpt lat="42.43955" lon="18.62284">
        <ele>39.704087</ele>
        <time>2022-05-31T11:25:17.589Z</time>
      </trkpt>
      <trkpt lat="42.43951" lon="18.62269">
        <ele>39.840507</ele>
        <time>2022-05-31T11:25:20.544Z</time>
      </trkpt>
      <trkpt lat="42.43946" lon="18.62254">
        <ele>39.983215</ele>
        <time>2022-05-31T11:25:23.534Z</time>
      </trkpt>
      <trkpt lat="42.43942" lon="18.62238">
        <ele>40.121994</ele>
        <time>2022-05-31T11:25:26.527Z</time>
      </trkpt>
      <trkpt lat="42.43939" lon="18.62224">
        <ele>40.247056</ele>
        <time>2022-05-31T11:25:29.536Z</time>
      </trkpt>
      <trkpt lat="42.43937" lon="18.62208">
        <ele>40.389082</ele>
        <time>2022-05-31T11:25:32.537Z</time>
      </trkpt>
      <trkpt lat="42.43936" lon="18.62191">
        <ele>40.529858</ele>
        <time>2022-05-31T11:25:35.560Z</time>
      </trkpt>
      <trkpt lat="42.43934" lon="18.62176">
        <ele>40.662898</ele>
        <time>2022-05-31T11:25:38.546Z</time>
      </trkpt>
      <trkpt lat="42.43932" lon="18.62159">
        <ele>40.806713</ele>
        <time>2022-05-31T11:25:41.538Z</time>
      </trkpt>
      <trkpt lat="42.43929" lon="18.62142">
        <ele>40.86481</ele>
        <time>2022-05-31T11:25:44.551Z</time>
      </trkpt>
      <trkpt lat="42.43927" lon="18.6213">
        <ele>40.730375</ele>
        <time>2022-05-31T11:25:46.547Z</time>
      </trkpt>
      <trkpt lat="42.43925" lon="18.62118">
        <ele>40.594039</ele>
        <time>2022-05-31T11:25:48.534Z</time>
      </trkpt>
      <trkpt lat="42.43921" lon="18.62106">
        <ele>40.458829</ele>
        <time>2022-05-31T11:25:50.532Z</time>
      </trkpt>
      <trkpt lat="42.43918" lon="18.62094">
        <ele>40.325624</ele>
        <time>2022-05-31T11:25:52.552Z</time>
      </trkpt>
      <trkpt lat="42.43914" lon="18.62083">
        <ele>40.193618</ele>
        <time>2022-05-31T11:25:54.544Z</time>
      </trkpt>
      <trkpt lat="42.43909" lon="18.62072">
        <ele>40.060083</ele>
        <time>2022-05-31T11:25:56.544Z</time>
      </trkpt>
      <trkpt lat="42.43904" lon="18.62061">
        <ele>39.925397</ele>
        <time>2022-05-31T11:25:58.547Z</time>
      </trkpt>
      <trkpt lat="42.43899" lon="18.62051">
        <ele>39.793615</ele>
        <time>2022-05-31T11:26:00.534Z</time>
      </trkpt>
      <trkpt lat="42.43893" lon="18.62042">
        <ele>39.660637</ele>
        <time>2022-05-31T11:26:02.536Z</time>
      </trkpt>
      <trkpt lat="42.43883" lon="18.62029">
        <ele>39.464912</ele>
        <time>2022-05-31T11:26:05.543Z</time>
      </trkpt>
      <trkpt lat="42.43876" lon="18.62021">
        <ele>39.334094</ele>
        <time>2022-05-31T11:26:07.540Z</time>
      </trkpt>
      <trkpt lat="42.4387" lon="18.62012">
        <ele>39.198645</ele>
        <time>2022-05-31T11:26:09.544Z</time>
      </trkpt>
      <trkpt lat="42.43864" lon="18.62002">
        <ele>39.065667</ele>
        <time>2022-05-31T11:26:11.548Z</time>
      </trkpt>
      <trkpt lat="42.43859" lon="18.61987">
        <ele>38.887713</ele>
        <time>2022-05-31T11:26:14.566Z</time>
      </trkpt>
      <trkpt lat="42.43857" lon="18.61974">
        <ele>38.746488</ele>
        <time>2022-05-31T11:26:17.558Z</time>
      </trkpt>
      <trkpt lat="42.43856" lon="18.61961">
        <ele>38.603808</ele>
        <time>2022-05-31T11:26:21.543Z</time>
      </trkpt>
      <trkpt lat="42.43858" lon="18.61947">
        <ele>38.456084</ele>
        <time>2022-05-31T11:26:24.526Z</time>
      </trkpt>
      <trkpt lat="42.43861" lon="18.61933">
        <ele>38.310678</ele>
        <time>2022-05-31T11:26:27.545Z</time>
      </trkpt>
      <trkpt lat="42.43864" lon="18.61917">
        <ele>38.245047</ele>
        <time>2022-05-31T11:26:30.537Z</time>
      </trkpt>
      <trkpt lat="42.43866" lon="18.61901">
        <ele>38.176869</ele>
        <time>2022-05-31T11:26:33.554Z</time>
      </trkpt>
      <trkpt lat="42.43866" lon="18.61884">
        <ele>38.106437</ele>
        <time>2022-05-31T11:26:36.541Z</time>
      </trkpt>
      <trkpt lat="42.43866" lon="18.61866">
        <ele>38.034045</ele>
        <time>2022-05-31T11:26:39.541Z</time>
      </trkpt>
      <trkpt lat="42.43866" lon="18.61851">
        <ele>37.970279</ele>
        <time>2022-05-31T11:26:42.588Z</time>
      </trkpt>
      <trkpt lat="42.43863" lon="18.61838">
        <ele>37.912805</ele>
        <time>2022-05-31T11:26:45.545Z</time>
      </trkpt>
      <trkpt lat="42.43859" lon="18.61823">
        <ele>37.847264</ele>
        <time>2022-05-31T11:26:48.576Z</time>
      </trkpt>
      <trkpt lat="42.43855" lon="18.61805">
        <ele>37.772101</ele>
        <time>2022-05-31T11:26:51.543Z</time>
      </trkpt>
      <trkpt lat="42.43853" lon="18.61788">
        <ele>37.697554</ele>
        <time>2022-05-31T11:26:54.542Z</time>
      </trkpt>
      <trkpt lat="42.43851" lon="18.61775">
        <ele>37.646974</ele>
        <time>2022-05-31T11:26:56.541Z</time>
      </trkpt>
      <trkpt lat="42.43851" lon="18.61763">
        <ele>37.596016</ele>
        <time>2022-05-31T11:26:58.544Z</time>
      </trkpt>
      <trkpt lat="42.43851" lon="18.61747">
        <ele>37.528944</ele>
        <time>2022-05-31T11:27:01.547Z</time>
      </trkpt>
      <trkpt lat="42.43851" lon="18.61732">
        <ele>37.46523</ele>
        <time>2022-05-31T11:27:04.542Z</time>
      </trkpt>
      <trkpt lat="42.43849" lon="18.61714">
        <ele>37.389654</ele>
        <time>2022-05-31T11:27:07.544Z</time>
      </trkpt>
      <trkpt lat="42.43846" lon="18.617">
        <ele>37.33274</ele>
        <time>2022-05-31T11:27:09.550Z</time>
      </trkpt>
      <trkpt lat="42.43841" lon="18.61684">
        <ele>37.531272</ele>
        <time>2022-05-31T11:27:12.536Z</time>
      </trkpt>
      <trkpt lat="42.43837" lon="18.61672">
        <ele>37.752584</ele>
        <time>2022-05-31T11:27:14.535Z</time>
      </trkpt>
      <trkpt lat="42.43833" lon="18.61659">
        <ele>37.972232</ele>
        <time>2022-05-31T11:27:16.572Z</time>
      </trkpt>
      <trkpt lat="42.43831" lon="18.61647">
        <ele>38.182855</ele>
        <time>2022-05-31T11:27:18.551Z</time>
      </trkpt>
      <trkpt lat="42.43829" lon="18.61635">
        <ele>38.392998</ele>
        <time>2022-05-31T11:27:20.565Z</time>
      </trkpt>
      <trkpt lat="42.43828" lon="18.61622">
        <ele>38.602748</ele>
        <time>2022-05-31T11:27:22.550Z</time>
      </trkpt>
      <trkpt lat="42.43828" lon="18.6161">
        <ele>38.806073</ele>
        <time>2022-05-31T11:27:24.536Z</time>
      </trkpt>
      <trkpt lat="42.43829" lon="18.61592">
        <ele>39.103351</ele>
        <time>2022-05-31T11:27:27.573Z</time>
      </trkpt>
      <trkpt lat="42.43832" lon="18.61576">
        <ele>39.393606</ele>
        <time>2022-05-31T11:27:30.536Z</time>
      </trkpt>
      <trkpt lat="42.43835" lon="18.61558">
        <ele>39.694007</ele>
        <time>2022-05-31T11:27:33.588Z</time>
      </trkpt>
      <trkpt lat="42.43838" lon="18.61542">
        <ele>39.971822</ele>
        <time>2022-05-31T11:27:36.548Z</time>
      </trkpt>
      <trkpt lat="42.43841" lon="18.61526">
        <ele>40.245952</ele>
        <time>2022-05-31T11:27:39.544Z</time>
      </trkpt>
      <trkpt lat="42.43842" lon="18.61513">
        <ele>40.461234</ele>
        <time>2022-05-31T11:27:41.549Z</time>
      </trkpt>
      <trkpt lat="42.43842" lon="18.615">
        <ele>40.686272</ele>
        <time>2022-05-31T11:27:43.551Z</time>
      </trkpt>
      <trkpt lat="42.43839" lon="18.61487">
        <ele>40.900742</ele>
        <time>2022-05-31T11:27:45.539Z</time>
      </trkpt>
      <trkpt lat="42.43834" lon="18.61469">
        <ele>41.222815</ele>
        <time>2022-05-31T11:27:48.561Z</time>
      </trkpt>
      <trkpt lat="42.4383" lon="18.61458">
        <ele>41.435498</ele>
        <time>2022-05-31T11:27:50.540Z</time>
      </trkpt>
      <trkpt lat="42.4382" lon="18.61445">
        <ele>41.727932</ele>
        <time>2022-05-31T11:27:53.559Z</time>
      </trkpt>
      <trkpt lat="42.43812" lon="18.61437">
        <ele>41.952122</ele>
        <time>2022-05-31T11:27:55.570Z</time>
      </trkpt>
      <trkpt lat="42.43804" lon="18.61431">
        <ele>42.155978</ele>
        <time>2022-05-31T11:27:57.519Z</time>
      </trkpt>
      <trkpt lat="42.43792" lon="18.61423">
        <ele>42.448758</ele>
        <time>2022-05-31T11:28:00.530Z</time>
      </trkpt>
      <trkpt lat="42.43784" lon="18.61419">
        <ele>42.648923</ele>
        <time>2022-05-31T11:28:02.564Z</time>
      </trkpt>
      <trkpt lat="42.43771" lon="18.61412">
        <ele>42.941401</ele>
        <time>2022-05-31T11:28:05.571Z</time>
      </trkpt>
      <trkpt lat="42.43762" lon="18.61409">
        <ele>43.1427</ele>
        <time>2022-05-31T11:28:08.549Z</time>
      </trkpt>
      <trkpt lat="42.43752" lon="18.61407">
        <ele>43.364407</ele>
        <time>2022-05-31T11:28:12.547Z</time>
      </trkpt>
      <trkpt lat="42.43743" lon="18.61404">
        <ele>43.57843</ele>
        <time>2022-05-31T11:28:15.544Z</time>
      </trkpt>
      <trkpt lat="42.43734" lon="18.614">
        <ele>43.790977</ele>
        <time>2022-05-31T11:28:18.549Z</time>
      </trkpt>
      <trkpt lat="42.43724" lon="18.61393">
        <ele>44.032894</ele>
        <time>2022-05-31T11:28:21.548Z</time>
      </trkpt>
      <trkpt lat="42.43715" lon="18.61385">
        <ele>44.268759</ele>
        <time>2022-05-31T11:28:24.560Z</time>
      </trkpt>
      <trkpt lat="42.43709" lon="18.6137">
        <ele>44.54748</ele>
        <time>2022-05-31T11:28:28.569Z</time>
      </trkpt>
      <trkpt lat="42.43703" lon="18.61354">
        <ele>44.833342</ele>
        <time>2022-05-31T11:28:31.548Z</time>
      </trkpt>
      <trkpt lat="42.43697" lon="18.61339">
        <ele>45.110144</ele>
        <time>2022-05-31T11:28:34.529Z</time>
      </trkpt>
      <trkpt lat="42.43692" lon="18.61324">
        <ele>45.331904</ele>
        <time>2022-05-31T11:28:37.547Z</time>
      </trkpt>
      <trkpt lat="42.43688" lon="18.61309">
        <ele>45.337684</ele>
        <time>2022-05-31T11:28:40.569Z</time>
      </trkpt>
      <trkpt lat="42.43684" lon="18.61294">
        <ele>45.343131</ele>
        <time>2022-05-31T11:28:43.549Z</time>
      </trkpt>
      <trkpt lat="42.43681" lon="18.61282">
        <ele>45.347954</ele>
        <time>2022-05-31T11:28:46.540Z</time>
      </trkpt>
      <trkpt lat="42.43678" lon="18.61269">
        <ele>45.352711</ele>
        <time>2022-05-31T11:28:50.588Z</time>
      </trkpt>
      <trkpt lat="42.43674" lon="18.61257">
        <ele>45.357112</ele>
        <time>2022-05-31T11:28:53.551Z</time>
      </trkpt>
      <trkpt lat="42.4367" lon="18.61245">
        <ele>45.362</ele>
        <time>2022-05-31T11:28:56.545Z</time>
      </trkpt>
      <trkpt lat="42.43665" lon="18.61234">
        <ele>45.366669</ele>
        <time>2022-05-31T11:28:59.545Z</time>
      </trkpt>
      <trkpt lat="42.4366" lon="18.6122">
        <ele>45.371921</ele>
        <time>2022-05-31T11:29:02.548Z</time>
      </trkpt>
      <trkpt lat="42.43658" lon="18.61209">
        <ele>45.376309</ele>
        <time>2022-05-31T11:29:04.564Z</time>
      </trkpt>
      <trkpt lat="42.43656" lon="18.61195">
        <ele>45.381095</ele>
        <time>2022-05-31T11:29:06.550Z</time>
      </trkpt>
      <trkpt lat="42.43655" lon="18.61182">
        <ele>45.385778</ele>
        <time>2022-05-31T11:29:08.539Z</time>
      </trkpt>
      <trkpt lat="42.43653" lon="18.61169">
        <ele>45.390804</ele>
        <time>2022-05-31T11:29:10.534Z</time>
      </trkpt>
      <trkpt lat="42.43651" lon="18.61156">
        <ele>45.395273</ele>
        <time>2022-05-31T11:29:12.541Z</time>
      </trkpt>
      <trkpt lat="42.43647" lon="18.6114">
        <ele>45.401432</ele>
        <time>2022-05-31T11:29:15.550Z</time>
      </trkpt>
      <trkpt lat="42.43642" lon="18.61124">
        <ele>45.407573</ele>
        <time>2022-05-31T11:29:18.559Z</time>
      </trkpt>
      <trkpt lat="42.43638" lon="18.61111">
        <ele>45.412715</ele>
        <time>2022-05-31T11:29:21.545Z</time>
      </trkpt>
      <trkpt lat="42.43633" lon="18.611">
        <ele>45.417259</ele>
        <time>2022-05-31T11:29:24.549Z</time>
      </trkpt>
      <trkpt lat="42.43629" lon="18.61088">
        <ele>45.520102</ele>
        <time>2022-05-31T11:29:26.541Z</time>
      </trkpt>
      <trkpt lat="42.43621" lon="18.61073">
        <ele>45.668943</ele>
        <time>2022-05-31T11:29:29.549Z</time>
      </trkpt>
      <trkpt lat="42.43612" lon="18.6106">
        <ele>45.814501</ele>
        <time>2022-05-31T11:29:32.553Z</time>
      </trkpt>
      <trkpt lat="42.43603" lon="18.61049">
        <ele>45.956825</ele>
        <time>2022-05-31T11:29:35.546Z</time>
      </trkpt>
      <trkpt lat="42.43592" lon="18.61042">
        <ele>46.093595</ele>
        <time>2022-05-31T11:29:38.532Z</time>
      </trkpt>
      <trkpt lat="42.4358" lon="18.61033">
        <ele>46.242603</ele>
        <time>2022-05-31T11:29:41.534Z</time>
      </trkpt>
      <trkpt lat="42.4357" lon="18.61022">
        <ele>46.392658</ele>
        <time>2022-05-31T11:29:44.538Z</time>
      </trkpt>
      <trkpt lat="42.43562" lon="18.61015">
        <ele>46.494624</ele>
        <time>2022-05-31T11:29:46.567Z</time>
      </trkpt>
      <trkpt lat="42.43551" lon="18.61007">
        <ele>46.63671</ele>
        <time>2022-05-31T11:29:49.541Z</time>
      </trkpt>
      <trkpt lat="42.4354" lon="18.61">
        <ele>46.777373</ele>
        <time>2022-05-31T11:29:52.565Z</time>
      </trkpt>
      <trkpt lat="42.43531" lon="18.6099">
        <ele>46.905919</ele>
        <time>2022-05-31T11:29:55.548Z</time>
      </trkpt>
      <trkpt lat="42.43527" lon="18.60977">
        <ele>47.01956</ele>
        <time>2022-05-31T11:29:57.550Z</time>
      </trkpt>
      <trkpt lat="42.43525" lon="18.6096">
        <ele>47.162995</ele>
        <time>2022-05-31T11:30:00.546Z</time>
      </trkpt>
      <trkpt lat="42.43525" lon="18.60946">
        <ele>47.280912</ele>
        <time>2022-05-31T11:30:03.566Z</time>
      </trkpt>
      <trkpt lat="42.43524" lon="18.60929">
        <ele>47.41926</ele>
        <time>2022-05-31T11:30:06.549Z</time>
      </trkpt>
      <trkpt lat="42.43523" lon="18.60911">
        <ele>47.64337</ele>
        <time>2022-05-31T11:30:09.560Z</time>
      </trkpt>
      <trkpt lat="42.43522" lon="18.60899">
        <ele>47.806903</ele>
        <time>2022-05-31T11:30:11.541Z</time>
      </trkpt>
      <trkpt lat="42.43521" lon="18.60881">
        <ele>48.042102</ele>
        <time>2022-05-31T11:30:14.547Z</time>
      </trkpt>
      <trkpt lat="42.43521" lon="18.60866">
        <ele>48.227176</ele>
        <time>2022-05-31T11:30:17.546Z</time>
      </trkpt>
      <trkpt lat="42.43518" lon="18.6085">
        <ele>48.439212</ele>
        <time>2022-05-31T11:30:23.544Z</time>
      </trkpt>
      <trkpt lat="42.43516" lon="18.60836">
        <ele>48.628265</ele>
        <time>2022-05-31T11:30:26.570Z</time>
      </trkpt>
      <trkpt lat="42.43513" lon="18.6082">
        <ele>48.840666</ele>
        <time>2022-05-31T11:30:29.547Z</time>
      </trkpt>
      <trkpt lat="42.4351" lon="18.60805">
        <ele>49.041804</ele>
        <time>2022-05-31T11:30:32.549Z</time>
      </trkpt>
      <trkpt lat="42.43508" lon="18.60793">
        <ele>49.210127</ele>
        <time>2022-05-31T11:30:35.545Z</time>
      </trkpt>
      <trkpt lat="42.43506" lon="18.6078">
        <ele>49.374347</ele>
        <time>2022-05-31T11:30:39.543Z</time>
      </trkpt>
      <trkpt lat="42.43502" lon="18.60768">
        <ele>49.546164</ele>
        <time>2022-05-31T11:30:42.541Z</time>
      </trkpt>
      <trkpt lat="42.43499" lon="18.60753">
        <ele>49.74484</ele>
        <time>2022-05-31T11:30:45.548Z</time>
      </trkpt>
      <trkpt lat="42.43498" lon="18.60737">
        <ele>49.960397</ele>
        <time>2022-05-31T11:30:48.545Z</time>
      </trkpt>
      <trkpt lat="42.43497" lon="18.60721">
        <ele>50.16064</ele>
        <time>2022-05-31T11:30:51.551Z</time>
      </trkpt>
      <trkpt lat="42.43498" lon="18.60703">
        <ele>50.394714</ele>
        <time>2022-05-31T11:30:54.543Z</time>
      </trkpt>
      <trkpt lat="42.43501" lon="18.60691">
        <ele>50.565533</ele>
        <time>2022-05-31T11:30:56.549Z</time>
      </trkpt>
      <trkpt lat="42.43506" lon="18.60674">
        <ele>50.350814</ele>
        <time>2022-05-31T11:30:59.541Z</time>
      </trkpt>
      <trkpt lat="42.43512" lon="18.60659">
        <ele>50.10046</ele>
        <time>2022-05-31T11:31:02.540Z</time>
      </trkpt>
      <trkpt lat="42.43515" lon="18.60644">
        <ele>49.858774</ele>
        <time>2022-05-31T11:31:05.552Z</time>
      </trkpt>
      <trkpt lat="42.43517" lon="18.60628">
        <ele>49.614101</ele>
        <time>2022-05-31T11:31:08.543Z</time>
      </trkpt>
      <trkpt lat="42.43516" lon="18.60612">
        <ele>49.368248</ele>
        <time>2022-05-31T11:31:11.536Z</time>
      </trkpt>
      <trkpt lat="42.43512" lon="18.60599">
        <ele>49.146643</ele>
        <time>2022-05-31T11:31:14.546Z</time>
      </trkpt>
      <trkpt lat="42.43507" lon="18.60584">
        <ele>48.901626</ele>
        <time>2022-05-31T11:31:17.541Z</time>
      </trkpt>
      <trkpt lat="42.435" lon="18.60572">
        <ele>48.671005</ele>
        <time>2022-05-31T11:31:20.530Z</time>
      </trkpt>
      <trkpt lat="42.43491" lon="18.6056">
        <ele>48.409682</ele>
        <time>2022-05-31T11:31:23.584Z</time>
      </trkpt>
      <trkpt lat="42.43485" lon="18.60543">
        <ele>48.138433</ele>
        <time>2022-05-31T11:31:26.555Z</time>
      </trkpt>
      <trkpt lat="42.43487" lon="18.60528">
        <ele>47.903407</ele>
        <time>2022-05-31T11:31:29.619Z</time>
      </trkpt>
      <trkpt lat="42.43489" lon="18.60511">
        <ele>47.6348</ele>
        <time>2022-05-31T11:31:32.531Z</time>
      </trkpt>
      <trkpt lat="42.43492" lon="18.60494">
        <ele>47.372237</ele>
        <time>2022-05-31T11:31:35.538Z</time>
      </trkpt>
      <trkpt lat="42.43496" lon="18.6048">
        <ele>47.144079</ele>
        <time>2022-05-31T11:31:38.547Z</time>
      </trkpt>
      <trkpt lat="42.43504" lon="18.60469">
        <ele>46.920739</ele>
        <time>2022-05-31T11:31:41.537Z</time>
      </trkpt>
      <trkpt lat="42.4351" lon="18.60456">
        <ele>47.010619</ele>
        <time>2022-05-31T11:31:44.556Z</time>
      </trkpt>
      <trkpt lat="42.43513" lon="18.6044">
        <ele>47.142139</ele>
        <time>2022-05-31T11:31:47.575Z</time>
      </trkpt>
      <trkpt lat="42.43513" lon="18.60424">
        <ele>47.280626</ele>
        <time>2022-05-31T11:31:50.567Z</time>
      </trkpt>
      <trkpt lat="42.43513" lon="18.60406">
        <ele>47.42498</ele>
        <time>2022-05-31T11:31:53.543Z</time>
      </trkpt>
      <trkpt lat="42.43513" lon="18.60389">
        <ele>47.567613</ele>
        <time>2022-05-31T11:31:56.542Z</time>
      </trkpt>
      <trkpt lat="42.43513" lon="18.60377">
        <ele>47.672753</ele>
        <time>2022-05-31T11:31:58.566Z</time>
      </trkpt>
      <trkpt lat="42.43513" lon="18.60364">
        <ele>47.77701</ele>
        <time>2022-05-31T11:32:00.529Z</time>
      </trkpt>
      <trkpt lat="42.43512" lon="18.60352">
        <ele>47.878436</ele>
        <time>2022-05-31T11:32:02.594Z</time>
      </trkpt>
      <trkpt lat="42.43511" lon="18.6034">
        <ele>47.980691</ele>
        <time>2022-05-31T11:32:04.562Z</time>
      </trkpt>
      <trkpt lat="42.4351" lon="18.60328">
        <ele>48.082369</ele>
        <time>2022-05-31T11:32:06.553Z</time>
      </trkpt>
      <trkpt lat="42.43507" lon="18.60311">
        <ele>48.225083</ele>
        <time>2022-05-31T11:32:09.545Z</time>
      </trkpt>
      <trkpt lat="42.43507" lon="18.60295">
        <ele>48.361195</ele>
        <time>2022-05-31T11:32:12.535Z</time>
      </trkpt>
      <trkpt lat="42.43512" lon="18.60283">
        <ele>48.477035</ele>
        <time>2022-05-31T11:32:15.567Z</time>
      </trkpt>
      <trkpt lat="42.4352" lon="18.60275">
        <ele>48.593113</ele>
        <time>2022-05-31T11:32:20.523Z</time>
      </trkpt>
      <trkpt lat="42.4352" lon="18.60262">
        <ele>48.704921</ele>
        <time>2022-05-31T11:32:25.550Z</time>
      </trkpt>
      <trkpt lat="42.4351" lon="18.60254">
        <ele>48.832937</ele>
        <time>2022-05-31T11:32:29.536Z</time>
      </trkpt>
      <trkpt lat="42.43499" lon="18.60249">
        <ele>48.986214</ele>
        <time>2022-05-31T11:32:33.535Z</time>
      </trkpt>
      <trkpt lat="42.43495" lon="18.60236">
        <ele>49.16374</ele>
        <time>2022-05-31T11:32:37.541Z</time>
      </trkpt>
      <trkpt lat="42.43491" lon="18.60221">
        <ele>49.371207</ele>
        <time>2022-05-31T11:32:41.555Z</time>
      </trkpt>
      <trkpt lat="42.43488" lon="18.60209">
        <ele>49.53117</ele>
        <time>2022-05-31T11:32:44.532Z</time>
      </trkpt>
      <trkpt lat="42.43486" lon="18.60196">
        <ele>49.698514</ele>
        <time>2022-05-31T11:32:47.524Z</time>
      </trkpt>
      <trkpt lat="42.43483" lon="18.60184">
        <ele>49.866456</ele>
        <time>2022-05-31T11:32:50.521Z</time>
      </trkpt>
      <trkpt lat="42.4348" lon="18.6017">
        <ele>50.059556</ele>
        <time>2022-05-31T11:32:53.547Z</time>
      </trkpt>
      <trkpt lat="42.43476" lon="18.60155">
        <ele>50.258944</ele>
        <time>2022-05-31T11:32:56.531Z</time>
      </trkpt>
      <trkpt lat="42.43474" lon="18.60139">
        <ele>50.457474</ele>
        <time>2022-05-31T11:32:59.534Z</time>
      </trkpt>
      <trkpt lat="42.43473" lon="18.60127">
        <ele>50.615468</ele>
        <time>2022-05-31T11:33:02.546Z</time>
      </trkpt>
      <trkpt lat="42.43475" lon="18.60114">
        <ele>50.781582</ele>
        <time>2022-05-31T11:33:05.533Z</time>
      </trkpt>
      <trkpt lat="42.43479" lon="18.60101">
        <ele>50.969182</ele>
        <time>2022-05-31T11:33:08.529Z</time>
      </trkpt>
      <trkpt lat="42.43482" lon="18.60088">
        <ele>51.138905</ele>
        <time>2022-05-31T11:33:11.542Z</time>
      </trkpt>
      <trkpt lat="42.43485" lon="18.60076">
        <ele>51.297811</ele>
        <time>2022-05-31T11:33:14.541Z</time>
      </trkpt>
      <trkpt lat="42.43489" lon="18.60062">
        <ele>51.492354</ele>
        <time>2022-05-31T11:33:18.535Z</time>
      </trkpt>
      <trkpt lat="42.43494" lon="18.6005">
        <ele>51.667163</ele>
        <time>2022-05-31T11:33:22.519Z</time>
      </trkpt>
      <trkpt lat="42.43497" lon="18.60038">
        <ele>51.832174</ele>
        <time>2022-05-31T11:33:26.514Z</time>
      </trkpt>
      <trkpt lat="42.43501" lon="18.60026">
        <ele>51.9982</ele>
        <time>2022-05-31T11:33:30.513Z</time>
      </trkpt>
      <trkpt lat="42.43506" lon="18.60016">
        <ele>52.15099</ele>
        <time>2022-05-31T11:33:34.513Z</time>
      </trkpt>
      <trkpt lat="42.43512" lon="18.60006">
        <ele>52.301704</ele>
        <time>2022-05-31T11:33:38.514Z</time>
      </trkpt>
      <trkpt lat="42.43521" lon="18.6001">
        <ele>52.459356</ele>
        <time>2022-05-31T11:33:42.521Z</time>
      </trkpt>
      <trkpt lat="42.43531" lon="18.60017">
        <ele>52.634198</ele>
        <time>2022-05-31T11:33:48.511Z</time>
      </trkpt>
      <trkpt lat="42.43539" lon="18.60022">
        <ele>52.791561</ele>
        <time>2022-05-31T11:33:53.521Z</time>
      </trkpt>
      <trkpt lat="42.43548" lon="18.60027">
        <ele>52.952979</ele>
        <time>2022-05-31T11:33:58.524Z</time>
      </trkpt>
      <trkpt lat="42.43558" lon="18.60031">
        <ele>53.121313</ele>
        <time>2022-05-31T11:34:04.520Z</time>
      </trkpt>
      <trkpt lat="42.43566" lon="18.60021">
        <ele>53.296879</ele>
        <time>2022-05-31T11:34:10.511Z</time>
      </trkpt>
      <trkpt lat="42.4357" lon="18.60009">
        <ele>53.460149</ele>
        <time>2022-05-31T11:34:14.509Z</time>
      </trkpt>
      <trkpt lat="42.43574" lon="18.59997">
        <ele>53.616202</ele>
        <time>2022-05-31T11:34:18.524Z</time>
      </trkpt>
      <trkpt lat="42.43577" lon="18.59984">
        <ele>53.777936</ele>
        <time>2022-05-31T11:34:22.517Z</time>
      </trkpt>
      <trkpt lat="42.43582" lon="18.59971">
        <ele>53.957425</ele>
        <time>2022-05-31T11:34:27.524Z</time>
      </trkpt>
      <trkpt lat="42.43588" lon="18.5996">
        <ele>54.115108</ele>
        <time>2022-05-31T11:34:32.513Z</time>
      </trkpt>
      <trkpt lat="42.43595" lon="18.59951">
        <ele>54.280965</ele>
        <time>2022-05-31T11:34:38.516Z</time>
      </trkpt>
      <trkpt lat="42.43602" lon="18.59941">
        <ele>54.451662</ele>
        <time>2022-05-31T11:34:44.528Z</time>
      </trkpt>
      <trkpt lat="42.43608" lon="18.59932">
        <ele>54.602924</ele>
        <time>2022-05-31T11:34:49.518Z</time>
      </trkpt>
      <trkpt lat="42.43615" lon="18.59922">
        <ele>54.755433</ele>
        <time>2022-05-31T11:34:54.514Z</time>
      </trkpt>
      <trkpt lat="42.43621" lon="18.59912">
        <ele>54.911583</ele>
        <time>2022-05-31T11:34:59.518Z</time>
      </trkpt>
      <trkpt lat="42.43631" lon="18.59912">
        <ele>55.063094</ele>
        <time>2022-05-31T11:35:05.525Z</time>
      </trkpt>
      <trkpt lat="42.4365" lon="18.59919">
        <ele>55.317531</ele>
        <time>2022-05-31T11:35:57.523Z</time>
      </trkpt>
      <trkpt lat="42.43657" lon="18.5991">
        <ele>55.442129</ele>
        <time>2022-05-31T11:36:03.513Z</time>
      </trkpt>
      <trkpt lat="42.43661" lon="18.59899">
        <ele>55.56206</ele>
        <time>2022-05-31T11:36:06.519Z</time>
      </trkpt>
      <trkpt lat="42.43664" lon="18.59885">
        <ele>55.698483</ele>
        <time>2022-05-31T11:36:09.538Z</time>
      </trkpt>
      <trkpt lat="42.43669" lon="18.59869">
        <ele>55.866088</ele>
        <time>2022-05-31T11:36:12.511Z</time>
      </trkpt>
      <trkpt lat="42.43672" lon="18.59856">
        <ele>56.000725</ele>
        <time>2022-05-31T11:36:14.524Z</time>
      </trkpt>
      <trkpt lat="42.43676" lon="18.59842">
        <ele>56.146635</ele>
        <time>2022-05-31T11:36:16.516Z</time>
      </trkpt>
      <trkpt lat="42.4368" lon="18.59827">
        <ele>56.295707</ele>
        <time>2022-05-31T11:36:18.518Z</time>
      </trkpt>
      <trkpt lat="42.43684" lon="18.59811">
        <ele>56.4624</ele>
        <time>2022-05-31T11:36:20.523Z</time>
      </trkpt>
      <trkpt lat="42.4369" lon="18.59792">
        <ele>56.66071</ele>
        <time>2022-05-31T11:36:22.524Z</time>
      </trkpt>
      <trkpt lat="42.43695" lon="18.59773">
        <ele>56.854087</ele>
        <time>2022-05-31T11:36:24.527Z</time>
      </trkpt>
      <trkpt lat="42.437" lon="18.59755">
        <ele>57.035237</ele>
        <time>2022-05-31T11:36:26.515Z</time>
      </trkpt>
      <trkpt lat="42.43704" lon="18.59738">
        <ele>57.20916</ele>
        <time>2022-05-31T11:36:28.522Z</time>
      </trkpt>
      <trkpt lat="42.4371" lon="18.59722">
        <ele>57.323814</ele>
        <time>2022-05-31T11:36:30.523Z</time>
      </trkpt>
      <trkpt lat="42.43716" lon="18.59707">
        <ele>57.229138</ele>
        <time>2022-05-31T11:36:32.517Z</time>
      </trkpt>
      <trkpt lat="42.43721" lon="18.59691">
        <ele>57.134164</ele>
        <time>2022-05-31T11:36:34.522Z</time>
      </trkpt>
      <trkpt lat="42.43726" lon="18.59676">
        <ele>57.046863</ele>
        <time>2022-05-31T11:36:36.522Z</time>
      </trkpt>
      <trkpt lat="42.43731" lon="18.59664">
        <ele>56.972977</ele>
        <time>2022-05-31T11:36:38.521Z</time>
      </trkpt>
      <trkpt lat="42.43735" lon="18.59647">
        <ele>56.876769</ele>
        <time>2022-05-31T11:36:41.517Z</time>
      </trkpt>
      <trkpt lat="42.4374" lon="18.59634">
        <ele>56.797045</ele>
        <time>2022-05-31T11:36:44.514Z</time>
      </trkpt>
      <trkpt lat="42.43744" lon="18.59618">
        <ele>56.708065</ele>
        <time>2022-05-31T11:36:47.523Z</time>
      </trkpt>
      <trkpt lat="42.43749" lon="18.59602">
        <ele>56.614647</ele>
        <time>2022-05-31T11:36:50.542Z</time>
      </trkpt>
      <trkpt lat="42.43755" lon="18.59587">
        <ele>56.522822</ele>
        <time>2022-05-31T11:36:53.526Z</time>
      </trkpt>
      <trkpt lat="42.4376" lon="18.59572">
        <ele>56.431677</ele>
        <time>2022-05-31T11:36:56.544Z</time>
      </trkpt>
      <trkpt lat="42.43765" lon="18.59557">
        <ele>56.344429</ele>
        <time>2022-05-31T11:36:59.527Z</time>
      </trkpt>
      <trkpt lat="42.4377" lon="18.59543">
        <ele>56.261207</ele>
        <time>2022-05-31T11:37:02.540Z</time>
      </trkpt>
      <trkpt lat="42.43775" lon="18.59531">
        <ele>56.188765</ele>
        <time>2022-05-31T11:37:05.524Z</time>
      </trkpt>
      <trkpt lat="42.43779" lon="18.59519">
        <ele>56.115439</ele>
        <time>2022-05-31T11:37:09.524Z</time>
      </trkpt>
      <trkpt lat="42.43784" lon="18.59506">
        <ele>56.036066</ele>
        <time>2022-05-31T11:37:14.547Z</time>
      </trkpt>
      <trkpt lat="42.43789" lon="18.59492">
        <ele>56.510944</ele>
        <time>2022-05-31T11:37:19.946Z</time>
      </trkpt>
      <trkpt lat="42.43792" lon="18.5948">
        <ele>56.924002</ele>
        <time>2022-05-31T11:37:24.518Z</time>
      </trkpt>
      <trkpt lat="42.43795" lon="18.59468">
        <ele>57.364859</ele>
        <time>2022-05-31T11:37:30.525Z</time>
      </trkpt>
      <trkpt lat="42.43799" lon="18.59457">
        <ele>57.778951</ele>
        <time>2022-05-31T11:37:35.528Z</time>
      </trkpt>
      <trkpt lat="42.43802" lon="18.59443">
        <ele>58.2717</ele>
        <time>2022-05-31T11:37:40.516Z</time>
      </trkpt>
      <trkpt lat="42.43805" lon="18.59429">
        <ele>58.767399</ele>
        <time>2022-05-31T11:37:45.527Z</time>
      </trkpt>
      <trkpt lat="42.43808" lon="18.59414">
        <ele>59.258577</ele>
        <time>2022-05-31T11:37:50.542Z</time>
      </trkpt>
      <trkpt lat="42.4381" lon="18.59401">
        <ele>59.729111</ele>
        <time>2022-05-31T11:37:55.518Z</time>
      </trkpt>
      <trkpt lat="42.43812" lon="18.59387">
        <ele>60.182906</ele>
        <time>2022-05-31T11:37:59.521Z</time>
      </trkpt>
      <trkpt lat="42.43813" lon="18.59374">
        <ele>60.640002</ele>
        <time>2022-05-31T11:38:02.565Z</time>
      </trkpt>
      <trkpt lat="42.43815" lon="18.59359">
        <ele>61.154075</ele>
        <time>2022-05-31T11:38:05.534Z</time>
      </trkpt>
      <trkpt lat="42.43818" lon="18.59341">
        <ele>61.756453</ele>
        <time>2022-05-31T11:38:08.576Z</time>
      </trkpt>
      <trkpt lat="42.4382" lon="18.59327">
        <ele>62.222682</ele>
        <time>2022-05-31T11:38:10.531Z</time>
      </trkpt>
      <trkpt lat="42.43821" lon="18.59312">
        <ele>62.739323</ele>
        <time>2022-05-31T11:38:12.605Z</time>
      </trkpt>
      <trkpt lat="42.43824" lon="18.59297">
        <ele>63.269039</ele>
        <time>2022-05-31T11:38:14.535Z</time>
      </trkpt>
      <trkpt lat="42.43826" lon="18.59281">
        <ele>63.818542</ele>
        <time>2022-05-31T11:38:16.544Z</time>
      </trkpt>
      <trkpt lat="42.43827" lon="18.59264">
        <ele>63.968959</ele>
        <time>2022-05-31T11:38:18.543Z</time>
      </trkpt>
      <trkpt lat="42.43826" lon="18.59248">
        <ele>63.161265</ele>
        <time>2022-05-31T11:38:20.528Z</time>
      </trkpt>
      <trkpt lat="42.43823" lon="18.59236">
        <ele>62.518494</ele>
        <time>2022-05-31T11:38:22.521Z</time>
      </trkpt>
      <trkpt lat="42.43818" lon="18.59219">
        <ele>61.613467</ele>
        <time>2022-05-31T11:38:24.525Z</time>
      </trkpt>
      <trkpt lat="42.43812" lon="18.59203">
        <ele>60.757569</ele>
        <time>2022-05-31T11:38:26.534Z</time>
      </trkpt>
      <trkpt lat="42.43805" lon="18.59194">
        <ele>60.135736</ele>
        <time>2022-05-31T11:38:28.533Z</time>
      </trkpt>
      <trkpt lat="42.43796" lon="18.59182">
        <ele>59.25367</ele>
        <time>2022-05-31T11:38:30.562Z</time>
      </trkpt>
      <trkpt lat="42.43784" lon="18.59172">
        <ele>58.357451</ele>
        <time>2022-05-31T11:38:32.512Z</time>
      </trkpt>
      <trkpt lat="42.43773" lon="18.59162">
        <ele>57.427894</ele>
        <time>2022-05-31T11:38:34.528Z</time>
      </trkpt>
      <trkpt lat="42.43763" lon="18.59153">
        <ele>56.631327</ele>
        <time>2022-05-31T11:38:36.515Z</time>
      </trkpt>
      <trkpt lat="42.43756" lon="18.59144">
        <ele>55.999556</ele>
        <time>2022-05-31T11:38:38.517Z</time>
      </trkpt>
      <trkpt lat="42.43747" lon="18.59131">
        <ele>55.123262</ele>
        <time>2022-05-31T11:38:40.512Z</time>
      </trkpt>
      <trkpt lat="42.4374" lon="18.59116">
        <ele>54.225009</ele>
        <time>2022-05-31T11:38:42.510Z</time>
      </trkpt>
      <trkpt lat="42.43737" lon="18.59103">
        <ele>53.577584</ele>
        <time>2022-05-31T11:38:44.517Z</time>
      </trkpt>
      <trkpt lat="42.43739" lon="18.59091">
        <ele>52.966973</ele>
        <time>2022-05-31T11:38:46.559Z</time>
      </trkpt>
      <trkpt lat="42.43744" lon="18.59077">
        <ele>52.170756</ele>
        <time>2022-05-31T11:38:48.520Z</time>
      </trkpt>
      <trkpt lat="42.43747" lon="18.59065">
        <ele>51.992676</ele>
        <time>2022-05-31T11:38:50.518Z</time>
      </trkpt>
      <trkpt lat="42.43751" lon="18.59053">
        <ele>51.826598</ele>
        <time>2022-05-31T11:38:52.520Z</time>
      </trkpt>
      <trkpt lat="42.43756" lon="18.59038">
        <ele>51.601293</ele>
        <time>2022-05-31T11:38:55.548Z</time>
      </trkpt>
      <trkpt lat="42.4376" lon="18.59025">
        <ele>51.409977</ele>
        <time>2022-05-31T11:38:58.550Z</time>
      </trkpt>
      <trkpt lat="42.43764" lon="18.5901">
        <ele>51.202785</ele>
        <time>2022-05-31T11:39:01.544Z</time>
      </trkpt>
      <trkpt lat="42.43768" lon="18.58998">
        <ele>51.024209</ele>
        <time>2022-05-31T11:39:04.527Z</time>
      </trkpt>
      <trkpt lat="42.43771" lon="18.58985">
        <ele>50.84317</ele>
        <time>2022-05-31T11:39:07.540Z</time>
      </trkpt>
      <trkpt lat="42.43775" lon="18.58972">
        <ele>50.656537</ele>
        <time>2022-05-31T11:39:10.527Z</time>
      </trkpt>
      <trkpt lat="42.43778" lon="18.58959">
        <ele>50.474254</ele>
        <time>2022-05-31T11:39:13.567Z</time>
      </trkpt>
      <trkpt lat="42.43782" lon="18.58947">
        <ele>50.305697</ele>
        <time>2022-05-31T11:39:16.581Z</time>
      </trkpt>
      <trkpt lat="42.43786" lon="18.58931">
        <ele>50.08054</ele>
        <time>2022-05-31T11:39:19.534Z</time>
      </trkpt>
      <trkpt lat="42.4379" lon="18.58916">
        <ele>49.871947</ele>
        <time>2022-05-31T11:39:22.542Z</time>
      </trkpt>
      <trkpt lat="42.43793" lon="18.58902">
        <ele>49.68281</ele>
        <time>2022-05-31T11:39:25.544Z</time>
      </trkpt>
      <trkpt lat="42.43797" lon="18.5889">
        <ele>49.500421</ele>
        <time>2022-05-31T11:39:28.546Z</time>
      </trkpt>
      <trkpt lat="42.43803" lon="18.58877">
        <ele>49.300615</ele>
        <time>2022-05-31T11:39:31.583Z</time>
      </trkpt>
      <trkpt lat="42.43809" lon="18.58866">
        <ele>49.121135</ele>
        <time>2022-05-31T11:39:33.539Z</time>
      </trkpt>
      <trkpt lat="42.43815" lon="18.58854">
        <ele>48.932226</ele>
        <time>2022-05-31T11:39:35.543Z</time>
      </trkpt>
      <trkpt lat="42.43821" lon="18.58841">
        <ele>48.776046</ele>
        <time>2022-05-31T11:39:37.539Z</time>
      </trkpt>
      <trkpt lat="42.43829" lon="18.58826">
        <ele>48.597546</ele>
        <time>2022-05-31T11:39:39.553Z</time>
      </trkpt>
      <trkpt lat="42.43836" lon="18.58812">
        <ele>48.426907</ele>
        <time>2022-05-31T11:39:41.549Z</time>
      </trkpt>
      <trkpt lat="42.43842" lon="18.58799">
        <ele>48.278629</ele>
        <time>2022-05-31T11:39:43.551Z</time>
      </trkpt>
      <trkpt lat="42.43848" lon="18.58787">
        <ele>48.13843</ele>
        <time>2022-05-31T11:39:45.535Z</time>
      </trkpt>
      <trkpt lat="42.43853" lon="18.58772">
        <ele>47.974174</ele>
        <time>2022-05-31T11:39:48.543Z</time>
      </trkpt>
      <trkpt lat="42.43859" lon="18.58758">
        <ele>47.812391</ele>
        <time>2022-05-31T11:39:51.547Z</time>
      </trkpt>
      <trkpt lat="42.43863" lon="18.58746">
        <ele>47.687442</ele>
        <time>2022-05-31T11:39:53.580Z</time>
      </trkpt>
      <trkpt lat="42.43868" lon="18.58734">
        <ele>47.552533</ele>
        <time>2022-05-31T11:39:55.549Z</time>
      </trkpt>
      <trkpt lat="42.43877" lon="18.58721">
        <ele>47.37775</ele>
        <time>2022-05-31T11:39:58.546Z</time>
      </trkpt>
      <trkpt lat="42.43885" lon="18.58709">
        <ele>47.217066</ele>
        <time>2022-05-31T11:40:01.535Z</time>
      </trkpt>
      <trkpt lat="42.43893" lon="18.58695">
        <ele>47.045579</ele>
        <time>2022-05-31T11:40:04.542Z</time>
      </trkpt>
      <trkpt lat="42.43899" lon="18.58685">
        <ele>46.920208</ele>
        <time>2022-05-31T11:40:06.534Z</time>
      </trkpt>
      <trkpt lat="42.43907" lon="18.58672">
        <ele>46.748246</ele>
        <time>2022-05-31T11:40:09.549Z</time>
      </trkpt>
      <trkpt lat="42.43916" lon="18.5866">
        <ele>46.581571</ele>
        <time>2022-05-31T11:40:12.548Z</time>
      </trkpt>
      <trkpt lat="42.43923" lon="18.58649">
        <ele>46.648331</ele>
        <time>2022-05-31T11:40:15.548Z</time>
      </trkpt>
      <trkpt lat="42.43929" lon="18.58639">
        <ele>46.825111</ele>
        <time>2022-05-31T11:40:18.546Z</time>
      </trkpt>
      <trkpt lat="42.43936" lon="18.5863">
        <ele>47.010086</ele>
        <time>2022-05-31T11:40:23.543Z</time>
      </trkpt>
      <trkpt lat="42.43942" lon="18.58618">
        <ele>47.196962</ele>
        <time>2022-05-31T11:40:27.537Z</time>
      </trkpt>
      <trkpt lat="42.43949" lon="18.58607">
        <ele>47.391429</ele>
        <time>2022-05-31T11:40:31.555Z</time>
      </trkpt>
      <trkpt lat="42.43957" lon="18.58598">
        <ele>47.578603</ele>
        <time>2022-05-31T11:40:34.528Z</time>
      </trkpt>
      <trkpt lat="42.43964" lon="18.58587">
        <ele>47.780817</ele>
        <time>2022-05-31T11:40:37.538Z</time>
      </trkpt>
      <trkpt lat="42.43975" lon="18.58572">
        <ele>48.068008</ele>
        <time>2022-05-31T11:40:41.532Z</time>
      </trkpt>
      <trkpt lat="42.43983" lon="18.58561">
        <ele>48.279517</ele>
        <time>2022-05-31T11:40:44.557Z</time>
      </trkpt>
      <trkpt lat="42.43991" lon="18.58549">
        <ele>48.488074</ele>
        <time>2022-05-31T11:40:47.541Z</time>
      </trkpt>
      <trkpt lat="42.43998" lon="18.58537">
        <ele>48.697164</ele>
        <time>2022-05-31T11:40:50.569Z</time>
      </trkpt>
      <trkpt lat="42.44005" lon="18.58524">
        <ele>48.911767</ele>
        <time>2022-05-31T11:40:53.543Z</time>
      </trkpt>
      <trkpt lat="42.44011" lon="18.58508">
        <ele>49.148647</ele>
        <time>2022-05-31T11:40:56.545Z</time>
      </trkpt>
      <trkpt lat="42.44017" lon="18.58492">
        <ele>49.390778</ele>
        <time>2022-05-31T11:40:59.539Z</time>
      </trkpt>
      <trkpt lat="42.44026" lon="18.58477">
        <ele>49.643316</ele>
        <time>2022-05-31T11:41:02.551Z</time>
      </trkpt>
      <trkpt lat="42.44032" lon="18.58468">
        <ele>49.812854</ele>
        <time>2022-05-31T11:41:04.549Z</time>
      </trkpt>
      <trkpt lat="42.44039" lon="18.58459">
        <ele>49.879568</ele>
        <time>2022-05-31T11:41:06.541Z</time>
      </trkpt>
      <trkpt lat="42.44047" lon="18.5845">
        <ele>49.954332</ele>
        <time>2022-05-31T11:41:08.544Z</time>
      </trkpt>
      <trkpt lat="42.44055" lon="18.5844">
        <ele>50.032149</ele>
        <time>2022-05-31T11:41:10.536Z</time>
      </trkpt>
      <trkpt lat="42.44062" lon="18.58429">
        <ele>50.110225</ele>
        <time>2022-05-31T11:41:12.547Z</time>
      </trkpt>
      <trkpt lat="42.4407" lon="18.58419">
        <ele>50.184506</ele>
        <time>2022-05-31T11:41:14.553Z</time>
      </trkpt>
      <trkpt lat="42.44078" lon="18.58408">
        <ele>50.267354</ele>
        <time>2022-05-31T11:41:17.546Z</time>
      </trkpt>
      <trkpt lat="42.44084" lon="18.58396">
        <ele>50.344939</ele>
        <time>2022-05-31T11:41:21.548Z</time>
      </trkpt>
      <trkpt lat="42.4409" lon="18.58387">
        <ele>50.410944</ele>
        <time>2022-05-31T11:41:24.538Z</time>
      </trkpt>
      <trkpt lat="42.44098" lon="18.58378">
        <ele>50.481085</ele>
        <time>2022-05-31T11:41:27.546Z</time>
      </trkpt>
      <trkpt lat="42.44106" lon="18.58369">
        <ele>50.560404</ele>
        <time>2022-05-31T11:41:30.528Z</time>
      </trkpt>
      <trkpt lat="42.44116" lon="18.5836">
        <ele>50.644815</ele>
        <time>2022-05-31T11:41:33.565Z</time>
      </trkpt>
      <trkpt lat="42.44127" lon="18.58352">
        <ele>50.735106</ele>
        <time>2022-05-31T11:41:36.546Z</time>
      </trkpt>
      <trkpt lat="42.44138" lon="18.58347">
        <ele>50.81536</ele>
        <time>2022-05-31T11:41:39.570Z</time>
      </trkpt>
      <trkpt lat="42.44147" lon="18.58342">
        <ele>50.885462</ele>
        <time>2022-05-31T11:41:42.525Z</time>
      </trkpt>
      <trkpt lat="42.44156" lon="18.58337">
        <ele>50.95659</ele>
        <time>2022-05-31T11:41:44.544Z</time>
      </trkpt>
      <trkpt lat="42.44168" lon="18.58329">
        <ele>51.055173</ele>
        <time>2022-05-31T11:41:47.539Z</time>
      </trkpt>
      <trkpt lat="42.44177" lon="18.58324">
        <ele>51.102983</ele>
        <time>2022-05-31T11:41:49.543Z</time>
      </trkpt>
      <trkpt lat="42.44186" lon="18.58319">
        <ele>51.115229</ele>
        <time>2022-05-31T11:41:51.555Z</time>
      </trkpt>
      <trkpt lat="42.44195" lon="18.58314">
        <ele>51.127283</ele>
        <time>2022-05-31T11:41:53.541Z</time>
      </trkpt>
      <trkpt lat="42.44203" lon="18.58309">
        <ele>51.139133</ele>
        <time>2022-05-31T11:41:55.541Z</time>
      </trkpt>
      <trkpt lat="42.44214" lon="18.583">
        <ele>51.155715</ele>
        <time>2022-05-31T11:41:58.540Z</time>
      </trkpt>
      <trkpt lat="42.44223" lon="18.58287">
        <ele>51.17254</ele>
        <time>2022-05-31T11:42:01.582Z</time>
      </trkpt>
      <trkpt lat="42.44233" lon="18.58278">
        <ele>51.189112</ele>
        <time>2022-05-31T11:42:04.529Z</time>
      </trkpt>
      <trkpt lat="42.44241" lon="18.5827">
        <ele>51.201035</ele>
        <time>2022-05-31T11:42:06.552Z</time>
      </trkpt>
      <trkpt lat="42.44251" lon="18.58258">
        <ele>51.218282</ele>
        <time>2022-05-31T11:42:09.544Z</time>
      </trkpt>
      <trkpt lat="42.44261" lon="18.58246">
        <ele>51.235515</ele>
        <time>2022-05-31T11:42:12.546Z</time>
      </trkpt>
      <trkpt lat="42.44271" lon="18.58235">
        <ele>51.25264</ele>
        <time>2022-05-31T11:42:15.542Z</time>
      </trkpt>
      <trkpt lat="42.4428" lon="18.58224">
        <ele>51.268697</ele>
        <time>2022-05-31T11:42:18.573Z</time>
      </trkpt>
      <trkpt lat="42.44289" lon="18.58216">
        <ele>51.282856</ele>
        <time>2022-05-31T11:42:21.552Z</time>
      </trkpt>
      <trkpt lat="42.44298" lon="18.58206">
        <ele>51.298146</ele>
        <time>2022-05-31T11:42:25.548Z</time>
      </trkpt>
      <trkpt lat="42.44306" lon="18.58198">
        <ele>51.310699</ele>
        <time>2022-05-31T11:42:28.546Z</time>
      </trkpt>
      <trkpt lat="42.44313" lon="18.58188">
        <ele>51.323855</ele>
        <time>2022-05-31T11:42:31.537Z</time>
      </trkpt>
      <trkpt lat="42.4432" lon="18.58178">
        <ele>51.431543</ele>
        <time>2022-05-31T11:42:34.543Z</time>
      </trkpt>
      <trkpt lat="42.44327" lon="18.58166">
        <ele>51.700473</ele>
        <time>2022-05-31T11:42:37.542Z</time>
      </trkpt>
      <trkpt lat="42.44331" lon="18.58153">
        <ele>51.942279</ele>
        <time>2022-05-31T11:42:40.537Z</time>
      </trkpt>
      <trkpt lat="42.44335" lon="18.5814">
        <ele>52.190326</ele>
        <time>2022-05-31T11:42:43.543Z</time>
      </trkpt>
      <trkpt lat="42.44339" lon="18.58124">
        <ele>52.486623</ele>
        <time>2022-05-31T11:42:47.579Z</time>
      </trkpt>
      <trkpt lat="42.44343" lon="18.58111">
        <ele>52.747943</ele>
        <time>2022-05-31T11:42:51.547Z</time>
      </trkpt>
      <trkpt lat="42.44346" lon="18.58097">
        <ele>53.003545</ele>
        <time>2022-05-31T11:42:55.552Z</time>
      </trkpt>
      <trkpt lat="42.44349" lon="18.58084">
        <ele>53.237671</ele>
        <time>2022-05-31T11:42:59.546Z</time>
      </trkpt>
      <trkpt lat="42.44354" lon="18.58071">
        <ele>53.502229</ele>
        <time>2022-05-31T11:43:05.542Z</time>
      </trkpt>
      <trkpt lat="42.44357" lon="18.58059">
        <ele>53.717076</ele>
        <time>2022-05-31T11:43:10.600Z</time>
      </trkpt>
      <trkpt lat="42.44361" lon="18.58047">
        <ele>53.956884</ele>
        <time>2022-05-31T11:43:15.546Z</time>
      </trkpt>
      <trkpt lat="42.44364" lon="18.58035">
        <ele>54.184183</ele>
        <time>2022-05-31T11:43:21.547Z</time>
      </trkpt>
      <trkpt lat="42.44367" lon="18.58023">
        <ele>54.405799</ele>
        <time>2022-05-31T11:43:27.533Z</time>
      </trkpt>
      <trkpt lat="42.44372" lon="18.58011">
        <ele>54.64917</ele>
        <time>2022-05-31T11:43:34.574Z</time>
      </trkpt>
      <trkpt lat="42.44375" lon="18.57998">
        <ele>54.887269</ele>
        <time>2022-05-31T11:43:42.540Z</time>
      </trkpt>
      <trkpt lat="42.44381" lon="18.57987">
        <ele>55.139155</ele>
        <time>2022-05-31T11:43:50.549Z</time>
      </trkpt>
      <trkpt lat="42.44389" lon="18.57977">
        <ele>55.386957</ele>
        <time>2022-05-31T11:43:55.536Z</time>
      </trkpt>
      <trkpt lat="42.44394" lon="18.57966">
        <ele>55.621193</ele>
        <time>2022-05-31T11:43:58.528Z</time>
      </trkpt>
      <trkpt lat="42.444" lon="18.57953">
        <ele>55.335244</ele>
        <time>2022-05-31T11:44:01.538Z</time>
      </trkpt>
      <trkpt lat="42.44405" lon="18.57942">
        <ele>55.07219</ele>
        <time>2022-05-31T11:44:03.541Z</time>
      </trkpt>
      <trkpt lat="42.4441" lon="18.57931">
        <ele>54.791363</ele>
        <time>2022-05-31T11:44:05.549Z</time>
      </trkpt>
      <trkpt lat="42.44418" lon="18.57916">
        <ele>54.408101</ele>
        <time>2022-05-31T11:44:08.577Z</time>
      </trkpt>
      <trkpt lat="42.44423" lon="18.57906">
        <ele>54.141668</ele>
        <time>2022-05-31T11:44:10.555Z</time>
      </trkpt>
      <trkpt lat="42.4443" lon="18.57897">
        <ele>53.867267</ele>
        <time>2022-05-31T11:44:12.544Z</time>
      </trkpt>
      <trkpt lat="42.44435" lon="18.57887">
        <ele>53.588766</ele>
        <time>2022-05-31T11:44:14.582Z</time>
      </trkpt>
      <trkpt lat="42.44444" lon="18.57873">
        <ele>53.208318</ele>
        <time>2022-05-31T11:44:16.544Z</time>
      </trkpt>
      <trkpt lat="42.44451" lon="18.57862">
        <ele>52.909604</ele>
        <time>2022-05-31T11:44:18.523Z</time>
      </trkpt>
      <trkpt lat="42.44458" lon="18.57852">
        <ele>52.606369</ele>
        <time>2022-05-31T11:44:20.527Z</time>
      </trkpt>
      <trkpt lat="42.44465" lon="18.57842">
        <ele>52.315052</ele>
        <time>2022-05-31T11:44:22.549Z</time>
      </trkpt>
      <trkpt lat="42.44472" lon="18.57832">
        <ele>52.017057</ele>
        <time>2022-05-31T11:44:24.575Z</time>
      </trkpt>
      <trkpt lat="42.4448" lon="18.57822">
        <ele>51.703479</ele>
        <time>2022-05-31T11:44:26.544Z</time>
      </trkpt>
      <trkpt lat="42.44488" lon="18.57812">
        <ele>51.374151</ele>
        <time>2022-05-31T11:44:28.547Z</time>
      </trkpt>
      <trkpt lat="42.44497" lon="18.57803">
        <ele>51.056628</ele>
        <time>2022-05-31T11:44:30.532Z</time>
      </trkpt>
      <trkpt lat="42.44507" lon="18.57796">
        <ele>50.744471</ele>
        <time>2022-05-31T11:44:32.562Z</time>
      </trkpt>
      <trkpt lat="42.44517" lon="18.57788">
        <ele>50.44423</ele>
        <time>2022-05-31T11:44:34.552Z</time>
      </trkpt>
      <trkpt lat="42.44528" lon="18.5778">
        <ele>50.533208</ele>
        <time>2022-05-31T11:44:36.589Z</time>
      </trkpt>
      <trkpt lat="42.4454" lon="18.57771">
        <ele>50.627809</ele>
        <time>2022-05-31T11:44:38.554Z</time>
      </trkpt>
      <trkpt lat="42.44551" lon="18.57762">
        <ele>50.722991</ele>
        <time>2022-05-31T11:44:40.538Z</time>
      </trkpt>
      <trkpt lat="42.44563" lon="18.57754">
        <ele>50.81938</ele>
        <time>2022-05-31T11:44:42.584Z</time>
      </trkpt>
      <trkpt lat="42.44575" lon="18.57746">
        <ele>50.913331</ele>
        <time>2022-05-31T11:44:44.552Z</time>
      </trkpt>
      <trkpt lat="42.44586" lon="18.57737">
        <ele>51.001077</ele>
        <time>2022-05-31T11:44:46.553Z</time>
      </trkpt>
      <trkpt lat="42.44597" lon="18.57728">
        <ele>51.096604</ele>
        <time>2022-05-31T11:44:48.540Z</time>
      </trkpt>
      <trkpt lat="42.44608" lon="18.57718">
        <ele>51.186039</ele>
        <time>2022-05-31T11:44:50.545Z</time>
      </trkpt>
      <trkpt lat="42.44618" lon="18.57709">
        <ele>51.277838</ele>
        <time>2022-05-31T11:44:52.547Z</time>
      </trkpt>
      <trkpt lat="42.44628" lon="18.577">
        <ele>51.363743</ele>
        <time>2022-05-31T11:44:54.547Z</time>
      </trkpt>
      <trkpt lat="42.44638" lon="18.5769">
        <ele>51.447152</ele>
        <time>2022-05-31T11:44:56.535Z</time>
      </trkpt>
      <trkpt lat="42.44647" lon="18.57681">
        <ele>51.530719</ele>
        <time>2022-05-31T11:44:58.543Z</time>
      </trkpt>
      <trkpt lat="42.44657" lon="18.57672">
        <ele>51.6137</ele>
        <time>2022-05-31T11:45:00.556Z</time>
      </trkpt>
      <trkpt lat="42.44666" lon="18.57663">
        <ele>51.694962</ele>
        <time>2022-05-31T11:45:02.554Z</time>
      </trkpt>
      <trkpt lat="42.44675" lon="18.57654">
        <ele>51.802718</ele>
        <time>2022-05-31T11:45:04.581Z</time>
      </trkpt>
      <trkpt lat="42.44685" lon="18.57645">
        <ele>51.923873</ele>
        <time>2022-05-31T11:45:06.541Z</time>
      </trkpt>
      <trkpt lat="42.44693" lon="18.57636">
        <ele>52.035124</ele>
        <time>2022-05-31T11:45:08.544Z</time>
      </trkpt>
      <trkpt lat="42.44701" lon="18.57628">
        <ele>52.142848</ele>
        <time>2022-05-31T11:45:10.571Z</time>
      </trkpt>
      <trkpt lat="42.4471" lon="18.57619">
        <ele>52.251492</ele>
        <time>2022-05-31T11:45:12.545Z</time>
      </trkpt>
      <trkpt lat="42.44717" lon="18.57612">
        <ele>52.348789</ele>
        <time>2022-05-31T11:45:14.552Z</time>
      </trkpt>
      <trkpt lat="42.44725" lon="18.57605">
        <ele>52.444864</ele>
        <time>2022-05-31T11:45:16.581Z</time>
      </trkpt>
      <trkpt lat="42.44732" lon="18.57597">
        <ele>52.543923</ele>
        <time>2022-05-31T11:45:18.550Z</time>
      </trkpt>
      <trkpt lat="42.4474" lon="18.5759">
        <ele>52.641166</ele>
        <time>2022-05-31T11:45:20.531Z</time>
      </trkpt>
      <trkpt lat="42.44748" lon="18.57583">
        <ele>52.74069</ele>
        <time>2022-05-31T11:45:22.559Z</time>
      </trkpt>
      <trkpt lat="42.44756" lon="18.57577">
        <ele>52.836321</ele>
        <time>2022-05-31T11:45:24.548Z</time>
      </trkpt>
      <trkpt lat="42.44767" lon="18.57566">
        <ele>52.976128</ele>
        <time>2022-05-31T11:45:27.582Z</time>
      </trkpt>
      <trkpt lat="42.44777" lon="18.57556">
        <ele>53.112885</ele>
        <time>2022-05-31T11:45:30.609Z</time>
      </trkpt>
      <trkpt lat="42.44788" lon="18.57545">
        <ele>53.252905</ele>
        <time>2022-05-31T11:45:33.542Z</time>
      </trkpt>
      <trkpt lat="42.44799" lon="18.57535">
        <ele>53.390087</ele>
        <time>2022-05-31T11:45:36.543Z</time>
      </trkpt>
      <trkpt lat="42.44809" lon="18.57525">
        <ele>53.52688</ele>
        <time>2022-05-31T11:45:39.535Z</time>
      </trkpt>
      <trkpt lat="42.44817" lon="18.57518">
        <ele>53.543697</ele>
        <time>2022-05-31T11:45:41.549Z</time>
      </trkpt>
      <trkpt lat="42.44824" lon="18.5751">
        <ele>53.287084</ele>
        <time>2022-05-31T11:45:43.565Z</time>
      </trkpt>
      <trkpt lat="42.44831" lon="18.57503">
        <ele>53.031688</ele>
        <time>2022-05-31T11:45:45.548Z</time>
      </trkpt>
      <trkpt lat="42.44841" lon="18.57493">
        <ele>52.687155</ele>
        <time>2022-05-31T11:45:48.542Z</time>
      </trkpt>
      <trkpt lat="42.44851" lon="18.57483">
        <ele>52.346772</ele>
        <time>2022-05-31T11:45:51.542Z</time>
      </trkpt>
      <trkpt lat="42.44861" lon="18.57473">
        <ele>52.005447</ele>
        <time>2022-05-31T11:45:54.536Z</time>
      </trkpt>
      <trkpt lat="42.4487" lon="18.57463">
        <ele>51.678077</ele>
        <time>2022-05-31T11:45:57.538Z</time>
      </trkpt>
      <trkpt lat="42.44879" lon="18.57453">
        <ele>51.344937</ele>
        <time>2022-05-31T11:46:00.539Z</time>
      </trkpt>
      <trkpt lat="42.44889" lon="18.57442">
        <ele>50.986535</ele>
        <time>2022-05-31T11:46:03.545Z</time>
      </trkpt>
      <trkpt lat="42.449" lon="18.57431">
        <ele>50.610794</ele>
        <time>2022-05-31T11:46:06.544Z</time>
      </trkpt>
      <trkpt lat="42.44908" lon="18.57424">
        <ele>50.353138</ele>
        <time>2022-05-31T11:46:08.541Z</time>
      </trkpt>
      <trkpt lat="42.44915" lon="18.57417">
        <ele>50.09321</ele>
        <time>2022-05-31T11:46:10.544Z</time>
      </trkpt>
      <trkpt lat="42.44923" lon="18.5741">
        <ele>49.833283</ele>
        <time>2022-05-31T11:46:12.542Z</time>
      </trkpt>
      <trkpt lat="42.44931" lon="18.57402">
        <ele>49.567486</ele>
        <time>2022-05-31T11:46:14.528Z</time>
      </trkpt>
      <trkpt lat="42.44939" lon="18.57395">
        <ele>49.28793</ele>
        <time>2022-05-31T11:46:16.548Z</time>
      </trkpt>
      <trkpt lat="42.44948" lon="18.57388">
        <ele>48.999935</ele>
        <time>2022-05-31T11:46:18.547Z</time>
      </trkpt>
      <trkpt lat="42.44958" lon="18.57383">
        <ele>48.71585</ele>
        <time>2022-05-31T11:46:20.525Z</time>
      </trkpt>
      <trkpt lat="42.44967" lon="18.57378">
        <ele>48.569849</ele>
        <time>2022-05-31T11:46:22.547Z</time>
      </trkpt>
      <trkpt lat="42.44977" lon="18.57374">
        <ele>48.547274</ele>
        <time>2022-05-31T11:46:24.546Z</time>
      </trkpt>
      <trkpt lat="42.44986" lon="18.5737">
        <ele>48.525016</ele>
        <time>2022-05-31T11:46:26.591Z</time>
      </trkpt>
      <trkpt lat="42.44995" lon="18.57366">
        <ele>48.502873</ele>
        <time>2022-05-31T11:46:28.547Z</time>
      </trkpt>
      <trkpt lat="42.45005" lon="18.57362">
        <ele>48.48083</ele>
        <time>2022-05-31T11:46:30.552Z</time>
      </trkpt>
      <trkpt lat="42.45014" lon="18.57358">
        <ele>48.458796</ele>
        <time>2022-05-31T11:46:32.544Z</time>
      </trkpt>
      <trkpt lat="42.45023" lon="18.57353">
        <ele>48.43665</ele>
        <time>2022-05-31T11:46:34.551Z</time>
      </trkpt>
      <trkpt lat="42.45032" lon="18.57348">
        <ele>48.413724</ele>
        <time>2022-05-31T11:46:36.541Z</time>
      </trkpt>
      <trkpt lat="42.45042" lon="18.57343">
        <ele>48.391024</ele>
        <time>2022-05-31T11:46:38.547Z</time>
      </trkpt>
      <trkpt lat="42.45051" lon="18.57337">
        <ele>48.368326</ele>
        <time>2022-05-31T11:46:40.537Z</time>
      </trkpt>
      <trkpt lat="42.45059" lon="18.5733">
        <ele>48.345718</ele>
        <time>2022-05-31T11:46:42.550Z</time>
      </trkpt>
      <trkpt lat="42.45067" lon="18.57323">
        <ele>48.323495</ele>
        <time>2022-05-31T11:46:44.557Z</time>
      </trkpt>
      <trkpt lat="42.45076" lon="18.57316">
        <ele>48.301833</ele>
        <time>2022-05-31T11:46:46.546Z</time>
      </trkpt>
      <trkpt lat="42.45083" lon="18.57309">
        <ele>48.281023</ele>
        <time>2022-05-31T11:46:48.549Z</time>
      </trkpt>
      <trkpt lat="42.45091" lon="18.57301">
        <ele>48.258892</ele>
        <time>2022-05-31T11:46:50.533Z</time>
      </trkpt>
      <trkpt lat="42.45099" lon="18.57293">
        <ele>48.236563</ele>
        <time>2022-05-31T11:46:52.554Z</time>
      </trkpt>
      <trkpt lat="42.45106" lon="18.57285">
        <ele>48.215376</ele>
        <time>2022-05-31T11:46:54.574Z</time>
      </trkpt>
      <trkpt lat="42.45113" lon="18.57276">
        <ele>48.193756</ele>
        <time>2022-05-31T11:46:56.547Z</time>
      </trkpt>
      <trkpt lat="42.45121" lon="18.57268">
        <ele>48.199172</ele>
        <time>2022-05-31T11:46:58.535Z</time>
      </trkpt>
      <trkpt lat="42.45127" lon="18.57259">
        <ele>48.384258</ele>
        <time>2022-05-31T11:47:00.530Z</time>
      </trkpt>
      <trkpt lat="42.45136" lon="18.57246">
        <ele>48.647001</ele>
        <time>2022-05-31T11:47:03.545Z</time>
      </trkpt>
      <trkpt lat="42.45142" lon="18.57236">
        <ele>48.829596</ele>
        <time>2022-05-31T11:47:05.577Z</time>
      </trkpt>
      <trkpt lat="42.45148" lon="18.57226">
        <ele>49.010375</ele>
        <time>2022-05-31T11:47:07.544Z</time>
      </trkpt>
      <trkpt lat="42.45153" lon="18.57216">
        <ele>49.197146</ele>
        <time>2022-05-31T11:47:09.544Z</time>
      </trkpt>
      <trkpt lat="42.45158" lon="18.57204">
        <ele>49.387071</ele>
        <time>2022-05-31T11:47:11.535Z</time>
      </trkpt>
      <trkpt lat="42.45162" lon="18.57193">
        <ele>49.57053</ele>
        <time>2022-05-31T11:47:13.548Z</time>
      </trkpt>
      <trkpt lat="42.45169" lon="18.57177">
        <ele>49.834136</ele>
        <time>2022-05-31T11:47:16.543Z</time>
      </trkpt>
      <trkpt lat="42.45173" lon="18.57166">
        <ele>50.019996</ele>
        <time>2022-05-31T11:47:18.582Z</time>
      </trkpt>
      <trkpt lat="42.45177" lon="18.57155">
        <ele>50.197155</ele>
        <time>2022-05-31T11:47:20.553Z</time>
      </trkpt>
      <trkpt lat="42.45181" lon="18.57144">
        <ele>50.37934</ele>
        <time>2022-05-31T11:47:22.538Z</time>
      </trkpt>
      <trkpt lat="42.45186" lon="18.57133">
        <ele>50.563895</ele>
        <time>2022-05-31T11:47:24.531Z</time>
      </trkpt>
      <trkpt lat="42.4519" lon="18.57122">
        <ele>50.747053</ele>
        <time>2022-05-31T11:47:26.549Z</time>
      </trkpt>
      <trkpt lat="42.45197" lon="18.57107">
        <ele>51.006332</ele>
        <time>2022-05-31T11:47:29.571Z</time>
      </trkpt>
      <trkpt lat="42.45202" lon="18.57096">
        <ele>51.193101</ele>
        <time>2022-05-31T11:47:31.549Z</time>
      </trkpt>
      <trkpt lat="42.45208" lon="18.57086">
        <ele>51.382068</ele>
        <time>2022-05-31T11:47:33.549Z</time>
      </trkpt>
      <trkpt lat="42.45214" lon="18.57076">
        <ele>51.571657</ele>
        <time>2022-05-31T11:47:35.536Z</time>
      </trkpt>
      <trkpt lat="42.45221" lon="18.57067">
        <ele>51.772293</ele>
        <time>2022-05-31T11:47:37.537Z</time>
      </trkpt>
      <trkpt lat="42.45228" lon="18.57058">
        <ele>52.016671</ele>
        <time>2022-05-31T11:47:39.571Z</time>
      </trkpt>
      <trkpt lat="42.45235" lon="18.5705">
        <ele>52.252186</ele>
        <time>2022-05-31T11:47:41.564Z</time>
      </trkpt>
      <trkpt lat="42.45242" lon="18.57043">
        <ele>52.486136</ele>
        <time>2022-05-31T11:47:43.555Z</time>
      </trkpt>
      <trkpt lat="42.45253" lon="18.57032">
        <ele>52.815766</ele>
        <time>2022-05-31T11:47:46.549Z</time>
      </trkpt>
      <trkpt lat="42.4526" lon="18.57025">
        <ele>53.051777</ele>
        <time>2022-05-31T11:47:48.530Z</time>
      </trkpt>
      <trkpt lat="42.45271" lon="18.57014">
        <ele>53.398293</ele>
        <time>2022-05-31T11:47:51.565Z</time>
      </trkpt>
      <trkpt lat="42.45279" lon="18.57007">
        <ele>53.634164</ele>
        <time>2022-05-31T11:47:53.545Z</time>
      </trkpt>
      <trkpt lat="42.45286" lon="18.56999">
        <ele>53.868372</ele>
        <time>2022-05-31T11:47:55.599Z</time>
      </trkpt>
      <trkpt lat="42.45296" lon="18.56989">
        <ele>54.188261</ele>
        <time>2022-05-31T11:47:58.532Z</time>
      </trkpt>
      <trkpt lat="42.45305" lon="18.56978">
        <ele>54.505147</ele>
        <time>2022-05-31T11:48:01.535Z</time>
      </trkpt>
      <trkpt lat="42.4531" lon="18.56965">
        <ele>54.771062</ele>
        <time>2022-05-31T11:48:04.562Z</time>
      </trkpt>
      <trkpt lat="42.45311" lon="18.5695">
        <ele>55.060809</ele>
        <time>2022-05-31T11:48:07.545Z</time>
      </trkpt>
      <trkpt lat="42.4532" lon="18.56939">
        <ele>55.367701</ele>
        <time>2022-05-31T11:48:10.522Z</time>
      </trkpt>
      <trkpt lat="42.45326" lon="18.56931">
        <ele>55.600735</ele>
        <time>2022-05-31T11:48:13.535Z</time>
      </trkpt>
      <trkpt lat="42.45334" lon="18.56921">
        <ele>55.865762</ele>
        <time>2022-05-31T11:48:17.537Z</time>
      </trkpt>
      <trkpt lat="42.45341" lon="18.56908">
        <ele>56.175169</ele>
        <time>2022-05-31T11:48:21.547Z</time>
      </trkpt>
      <trkpt lat="42.45347" lon="18.56895">
        <ele>56.465865</ele>
        <time>2022-05-31T11:48:25.545Z</time>
      </trkpt>
      <trkpt lat="42.4535" lon="18.56881">
        <ele>56.786288</ele>
        <time>2022-05-31T11:48:29.588Z</time>
      </trkpt>
      <trkpt lat="42.45353" lon="18.56866">
        <ele>57.117412</ele>
        <time>2022-05-31T11:48:33.609Z</time>
      </trkpt>
      <trkpt lat="42.45353" lon="18.56853">
        <ele>57.401254</ele>
        <time>2022-05-31T11:48:37.565Z</time>
      </trkpt>
      <trkpt lat="42.45351" lon="18.56839">
        <ele>57.697257</ele>
        <time>2022-05-31T11:48:41.548Z</time>
      </trkpt>
      <trkpt lat="42.45345" lon="18.56829">
        <ele>57.960221</ele>
        <time>2022-05-31T11:48:45.558Z</time>
      </trkpt>
      <trkpt lat="42.45336" lon="18.56824">
        <ele>58.249599</ele>
        <time>2022-05-31T11:48:51.545Z</time>
      </trkpt>
      <trkpt lat="42.45326" lon="18.56824">
        <ele>58.54754</ele>
        <time>2022-05-31T11:48:57.529Z</time>
      </trkpt>
      <trkpt lat="42.45315" lon="18.56825">
        <ele>58.848713</ele>
        <time>2022-05-31T11:49:02.521Z</time>
      </trkpt>
      <trkpt lat="42.45306" lon="18.5682">
        <ele>59.153894</ele>
        <time>2022-05-31T11:49:07.545Z</time>
      </trkpt>
      <trkpt lat="42.453" lon="18.56809">
        <ele>59.430403</ele>
        <time>2022-05-31T11:49:12.535Z</time>
      </trkpt>
      <trkpt lat="42.45297" lon="18.56797">
        <ele>59.691614</ele>
        <time>2022-05-31T11:49:18.513Z</time>
      </trkpt>
      <trkpt lat="42.45294" lon="18.56785">
        <ele>59.963116</ele>
        <time>2022-05-31T11:49:23.511Z</time>
      </trkpt>
      <trkpt lat="42.4529" lon="18.56773">
        <ele>60.253881</ele>
        <time>2022-05-31T11:49:28.518Z</time>
      </trkpt>
      <trkpt lat="42.45287" lon="18.56761">
        <ele>60.523573</ele>
        <time>2022-05-31T11:49:34.517Z</time>
      </trkpt>
      <trkpt lat="42.45286" lon="18.56747">
        <ele>60.830397</ele>
        <time>2022-05-31T11:49:42.520Z</time>
      </trkpt>
      <trkpt lat="42.45289" lon="18.56734">
        <ele>61.115726</ele>
        <time>2022-05-31T11:49:49.528Z</time>
      </trkpt>
      <trkpt lat="42.45292" lon="18.56721">
        <ele>61.408185</ele>
        <time>2022-05-31T11:49:55.528Z</time>
      </trkpt>
      <trkpt lat="42.45298" lon="18.56707">
        <ele>61.51258</ele>
        <time>2022-05-31T11:50:00.526Z</time>
      </trkpt>
      <trkpt lat="42.45304" lon="18.56694">
        <ele>61.452331</ele>
        <time>2022-05-31T11:50:04.525Z</time>
      </trkpt>
      <trkpt lat="42.45313" lon="18.56685">
        <ele>61.3917</ele>
        <time>2022-05-31T11:50:07.519Z</time>
      </trkpt>
      <trkpt lat="42.45324" lon="18.56675">
        <ele>61.319819</ele>
        <time>2022-05-31T11:50:10.519Z</time>
      </trkpt>
      <trkpt lat="42.45333" lon="18.56667">
        <ele>61.264103</ele>
        <time>2022-05-31T11:50:12.519Z</time>
      </trkpt>
      <trkpt lat="42.45341" lon="18.56658">
        <ele>61.209629</ele>
        <time>2022-05-31T11:50:14.520Z</time>
      </trkpt>
      <trkpt lat="42.45346" lon="18.56645">
        <ele>61.154878</ele>
        <time>2022-05-31T11:50:16.514Z</time>
      </trkpt>
      <trkpt lat="42.45345" lon="18.5663">
        <ele>61.0972</ele>
        <time>2022-05-31T11:50:18.527Z</time>
      </trkpt>
      <trkpt lat="42.45344" lon="18.56615">
        <ele>61.035475</ele>
        <time>2022-05-31T11:50:20.529Z</time>
      </trkpt>
      <trkpt lat="42.45342" lon="18.56602">
        <ele>60.9849</ele>
        <time>2022-05-31T11:50:22.514Z</time>
      </trkpt>
      <trkpt lat="42.45341" lon="18.56589">
        <ele>60.936347</ele>
        <time>2022-05-31T11:50:25.519Z</time>
      </trkpt>
      <trkpt lat="42.45342" lon="18.56576">
        <ele>60.883168</ele>
        <time>2022-05-31T11:50:29.520Z</time>
      </trkpt>
      <trkpt lat="42.45343" lon="18.5656">
        <ele>60.820418</ele>
        <time>2022-05-31T11:50:32.520Z</time>
      </trkpt>
      <trkpt lat="42.45347" lon="18.56545">
        <ele>60.757376</ele>
        <time>2022-05-31T11:50:35.525Z</time>
      </trkpt>
      <trkpt lat="42.45354" lon="18.56534">
        <ele>60.701784</ele>
        <time>2022-05-31T11:50:37.527Z</time>
      </trkpt>
      <trkpt lat="42.45361" lon="18.56527">
        <ele>60.653937</ele>
        <time>2022-05-31T11:50:39.528Z</time>
      </trkpt>
      <trkpt lat="42.45373" lon="18.56528">
        <ele>60.56394</ele>
        <time>2022-05-31T11:50:41.516Z</time>
      </trkpt>
      <trkpt lat="42.45386" lon="18.56532">
        <ele>59.967253</ele>
        <time>2022-05-31T11:50:43.537Z</time>
      </trkpt>
      <trkpt lat="42.454" lon="18.56538">
        <ele>59.360215</ele>
        <time>2022-05-31T11:50:45.549Z</time>
      </trkpt>
      <trkpt lat="42.45412" lon="18.56544">
        <ele>58.813762</ele>
        <time>2022-05-31T11:50:47.523Z</time>
      </trkpt>
      <trkpt lat="42.45425" lon="18.56546">
        <ele>58.246285</ele>
        <time>2022-05-31T11:50:49.530Z</time>
      </trkpt>
      <trkpt lat="42.4544" lon="18.56543">
        <ele>57.616878</ele>
        <time>2022-05-31T11:50:51.523Z</time>
      </trkpt>
      <trkpt lat="42.45451" lon="18.56538">
        <ele>57.104845</ele>
        <time>2022-05-31T11:50:53.523Z</time>
      </trkpt>
      <trkpt lat="42.45461" lon="18.56536">
        <ele>56.698698</ele>
        <time>2022-05-31T11:50:55.524Z</time>
      </trkpt>
      <trkpt lat="42.45473" lon="18.5653">
        <ele>56.144526</ele>
        <time>2022-05-31T11:50:58.517Z</time>
      </trkpt>
      <trkpt lat="42.45479" lon="18.56515">
        <ele>55.604799</ele>
        <time>2022-05-31T11:51:03.525Z</time>
      </trkpt>
      <trkpt lat="42.45476" lon="18.565">
        <ele>55.102841</ele>
        <time>2022-05-31T11:51:07.526Z</time>
      </trkpt>
      <trkpt lat="42.45471" lon="18.56488">
        <ele>54.689142</ele>
        <time>2022-05-31T11:51:09.536Z</time>
      </trkpt>
      <trkpt lat="42.45466" lon="18.56474">
        <ele>54.199188</ele>
        <time>2022-05-31T11:51:11.519Z</time>
      </trkpt>
      <trkpt lat="42.4546" lon="18.5646">
        <ele>53.663893</ele>
        <time>2022-05-31T11:51:13.522Z</time>
      </trkpt>
      <trkpt lat="42.45454" lon="18.56445">
        <ele>53.13665</ele>
        <time>2022-05-31T11:51:15.521Z</time>
      </trkpt>
      <trkpt lat="42.45449" lon="18.5643">
        <ele>52.759516</ele>
        <time>2022-05-31T11:51:17.516Z</time>
      </trkpt>
      <trkpt lat="42.45444" lon="18.56417">
        <ele>52.476763</ele>
        <time>2022-05-31T11:51:19.519Z</time>
      </trkpt>
      <trkpt lat="42.45441" lon="18.56405">
        <ele>52.240899</ele>
        <time>2022-05-31T11:51:21.517Z</time>
      </trkpt>
      <trkpt lat="42.45437" lon="18.56393">
        <ele>51.999832</ele>
        <time>2022-05-31T11:51:24.524Z</time>
      </trkpt>
      <trkpt lat="42.45433" lon="18.56381">
        <ele>51.7517</ele>
        <time>2022-05-31T11:51:27.523Z</time>
      </trkpt>
      <trkpt lat="42.45432" lon="18.56364">
        <ele>51.431424</ele>
        <time>2022-05-31T11:51:30.539Z</time>
      </trkpt>
      <trkpt lat="42.45433" lon="18.56349">
        <ele>51.143074</ele>
        <time>2022-05-31T11:51:33.524Z</time>
      </trkpt>
      <trkpt lat="42.45434" lon="18.56336">
        <ele>50.901423</ele>
        <time>2022-05-31T11:51:36.527Z</time>
      </trkpt>
      <trkpt lat="42.45433" lon="18.56318">
        <ele>50.57587</ele>
        <time>2022-05-31T11:51:41.531Z</time>
      </trkpt>
      <trkpt lat="42.45434" lon="18.56302">
        <ele>50.276431</ele>
        <time>2022-05-31T11:51:44.515Z</time>
      </trkpt>
      <trkpt lat="42.45436" lon="18.56285">
        <ele>49.943353</ele>
        <time>2022-05-31T11:51:47.523Z</time>
      </trkpt>
      <trkpt lat="42.45438" lon="18.56269">
        <ele>49.654292</ele>
        <time>2022-05-31T11:51:50.523Z</time>
      </trkpt>
      <trkpt lat="42.4544" lon="18.56254">
        <ele>49.363385</ele>
        <time>2022-05-31T11:51:53.516Z</time>
      </trkpt>
      <trkpt lat="42.45441" lon="18.56239">
        <ele>49.081314</ele>
        <time>2022-05-31T11:51:56.521Z</time>
      </trkpt>
      <trkpt lat="42.45443" lon="18.56225">
        <ele>48.807024</ele>
        <time>2022-05-31T11:51:59.523Z</time>
      </trkpt>
      <trkpt lat="42.45444" lon="18.56211">
        <ele>48.55823</ele>
        <time>2022-05-31T11:52:02.510Z</time>
      </trkpt>
      <trkpt lat="42.45445" lon="18.56198">
        <ele>48.426817</ele>
        <time>2022-05-31T11:52:05.524Z</time>
      </trkpt>
      <trkpt lat="42.45446" lon="18.56184">
        <ele>48.545694</ele>
        <time>2022-05-31T11:52:08.518Z</time>
      </trkpt>
      <trkpt lat="42.45446" lon="18.56168">
        <ele>48.682128</ele>
        <time>2022-05-31T11:52:11.524Z</time>
      </trkpt>
      <trkpt lat="42.45447" lon="18.56154">
        <ele>48.798362</ele>
        <time>2022-05-31T11:52:14.521Z</time>
      </trkpt>
      <trkpt lat="42.45447" lon="18.5614">
        <ele>48.921092</ele>
        <time>2022-05-31T11:52:18.520Z</time>
      </trkpt>
      <trkpt lat="42.45448" lon="18.56125">
        <ele>49.045562</ele>
        <time>2022-05-31T11:52:22.519Z</time>
      </trkpt>
      <trkpt lat="42.45448" lon="18.56111">
        <ele>49.16929</ele>
        <time>2022-05-31T11:52:25.526Z</time>
      </trkpt>
      <trkpt lat="42.45449" lon="18.56097">
        <ele>49.286287</ele>
        <time>2022-05-31T11:52:28.524Z</time>
      </trkpt>
      <trkpt lat="42.4545" lon="18.56083">
        <ele>49.407929</ele>
        <time>2022-05-31T11:52:32.513Z</time>
      </trkpt>
      <trkpt lat="42.45452" lon="18.56069">
        <ele>49.526074</ele>
        <time>2022-05-31T11:52:38.520Z</time>
      </trkpt>
      <trkpt lat="42.45453" lon="18.56057">
        <ele>49.632668</ele>
        <time>2022-05-31T11:52:42.514Z</time>
      </trkpt>
      <trkpt lat="42.45452" lon="18.56042">
        <ele>49.754765</ele>
        <time>2022-05-31T11:52:46.516Z</time>
      </trkpt>
      <trkpt lat="42.45453" lon="18.56026">
        <ele>49.890819</ele>
        <time>2022-05-31T11:52:50.525Z</time>
      </trkpt>
      <trkpt lat="42.45454" lon="18.56011">
        <ele>50.023194</ele>
        <time>2022-05-31T11:52:54.513Z</time>
      </trkpt>
      <trkpt lat="42.45455" lon="18.55997">
        <ele>50.145809</ele>
        <time>2022-05-31T11:52:57.532Z</time>
      </trkpt>
      <trkpt lat="42.45456" lon="18.55982">
        <ele>50.268837</ele>
        <time>2022-05-31T11:53:00.523Z</time>
      </trkpt>
      <trkpt lat="42.45455" lon="18.55967">
        <ele>50.39676</ele>
        <time>2022-05-31T11:53:03.521Z</time>
      </trkpt>
      <trkpt lat="42.45454" lon="18.55954">
        <ele>50.629835</ele>
        <time>2022-05-31T11:53:06.523Z</time>
      </trkpt>
      <trkpt lat="42.45451" lon="18.55939">
        <ele>51.141904</ele>
        <time>2022-05-31T11:53:10.542Z</time>
      </trkpt>
      <trkpt lat="42.45446" lon="18.55927">
        <ele>51.584878</ele>
        <time>2022-05-31T11:53:13.523Z</time>
      </trkpt>
      <trkpt lat="42.45442" lon="18.55915">
        <ele>52.029937</ele>
        <time>2022-05-31T11:53:16.521Z</time>
      </trkpt>
      <trkpt lat="42.4544" lon="18.55901">
        <ele>52.494184</ele>
        <time>2022-05-31T11:53:21.522Z</time>
      </trkpt>
      <trkpt lat="42.45434" lon="18.55888">
        <ele>52.986653</ele>
        <time>2022-05-31T11:53:26.532Z</time>
      </trkpt>
      <trkpt lat="42.45431" lon="18.55876">
        <ele>53.405711</ele>
        <time>2022-05-31T11:53:31.519Z</time>
      </trkpt>
      <trkpt lat="42.45428" lon="18.55863">
        <ele>53.846605</ele>
        <time>2022-05-31T11:53:36.515Z</time>
      </trkpt>
      <trkpt lat="42.45425" lon="18.55851">
        <ele>54.252057</ele>
        <time>2022-05-31T11:53:39.515Z</time>
      </trkpt>
      <trkpt lat="42.45414" lon="18.55849">
        <ele>54.750513</ele>
        <time>2022-05-31T11:53:44.528Z</time>
      </trkpt>
      <trkpt lat="42.45404" lon="18.55849">
        <ele>55.205175</ele>
        <time>2022-05-31T11:53:48.519Z</time>
      </trkpt>
      <trkpt lat="42.45395" lon="18.55848">
        <ele>55.638429</ele>
        <time>2022-05-31T11:53:52.531Z</time>
      </trkpt>
      <trkpt lat="42.45386" lon="18.55845">
        <ele>56.044831</ele>
        <time>2022-05-31T11:53:56.512Z</time>
      </trkpt>
      <trkpt lat="42.45375" lon="18.55843">
        <ele>56.525834</ele>
        <time>2022-05-31T11:54:01.519Z</time>
      </trkpt>
      <trkpt lat="42.45365" lon="18.55838">
        <ele>56.992425</ele>
        <time>2022-05-31T11:54:07.527Z</time>
      </trkpt>
      <trkpt lat="42.45356" lon="18.55833">
        <ele>57.426331</ele>
        <time>2022-05-31T11:54:13.522Z</time>
      </trkpt>
      <trkpt lat="42.45346" lon="18.55828">
        <ele>57.895013</ele>
        <time>2022-05-31T11:54:19.522Z</time>
      </trkpt>
      <trkpt lat="42.45337" lon="18.55824">
        <ele>58.315737</ele>
        <time>2022-05-31T11:54:25.516Z</time>
      </trkpt>
      <trkpt lat="42.45329" lon="18.55818">
        <ele>58.637245</ele>
        <time>2022-05-31T11:54:31.554Z</time>
      </trkpt>
      <trkpt lat="42.4532" lon="18.55809">
        <ele>58.926834</ele>
        <time>2022-05-31T11:54:38.515Z</time>
      </trkpt>
      <trkpt lat="42.45313" lon="18.55801">
        <ele>59.174232</ele>
        <time>2022-05-31T11:54:43.518Z</time>
      </trkpt>
      <trkpt lat="42.45304" lon="18.55791">
        <ele>59.490665</ele>
        <time>2022-05-31T11:54:49.529Z</time>
      </trkpt>
      <trkpt lat="42.45297" lon="18.5578">
        <ele>59.78748</ele>
        <time>2022-05-31T11:54:56.519Z</time>
      </trkpt>
      <trkpt lat="42.45292" lon="18.5577">
        <ele>60.042213</ele>
        <time>2022-05-31T11:55:02.511Z</time>
      </trkpt>
      <trkpt lat="42.45286" lon="18.55759">
        <ele>60.311809</ele>
        <time>2022-05-31T11:55:08.522Z</time>
      </trkpt>
      <trkpt lat="42.45281" lon="18.55746">
        <ele>60.599817</ele>
        <time>2022-05-31T11:55:14.518Z</time>
      </trkpt>
      <trkpt lat="42.45276" lon="18.55735">
        <ele>60.855765</ele>
        <time>2022-05-31T11:55:18.529Z</time>
      </trkpt>
      <trkpt lat="42.45271" lon="18.55724">
        <ele>61.127452</ele>
        <time>2022-05-31T11:55:22.514Z</time>
      </trkpt>
      <trkpt lat="42.45266" lon="18.55714">
        <ele>61.374797</ele>
        <time>2022-05-31T11:55:26.522Z</time>
      </trkpt>
      <trkpt lat="42.4526" lon="18.55702">
        <ele>61.66256</ele>
        <time>2022-05-31T11:55:31.525Z</time>
      </trkpt>
      <trkpt lat="42.45254" lon="18.5569">
        <ele>61.946505</ele>
        <time>2022-05-31T11:55:36.513Z</time>
      </trkpt>
      <trkpt lat="42.45248" lon="18.55678">
        <ele>62.251535</ele>
        <time>2022-05-31T11:55:41.525Z</time>
      </trkpt>
      <trkpt lat="42.45242" lon="18.55666">
        <ele>62.538831</ele>
        <time>2022-05-31T11:55:45.523Z</time>
      </trkpt>
      <trkpt lat="42.45235" lon="18.55656">
        <ele>62.820264</ele>
        <time>2022-05-31T11:55:49.524Z</time>
      </trkpt>
      <trkpt lat="42.45229" lon="18.55645">
        <ele>63.106</ele>
        <time>2022-05-31T11:55:53.526Z</time>
      </trkpt>
      <trkpt lat="42.45222" lon="18.55634">
        <ele>63.398085</ele>
        <time>2022-05-31T11:55:57.522Z</time>
      </trkpt>
      <trkpt lat="42.45215" lon="18.55623">
        <ele>63.943064</ele>
        <time>2022-05-31T11:56:01.524Z</time>
      </trkpt>
      <trkpt lat="42.45207" lon="18.55613">
        <ele>64.509637</ele>
        <time>2022-05-31T11:56:05.524Z</time>
      </trkpt>
      <trkpt lat="42.45201" lon="18.55602">
        <ele>65.007264</ele>
        <time>2022-05-31T11:56:09.528Z</time>
      </trkpt>
      <trkpt lat="42.45195" lon="18.55592">
        <ele>65.499293</ele>
        <time>2022-05-31T11:56:13.513Z</time>
      </trkpt>
      <trkpt lat="42.4519" lon="18.55581">
        <ele>65.995405</ele>
        <time>2022-05-31T11:56:17.524Z</time>
      </trkpt>
      <trkpt lat="42.45186" lon="18.55568">
        <ele>66.550371</ele>
        <time>2022-05-31T11:56:22.527Z</time>
      </trkpt>
      <trkpt lat="42.45183" lon="18.55556">
        <ele>67.028448</ele>
        <time>2022-05-31T11:56:26.517Z</time>
      </trkpt>
      <trkpt lat="42.45181" lon="18.55541">
        <ele>67.596491</ele>
        <time>2022-05-31T11:56:31.519Z</time>
      </trkpt>
      <trkpt lat="42.45179" lon="18.55528">
        <ele>68.098439</ele>
        <time>2022-05-31T11:56:35.516Z</time>
      </trkpt>
      <trkpt lat="42.45177" lon="18.55515">
        <ele>68.621022</ele>
        <time>2022-05-31T11:56:39.513Z</time>
      </trkpt>
      <trkpt lat="42.45175" lon="18.555">
        <ele>69.203448</ele>
        <time>2022-05-31T11:56:44.520Z</time>
      </trkpt>
      <trkpt lat="42.45174" lon="18.55485">
        <ele>69.764446</ele>
        <time>2022-05-31T11:56:49.509Z</time>
      </trkpt>
      <trkpt lat="42.45171" lon="18.55473">
        <ele>70.255897</ele>
        <time>2022-05-31T11:56:53.526Z</time>
      </trkpt>
      <trkpt lat="42.4517" lon="18.55459">
        <ele>70.806895</ele>
        <time>2022-05-31T11:56:57.522Z</time>
      </trkpt>
      <trkpt lat="42.45168" lon="18.55446">
        <ele>71.315223</ele>
        <time>2022-05-31T11:57:02.517Z</time>
      </trkpt>
      <trkpt lat="42.45167" lon="18.55432">
        <ele>71.829288</ele>
        <time>2022-05-31T11:57:07.513Z</time>
      </trkpt>
      <trkpt lat="42.45164" lon="18.55419">
        <ele>72.336956</ele>
        <time>2022-05-31T11:57:13.518Z</time>
      </trkpt>
      <trkpt lat="42.45163" lon="18.55406">
        <ele>72.762999</ele>
        <time>2022-05-31T11:57:19.516Z</time>
      </trkpt>
      <trkpt lat="42.45162" lon="18.5539">
        <ele>73.078803</ele>
        <time>2022-05-31T11:57:25.515Z</time>
      </trkpt>
      <trkpt lat="42.4516" lon="18.55378">
        <ele>73.32224</ele>
        <time>2022-05-31T11:57:29.515Z</time>
      </trkpt>
      <trkpt lat="42.45157" lon="18.55365">
        <ele>73.593592</ele>
        <time>2022-05-31T11:57:33.529Z</time>
      </trkpt>
      <trkpt lat="42.45153" lon="18.55351">
        <ele>73.88699</ele>
        <time>2022-05-31T11:57:37.523Z</time>
      </trkpt>
      <trkpt lat="42.45148" lon="18.5534">
        <ele>74.147187</ele>
        <time>2022-05-31T11:57:41.521Z</time>
      </trkpt>
      <trkpt lat="42.45139" lon="18.55329">
        <ele>74.460005</ele>
        <time>2022-05-31T11:57:46.521Z</time>
      </trkpt>
      <trkpt lat="42.45131" lon="18.5532">
        <ele>74.749922</ele>
        <time>2022-05-31T11:57:49.522Z</time>
      </trkpt>
      <trkpt lat="42.45123" lon="18.55313">
        <ele>74.99443</ele>
        <time>2022-05-31T11:57:51.546Z</time>
      </trkpt>
      <trkpt lat="42.45115" lon="18.55306">
        <ele>75.26107</ele>
        <time>2022-05-31T11:57:53.524Z</time>
      </trkpt>
      <trkpt lat="42.45106" lon="18.55296">
        <ele>75.567201</ele>
        <time>2022-05-31T11:57:55.532Z</time>
      </trkpt>
      <trkpt lat="42.45099" lon="18.55285">
        <ele>75.864036</ele>
        <time>2022-05-31T11:57:57.517Z</time>
      </trkpt>
      <trkpt lat="42.45094" lon="18.55274">
        <ele>76.117449</ele>
        <time>2022-05-31T11:57:59.514Z</time>
      </trkpt>
      <trkpt lat="42.4509" lon="18.55261">
        <ele>76.393417</ele>
        <time>2022-05-31T11:58:02.521Z</time>
      </trkpt>
      <trkpt lat="42.45087" lon="18.55247">
        <ele>76.684002</ele>
        <time>2022-05-31T11:58:05.535Z</time>
      </trkpt>
      <trkpt lat="42.45084" lon="18.55234">
        <ele>76.950755</ele>
        <time>2022-05-31T11:58:08.524Z</time>
      </trkpt>
      <trkpt lat="42.45081" lon="18.5522">
        <ele>77.243241</ele>
        <time>2022-05-31T11:58:11.526Z</time>
      </trkpt>
      <trkpt lat="42.45077" lon="18.55205">
        <ele>77.455296</ele>
        <time>2022-05-31T11:58:14.517Z</time>
      </trkpt>
      <trkpt lat="42.45073" lon="18.55192">
        <ele>77.306786</ele>
        <time>2022-05-31T11:58:17.516Z</time>
      </trkpt>
      <trkpt lat="42.45069" lon="18.55179">
        <ele>77.163123</ele>
        <time>2022-05-31T11:58:20.523Z</time>
      </trkpt>
      <trkpt lat="42.45064" lon="18.55167">
        <ele>77.029944</ele>
        <time>2022-05-31T11:58:23.529Z</time>
      </trkpt>
      <trkpt lat="42.4506" lon="18.55155">
        <ele>76.892499</ele>
        <time>2022-05-31T11:58:26.517Z</time>
      </trkpt>
      <trkpt lat="42.45056" lon="18.55144">
        <ele>76.762366</ele>
        <time>2022-05-31T11:58:29.523Z</time>
      </trkpt>
      <trkpt lat="42.45053" lon="18.55132">
        <ele>76.638258</ele>
        <time>2022-05-31T11:58:32.523Z</time>
      </trkpt>
      <trkpt lat="42.45052" lon="18.5512">
        <ele>76.510445</ele>
        <time>2022-05-31T11:58:35.528Z</time>
      </trkpt>
      <trkpt lat="42.45052" lon="18.55105">
        <ele>76.365763</ele>
        <time>2022-05-31T11:58:38.514Z</time>
      </trkpt>
      <trkpt lat="42.45053" lon="18.55092">
        <ele>76.229402</ele>
        <time>2022-05-31T11:58:41.516Z</time>
      </trkpt>
      <trkpt lat="42.45054" lon="18.55079">
        <ele>76.09332</ele>
        <time>2022-05-31T11:58:44.526Z</time>
      </trkpt>
      <trkpt lat="42.45056" lon="18.55066">
        <ele>75.957019</ele>
        <time>2022-05-31T11:58:47.526Z</time>
      </trkpt>
      <trkpt lat="42.45057" lon="18.55051">
        <ele>75.806328</ele>
        <time>2022-05-31T11:58:51.526Z</time>
      </trkpt>
      <trkpt lat="42.45058" lon="18.55035">
        <ele>75.64607</ele>
        <time>2022-05-31T11:58:55.528Z</time>
      </trkpt>
      <trkpt lat="42.45057" lon="18.55022">
        <ele>75.510109</ele>
        <time>2022-05-31T11:58:59.517Z</time>
      </trkpt>
      <trkpt lat="42.45055" lon="18.55008">
        <ele>75.368783</ele>
        <time>2022-05-31T11:59:03.584Z</time>
      </trkpt>
      <trkpt lat="42.45054" lon="18.54994">
        <ele>75.222985</ele>
        <time>2022-05-31T11:59:07.551Z</time>
      </trkpt>
      <trkpt lat="42.45052" lon="18.54981">
        <ele>75.083207</ele>
        <time>2022-05-31T11:59:11.564Z</time>
      </trkpt>
      <trkpt lat="42.45052" lon="18.54967">
        <ele>75.165748</ele>
        <time>2022-05-31T11:59:15.548Z</time>
      </trkpt>
      <trkpt lat="42.45055" lon="18.54953">
        <ele>75.611183</ele>
        <time>2022-05-31T11:59:19.558Z</time>
      </trkpt>
      <trkpt lat="42.45058" lon="18.54939">
        <ele>76.048848</ele>
        <time>2022-05-31T11:59:23.557Z</time>
      </trkpt>
      <trkpt lat="42.45062" lon="18.54926">
        <ele>76.45732</ele>
        <time>2022-05-31T11:59:27.540Z</time>
      </trkpt>
      <trkpt lat="42.45066" lon="18.54915">
        <ele>76.826121</ele>
        <time>2022-05-31T11:59:31.559Z</time>
      </trkpt>
      <trkpt lat="42.45069" lon="18.54903">
        <ele>77.194975</ele>
        <time>2022-05-31T11:59:35.544Z</time>
      </trkpt>
      <trkpt lat="42.45072" lon="18.54889">
        <ele>77.644532</ele>
        <time>2022-05-31T11:59:39.584Z</time>
      </trkpt>
      <trkpt lat="42.45074" lon="18.54877">
        <ele>78.007105</ele>
        <time>2022-05-31T11:59:42.554Z</time>
      </trkpt>
      <trkpt lat="42.45075" lon="18.54864">
        <ele>78.403161</ele>
        <time>2022-05-31T11:59:46.566Z</time>
      </trkpt>
      <trkpt lat="42.45078" lon="18.54851">
        <ele>78.791022</ele>
        <time>2022-05-31T11:59:50.544Z</time>
      </trkpt>
      <trkpt lat="42.45081" lon="18.54839">
        <ele>79.167353</ele>
        <time>2022-05-31T11:59:54.556Z</time>
      </trkpt>
      <trkpt lat="42.45088" lon="18.54828">
        <ele>79.613217</ele>
        <time>2022-05-31T11:59:58.585Z</time>
      </trkpt>
      <trkpt lat="42.45095" lon="18.54815">
        <ele>80.090083</ele>
        <time>2022-05-31T12:00:02.579Z</time>
      </trkpt>
      <trkpt lat="42.451" lon="18.54802">
        <ele>80.53831</ele>
        <time>2022-05-31T12:00:06.549Z</time>
      </trkpt>
      <trkpt lat="42.45103" lon="18.54789">
        <ele>80.914269</ele>
        <time>2022-05-31T12:00:09.545Z</time>
      </trkpt>
      <trkpt lat="42.45102" lon="18.54774">
        <ele>81.383537</ele>
        <time>2022-05-31T12:00:13.547Z</time>
      </trkpt>
      <trkpt lat="42.45102" lon="18.54758">
        <ele>81.842133</ele>
        <time>2022-05-31T12:00:17.549Z</time>
      </trkpt>
      <trkpt lat="42.45099" lon="18.54744">
        <ele>82.260532</ele>
        <time>2022-05-31T12:00:21.565Z</time>
      </trkpt>
      <trkpt lat="42.45097" lon="18.5473">
        <ele>82.261554</ele>
        <time>2022-05-31T12:00:25.537Z</time>
      </trkpt>
      <trkpt lat="42.45095" lon="18.54718">
        <ele>82.261554</ele>
        <time>2022-05-31T12:00:28.535Z</time>
      </trkpt>
      <trkpt lat="42.45094" lon="18.54706">
        <ele>82.261554</ele>
        <time>2022-05-31T12:00:31.549Z</time>
      </trkpt>
      <trkpt lat="42.45095" lon="18.54691">
        <ele>82.261554</ele>
        <time>2022-05-31T12:00:35.547Z</time>
      </trkpt>
      <trkpt lat="42.45096" lon="18.54677">
        <ele>82.261554</ele>
        <time>2022-05-31T12:00:39.539Z</time>
      </trkpt>
      <trkpt lat="42.45097" lon="18.54663">
        <ele>82.261554</ele>
        <time>2022-05-31T12:00:43.550Z</time>
      </trkpt>
      <trkpt lat="42.45099" lon="18.54648">
        <ele>82.261554</ele>
        <time>2022-05-31T12:00:47.542Z</time>
      </trkpt>
      <trkpt lat="42.45101" lon="18.54634">
        <ele>82.261554</ele>
        <time>2022-05-31T12:00:51.530Z</time>
      </trkpt>
      <trkpt lat="42.45103" lon="18.5462">
        <ele>82.261554</ele>
        <time>2022-05-31T12:00:55.551Z</time>
      </trkpt>
      <trkpt lat="42.45104" lon="18.54608">
        <ele>82.261554</ele>
        <time>2022-05-31T12:00:59.542Z</time>
      </trkpt>
      <trkpt lat="42.45105" lon="18.54594">
        <ele>82.261554</ele>
        <time>2022-05-31T12:01:03.550Z</time>
      </trkpt>
      <trkpt lat="42.45108" lon="18.54577">
        <ele>82.261554</ele>
        <time>2022-05-31T12:01:07.537Z</time>
      </trkpt>
      <trkpt lat="42.45109" lon="18.54563">
        <ele>82.261554</ele>
        <time>2022-05-31T12:01:10.545Z</time>
      </trkpt>
      <trkpt lat="42.4511" lon="18.54551">
        <ele>82.261554</ele>
        <time>2022-05-31T12:01:13.549Z</time>
      </trkpt>
      <trkpt lat="42.45111" lon="18.54535">
        <ele>82.261554</ele>
        <time>2022-05-31T12:01:17.531Z</time>
      </trkpt>
      <trkpt lat="42.45113" lon="18.54522">
        <ele>82.261554</ele>
        <time>2022-05-31T12:01:21.560Z</time>
      </trkpt>
      <trkpt lat="42.45115" lon="18.54508">
        <ele>82.261554</ele>
        <time>2022-05-31T12:01:25.536Z</time>
      </trkpt>
      <trkpt lat="42.45118" lon="18.54494">
        <ele>82.261554</ele>
        <time>2022-05-31T12:01:31.543Z</time>
      </trkpt>
      <trkpt lat="42.45125" lon="18.54486">
        <ele>82.261554</ele>
        <time>2022-05-31T12:01:38.543Z</time>
      </trkpt>
      <trkpt lat="42.45128" lon="18.54487">
        <ele>82.261554</ele>
        <time>2022-05-31T12:03:09.382Z</time>
      </trkpt>
    </trkseg>
  </trk>
</gpx>